<?xml version='1.0' encoding='UTF-8'?><gpx version="1.1" creator="JPX - https://github.com/jenetics/jpx" xmlns="http://www.topografix.com/GPX/1/1"><trk><trkseg><trkpt lat="42.1054409" lon="14.7008031"><ele>158.00000000000003</ele><time>2026-04-26T07:52:25.34Z</time></trkpt><trkpt lat="42.1054987" lon="14.7008375"><ele>158.0</ele><time>2026-04-26T07:52:26.34Z</time></trkpt><trkpt lat="42.1055593" lon="14.7008787"><ele>158.0</ele><time>2026-04-26T07:52:27.339Z</time></trkpt><trkpt lat="42.1056217" lon="14.7009215"><ele>158.0</ele><time>2026-04-26T07:52:28.339Z</time></trkpt><trkpt lat="42.1056892" lon="14.7009626"><ele>158.0</ele><time>2026-04-26T07:52:29.339Z</time></trkpt><trkpt lat="42.1057607" lon="14.7010037"><ele>158.00000000000003</ele><time>2026-04-26T07:52:30.341Z</time></trkpt><trkpt lat="42.1058415" lon="14.7010547"><ele>158.0</ele><time>2026-04-26T07:52:31.34Z</time></trkpt><trkpt lat="42.1059264" lon="14.7011106"><ele>158.0</ele><time>2026-04-26T07:52:32.34Z</time></trkpt><trkpt lat="42.1060053" lon="14.7011645"><ele>158.0</ele><time>2026-04-26T07:52:33.34Z</time></trkpt><trkpt lat="42.1060873" lon="14.7012128"><ele>158.0</ele><time>2026-04-26T07:52:34.34Z</time></trkpt><trkpt lat="42.1061948" lon="14.70127"><ele>158.0</ele><time>2026-04-26T07:52:35.341Z</time></trkpt><trkpt lat="42.1063052" lon="14.7013406"><ele>158.0</ele><time>2026-04-26T07:52:36.34Z</time></trkpt><trkpt lat="42.106404" lon="14.7014045"><ele>158.0</ele><time>2026-04-26T07:52:37.34Z</time></trkpt><trkpt lat="42.106512" lon="14.7014666"><ele>158.0</ele><time>2026-04-26T07:52:38.34Z</time></trkpt><trkpt lat="42.1066331" lon="14.7015356"><ele>158.0</ele><time>2026-04-26T07:52:39.34Z</time></trkpt><trkpt lat="42.1067458" lon="14.7015955"><ele>158.0</ele><time>2026-04-26T07:52:40.339Z</time></trkpt><trkpt lat="42.1068424" lon="14.7016343"><ele>158.16666666666666</ele><time>2026-04-26T07:52:41.34Z</time></trkpt><trkpt lat="42.1069223" lon="14.7016577"><ele>158.33333333333331</ele><time>2026-04-26T07:52:42.339Z</time></trkpt><trkpt lat="42.1070142" lon="14.7016822"><ele>158.5</ele><time>2026-04-26T07:52:44.34Z</time></trkpt><trkpt lat="42.1071024" lon="14.7017435"><ele>158.66666666666666</ele><time>2026-04-26T07:52:50.34Z</time></trkpt><trkpt lat="42.1071356" lon="14.7018207"><ele>158.83333333333334</ele><time>2026-04-26T07:52:51.34Z</time></trkpt><trkpt lat="42.107164" lon="14.7019121"><ele>159.0</ele><time>2026-04-26T07:52:52.339Z</time></trkpt><trkpt lat="42.1071894" lon="14.702004"><ele>159.0</ele><time>2026-04-26T07:52:53.34Z</time></trkpt><trkpt lat="42.1072124" lon="14.7020957"><ele>159.0</ele><time>2026-04-26T07:52:54.339Z</time></trkpt><trkpt lat="42.107235" lon="14.7021916"><ele>159.0</ele><time>2026-04-26T07:52:55.34Z</time></trkpt><trkpt lat="42.1072507" lon="14.7022991"><ele>159.0</ele><time>2026-04-26T07:52:56.34Z</time></trkpt><trkpt lat="42.1072671" lon="14.7024059"><ele>159.0</ele><time>2026-04-26T07:52:57.34Z</time></trkpt><trkpt lat="42.1073" lon="14.702502"><ele>159.0</ele><time>2026-04-26T07:52:58.339Z</time></trkpt><trkpt lat="42.1073485" lon="14.7025799"><ele>158.6</ele><time>2026-04-26T07:52:59.339Z</time></trkpt><trkpt lat="42.1074141" lon="14.7026257"><ele>158.2</ele><time>2026-04-26T07:53:00.34Z</time></trkpt><trkpt lat="42.1074885" lon="14.702642"><ele>157.79999999999998</ele><time>2026-04-26T07:53:01.34Z</time></trkpt><trkpt lat="42.1075699" lon="14.7026346"><ele>157.4</ele><time>2026-04-26T07:53:02.34Z</time></trkpt><trkpt lat="42.1076695" lon="14.7025982"><ele>157.0</ele><time>2026-04-26T07:53:03.34Z</time></trkpt><trkpt lat="42.1077899" lon="14.7025502"><ele>157.0</ele><time>2026-04-26T07:53:04.34Z</time></trkpt><trkpt lat="42.1079046" lon="14.7025093"><ele>157.0</ele><time>2026-04-26T07:53:05.34Z</time></trkpt><trkpt lat="42.1080364" lon="14.7024691"><ele>157.0</ele><time>2026-04-26T07:53:06.339Z</time></trkpt><trkpt lat="42.1081722" lon="14.7024324"><ele>157.0</ele><time>2026-04-26T07:53:07.34Z</time></trkpt><trkpt lat="42.1083118" lon="14.7024013"><ele>157.25</ele><time>2026-04-26T07:53:08.34Z</time></trkpt><trkpt lat="42.1084448" lon="14.7023698"><ele>157.5</ele><time>2026-04-26T07:53:09.34Z</time></trkpt><trkpt lat="42.1085795" lon="14.7023314"><ele>157.75</ele><time>2026-04-26T07:53:10.34Z</time></trkpt><trkpt lat="42.1087078" lon="14.7022929"><ele>158.0</ele><time>2026-04-26T07:53:11.34Z</time></trkpt><trkpt lat="42.1088321" lon="14.7022529"><ele>158.0</ele><time>2026-04-26T07:53:12.34Z</time></trkpt><trkpt lat="42.1089512" lon="14.7022082"><ele>158.0</ele><time>2026-04-26T07:53:13.34Z</time></trkpt><trkpt lat="42.1090653" lon="14.7021608"><ele>158.0</ele><time>2026-04-26T07:53:14.34Z</time></trkpt><trkpt lat="42.1091784" lon="14.7021173"><ele>158.0</ele><time>2026-04-26T07:53:15.34Z</time></trkpt><trkpt lat="42.1092919" lon="14.7020695"><ele>158.5</ele><time>2026-04-26T07:53:16.34Z</time></trkpt><trkpt lat="42.1094063" lon="14.7020156"><ele>159.0</ele><time>2026-04-26T07:53:17.339Z</time></trkpt><trkpt lat="42.1095255" lon="14.7019515"><ele>159.5</ele><time>2026-04-26T07:53:18.34Z</time></trkpt><trkpt lat="42.1096485" lon="14.7018857"><ele>160.0</ele><time>2026-04-26T07:53:19.34Z</time></trkpt><trkpt lat="42.1097628" lon="14.7018211"><ele>158.0</ele><time>2026-04-26T07:53:20.34Z</time></trkpt><trkpt lat="42.1098741" lon="14.7017564"><ele>156.0</ele><time>2026-04-26T07:53:21.34Z</time></trkpt><trkpt lat="42.1099798" lon="14.7017047"><ele>154.0</ele><time>2026-04-26T07:53:22.339Z</time></trkpt><trkpt lat="42.110081" lon="14.7016557"><ele>152.0</ele><time>2026-04-26T07:53:23.34Z</time></trkpt><trkpt lat="42.1102038" lon="14.7015907"><ele>151.5</ele><time>2026-04-26T07:53:24.339Z</time></trkpt><trkpt lat="42.1103416" lon="14.701514"><ele>151.0</ele><time>2026-04-26T07:53:25.339Z</time></trkpt><trkpt lat="42.1104791" lon="14.7014392"><ele>150.5</ele><time>2026-04-26T07:53:26.339Z</time></trkpt><trkpt lat="42.110604" lon="14.7013722"><ele>150.0</ele><time>2026-04-26T07:53:27.341Z</time></trkpt><trkpt lat="42.1107145" lon="14.7013103"><ele>149.0</ele><time>2026-04-26T07:53:28.34Z</time></trkpt><trkpt lat="42.1108079" lon="14.7012572"><ele>148.0</ele><time>2026-04-26T07:53:29.341Z</time></trkpt><trkpt lat="42.1108981" lon="14.70122"><ele>147.0</ele><time>2026-04-26T07:53:30.341Z</time></trkpt><trkpt lat="42.1110039" lon="14.7011859"><ele>146.0</ele><time>2026-04-26T07:53:31.34Z</time></trkpt><trkpt lat="42.1111096" lon="14.7011366"><ele>145.0</ele><time>2026-04-26T07:53:32.339Z</time></trkpt><trkpt lat="42.1112282" lon="14.7010615"><ele>145.0</ele><time>2026-04-26T07:53:33.34Z</time></trkpt><trkpt lat="42.1113687" lon="14.7009896"><ele>145.0</ele><time>2026-04-26T07:53:34.34Z</time></trkpt><trkpt lat="42.1115289" lon="14.7009202"><ele>145.0</ele><time>2026-04-26T07:53:35.34Z</time></trkpt><trkpt lat="42.1116891" lon="14.7008597"><ele>146.25</ele><time>2026-04-26T07:53:36.341Z</time></trkpt><trkpt lat="42.1118325" lon="14.7008179"><ele>147.5</ele><time>2026-04-26T07:53:37.341Z</time></trkpt><trkpt lat="42.1119761" lon="14.700775"><ele>148.75</ele><time>2026-04-26T07:53:38.34Z</time></trkpt><trkpt lat="42.1121109" lon="14.7007277"><ele>150.0</ele><time>2026-04-26T07:53:39.339Z</time></trkpt><trkpt lat="42.1122406" lon="14.7006879"><ele>150.0</ele><time>2026-04-26T07:53:40.34Z</time></trkpt><trkpt lat="42.1123637" lon="14.7006586"><ele>150.0</ele><time>2026-04-26T07:53:41.34Z</time></trkpt><trkpt lat="42.1124872" lon="14.7006281"><ele>150.0</ele><time>2026-04-26T07:53:42.34Z</time></trkpt><trkpt lat="42.11261" lon="14.7005955"><ele>150.0</ele><time>2026-04-26T07:53:43.34Z</time></trkpt><trkpt lat="42.1127368" lon="14.7005615"><ele>151.0</ele><time>2026-04-26T07:53:44.34Z</time></trkpt><trkpt lat="42.1128654" lon="14.7005265"><ele>152.0</ele><time>2026-04-26T07:53:45.34Z</time></trkpt><trkpt lat="42.113001" lon="14.7004769"><ele>153.0</ele><time>2026-04-26T07:53:46.34Z</time></trkpt><trkpt lat="42.1131569" lon="14.7004297"><ele>154.0</ele><time>2026-04-26T07:53:47.34Z</time></trkpt><trkpt lat="42.1133341" lon="14.7003784"><ele>155.66666666666669</ele><time>2026-04-26T07:53:48.339Z</time></trkpt><trkpt lat="42.1135314" lon="14.7003241"><ele>157.33333333333334</ele><time>2026-04-26T07:53:49.34Z</time></trkpt><trkpt lat="42.1137173" lon="14.7002805"><ele>159.0</ele><time>2026-04-26T07:53:50.341Z</time></trkpt><trkpt lat="42.1139283" lon="14.7002109"><ele>155.66666666666666</ele><time>2026-04-26T07:53:51.34Z</time></trkpt><trkpt lat="42.1141222" lon="14.7001685"><ele>152.33333333333331</ele><time>2026-04-26T07:53:52.34Z</time></trkpt><trkpt lat="42.1143298" lon="14.7001133"><ele>149.0</ele><time>2026-04-26T07:53:53.34Z</time></trkpt><trkpt lat="42.1145339" lon="14.7000588"><ele>149.0</ele><time>2026-04-26T07:53:54.34Z</time></trkpt><trkpt lat="42.1147287" lon="14.7000157"><ele>149.0</ele><time>2026-04-26T07:53:55.34Z</time></trkpt><trkpt lat="42.1149183" lon="14.6999815"><ele>149.0</ele><time>2026-04-26T07:53:56.34Z</time></trkpt><trkpt lat="42.1150994" lon="14.6999581"><ele>150.66666666666666</ele><time>2026-04-26T07:53:57.339Z</time></trkpt><trkpt lat="42.1152669" lon="14.69995"><ele>152.33333333333334</ele><time>2026-04-26T07:53:58.34Z</time></trkpt><trkpt lat="42.1154264" lon="14.6999502"><ele>154.0</ele><time>2026-04-26T07:53:59.34Z</time></trkpt><trkpt lat="42.1155729" lon="14.6999585"><ele>154.0</ele><time>2026-04-26T07:54:00.34Z</time></trkpt><trkpt lat="42.1157097" lon="14.699975"><ele>154.0</ele><time>2026-04-26T07:54:01.34Z</time></trkpt><trkpt lat="42.1158427" lon="14.6999962"><ele>154.0</ele><time>2026-04-26T07:54:02.34Z</time></trkpt><trkpt lat="42.115967" lon="14.7000282"><ele>154.0</ele><time>2026-04-26T07:54:03.339Z</time></trkpt><trkpt lat="42.11609" lon="14.7000641"><ele>154.25</ele><time>2026-04-26T07:54:04.34Z</time></trkpt><trkpt lat="42.1162082" lon="14.7001047"><ele>154.5</ele><time>2026-04-26T07:54:05.34Z</time></trkpt><trkpt lat="42.1163241" lon="14.7001534"><ele>154.75</ele><time>2026-04-26T07:54:06.34Z</time></trkpt><trkpt lat="42.1164364" lon="14.7002068"><ele>155.0</ele><time>2026-04-26T07:54:07.34Z</time></trkpt><trkpt lat="42.1165413" lon="14.7002616"><ele>154.8</ele><time>2026-04-26T07:54:08.34Z</time></trkpt><trkpt lat="42.1166424" lon="14.7003181"><ele>154.6</ele><time>2026-04-26T07:54:09.339Z</time></trkpt><trkpt lat="42.1167385" lon="14.7003752"><ele>154.4</ele><time>2026-04-26T07:54:10.339Z</time></trkpt><trkpt lat="42.1168153" lon="14.7004347"><ele>154.2</ele><time>2026-04-26T07:54:11.34Z</time></trkpt><trkpt lat="42.1168826" lon="14.7005241"><ele>154.0</ele><time>2026-04-26T07:54:12.34Z</time></trkpt><trkpt lat="42.1169467" lon="14.7006227"><ele>154.0</ele><time>2026-04-26T07:54:13.34Z</time></trkpt><trkpt lat="42.1170032" lon="14.7007399"><ele>154.0</ele><time>2026-04-26T07:54:14.34Z</time></trkpt><trkpt lat="42.1170427" lon="14.7008737"><ele>154.0</ele><time>2026-04-26T07:54:15.34Z</time></trkpt><trkpt lat="42.1170666" lon="14.7010217"><ele>154.0</ele><time>2026-04-26T07:54:16.34Z</time></trkpt><trkpt lat="42.1170758" lon="14.7011712"><ele>154.0</ele><time>2026-04-26T07:54:17.34Z</time></trkpt><trkpt lat="42.1170676" lon="14.7013286"><ele>153.75</ele><time>2026-04-26T07:54:18.34Z</time></trkpt><trkpt lat="42.1170456" lon="14.7014927"><ele>153.5</ele><time>2026-04-26T07:54:19.34Z</time></trkpt><trkpt lat="42.1170152" lon="14.7016589"><ele>153.25</ele><time>2026-04-26T07:54:20.34Z</time></trkpt><trkpt lat="42.1169844" lon="14.7018231"><ele>153.0</ele><time>2026-04-26T07:54:21.34Z</time></trkpt><trkpt lat="42.1169566" lon="14.7019759"><ele>153.0</ele><time>2026-04-26T07:54:22.34Z</time></trkpt><trkpt lat="42.1169353" lon="14.7021086"><ele>153.0</ele><time>2026-04-26T07:54:23.34Z</time></trkpt><trkpt lat="42.1169152" lon="14.7022164"><ele>153.0</ele><time>2026-04-26T07:54:24.34Z</time></trkpt><trkpt lat="42.1168955" lon="14.7023074"><ele>153.0</ele><time>2026-04-26T07:54:25.34Z</time></trkpt><trkpt lat="42.1168812" lon="14.7023995"><ele>153.0</ele><time>2026-04-26T07:54:26.34Z</time></trkpt><trkpt lat="42.1168693" lon="14.702487"><ele>153.0</ele><time>2026-04-26T07:54:27.34Z</time></trkpt><trkpt lat="42.1168461" lon="14.70261"><ele>153.0</ele><time>2026-04-26T07:54:29.339Z</time></trkpt><trkpt lat="42.1168388" lon="14.7026957"><ele>153.0</ele><time>2026-04-26T07:54:31.34Z</time></trkpt><trkpt lat="42.1168325" lon="14.702781"><ele>153.0</ele><time>2026-04-26T07:54:33.34Z</time></trkpt><trkpt lat="42.1168053" lon="14.7028738"><ele>153.0</ele><time>2026-04-26T07:54:36.34Z</time></trkpt><trkpt lat="42.1167626" lon="14.7029504"><ele>153.0</ele><time>2026-04-26T07:54:38.34Z</time></trkpt><trkpt lat="42.1167357" lon="14.7030746"><ele>153.0</ele><time>2026-04-26T07:54:40.339Z</time></trkpt><trkpt lat="42.1167927" lon="14.703143"><ele>153.0</ele><time>2026-04-26T07:54:42.341Z</time></trkpt><trkpt lat="42.1169087" lon="14.7031452"><ele>153.20000000000002</ele><time>2026-04-26T07:54:44.34Z</time></trkpt><trkpt lat="42.1170155" lon="14.703121"><ele>153.4</ele><time>2026-04-26T07:54:46.339Z</time></trkpt><trkpt lat="42.1171102" lon="14.7031114"><ele>153.60000000000002</ele><time>2026-04-26T07:54:48.34Z</time></trkpt><trkpt lat="42.1172135" lon="14.7031257"><ele>153.8</ele><time>2026-04-26T07:54:50.34Z</time></trkpt><trkpt lat="42.1172775" lon="14.7031453"><ele>154.0</ele><time>2026-04-26T07:54:51.34Z</time></trkpt><trkpt lat="42.1173939" lon="14.7031768"><ele>153.6</ele><time>2026-04-26T07:54:53.34Z</time></trkpt><trkpt lat="42.1175005" lon="14.7031989"><ele>153.2</ele><time>2026-04-26T07:54:55.34Z</time></trkpt><trkpt lat="42.1175999" lon="14.7032127"><ele>152.79999999999998</ele><time>2026-04-26T07:54:57.341Z</time></trkpt><trkpt lat="42.1177058" lon="14.703232"><ele>152.4</ele><time>2026-04-26T07:54:59.34Z</time></trkpt><trkpt lat="42.11783" lon="14.7032423"><ele>152.0</ele><time>2026-04-26T07:55:01.339Z</time></trkpt><trkpt lat="42.1178967" lon="14.7032534"><ele>152.0</ele><time>2026-04-26T07:55:02.339Z</time></trkpt><trkpt lat="42.1179691" lon="14.7032644"><ele>152.0</ele><time>2026-04-26T07:55:03.339Z</time></trkpt><trkpt lat="42.1180468" lon="14.7032844"><ele>152.0</ele><time>2026-04-26T07:55:04.339Z</time></trkpt><trkpt lat="42.1181384" lon="14.7032982"><ele>152.0</ele><time>2026-04-26T07:55:05.339Z</time></trkpt><trkpt lat="42.1182265" lon="14.7033165"><ele>152.0</ele><time>2026-04-26T07:55:06.34Z</time></trkpt><trkpt lat="42.1183287" lon="14.7033352"><ele>152.0</ele><time>2026-04-26T07:55:07.34Z</time></trkpt><trkpt lat="42.1184316" lon="14.703351"><ele>151.6</ele><time>2026-04-26T07:55:08.341Z</time></trkpt><trkpt lat="42.1185259" lon="14.7033683"><ele>151.2</ele><time>2026-04-26T07:55:09.34Z</time></trkpt><trkpt lat="42.1186223" lon="14.7033854"><ele>150.8</ele><time>2026-04-26T07:55:10.34Z</time></trkpt><trkpt lat="42.118715" lon="14.7034017"><ele>150.4</ele><time>2026-04-26T07:55:11.34Z</time></trkpt><trkpt lat="42.1188125" lon="14.7034146"><ele>150.0</ele><time>2026-04-26T07:55:12.339Z</time></trkpt><trkpt lat="42.1189188" lon="14.7034318"><ele>150.0</ele><time>2026-04-26T07:55:13.34Z</time></trkpt><trkpt lat="42.1190307" lon="14.7034554"><ele>150.0</ele><time>2026-04-26T07:55:14.34Z</time></trkpt><trkpt lat="42.1191504" lon="14.7034768"><ele>150.0</ele><time>2026-04-26T07:55:15.34Z</time></trkpt><trkpt lat="42.1192761" lon="14.7034999"><ele>150.0</ele><time>2026-04-26T07:55:16.339Z</time></trkpt><trkpt lat="42.1193917" lon="14.7035231"><ele>149.8</ele><time>2026-04-26T07:55:17.34Z</time></trkpt><trkpt lat="42.119496" lon="14.7035435"><ele>149.6</ele><time>2026-04-26T07:55:18.34Z</time></trkpt><trkpt lat="42.119593" lon="14.703558"><ele>149.4</ele><time>2026-04-26T07:55:19.34Z</time></trkpt><trkpt lat="42.1196835" lon="14.703572"><ele>149.2</ele><time>2026-04-26T07:55:20.34Z</time></trkpt><trkpt lat="42.1197721" lon="14.7035938"><ele>149.0</ele><time>2026-04-26T07:55:21.34Z</time></trkpt><trkpt lat="42.119864" lon="14.7036103"><ele>148.6</ele><time>2026-04-26T07:55:22.34Z</time></trkpt><trkpt lat="42.119959" lon="14.7036055"><ele>148.2</ele><time>2026-04-26T07:55:23.339Z</time></trkpt><trkpt lat="42.1200613" lon="14.7035691"><ele>147.79999999999998</ele><time>2026-04-26T07:55:24.34Z</time></trkpt><trkpt lat="42.1201709" lon="14.7035129"><ele>147.4</ele><time>2026-04-26T07:55:25.34Z</time></trkpt><trkpt lat="42.1202793" lon="14.7034361"><ele>147.0</ele><time>2026-04-26T07:55:26.339Z</time></trkpt><trkpt lat="42.1203885" lon="14.7033561"><ele>147.0</ele><time>2026-04-26T07:55:27.34Z</time></trkpt><trkpt lat="42.1204998" lon="14.7032703"><ele>147.0</ele><time>2026-04-26T07:55:28.34Z</time></trkpt><trkpt lat="42.1206241" lon="14.7031763"><ele>147.0</ele><time>2026-04-26T07:55:29.34Z</time></trkpt><trkpt lat="42.1207505" lon="14.703082"><ele>147.0</ele><time>2026-04-26T07:55:30.34Z</time></trkpt><trkpt lat="42.1208733" lon="14.7029933"><ele>146.75</ele><time>2026-04-26T07:55:31.341Z</time></trkpt><trkpt lat="42.1209915" lon="14.7029051"><ele>146.5</ele><time>2026-04-26T07:55:32.341Z</time></trkpt><trkpt lat="42.1211056" lon="14.7028171"><ele>146.25</ele><time>2026-04-26T07:55:33.339Z</time></trkpt><trkpt lat="42.1212171" lon="14.7027359"><ele>146.0</ele><time>2026-04-26T07:55:34.34Z</time></trkpt><trkpt lat="42.1213255" lon="14.702662"><ele>146.33333333333331</ele><time>2026-04-26T07:55:35.34Z</time></trkpt><trkpt lat="42.1215317" lon="14.702545"><ele>146.66666666666666</ele><time>2026-04-26T07:55:37.34Z</time></trkpt><trkpt lat="42.1216431" lon="14.7025078"><ele>147.0</ele><time>2026-04-26T07:55:38.34Z</time></trkpt><trkpt lat="42.1217707" lon="14.7024827"><ele>147.0</ele><time>2026-04-26T07:55:39.339Z</time></trkpt><trkpt lat="42.1218962" lon="14.702462"><ele>147.0</ele><time>2026-04-26T07:55:40.34Z</time></trkpt><trkpt lat="42.1220134" lon="14.7024426"><ele>147.0</ele><time>2026-04-26T07:55:41.34Z</time></trkpt><trkpt lat="42.1221202" lon="14.7024214"><ele>147.0</ele><time>2026-04-26T07:55:42.34Z</time></trkpt><trkpt lat="42.1222193" lon="14.7024091"><ele>147.0</ele><time>2026-04-26T07:55:43.34Z</time></trkpt><trkpt lat="42.1223049" lon="14.7023985"><ele>147.0</ele><time>2026-04-26T07:55:44.34Z</time></trkpt><trkpt lat="42.1223774" lon="14.7023923"><ele>147.0</ele><time>2026-04-26T07:55:45.34Z</time></trkpt><trkpt lat="42.1224899" lon="14.7024177"><ele>147.0</ele><time>2026-04-26T07:55:47.339Z</time></trkpt><trkpt lat="42.1225907" lon="14.7024624"><ele>147.0</ele><time>2026-04-26T07:55:49.34Z</time></trkpt><trkpt lat="42.1226853" lon="14.7023983"><ele>146.4</ele><time>2026-04-26T07:55:51.34Z</time></trkpt><trkpt lat="42.1227647" lon="14.7022709"><ele>145.79999999999998</ele><time>2026-04-26T07:55:53.34Z</time></trkpt><trkpt lat="42.1227998" lon="14.7021843"><ele>145.2</ele><time>2026-04-26T07:55:54.34Z</time></trkpt><trkpt lat="42.1228344" lon="14.7020858"><ele>144.6</ele><time>2026-04-26T07:55:55.34Z</time></trkpt><trkpt lat="42.1228695" lon="14.701973"><ele>144.0</ele><time>2026-04-26T07:55:56.341Z</time></trkpt><trkpt lat="42.1229178" lon="14.7018504"><ele>143.8</ele><time>2026-04-26T07:55:57.34Z</time></trkpt><trkpt lat="42.1229686" lon="14.7017452"><ele>143.60000000000002</ele><time>2026-04-26T07:55:58.339Z</time></trkpt><trkpt lat="42.1230171" lon="14.7016326"><ele>143.4</ele><time>2026-04-26T07:55:59.339Z</time></trkpt><trkpt lat="42.1230695" lon="14.7015194"><ele>143.20000000000002</ele><time>2026-04-26T07:56:00.34Z</time></trkpt><trkpt lat="42.1231383" lon="14.7014099"><ele>143.0</ele><time>2026-04-26T07:56:01.339Z</time></trkpt><trkpt lat="42.1232135" lon="14.7012939"><ele>142.66666666666666</ele><time>2026-04-26T07:56:02.34Z</time></trkpt><trkpt lat="42.1232888" lon="14.7011916"><ele>142.33333333333331</ele><time>2026-04-26T07:56:03.34Z</time></trkpt><trkpt lat="42.1233532" lon="14.701099"><ele>142.0</ele><time>2026-04-26T07:56:04.339Z</time></trkpt><trkpt lat="42.1234135" lon="14.7010106"><ele>141.66666666666666</ele><time>2026-04-26T07:56:05.339Z</time></trkpt><trkpt lat="42.1234704" lon="14.7009233"><ele>141.33333333333334</ele><time>2026-04-26T07:56:06.339Z</time></trkpt><trkpt lat="42.1235173" lon="14.700853"><ele>141.0</ele><time>2026-04-26T07:56:07.34Z</time></trkpt><trkpt lat="42.123564" lon="14.7007843"><ele>140.83333333333334</ele><time>2026-04-26T07:56:08.34Z</time></trkpt><trkpt lat="42.1236092" lon="14.7007158"><ele>140.66666666666666</ele><time>2026-04-26T07:56:09.34Z</time></trkpt><trkpt lat="42.1236545" lon="14.7006493"><ele>140.5</ele><time>2026-04-26T07:56:10.34Z</time></trkpt><trkpt lat="42.1237119" lon="14.7005857"><ele>140.33333333333331</ele><time>2026-04-26T07:56:11.341Z</time></trkpt><trkpt lat="42.1237768" lon="14.7005178"><ele>140.16666666666666</ele><time>2026-04-26T07:56:12.34Z</time></trkpt><trkpt lat="42.1238388" lon="14.7004344"><ele>140.0</ele><time>2026-04-26T07:56:13.34Z</time></trkpt><trkpt lat="42.1239013" lon="14.700356"><ele>140.0</ele><time>2026-04-26T07:56:14.34Z</time></trkpt><trkpt lat="42.1239591" lon="14.7002901"><ele>140.0</ele><time>2026-04-26T07:56:15.34Z</time></trkpt><trkpt lat="42.1240132" lon="14.7002346"><ele>140.0</ele><time>2026-04-26T07:56:16.34Z</time></trkpt><trkpt lat="42.1241106" lon="14.70014"><ele>140.0</ele><time>2026-04-26T07:56:18.341Z</time></trkpt><trkpt lat="42.1241994" lon="14.7000574"><ele>140.0</ele><time>2026-04-26T07:56:20.34Z</time></trkpt><trkpt lat="42.1242872" lon="14.6999948"><ele>139.4</ele><time>2026-04-26T07:56:22.34Z</time></trkpt><trkpt lat="42.1244005" lon="14.6999395"><ele>138.8</ele><time>2026-04-26T07:56:24.34Z</time></trkpt><trkpt lat="42.124513" lon="14.699926"><ele>138.2</ele><time>2026-04-26T07:56:26.34Z</time></trkpt><trkpt lat="42.1245866" lon="14.6998323"><ele>137.6</ele><time>2026-04-26T07:56:28.34Z</time></trkpt><trkpt lat="42.124616" lon="14.6997469"><ele>137.0</ele><time>2026-04-26T07:56:29.34Z</time></trkpt><trkpt lat="42.1246603" lon="14.6996455"><ele>137.0</ele><time>2026-04-26T07:56:30.34Z</time></trkpt><trkpt lat="42.124731" lon="14.6995325"><ele>137.0</ele><time>2026-04-26T07:56:31.34Z</time></trkpt><trkpt lat="42.1248068" lon="14.6994201"><ele>137.0</ele><time>2026-04-26T07:56:32.34Z</time></trkpt><trkpt lat="42.1248855" lon="14.6993025"><ele>137.0</ele><time>2026-04-26T07:56:33.34Z</time></trkpt><trkpt lat="42.1249676" lon="14.6991782"><ele>134.5</ele><time>2026-04-26T07:56:34.34Z</time></trkpt><trkpt lat="42.1250494" lon="14.6990478"><ele>132.0</ele><time>2026-04-26T07:56:35.339Z</time></trkpt><trkpt lat="42.1251205" lon="14.6989053"><ele>129.5</ele><time>2026-04-26T07:56:36.339Z</time></trkpt><trkpt lat="42.1251806" lon="14.6987487"><ele>127.0</ele><time>2026-04-26T07:56:37.34Z</time></trkpt><trkpt lat="42.1252255" lon="14.6985853"><ele>125.75</ele><time>2026-04-26T07:56:38.34Z</time></trkpt><trkpt lat="42.1252637" lon="14.6984252"><ele>124.5</ele><time>2026-04-26T07:56:39.34Z</time></trkpt><trkpt lat="42.1252955" lon="14.6982605"><ele>123.25</ele><time>2026-04-26T07:56:40.339Z</time></trkpt><trkpt lat="42.1253254" lon="14.6980922"><ele>122.0</ele><time>2026-04-26T07:56:41.34Z</time></trkpt><trkpt lat="42.1253499" lon="14.6979311"><ele>122.0</ele><time>2026-04-26T07:56:42.34Z</time></trkpt><trkpt lat="42.1253604" lon="14.6977673"><ele>122.0</ele><time>2026-04-26T07:56:43.339Z</time></trkpt><trkpt lat="42.1253501" lon="14.6975942"><ele>122.0</ele><time>2026-04-26T07:56:44.34Z</time></trkpt><trkpt lat="42.1253313" lon="14.6974168"><ele>122.0</ele><time>2026-04-26T07:56:45.341Z</time></trkpt><trkpt lat="42.125306" lon="14.6972368"><ele>121.0</ele><time>2026-04-26T07:56:46.339Z</time></trkpt><trkpt lat="42.1252798" lon="14.6970682"><ele>119.99999999999999</ele><time>2026-04-26T07:56:47.339Z</time></trkpt><trkpt lat="42.1252538" lon="14.6969195"><ele>118.99999999999999</ele><time>2026-04-26T07:56:48.341Z</time></trkpt><trkpt lat="42.1252329" lon="14.696783"><ele>118.0</ele><time>2026-04-26T07:56:49.34Z</time></trkpt><trkpt lat="42.1252242" lon="14.6966528"><ele>117.0</ele><time>2026-04-26T07:56:50.341Z</time></trkpt><trkpt lat="42.1252342" lon="14.6965223"><ele>115.8</ele><time>2026-04-26T07:56:51.34Z</time></trkpt><trkpt lat="42.1252604" lon="14.6963919"><ele>114.6</ele><time>2026-04-26T07:56:52.339Z</time></trkpt><trkpt lat="42.1253003" lon="14.6962664"><ele>113.39999999999999</ele><time>2026-04-26T07:56:53.34Z</time></trkpt><trkpt lat="42.1253493" lon="14.6961508"><ele>112.19999999999999</ele><time>2026-04-26T07:56:54.339Z</time></trkpt><trkpt lat="42.125403" lon="14.6960472"><ele>111.0</ele><time>2026-04-26T07:56:55.339Z</time></trkpt><trkpt lat="42.125464" lon="14.6959598"><ele>112.6</ele><time>2026-04-26T07:56:56.34Z</time></trkpt><trkpt lat="42.1255301" lon="14.6958723"><ele>114.19999999999999</ele><time>2026-04-26T07:56:57.34Z</time></trkpt><trkpt lat="42.1255995" lon="14.6957948"><ele>115.80000000000001</ele><time>2026-04-26T07:56:58.341Z</time></trkpt><trkpt lat="42.1256708" lon="14.6957222"><ele>117.4</ele><time>2026-04-26T07:56:59.341Z</time></trkpt><trkpt lat="42.1257442" lon="14.6956525"><ele>119.0</ele><time>2026-04-26T07:57:00.341Z</time></trkpt><trkpt lat="42.1258227" lon="14.6955811"><ele>119.0</ele><time>2026-04-26T07:57:01.341Z</time></trkpt><trkpt lat="42.1259024" lon="14.6955063"><ele>119.0</ele><time>2026-04-26T07:57:02.34Z</time></trkpt><trkpt lat="42.1259823" lon="14.6954235"><ele>119.0</ele><time>2026-04-26T07:57:03.34Z</time></trkpt><trkpt lat="42.1260617" lon="14.6953407"><ele>119.0</ele><time>2026-04-26T07:57:04.34Z</time></trkpt><trkpt lat="42.1261386" lon="14.6952587"><ele>119.0</ele><time>2026-04-26T07:57:05.34Z</time></trkpt><trkpt lat="42.126215" lon="14.6951807"><ele>115.2</ele><time>2026-04-26T07:57:06.34Z</time></trkpt><trkpt lat="42.1262856" lon="14.6950935"><ele>111.4</ele><time>2026-04-26T07:57:07.34Z</time></trkpt><trkpt lat="42.1263523" lon="14.6950087"><ele>107.6</ele><time>2026-04-26T07:57:08.341Z</time></trkpt><trkpt lat="42.1264164" lon="14.694922"><ele>103.8</ele><time>2026-04-26T07:57:09.34Z</time></trkpt><trkpt lat="42.126481" lon="14.6948379"><ele>100.0</ele><time>2026-04-26T07:57:10.34Z</time></trkpt><trkpt lat="42.1265416" lon="14.6947552"><ele>101.6</ele><time>2026-04-26T07:57:11.34Z</time></trkpt><trkpt lat="42.1266017" lon="14.6946625"><ele>103.2</ele><time>2026-04-26T07:57:12.34Z</time></trkpt><trkpt lat="42.1266689" lon="14.694567"><ele>104.80000000000001</ele><time>2026-04-26T07:57:13.34Z</time></trkpt><trkpt lat="42.1267439" lon="14.6944707"><ele>106.4</ele><time>2026-04-26T07:57:14.339Z</time></trkpt><trkpt lat="42.1268239" lon="14.6943804"><ele>108.0</ele><time>2026-04-26T07:57:15.34Z</time></trkpt><trkpt lat="42.126904" lon="14.6942985"><ele>105.16666666666667</ele><time>2026-04-26T07:57:16.341Z</time></trkpt><trkpt lat="42.1269758" lon="14.694226"><ele>102.33333333333333</ele><time>2026-04-26T07:57:17.341Z</time></trkpt><trkpt lat="42.1270409" lon="14.6941649"><ele>99.5</ele><time>2026-04-26T07:57:18.339Z</time></trkpt><trkpt lat="42.1271024" lon="14.694116"><ele>96.66666666666666</ele><time>2026-04-26T07:57:19.34Z</time></trkpt><trkpt lat="42.1271683" lon="14.6940782"><ele>93.83333333333333</ele><time>2026-04-26T07:57:20.341Z</time></trkpt><trkpt lat="42.1272381" lon="14.6940458"><ele>91.0</ele><time>2026-04-26T07:57:21.34Z</time></trkpt><trkpt lat="42.1273017" lon="14.6940139"><ele>91.4</ele><time>2026-04-26T07:57:22.34Z</time></trkpt><trkpt lat="42.1273966" lon="14.6939105"><ele>91.8</ele><time>2026-04-26T07:57:24.339Z</time></trkpt><trkpt lat="42.1274576" lon="14.6937598"><ele>92.2</ele><time>2026-04-26T07:57:26.34Z</time></trkpt><trkpt lat="42.1274886" lon="14.693672"><ele>92.60000000000001</ele><time>2026-04-26T07:57:27.339Z</time></trkpt><trkpt lat="42.1275171" lon="14.6935864"><ele>93.0</ele><time>2026-04-26T07:57:28.341Z</time></trkpt><trkpt lat="42.12755" lon="14.6934879"><ele>91.16666666666667</ele><time>2026-04-26T07:57:29.341Z</time></trkpt><trkpt lat="42.1275826" lon="14.6933832"><ele>89.33333333333333</ele><time>2026-04-26T07:57:30.34Z</time></trkpt><trkpt lat="42.1276158" lon="14.6932764"><ele>87.5</ele><time>2026-04-26T07:57:31.34Z</time></trkpt><trkpt lat="42.1276474" lon="14.693176"><ele>85.66666666666666</ele><time>2026-04-26T07:57:32.339Z</time></trkpt><trkpt lat="42.127676" lon="14.6930876"><ele>83.83333333333333</ele><time>2026-04-26T07:57:33.339Z</time></trkpt><trkpt lat="42.1277004" lon="14.6930034"><ele>82.0</ele><time>2026-04-26T07:57:34.339Z</time></trkpt><trkpt lat="42.1277203" lon="14.6929128"><ele>82.0</ele><time>2026-04-26T07:57:35.34Z</time></trkpt><trkpt lat="42.1277297" lon="14.6928205"><ele>82.0</ele><time>2026-04-26T07:57:36.34Z</time></trkpt><trkpt lat="42.1277227" lon="14.6927278"><ele>82.0</ele><time>2026-04-26T07:57:37.34Z</time></trkpt><trkpt lat="42.1276981" lon="14.6926403"><ele>82.0</ele><time>2026-04-26T07:57:38.34Z</time></trkpt><trkpt lat="42.1276564" lon="14.6925585"><ele>82.0</ele><time>2026-04-26T07:57:39.34Z</time></trkpt><trkpt lat="42.1276004" lon="14.6924727"><ele>82.0</ele><time>2026-04-26T07:57:40.339Z</time></trkpt><trkpt lat="42.127538" lon="14.6923876"><ele>82.0</ele><time>2026-04-26T07:57:41.341Z</time></trkpt><trkpt lat="42.127481" lon="14.6922976"><ele>82.0</ele><time>2026-04-26T07:57:42.34Z</time></trkpt><trkpt lat="42.1274249" lon="14.692189"><ele>82.0</ele><time>2026-04-26T07:57:43.34Z</time></trkpt><trkpt lat="42.1273759" lon="14.6920701"><ele>82.0</ele><time>2026-04-26T07:57:44.34Z</time></trkpt><trkpt lat="42.1273474" lon="14.6919394"><ele>82.0</ele><time>2026-04-26T07:57:45.341Z</time></trkpt><trkpt lat="42.1273263" lon="14.6918087"><ele>83.33333333333333</ele><time>2026-04-26T07:57:46.339Z</time></trkpt><trkpt lat="42.1272975" lon="14.6916947"><ele>84.66666666666666</ele><time>2026-04-26T07:57:47.34Z</time></trkpt><trkpt lat="42.1272472" lon="14.6915986"><ele>86.0</ele><time>2026-04-26T07:57:48.339Z</time></trkpt><trkpt lat="42.1271913" lon="14.6915104"><ele>87.33333333333333</ele><time>2026-04-26T07:57:49.339Z</time></trkpt><trkpt lat="42.1271303" lon="14.6914327"><ele>88.66666666666667</ele><time>2026-04-26T07:57:50.34Z</time></trkpt><trkpt lat="42.1270726" lon="14.6913529"><ele>90.0</ele><time>2026-04-26T07:57:51.34Z</time></trkpt><trkpt lat="42.1270164" lon="14.6912751"><ele>90.0</ele><time>2026-04-26T07:57:52.339Z</time></trkpt><trkpt lat="42.1269576" lon="14.6912015"><ele>90.0</ele><time>2026-04-26T07:57:53.34Z</time></trkpt><trkpt lat="42.1269034" lon="14.6911206"><ele>90.0</ele><time>2026-04-26T07:57:54.339Z</time></trkpt><trkpt lat="42.1268465" lon="14.6910388"><ele>90.0</ele><time>2026-04-26T07:57:55.34Z</time></trkpt><trkpt lat="42.1267822" lon="14.6909648"><ele>90.0</ele><time>2026-04-26T07:57:56.34Z</time></trkpt><trkpt lat="42.1267159" lon="14.6908956"><ele>90.0</ele><time>2026-04-26T07:57:57.341Z</time></trkpt><trkpt lat="42.126657" lon="14.6908248"><ele>91.16666666666667</ele><time>2026-04-26T07:57:58.339Z</time></trkpt><trkpt lat="42.1265929" lon="14.6907568"><ele>92.33333333333334</ele><time>2026-04-26T07:57:59.34Z</time></trkpt><trkpt lat="42.1265328" lon="14.6906819"><ele>93.5</ele><time>2026-04-26T07:58:00.34Z</time></trkpt><trkpt lat="42.1264767" lon="14.6906004"><ele>94.66666666666667</ele><time>2026-04-26T07:58:01.34Z</time></trkpt><trkpt lat="42.1264338" lon="14.6905219"><ele>95.83333333333334</ele><time>2026-04-26T07:58:02.34Z</time></trkpt><trkpt lat="42.1263926" lon="14.6904371"><ele>97.0</ele><time>2026-04-26T07:58:03.34Z</time></trkpt><trkpt lat="42.1263566" lon="14.6903446"><ele>98.83333333333334</ele><time>2026-04-26T07:58:04.34Z</time></trkpt><trkpt lat="42.1263301" lon="14.6902399"><ele>100.66666666666667</ele><time>2026-04-26T07:58:05.341Z</time></trkpt><trkpt lat="42.1263017" lon="14.6901345"><ele>102.5</ele><time>2026-04-26T07:58:06.339Z</time></trkpt><trkpt lat="42.1262792" lon="14.6900195"><ele>104.33333333333334</ele><time>2026-04-26T07:58:07.339Z</time></trkpt><trkpt lat="42.1262677" lon="14.689899"><ele>106.16666666666667</ele><time>2026-04-26T07:58:08.34Z</time></trkpt><trkpt lat="42.1262569" lon="14.6897793"><ele>108.0</ele><time>2026-04-26T07:58:09.34Z</time></trkpt><trkpt lat="42.1262422" lon="14.6896582"><ele>108.0</ele><time>2026-04-26T07:58:10.34Z</time></trkpt><trkpt lat="42.1262279" lon="14.6895378"><ele>108.0</ele><time>2026-04-26T07:58:11.34Z</time></trkpt><trkpt lat="42.1262167" lon="14.6894169"><ele>108.0</ele><time>2026-04-26T07:58:12.34Z</time></trkpt><trkpt lat="42.1262137" lon="14.6893004"><ele>108.0</ele><time>2026-04-26T07:58:13.34Z</time></trkpt><trkpt lat="42.1262126" lon="14.689184"><ele>108.0</ele><time>2026-04-26T07:58:14.34Z</time></trkpt><trkpt lat="42.1262086" lon="14.6890645"><ele>108.0</ele><time>2026-04-26T07:58:15.34Z</time></trkpt><trkpt lat="42.1262049" lon="14.6889413"><ele>109.66666666666667</ele><time>2026-04-26T07:58:16.34Z</time></trkpt><trkpt lat="42.1261982" lon="14.6888181"><ele>111.33333333333334</ele><time>2026-04-26T07:58:17.34Z</time></trkpt><trkpt lat="42.1261845" lon="14.688692"><ele>113.0</ele><time>2026-04-26T07:58:18.341Z</time></trkpt><trkpt lat="42.1261703" lon="14.6885728"><ele>114.66666666666667</ele><time>2026-04-26T07:58:19.34Z</time></trkpt><trkpt lat="42.1261547" lon="14.6884653"><ele>116.33333333333334</ele><time>2026-04-26T07:58:20.34Z</time></trkpt><trkpt lat="42.126138" lon="14.6883564"><ele>118.0</ele><time>2026-04-26T07:58:21.34Z</time></trkpt><trkpt lat="42.1261235" lon="14.688248"><ele>119.4</ele><time>2026-04-26T07:58:22.341Z</time></trkpt><trkpt lat="42.1261098" lon="14.6881347"><ele>120.80000000000001</ele><time>2026-04-26T07:58:23.339Z</time></trkpt><trkpt lat="42.1260873" lon="14.6880131"><ele>122.2</ele><time>2026-04-26T07:58:24.34Z</time></trkpt><trkpt lat="42.1260609" lon="14.6878835"><ele>123.6</ele><time>2026-04-26T07:58:25.34Z</time></trkpt><trkpt lat="42.1260317" lon="14.6877567"><ele>125.0</ele><time>2026-04-26T07:58:26.341Z</time></trkpt><trkpt lat="42.1260023" lon="14.6876377"><ele>126.8</ele><time>2026-04-26T07:58:27.34Z</time></trkpt><trkpt lat="42.1259655" lon="14.6875173"><ele>128.6</ele><time>2026-04-26T07:58:28.34Z</time></trkpt><trkpt lat="42.1259164" lon="14.6873952"><ele>130.4</ele><time>2026-04-26T07:58:29.34Z</time></trkpt><trkpt lat="42.1258631" lon="14.6872685"><ele>132.2</ele><time>2026-04-26T07:58:30.34Z</time></trkpt><trkpt lat="42.1258115" lon="14.6871421"><ele>134.0</ele><time>2026-04-26T07:58:31.34Z</time></trkpt><trkpt lat="42.1257549" lon="14.6870251"><ele>134.4</ele><time>2026-04-26T07:58:32.339Z</time></trkpt><trkpt lat="42.1256972" lon="14.6869133"><ele>134.8</ele><time>2026-04-26T07:58:33.341Z</time></trkpt><trkpt lat="42.1256424" lon="14.6868038"><ele>135.2</ele><time>2026-04-26T07:58:34.34Z</time></trkpt><trkpt lat="42.1255864" lon="14.6866967"><ele>135.6</ele><time>2026-04-26T07:58:35.34Z</time></trkpt><trkpt lat="42.125529" lon="14.6865916"><ele>136.0</ele><time>2026-04-26T07:58:36.34Z</time></trkpt><trkpt lat="42.1254739" lon="14.6864956"><ele>136.0</ele><time>2026-04-26T07:58:37.341Z</time></trkpt><trkpt lat="42.1254147" lon="14.6864066"><ele>136.0</ele><time>2026-04-26T07:58:38.34Z</time></trkpt><trkpt lat="42.1253544" lon="14.6863192"><ele>136.0</ele><time>2026-04-26T07:58:39.34Z</time></trkpt><trkpt lat="42.1252893" lon="14.6862404"><ele>136.0</ele><time>2026-04-26T07:58:40.339Z</time></trkpt><trkpt lat="42.125218" lon="14.6861598"><ele>136.0</ele><time>2026-04-26T07:58:41.34Z</time></trkpt><trkpt lat="42.1251483" lon="14.6860851"><ele>136.0</ele><time>2026-04-26T07:58:42.34Z</time></trkpt><trkpt lat="42.1250751" lon="14.6860044"><ele>137.6</ele><time>2026-04-26T07:58:43.34Z</time></trkpt><trkpt lat="42.1249965" lon="14.6859228"><ele>139.2</ele><time>2026-04-26T07:58:44.341Z</time></trkpt><trkpt lat="42.1249143" lon="14.6858383"><ele>140.8</ele><time>2026-04-26T07:58:45.34Z</time></trkpt><trkpt lat="42.1248317" lon="14.6857588"><ele>142.4</ele><time>2026-04-26T07:58:46.341Z</time></trkpt><trkpt lat="42.1247433" lon="14.6856832"><ele>144.0</ele><time>2026-04-26T07:58:47.339Z</time></trkpt><trkpt lat="42.1246632" lon="14.6855962"><ele>144.4</ele><time>2026-04-26T07:58:48.339Z</time></trkpt><trkpt lat="42.1245975" lon="14.6855022"><ele>144.8</ele><time>2026-04-26T07:58:49.338Z</time></trkpt><trkpt lat="42.1245378" lon="14.685397"><ele>145.2</ele><time>2026-04-26T07:58:50.34Z</time></trkpt><trkpt lat="42.1244853" lon="14.6852898"><ele>145.6</ele><time>2026-04-26T07:58:51.339Z</time></trkpt><trkpt lat="42.124439" lon="14.6851768"><ele>146.0</ele><time>2026-04-26T07:58:52.339Z</time></trkpt><trkpt lat="42.1243928" lon="14.685064"><ele>146.66666666666666</ele><time>2026-04-26T07:58:53.339Z</time></trkpt><trkpt lat="42.1243469" lon="14.6849592"><ele>147.33333333333331</ele><time>2026-04-26T07:58:54.338Z</time></trkpt><trkpt lat="42.1243024" lon="14.6848592"><ele>148.0</ele><time>2026-04-26T07:58:55.339Z</time></trkpt><trkpt lat="42.1242564" lon="14.6847605"><ele>148.66666666666666</ele><time>2026-04-26T07:58:56.339Z</time></trkpt><trkpt lat="42.1242083" lon="14.6846666"><ele>149.33333333333334</ele><time>2026-04-26T07:58:57.338Z</time></trkpt><trkpt lat="42.1241693" lon="14.6845863"><ele>150.0</ele><time>2026-04-26T07:58:58.339Z</time></trkpt><trkpt lat="42.1241102" lon="14.6844702"><ele>150.83333333333334</ele><time>2026-04-26T07:59:00.339Z</time></trkpt><trkpt lat="42.1240174" lon="14.6843412"><ele>151.66666666666666</ele><time>2026-04-26T07:59:02.339Z</time></trkpt><trkpt lat="42.1239678" lon="14.6842815"><ele>152.5</ele><time>2026-04-26T07:59:03.339Z</time></trkpt><trkpt lat="42.1239166" lon="14.6842279"><ele>153.33333333333331</ele><time>2026-04-26T07:59:04.339Z</time></trkpt><trkpt lat="42.1238509" lon="14.6841688"><ele>154.16666666666666</ele><time>2026-04-26T07:59:05.339Z</time></trkpt><trkpt lat="42.1237672" lon="14.6841014"><ele>155.0</ele><time>2026-04-26T07:59:06.339Z</time></trkpt><trkpt lat="42.1236728" lon="14.6840189"><ele>155.0</ele><time>2026-04-26T07:59:07.339Z</time></trkpt><trkpt lat="42.1235615" lon="14.6839201"><ele>155.0</ele><time>2026-04-26T07:59:08.339Z</time></trkpt><trkpt lat="42.1234528" lon="14.6838255"><ele>155.0</ele><time>2026-04-26T07:59:09.338Z</time></trkpt><trkpt lat="42.1233382" lon="14.6837368"><ele>155.0</ele><time>2026-04-26T07:59:10.34Z</time></trkpt><trkpt lat="42.1232213" lon="14.6836364"><ele>155.0</ele><time>2026-04-26T07:59:11.339Z</time></trkpt><trkpt lat="42.1231085" lon="14.6835395"><ele>155.0</ele><time>2026-04-26T07:59:12.338Z</time></trkpt><trkpt lat="42.1229956" lon="14.6834445"><ele>155.0</ele><time>2026-04-26T07:59:13.338Z</time></trkpt><trkpt lat="42.1228865" lon="14.6833462"><ele>155.0</ele><time>2026-04-26T07:59:14.339Z</time></trkpt><trkpt lat="42.1227852" lon="14.6832539"><ele>155.0</ele><time>2026-04-26T07:59:15.339Z</time></trkpt><trkpt lat="42.1226819" lon="14.6831739"><ele>155.0</ele><time>2026-04-26T07:59:16.339Z</time></trkpt><trkpt lat="42.122581" lon="14.6831019"><ele>155.0</ele><time>2026-04-26T07:59:17.339Z</time></trkpt><trkpt lat="42.122484" lon="14.6830367"><ele>155.0</ele><time>2026-04-26T07:59:18.338Z</time></trkpt><trkpt lat="42.1224023" lon="14.6829721"><ele>155.0</ele><time>2026-04-26T07:59:19.339Z</time></trkpt><trkpt lat="42.1223405" lon="14.6828896"><ele>155.2</ele><time>2026-04-26T07:59:20.338Z</time></trkpt><trkpt lat="42.1223041" lon="14.6827854"><ele>155.4</ele><time>2026-04-26T07:59:21.34Z</time></trkpt><trkpt lat="42.1222848" lon="14.6826523"><ele>155.6</ele><time>2026-04-26T07:59:22.339Z</time></trkpt><trkpt lat="42.122274" lon="14.682492"><ele>155.8</ele><time>2026-04-26T07:59:23.339Z</time></trkpt><trkpt lat="42.1222477" lon="14.6823057"><ele>156.0</ele><time>2026-04-26T07:59:24.339Z</time></trkpt><trkpt lat="42.1222114" lon="14.6821192"><ele>156.0</ele><time>2026-04-26T07:59:25.339Z</time></trkpt><trkpt lat="42.1221772" lon="14.6819433"><ele>156.0</ele><time>2026-04-26T07:59:26.338Z</time></trkpt><trkpt lat="42.1221471" lon="14.6817744"><ele>156.0</ele><time>2026-04-26T07:59:27.339Z</time></trkpt><trkpt lat="42.1221164" lon="14.6816186"><ele>156.0</ele><time>2026-04-26T07:59:28.338Z</time></trkpt><trkpt lat="42.1220939" lon="14.68148"><ele>154.4</ele><time>2026-04-26T07:59:29.339Z</time></trkpt><trkpt lat="42.1220917" lon="14.6813369"><ele>152.8</ele><time>2026-04-26T07:59:30.339Z</time></trkpt><trkpt lat="42.1221128" lon="14.6811906"><ele>151.20000000000002</ele><time>2026-04-26T07:59:31.339Z</time></trkpt><trkpt lat="42.1221489" lon="14.681056"><ele>149.6</ele><time>2026-04-26T07:59:32.339Z</time></trkpt><trkpt lat="42.1222113" lon="14.6809279"><ele>148.0</ele><time>2026-04-26T07:59:33.339Z</time></trkpt><trkpt lat="42.1222957" lon="14.6808225"><ele>148.25</ele><time>2026-04-26T07:59:34.338Z</time></trkpt><trkpt lat="42.1223996" lon="14.6807428"><ele>148.5</ele><time>2026-04-26T07:59:35.34Z</time></trkpt><trkpt lat="42.1225191" lon="14.6806888"><ele>148.75</ele><time>2026-04-26T07:59:36.339Z</time></trkpt><trkpt lat="42.1226393" lon="14.6806488"><ele>149.0</ele><time>2026-04-26T07:59:37.339Z</time></trkpt><trkpt lat="42.1227591" lon="14.6805977"><ele>149.0</ele><time>2026-04-26T07:59:38.339Z</time></trkpt><trkpt lat="42.1228696" lon="14.6805423"><ele>149.0</ele><time>2026-04-26T07:59:39.339Z</time></trkpt><trkpt lat="42.1229655" lon="14.6804252"><ele>149.0</ele><time>2026-04-26T07:59:40.339Z</time></trkpt><trkpt lat="42.1230598" lon="14.6803002"><ele>149.0</ele><time>2026-04-26T07:59:41.338Z</time></trkpt><trkpt lat="42.1231498" lon="14.6801565"><ele>151.0</ele><time>2026-04-26T07:59:42.339Z</time></trkpt><trkpt lat="42.1232249" lon="14.6800251"><ele>153.0</ele><time>2026-04-26T07:59:43.339Z</time></trkpt><trkpt lat="42.1232903" lon="14.6798801"><ele>155.0</ele><time>2026-04-26T07:59:44.339Z</time></trkpt><trkpt lat="42.1233522" lon="14.6797166"><ele>157.0</ele><time>2026-04-26T07:59:45.339Z</time></trkpt><trkpt lat="42.1234033" lon="14.6795446"><ele>158.5</ele><time>2026-04-26T07:59:46.34Z</time></trkpt><trkpt lat="42.1234492" lon="14.6793644"><ele>160.0</ele><time>2026-04-26T07:59:47.339Z</time></trkpt><trkpt lat="42.1234824" lon="14.6791885"><ele>161.5</ele><time>2026-04-26T07:59:48.338Z</time></trkpt><trkpt lat="42.1235107" lon="14.6790039"><ele>163.0</ele><time>2026-04-26T07:59:49.339Z</time></trkpt><trkpt lat="42.1235357" lon="14.67882"><ele>163.0</ele><time>2026-04-26T07:59:50.339Z</time></trkpt><trkpt lat="42.1235561" lon="14.6786431"><ele>163.0</ele><time>2026-04-26T07:59:51.338Z</time></trkpt><trkpt lat="42.1235795" lon="14.678476"><ele>163.0</ele><time>2026-04-26T07:59:52.339Z</time></trkpt><trkpt lat="42.1236038" lon="14.6783257"><ele>163.0</ele><time>2026-04-26T07:59:53.339Z</time></trkpt><trkpt lat="42.123632" lon="14.6781932"><ele>163.0</ele><time>2026-04-26T07:59:54.338Z</time></trkpt><trkpt lat="42.1236691" lon="14.6780654"><ele>163.0</ele><time>2026-04-26T07:59:55.339Z</time></trkpt><trkpt lat="42.1237002" lon="14.677944"><ele>163.0</ele><time>2026-04-26T07:59:56.339Z</time></trkpt><trkpt lat="42.1237147" lon="14.6778019"><ele>163.0</ele><time>2026-04-26T07:59:57.34Z</time></trkpt><trkpt lat="42.1237401" lon="14.6776389"><ele>163.0</ele><time>2026-04-26T07:59:58.339Z</time></trkpt><trkpt lat="42.1237652" lon="14.6774809"><ele>162.66666666666669</ele><time>2026-04-26T07:59:59.338Z</time></trkpt><trkpt lat="42.1238174" lon="14.6772728"><ele>162.33333333333334</ele><time>2026-04-26T08:00:00.339Z</time></trkpt><trkpt lat="42.1238502" lon="14.6770605"><ele>162.0</ele><time>2026-04-26T08:00:01.339Z</time></trkpt><trkpt lat="42.1238825" lon="14.6768553"><ele>162.75</ele><time>2026-04-26T08:00:02.339Z</time></trkpt><trkpt lat="42.12391" lon="14.6766568"><ele>163.5</ele><time>2026-04-26T08:00:03.339Z</time></trkpt><trkpt lat="42.123939" lon="14.6764756"><ele>164.25</ele><time>2026-04-26T08:00:04.339Z</time></trkpt><trkpt lat="42.1239754" lon="14.6763087"><ele>165.0</ele><time>2026-04-26T08:00:05.339Z</time></trkpt><trkpt lat="42.1240231" lon="14.6761478"><ele>165.0</ele><time>2026-04-26T08:00:06.339Z</time></trkpt><trkpt lat="42.1240892" lon="14.6759955"><ele>165.0</ele><time>2026-04-26T08:00:07.339Z</time></trkpt><trkpt lat="42.1241631" lon="14.6758399"><ele>165.0</ele><time>2026-04-26T08:00:08.34Z</time></trkpt><trkpt lat="42.1242421" lon="14.6756875"><ele>165.0</ele><time>2026-04-26T08:00:09.339Z</time></trkpt><trkpt lat="42.1243097" lon="14.6755515"><ele>165.0</ele><time>2026-04-26T08:00:10.339Z</time></trkpt><trkpt lat="42.1243692" lon="14.6754216"><ele>165.0</ele><time>2026-04-26T08:00:11.339Z</time></trkpt><trkpt lat="42.1244087" lon="14.6752999"><ele>165.0</ele><time>2026-04-26T08:00:12.339Z</time></trkpt><trkpt lat="42.1244262" lon="14.6751788"><ele>165.0</ele><time>2026-04-26T08:00:13.339Z</time></trkpt><trkpt lat="42.1244193" lon="14.6750527"><ele>165.0</ele><time>2026-04-26T08:00:14.339Z</time></trkpt><trkpt lat="42.1243903" lon="14.6749227"><ele>166.4</ele><time>2026-04-26T08:00:15.339Z</time></trkpt><trkpt lat="42.12434" lon="14.6747837"><ele>167.8</ele><time>2026-04-26T08:00:16.339Z</time></trkpt><trkpt lat="42.124289" lon="14.674651"><ele>169.2</ele><time>2026-04-26T08:00:17.339Z</time></trkpt><trkpt lat="42.1242575" lon="14.6745582"><ele>170.6</ele><time>2026-04-26T08:00:18.34Z</time></trkpt><trkpt lat="42.1242341" lon="14.6744639"><ele>172.0</ele><time>2026-04-26T08:00:19.339Z</time></trkpt><trkpt lat="42.1243033" lon="14.674359"><ele>172.39999999999998</ele><time>2026-04-26T08:00:23.338Z</time></trkpt><trkpt lat="42.1243691" lon="14.6743201"><ele>172.79999999999998</ele><time>2026-04-26T08:00:24.339Z</time></trkpt><trkpt lat="42.1244516" lon="14.6742653"><ele>173.2</ele><time>2026-04-26T08:00:25.338Z</time></trkpt><trkpt lat="42.1245422" lon="14.6741937"><ele>173.6</ele><time>2026-04-26T08:00:26.339Z</time></trkpt><trkpt lat="42.1246357" lon="14.6741235"><ele>174.0</ele><time>2026-04-26T08:00:27.338Z</time></trkpt><trkpt lat="42.1247324" lon="14.6740486"><ele>174.0</ele><time>2026-04-26T08:00:28.338Z</time></trkpt><trkpt lat="42.1248346" lon="14.67397"><ele>174.0</ele><time>2026-04-26T08:00:29.339Z</time></trkpt><trkpt lat="42.1249388" lon="14.6738868"><ele>174.0</ele><time>2026-04-26T08:00:30.339Z</time></trkpt><trkpt lat="42.1250475" lon="14.6737992"><ele>174.0</ele><time>2026-04-26T08:00:31.339Z</time></trkpt><trkpt lat="42.125158" lon="14.6737146"><ele>173.2</ele><time>2026-04-26T08:00:32.339Z</time></trkpt><trkpt lat="42.1252596" lon="14.6736304"><ele>172.39999999999998</ele><time>2026-04-26T08:00:33.339Z</time></trkpt><trkpt lat="42.1253547" lon="14.673554"><ele>171.6</ele><time>2026-04-26T08:00:34.339Z</time></trkpt><trkpt lat="42.1254425" lon="14.6734836"><ele>170.8</ele><time>2026-04-26T08:00:35.339Z</time></trkpt><trkpt lat="42.1255301" lon="14.6734092"><ele>170.0</ele><time>2026-04-26T08:00:36.339Z</time></trkpt><trkpt lat="42.1256279" lon="14.6733314"><ele>169.25</ele><time>2026-04-26T08:00:37.339Z</time></trkpt><trkpt lat="42.1257352" lon="14.673245"><ele>168.5</ele><time>2026-04-26T08:00:38.339Z</time></trkpt><trkpt lat="42.1258506" lon="14.673149"><ele>167.75</ele><time>2026-04-26T08:00:39.338Z</time></trkpt><trkpt lat="42.1259716" lon="14.6730502"><ele>167.0</ele><time>2026-04-26T08:00:40.339Z</time></trkpt><trkpt lat="42.1260942" lon="14.6729478"><ele>167.0</ele><time>2026-04-26T08:00:41.339Z</time></trkpt><trkpt lat="42.1262212" lon="14.6728501"><ele>167.0</ele><time>2026-04-26T08:00:42.34Z</time></trkpt><trkpt lat="42.1263567" lon="14.6727414"><ele>167.0</ele><time>2026-04-26T08:00:43.339Z</time></trkpt><trkpt lat="42.126503" lon="14.6726186"><ele>166.66666666666666</ele><time>2026-04-26T08:00:44.339Z</time></trkpt><trkpt lat="42.1266526" lon="14.672496"><ele>166.33333333333334</ele><time>2026-04-26T08:00:45.339Z</time></trkpt><trkpt lat="42.126799" lon="14.6723745"><ele>166.0</ele><time>2026-04-26T08:00:46.339Z</time></trkpt><trkpt lat="42.1269541" lon="14.67225"><ele>166.0</ele><time>2026-04-26T08:00:47.338Z</time></trkpt><trkpt lat="42.12711" lon="14.6721216"><ele>166.0</ele><time>2026-04-26T08:00:48.339Z</time></trkpt><trkpt lat="42.1272696" lon="14.6719911"><ele>166.0</ele><time>2026-04-26T08:00:49.339Z</time></trkpt><trkpt lat="42.1274326" lon="14.6718609"><ele>165.33333333333334</ele><time>2026-04-26T08:00:50.339Z</time></trkpt><trkpt lat="42.1275983" lon="14.6717288"><ele>164.66666666666666</ele><time>2026-04-26T08:00:51.339Z</time></trkpt><trkpt lat="42.1277613" lon="14.6715936"><ele>164.0</ele><time>2026-04-26T08:00:52.339Z</time></trkpt><trkpt lat="42.127923" lon="14.6714607"><ele>164.0</ele><time>2026-04-26T08:00:53.339Z</time></trkpt><trkpt lat="42.1280863" lon="14.6713276"><ele>164.0</ele><time>2026-04-26T08:00:54.338Z</time></trkpt><trkpt lat="42.1282507" lon="14.6711917"><ele>164.0</ele><time>2026-04-26T08:00:55.339Z</time></trkpt><trkpt lat="42.1284194" lon="14.6710546"><ele>163.66666666666666</ele><time>2026-04-26T08:00:56.338Z</time></trkpt><trkpt lat="42.128596" lon="14.6709096"><ele>163.33333333333334</ele><time>2026-04-26T08:00:57.339Z</time></trkpt><trkpt lat="42.12877" lon="14.670769"><ele>163.0</ele><time>2026-04-26T08:00:58.339Z</time></trkpt><trkpt lat="42.1289377" lon="14.6706302"><ele>162.33333333333334</ele><time>2026-04-26T08:00:59.339Z</time></trkpt><trkpt lat="42.1291075" lon="14.6704936"><ele>161.66666666666666</ele><time>2026-04-26T08:01:00.339Z</time></trkpt><trkpt lat="42.1292803" lon="14.6703543"><ele>161.0</ele><time>2026-04-26T08:01:01.338Z</time></trkpt><trkpt lat="42.1294525" lon="14.6702163"><ele>161.0</ele><time>2026-04-26T08:01:02.339Z</time></trkpt><trkpt lat="42.1296298" lon="14.6700696"><ele>161.0</ele><time>2026-04-26T08:01:03.339Z</time></trkpt><trkpt lat="42.1298034" lon="14.6699099"><ele>161.0</ele><time>2026-04-26T08:01:04.339Z</time></trkpt><trkpt lat="42.1299768" lon="14.6697402"><ele>161.33333333333331</ele><time>2026-04-26T08:01:05.339Z</time></trkpt><trkpt lat="42.1301485" lon="14.669569"><ele>161.66666666666666</ele><time>2026-04-26T08:01:06.339Z</time></trkpt><trkpt lat="42.1303168" lon="14.6693959"><ele>162.0</ele><time>2026-04-26T08:01:07.34Z</time></trkpt><trkpt lat="42.1304806" lon="14.6692259"><ele>162.0</ele><time>2026-04-26T08:01:08.339Z</time></trkpt><trkpt lat="42.1306428" lon="14.6690602"><ele>162.0</ele><time>2026-04-26T08:01:09.339Z</time></trkpt><trkpt lat="42.1308057" lon="14.6688896"><ele>162.0</ele><time>2026-04-26T08:01:10.339Z</time></trkpt><trkpt lat="42.1309673" lon="14.6687193"><ele>162.33333333333334</ele><time>2026-04-26T08:01:11.339Z</time></trkpt><trkpt lat="42.1311307" lon="14.6685429"><ele>162.66666666666669</ele><time>2026-04-26T08:01:12.339Z</time></trkpt><trkpt lat="42.1312974" lon="14.6683686"><ele>163.0</ele><time>2026-04-26T08:01:13.338Z</time></trkpt><trkpt lat="42.131465" lon="14.6681947"><ele>163.33333333333334</ele><time>2026-04-26T08:01:14.339Z</time></trkpt><trkpt lat="42.131633" lon="14.6680227"><ele>163.66666666666666</ele><time>2026-04-26T08:01:15.339Z</time></trkpt><trkpt lat="42.131801" lon="14.6678458"><ele>164.0</ele><time>2026-04-26T08:01:16.339Z</time></trkpt><trkpt lat="42.1319697" lon="14.6676622"><ele>164.0</ele><time>2026-04-26T08:01:17.34Z</time></trkpt><trkpt lat="42.1321402" lon="14.6674804"><ele>164.0</ele><time>2026-04-26T08:01:18.339Z</time></trkpt><trkpt lat="42.1323137" lon="14.6673011"><ele>164.0</ele><time>2026-04-26T08:01:19.339Z</time></trkpt><trkpt lat="42.132489" lon="14.6671235"><ele>162.33333333333331</ele><time>2026-04-26T08:01:20.339Z</time></trkpt><trkpt lat="42.1326645" lon="14.6669426"><ele>160.66666666666666</ele><time>2026-04-26T08:01:21.339Z</time></trkpt><trkpt lat="42.132836" lon="14.6667633"><ele>159.0</ele><time>2026-04-26T08:01:22.34Z</time></trkpt><trkpt lat="42.1330019" lon="14.6665873"><ele>159.0</ele><time>2026-04-26T08:01:23.339Z</time></trkpt><trkpt lat="42.1331645" lon="14.6664131"><ele>159.0</ele><time>2026-04-26T08:01:24.339Z</time></trkpt><trkpt lat="42.1333305" lon="14.6662435"><ele>159.0</ele><time>2026-04-26T08:01:25.339Z</time></trkpt><trkpt lat="42.1334983" lon="14.6660747"><ele>158.0</ele><time>2026-04-26T08:01:26.339Z</time></trkpt><trkpt lat="42.1336658" lon="14.6659027"><ele>157.0</ele><time>2026-04-26T08:01:27.338Z</time></trkpt><trkpt lat="42.1338326" lon="14.6657289"><ele>156.0</ele><time>2026-04-26T08:01:28.338Z</time></trkpt><trkpt lat="42.1340012" lon="14.6655526"><ele>154.66666666666666</ele><time>2026-04-26T08:01:29.339Z</time></trkpt><trkpt lat="42.1341663" lon="14.6653838"><ele>153.33333333333331</ele><time>2026-04-26T08:01:30.339Z</time></trkpt><trkpt lat="42.1343313" lon="14.665217"><ele>152.0</ele><time>2026-04-26T08:01:31.339Z</time></trkpt><trkpt lat="42.1344914" lon="14.6650566"><ele>151.66666666666666</ele><time>2026-04-26T08:01:32.339Z</time></trkpt><trkpt lat="42.1346421" lon="14.6648987"><ele>151.33333333333334</ele><time>2026-04-26T08:01:33.338Z</time></trkpt><trkpt lat="42.1347843" lon="14.66474"><ele>151.0</ele><time>2026-04-26T08:01:34.339Z</time></trkpt><trkpt lat="42.1349147" lon="14.66457"><ele>149.0</ele><time>2026-04-26T08:01:35.339Z</time></trkpt><trkpt lat="42.1350369" lon="14.6643766"><ele>147.0</ele><time>2026-04-26T08:01:36.339Z</time></trkpt><trkpt lat="42.1351468" lon="14.664168"><ele>145.0</ele><time>2026-04-26T08:01:37.338Z</time></trkpt><trkpt lat="42.1352496" lon="14.6639446"><ele>145.0</ele><time>2026-04-26T08:01:38.338Z</time></trkpt><trkpt lat="42.1353495" lon="14.6637156"><ele>145.0</ele><time>2026-04-26T08:01:39.338Z</time></trkpt><trkpt lat="42.1354515" lon="14.6634905"><ele>145.0</ele><time>2026-04-26T08:01:40.34Z</time></trkpt><trkpt lat="42.1355506" lon="14.6632685"><ele>145.0</ele><time>2026-04-26T08:01:41.339Z</time></trkpt><trkpt lat="42.1356491" lon="14.6630497"><ele>145.0</ele><time>2026-04-26T08:01:42.339Z</time></trkpt><trkpt lat="42.1357369" lon="14.6628432"><ele>145.0</ele><time>2026-04-26T08:01:43.338Z</time></trkpt><trkpt lat="42.1358177" lon="14.6626537"><ele>146.0</ele><time>2026-04-26T08:01:44.338Z</time></trkpt><trkpt lat="42.1358911" lon="14.6624853"><ele>147.0</ele><time>2026-04-26T08:01:45.34Z</time></trkpt><trkpt lat="42.1359601" lon="14.6623406"><ele>148.0</ele><time>2026-04-26T08:01:46.338Z</time></trkpt><trkpt lat="42.1360346" lon="14.6622293"><ele>149.0</ele><time>2026-04-26T08:01:47.339Z</time></trkpt><trkpt lat="42.1361193" lon="14.6621435"><ele>149.0</ele><time>2026-04-26T08:01:48.339Z</time></trkpt><trkpt lat="42.1362169" lon="14.6620894"><ele>149.0</ele><time>2026-04-26T08:01:49.339Z</time></trkpt><trkpt lat="42.1363254" lon="14.6620659"><ele>149.0</ele><time>2026-04-26T08:01:50.34Z</time></trkpt><trkpt lat="42.1364395" lon="14.6620677"><ele>149.0</ele><time>2026-04-26T08:01:51.34Z</time></trkpt><trkpt lat="42.1365627" lon="14.6620747"><ele>147.5</ele><time>2026-04-26T08:01:52.338Z</time></trkpt><trkpt lat="42.1366958" lon="14.6620791"><ele>146.0</ele><time>2026-04-26T08:01:53.339Z</time></trkpt><trkpt lat="42.1368372" lon="14.6620718"><ele>144.5</ele><time>2026-04-26T08:01:54.338Z</time></trkpt><trkpt lat="42.1369896" lon="14.6620518"><ele>143.0</ele><time>2026-04-26T08:01:55.34Z</time></trkpt><trkpt lat="42.1371465" lon="14.6620236"><ele>143.0</ele><time>2026-04-26T08:01:56.338Z</time></trkpt><trkpt lat="42.1373162" lon="14.6619849"><ele>143.0</ele><time>2026-04-26T08:01:57.339Z</time></trkpt><trkpt lat="42.1374854" lon="14.6619536"><ele>143.0</ele><time>2026-04-26T08:01:58.338Z</time></trkpt><trkpt lat="42.1376567" lon="14.6619244"><ele>143.33333333333331</ele><time>2026-04-26T08:01:59.339Z</time></trkpt><trkpt lat="42.137829" lon="14.6618963"><ele>143.66666666666666</ele><time>2026-04-26T08:02:00.339Z</time></trkpt><trkpt lat="42.1380046" lon="14.6618652"><ele>144.0</ele><time>2026-04-26T08:02:01.339Z</time></trkpt><trkpt lat="42.1381789" lon="14.6618317"><ele>144.66666666666666</ele><time>2026-04-26T08:02:02.339Z</time></trkpt><trkpt lat="42.1383587" lon="14.6617964"><ele>145.33333333333331</ele><time>2026-04-26T08:02:03.339Z</time></trkpt><trkpt lat="42.1385351" lon="14.6617654"><ele>146.0</ele><time>2026-04-26T08:02:04.339Z</time></trkpt><trkpt lat="42.1387129" lon="14.6617362"><ele>146.0</ele><time>2026-04-26T08:02:05.338Z</time></trkpt><trkpt lat="42.1388936" lon="14.6617098"><ele>146.0</ele><time>2026-04-26T08:02:06.339Z</time></trkpt><trkpt lat="42.1390715" lon="14.6616796"><ele>146.0</ele><time>2026-04-26T08:02:07.339Z</time></trkpt><trkpt lat="42.1392527" lon="14.6616356"><ele>145.66666666666666</ele><time>2026-04-26T08:02:08.339Z</time></trkpt><trkpt lat="42.1394329" lon="14.6615767"><ele>145.33333333333334</ele><time>2026-04-26T08:02:09.34Z</time></trkpt><trkpt lat="42.1396145" lon="14.6615005"><ele>145.0</ele><time>2026-04-26T08:02:10.338Z</time></trkpt><trkpt lat="42.1398047" lon="14.6614142"><ele>144.0</ele><time>2026-04-26T08:02:11.339Z</time></trkpt><trkpt lat="42.1400012" lon="14.6613278"><ele>143.0</ele><time>2026-04-26T08:02:12.339Z</time></trkpt><trkpt lat="42.1402008" lon="14.6612413"><ele>142.0</ele><time>2026-04-26T08:02:13.339Z</time></trkpt><trkpt lat="42.1404012" lon="14.661156"><ele>141.66666666666669</ele><time>2026-04-26T08:02:14.34Z</time></trkpt><trkpt lat="42.1405966" lon="14.6610722"><ele>141.33333333333334</ele><time>2026-04-26T08:02:15.339Z</time></trkpt><trkpt lat="42.1407935" lon="14.6609822"><ele>141.0</ele><time>2026-04-26T08:02:16.339Z</time></trkpt><trkpt lat="42.1409935" lon="14.6608939"><ele>140.66666666666666</ele><time>2026-04-26T08:02:17.338Z</time></trkpt><trkpt lat="42.1411921" lon="14.6608095"><ele>140.33333333333331</ele><time>2026-04-26T08:02:18.338Z</time></trkpt><trkpt lat="42.1413944" lon="14.6607248"><ele>140.0</ele><time>2026-04-26T08:02:19.339Z</time></trkpt><trkpt lat="42.1415965" lon="14.6606398"><ele>140.0</ele><time>2026-04-26T08:02:20.339Z</time></trkpt><trkpt lat="42.1417976" lon="14.6605532"><ele>140.0</ele><time>2026-04-26T08:02:21.339Z</time></trkpt><trkpt lat="42.1419957" lon="14.6604686"><ele>140.0</ele><time>2026-04-26T08:02:22.339Z</time></trkpt><trkpt lat="42.1421933" lon="14.6603811"><ele>140.0</ele><time>2026-04-26T08:02:23.339Z</time></trkpt><trkpt lat="42.1423898" lon="14.660297"><ele>140.0</ele><time>2026-04-26T08:02:24.339Z</time></trkpt><trkpt lat="42.1425877" lon="14.660212"><ele>140.0</ele><time>2026-04-26T08:02:25.339Z</time></trkpt><trkpt lat="42.1427855" lon="14.6601255"><ele>140.0</ele><time>2026-04-26T08:02:26.339Z</time></trkpt><trkpt lat="42.14298" lon="14.6600417"><ele>140.0</ele><time>2026-04-26T08:02:27.339Z</time></trkpt><trkpt lat="42.1431734" lon="14.6599604"><ele>140.0</ele><time>2026-04-26T08:02:28.339Z</time></trkpt><trkpt lat="42.143368" lon="14.6598771"><ele>140.0</ele><time>2026-04-26T08:02:29.339Z</time></trkpt><trkpt lat="42.143558" lon="14.6597973"><ele>140.0</ele><time>2026-04-26T08:02:30.339Z</time></trkpt><trkpt lat="42.1437343" lon="14.6597213"><ele>140.0</ele><time>2026-04-26T08:02:31.339Z</time></trkpt><trkpt lat="42.1439101" lon="14.659649"><ele>139.66666666666666</ele><time>2026-04-26T08:02:32.34Z</time></trkpt><trkpt lat="42.1440875" lon="14.6595738"><ele>139.33333333333334</ele><time>2026-04-26T08:02:33.338Z</time></trkpt><trkpt lat="42.1442693" lon="14.6595141"><ele>139.0</ele><time>2026-04-26T08:02:34.339Z</time></trkpt><trkpt lat="42.1444539" lon="14.659467"><ele>138.66666666666669</ele><time>2026-04-26T08:02:35.339Z</time></trkpt><trkpt lat="42.1446464" lon="14.6594185"><ele>138.33333333333334</ele><time>2026-04-26T08:02:36.338Z</time></trkpt><trkpt lat="42.1448391" lon="14.6593702"><ele>138.0</ele><time>2026-04-26T08:02:37.339Z</time></trkpt><trkpt lat="42.1450352" lon="14.6593167"><ele>137.33333333333334</ele><time>2026-04-26T08:02:38.339Z</time></trkpt><trkpt lat="42.1452344" lon="14.6592646"><ele>136.66666666666669</ele><time>2026-04-26T08:02:39.34Z</time></trkpt><trkpt lat="42.1454384" lon="14.6592141"><ele>136.0</ele><time>2026-04-26T08:02:40.339Z</time></trkpt><trkpt lat="42.1456438" lon="14.6591585"><ele>135.33333333333334</ele><time>2026-04-26T08:02:41.339Z</time></trkpt><trkpt lat="42.1458506" lon="14.6591009"><ele>134.66666666666666</ele><time>2026-04-26T08:02:42.339Z</time></trkpt><trkpt lat="42.1460569" lon="14.6590525"><ele>134.0</ele><time>2026-04-26T08:02:43.34Z</time></trkpt><trkpt lat="42.1462569" lon="14.6590074"><ele>134.0</ele><time>2026-04-26T08:02:44.339Z</time></trkpt><trkpt lat="42.1464541" lon="14.6589597"><ele>134.0</ele><time>2026-04-26T08:02:45.339Z</time></trkpt><trkpt lat="42.1466435" lon="14.6589158"><ele>134.0</ele><time>2026-04-26T08:02:46.339Z</time></trkpt><trkpt lat="42.1468297" lon="14.6588701"><ele>133.33333333333331</ele><time>2026-04-26T08:02:47.339Z</time></trkpt><trkpt lat="42.1470116" lon="14.6588258"><ele>132.66666666666666</ele><time>2026-04-26T08:02:48.339Z</time></trkpt><trkpt lat="42.147193" lon="14.6587797"><ele>132.0</ele><time>2026-04-26T08:02:49.339Z</time></trkpt><trkpt lat="42.1473782" lon="14.6587315"><ele>132.33333333333334</ele><time>2026-04-26T08:02:50.338Z</time></trkpt><trkpt lat="42.1475678" lon="14.6586785"><ele>132.66666666666669</ele><time>2026-04-26T08:02:51.34Z</time></trkpt><trkpt lat="42.1477629" lon="14.6586291"><ele>133.0</ele><time>2026-04-26T08:02:52.338Z</time></trkpt><trkpt lat="42.1479575" lon="14.6585786"><ele>133.0</ele><time>2026-04-26T08:02:53.34Z</time></trkpt><trkpt lat="42.1481493" lon="14.6585317"><ele>133.0</ele><time>2026-04-26T08:02:54.339Z</time></trkpt><trkpt lat="42.1483446" lon="14.6584831"><ele>133.0</ele><time>2026-04-26T08:02:55.338Z</time></trkpt><trkpt lat="42.1485401" lon="14.6584307"><ele>133.0</ele><time>2026-04-26T08:02:56.339Z</time></trkpt><trkpt lat="42.1487383" lon="14.6583789"><ele>133.0</ele><time>2026-04-26T08:02:57.339Z</time></trkpt><trkpt lat="42.1489373" lon="14.6583317"><ele>133.0</ele><time>2026-04-26T08:02:58.339Z</time></trkpt><trkpt lat="42.1491334" lon="14.6582839"><ele>133.0</ele><time>2026-04-26T08:02:59.338Z</time></trkpt><trkpt lat="42.1493307" lon="14.6582352"><ele>133.0</ele><time>2026-04-26T08:03:00.339Z</time></trkpt><trkpt lat="42.1495253" lon="14.6581823"><ele>133.0</ele><time>2026-04-26T08:03:01.338Z</time></trkpt><trkpt lat="42.1497206" lon="14.658121"><ele>131.66666666666669</ele><time>2026-04-26T08:03:02.339Z</time></trkpt><trkpt lat="42.1499215" lon="14.6580434"><ele>130.33333333333334</ele><time>2026-04-26T08:03:03.339Z</time></trkpt><trkpt lat="42.1501234" lon="14.6579577"><ele>129.0</ele><time>2026-04-26T08:03:04.338Z</time></trkpt><trkpt lat="42.150331" lon="14.657871"><ele>129.66666666666666</ele><time>2026-04-26T08:03:05.338Z</time></trkpt><trkpt lat="42.150544" lon="14.6577787"><ele>130.33333333333331</ele><time>2026-04-26T08:03:06.339Z</time></trkpt><trkpt lat="42.1507574" lon="14.657687"><ele>131.0</ele><time>2026-04-26T08:03:07.339Z</time></trkpt><trkpt lat="42.1509687" lon="14.6575954"><ele>131.0</ele><time>2026-04-26T08:03:08.338Z</time></trkpt><trkpt lat="42.1511777" lon="14.6575071"><ele>131.0</ele><time>2026-04-26T08:03:09.339Z</time></trkpt><trkpt lat="42.1513803" lon="14.6574243"><ele>131.0</ele><time>2026-04-26T08:03:10.339Z</time></trkpt><trkpt lat="42.1515832" lon="14.6573389"><ele>129.0</ele><time>2026-04-26T08:03:11.339Z</time></trkpt><trkpt lat="42.1517825" lon="14.6572497"><ele>127.0</ele><time>2026-04-26T08:03:12.338Z</time></trkpt><trkpt lat="42.1519817" lon="14.6571651"><ele>125.0</ele><time>2026-04-26T08:03:13.338Z</time></trkpt><trkpt lat="42.1521804" lon="14.6570796"><ele>125.33333333333333</ele><time>2026-04-26T08:03:14.339Z</time></trkpt><trkpt lat="42.1523801" lon="14.6569968"><ele>125.66666666666666</ele><time>2026-04-26T08:03:15.339Z</time></trkpt><trkpt lat="42.1525793" lon="14.6569154"><ele>126.0</ele><time>2026-04-26T08:03:16.339Z</time></trkpt><trkpt lat="42.1527778" lon="14.6568356"><ele>126.0</ele><time>2026-04-26T08:03:17.338Z</time></trkpt><trkpt lat="42.1529743" lon="14.6567479"><ele>126.0</ele><time>2026-04-26T08:03:18.339Z</time></trkpt><trkpt lat="42.1531714" lon="14.6566602"><ele>126.0</ele><time>2026-04-26T08:03:19.339Z</time></trkpt><trkpt lat="42.1533692" lon="14.6565796"><ele>125.66666666666666</ele><time>2026-04-26T08:03:20.339Z</time></trkpt><trkpt lat="42.1535649" lon="14.6564991"><ele>125.33333333333333</ele><time>2026-04-26T08:03:21.34Z</time></trkpt><trkpt lat="42.15376" lon="14.6564211"><ele>125.0</ele><time>2026-04-26T08:03:22.339Z</time></trkpt><trkpt lat="42.1539447" lon="14.6563474"><ele>124.66666666666666</ele><time>2026-04-26T08:03:23.339Z</time></trkpt><trkpt lat="42.1541349" lon="14.656267"><ele>124.33333333333334</ele><time>2026-04-26T08:03:24.339Z</time></trkpt><trkpt lat="42.1543272" lon="14.656185"><ele>124.0</ele><time>2026-04-26T08:03:25.338Z</time></trkpt><trkpt lat="42.1545214" lon="14.6561033"><ele>124.0</ele><time>2026-04-26T08:03:26.34Z</time></trkpt><trkpt lat="42.1547187" lon="14.6560201"><ele>124.0</ele><time>2026-04-26T08:03:27.339Z</time></trkpt><trkpt lat="42.1549174" lon="14.6559369"><ele>124.0</ele><time>2026-04-26T08:03:28.338Z</time></trkpt><trkpt lat="42.1551177" lon="14.6558511"><ele>123.33333333333334</ele><time>2026-04-26T08:03:29.339Z</time></trkpt><trkpt lat="42.1553168" lon="14.6557632"><ele>122.66666666666666</ele><time>2026-04-26T08:03:30.338Z</time></trkpt><trkpt lat="42.1555164" lon="14.6556805"><ele>122.0</ele><time>2026-04-26T08:03:31.34Z</time></trkpt><trkpt lat="42.1557044" lon="14.6555995"><ele>120.0</ele><time>2026-04-26T08:03:32.338Z</time></trkpt><trkpt lat="42.1558903" lon="14.6555214"><ele>118.0</ele><time>2026-04-26T08:03:33.339Z</time></trkpt><trkpt lat="42.1560684" lon="14.6554475"><ele>116.0</ele><time>2026-04-26T08:03:34.338Z</time></trkpt><trkpt lat="42.1562424" lon="14.6553832"><ele>116.0</ele><time>2026-04-26T08:03:35.339Z</time></trkpt><trkpt lat="42.1564212" lon="14.6553476"><ele>116.0</ele><time>2026-04-26T08:03:36.339Z</time></trkpt><trkpt lat="42.1566069" lon="14.6553443"><ele>116.0</ele><time>2026-04-26T08:03:37.338Z</time></trkpt><trkpt lat="42.156803" lon="14.6553675"><ele>115.33333333333333</ele><time>2026-04-26T08:03:38.339Z</time></trkpt><trkpt lat="42.1569968" lon="14.6553975"><ele>114.66666666666666</ele><time>2026-04-26T08:03:39.339Z</time></trkpt><trkpt lat="42.157181" lon="14.6554311"><ele>114.0</ele><time>2026-04-26T08:03:40.339Z</time></trkpt><trkpt lat="42.1573536" lon="14.6554613"><ele>113.5</ele><time>2026-04-26T08:03:41.339Z</time></trkpt><trkpt lat="42.1575037" lon="14.6554855"><ele>113.0</ele><time>2026-04-26T08:03:42.339Z</time></trkpt><trkpt lat="42.1576441" lon="14.6555309"><ele>112.5</ele><time>2026-04-26T08:03:43.339Z</time></trkpt><trkpt lat="42.1577745" lon="14.6556124"><ele>112.0</ele><time>2026-04-26T08:03:44.338Z</time></trkpt><trkpt lat="42.1579026" lon="14.6557245"><ele>112.0</ele><time>2026-04-26T08:03:45.338Z</time></trkpt><trkpt lat="42.1580323" lon="14.6558564"><ele>112.0</ele><time>2026-04-26T08:03:46.338Z</time></trkpt><trkpt lat="42.1581669" lon="14.6560001"><ele>112.0</ele><time>2026-04-26T08:03:47.339Z</time></trkpt><trkpt lat="42.1583116" lon="14.6561487"><ele>111.0</ele><time>2026-04-26T08:03:48.339Z</time></trkpt><trkpt lat="42.1584593" lon="14.6563054"><ele>110.0</ele><time>2026-04-26T08:03:49.338Z</time></trkpt><trkpt lat="42.1586129" lon="14.6564646"><ele>109.0</ele><time>2026-04-26T08:03:50.339Z</time></trkpt><trkpt lat="42.1587703" lon="14.6566269"><ele>109.0</ele><time>2026-04-26T08:03:51.339Z</time></trkpt><trkpt lat="42.1589284" lon="14.6567917"><ele>109.0</ele><time>2026-04-26T08:03:52.339Z</time></trkpt><trkpt lat="42.1590843" lon="14.6569584"><ele>109.0</ele><time>2026-04-26T08:03:53.339Z</time></trkpt><trkpt lat="42.1592365" lon="14.6571241"><ele>106.66666666666667</ele><time>2026-04-26T08:03:54.338Z</time></trkpt><trkpt lat="42.1593838" lon="14.6572829"><ele>104.33333333333334</ele><time>2026-04-26T08:03:55.339Z</time></trkpt><trkpt lat="42.1595288" lon="14.6574389"><ele>102.0</ele><time>2026-04-26T08:03:56.339Z</time></trkpt><trkpt lat="42.1596682" lon="14.6575866"><ele>102.0</ele><time>2026-04-26T08:03:57.34Z</time></trkpt><trkpt lat="42.1597972" lon="14.657726"><ele>102.0</ele><time>2026-04-26T08:03:58.338Z</time></trkpt><trkpt lat="42.1599145" lon="14.6578515"><ele>102.0</ele><time>2026-04-26T08:03:59.339Z</time></trkpt><trkpt lat="42.1600326" lon="14.6579625"><ele>101.0</ele><time>2026-04-26T08:04:00.338Z</time></trkpt><trkpt lat="42.1601438" lon="14.658036"><ele>100.0</ele><time>2026-04-26T08:04:01.34Z</time></trkpt><trkpt lat="42.1602648" lon="14.6580874"><ele>99.0</ele><time>2026-04-26T08:04:02.338Z</time></trkpt><trkpt lat="42.1603923" lon="14.6581113"><ele>98.0</ele><time>2026-04-26T08:04:03.339Z</time></trkpt><trkpt lat="42.1605348" lon="14.6581204"><ele>98.0</ele><time>2026-04-26T08:04:04.339Z</time></trkpt><trkpt lat="42.1606867" lon="14.6581202"><ele>98.0</ele><time>2026-04-26T08:04:05.34Z</time></trkpt><trkpt lat="42.1608478" lon="14.6581157"><ele>98.0</ele><time>2026-04-26T08:04:06.339Z</time></trkpt><trkpt lat="42.161016" lon="14.6581112"><ele>97.33333333333333</ele><time>2026-04-26T08:04:07.339Z</time></trkpt><trkpt lat="42.1611861" lon="14.6581099"><ele>96.66666666666666</ele><time>2026-04-26T08:04:08.339Z</time></trkpt><trkpt lat="42.1613584" lon="14.6581122"><ele>96.0</ele><time>2026-04-26T08:04:09.339Z</time></trkpt><trkpt lat="42.1615246" lon="14.6581065"><ele>95.0</ele><time>2026-04-26T08:04:10.338Z</time></trkpt><trkpt lat="42.1616905" lon="14.658094"><ele>94.0</ele><time>2026-04-26T08:04:11.339Z</time></trkpt><trkpt lat="42.1618571" lon="14.6580711"><ele>93.0</ele><time>2026-04-26T08:04:12.339Z</time></trkpt><trkpt lat="42.1620251" lon="14.6580328"><ele>93.0</ele><time>2026-04-26T08:04:13.339Z</time></trkpt><trkpt lat="42.1621937" lon="14.6579935"><ele>93.0</ele><time>2026-04-26T08:04:14.338Z</time></trkpt><trkpt lat="42.1623573" lon="14.6579569"><ele>93.0</ele><time>2026-04-26T08:04:15.339Z</time></trkpt><trkpt lat="42.1625261" lon="14.6579371"><ele>93.0</ele><time>2026-04-26T08:04:16.34Z</time></trkpt><trkpt lat="42.1626907" lon="14.6579384"><ele>93.0</ele><time>2026-04-26T08:04:17.338Z</time></trkpt><trkpt lat="42.1628536" lon="14.6579574"><ele>93.0</ele><time>2026-04-26T08:04:18.338Z</time></trkpt><trkpt lat="42.1630167" lon="14.6579977"><ele>93.0</ele><time>2026-04-26T08:04:19.339Z</time></trkpt><trkpt lat="42.1631659" lon="14.6580674"><ele>93.0</ele><time>2026-04-26T08:04:20.338Z</time></trkpt><trkpt lat="42.1633155" lon="14.6581621"><ele>93.0</ele><time>2026-04-26T08:04:21.339Z</time></trkpt><trkpt lat="42.163463" lon="14.658276"><ele>92.66666666666667</ele><time>2026-04-26T08:04:22.34Z</time></trkpt><trkpt lat="42.1636054" lon="14.6584091"><ele>92.33333333333334</ele><time>2026-04-26T08:04:23.339Z</time></trkpt><trkpt lat="42.1637384" lon="14.6585688"><ele>92.0</ele><time>2026-04-26T08:04:24.338Z</time></trkpt><trkpt lat="42.1638644" lon="14.6587509"><ele>91.66666666666667</ele><time>2026-04-26T08:04:25.339Z</time></trkpt><trkpt lat="42.1639792" lon="14.6589607"><ele>91.33333333333333</ele><time>2026-04-26T08:04:26.339Z</time></trkpt><trkpt lat="42.164085" lon="14.6591878"><ele>91.0</ele><time>2026-04-26T08:04:27.338Z</time></trkpt><trkpt lat="42.1641927" lon="14.6594231"><ele>89.0</ele><time>2026-04-26T08:04:28.339Z</time></trkpt><trkpt lat="42.164303" lon="14.6596647"><ele>87.0</ele><time>2026-04-26T08:04:29.339Z</time></trkpt><trkpt lat="42.1644032" lon="14.6599037"><ele>85.0</ele><time>2026-04-26T08:04:30.339Z</time></trkpt><trkpt lat="42.1645032" lon="14.6601282"><ele>85.0</ele><time>2026-04-26T08:04:31.339Z</time></trkpt><trkpt lat="42.1645999" lon="14.6603409"><ele>85.0</ele><time>2026-04-26T08:04:32.34Z</time></trkpt><trkpt lat="42.1646911" lon="14.6605407"><ele>85.0</ele><time>2026-04-26T08:04:33.339Z</time></trkpt><trkpt lat="42.1647846" lon="14.6607313"><ele>83.66666666666666</ele><time>2026-04-26T08:04:34.338Z</time></trkpt><trkpt lat="42.1648824" lon="14.6609184"><ele>82.33333333333333</ele><time>2026-04-26T08:04:35.339Z</time></trkpt><trkpt lat="42.1649905" lon="14.6610957"><ele>81.0</ele><time>2026-04-26T08:04:36.339Z</time></trkpt><trkpt lat="42.1651126" lon="14.6612655"><ele>80.0</ele><time>2026-04-26T08:04:37.339Z</time></trkpt><trkpt lat="42.1652446" lon="14.661426"><ele>79.0</ele><time>2026-04-26T08:04:38.34Z</time></trkpt><trkpt lat="42.1653856" lon="14.6615775"><ele>78.0</ele><time>2026-04-26T08:04:39.339Z</time></trkpt><trkpt lat="42.165532" lon="14.6617089"><ele>78.0</ele><time>2026-04-26T08:04:40.339Z</time></trkpt><trkpt lat="42.1656713" lon="14.6618316"><ele>78.0</ele><time>2026-04-26T08:04:41.339Z</time></trkpt><trkpt lat="42.1658047" lon="14.6619397"><ele>78.0</ele><time>2026-04-26T08:04:42.34Z</time></trkpt><trkpt lat="42.1659187" lon="14.6620381"><ele>77.6</ele><time>2026-04-26T08:04:43.339Z</time></trkpt><trkpt lat="42.1660156" lon="14.662122"><ele>77.19999999999999</ele><time>2026-04-26T08:04:44.338Z</time></trkpt><trkpt lat="42.1660899" lon="14.6622022"><ele>76.8</ele><time>2026-04-26T08:04:45.34Z</time></trkpt><trkpt lat="42.1661533" lon="14.6622864"><ele>76.39999999999999</ele><time>2026-04-26T08:04:46.339Z</time></trkpt><trkpt lat="42.1662062" lon="14.6623833"><ele>76.0</ele><time>2026-04-26T08:04:47.339Z</time></trkpt><trkpt lat="42.166252" lon="14.6624725"><ele>76.0</ele><time>2026-04-26T08:04:48.339Z</time></trkpt><trkpt lat="42.1663073" lon="14.6625444"><ele>76.0</ele><time>2026-04-26T08:04:49.339Z</time></trkpt><trkpt lat="42.1663752" lon="14.6625901"><ele>76.0</ele><time>2026-04-26T08:04:50.338Z</time></trkpt><trkpt lat="42.1664472" lon="14.662602"><ele>76.0</ele><time>2026-04-26T08:04:51.339Z</time></trkpt><trkpt lat="42.1665164" lon="14.6625774"><ele>76.0</ele><time>2026-04-26T08:04:52.339Z</time></trkpt><trkpt lat="42.16657" lon="14.6625173"><ele>76.0</ele><time>2026-04-26T08:04:53.338Z</time></trkpt><trkpt lat="42.1666051" lon="14.6624312"><ele>76.0</ele><time>2026-04-26T08:04:54.339Z</time></trkpt><trkpt lat="42.1666169" lon="14.6623323"><ele>75.6</ele><time>2026-04-26T08:04:55.34Z</time></trkpt><trkpt lat="42.1666042" lon="14.6622231"><ele>75.19999999999999</ele><time>2026-04-26T08:04:56.338Z</time></trkpt><trkpt lat="42.166589" lon="14.6621049"><ele>74.80000000000001</ele><time>2026-04-26T08:04:57.339Z</time></trkpt><trkpt lat="42.1665832" lon="14.6619763"><ele>74.4</ele><time>2026-04-26T08:04:58.338Z</time></trkpt><trkpt lat="42.1666082" lon="14.6618424"><ele>74.0</ele><time>2026-04-26T08:04:59.339Z</time></trkpt><trkpt lat="42.1666469" lon="14.6616904"><ele>74.0</ele><time>2026-04-26T08:05:00.339Z</time></trkpt><trkpt lat="42.1666922" lon="14.6615217"><ele>74.0</ele><time>2026-04-26T08:05:01.338Z</time></trkpt><trkpt lat="42.1667468" lon="14.6613435"><ele>74.0</ele><time>2026-04-26T08:05:02.34Z</time></trkpt><trkpt lat="42.1668033" lon="14.6611524"><ele>74.0</ele><time>2026-04-26T08:05:03.34Z</time></trkpt><trkpt lat="42.1668632" lon="14.660947"><ele>75.0</ele><time>2026-04-26T08:05:04.339Z</time></trkpt><trkpt lat="42.166926" lon="14.6607309"><ele>76.0</ele><time>2026-04-26T08:05:05.339Z</time></trkpt><trkpt lat="42.1669904" lon="14.6605031"><ele>77.0</ele><time>2026-04-26T08:05:06.339Z</time></trkpt><trkpt lat="42.1670543" lon="14.6602735"><ele>77.66666666666667</ele><time>2026-04-26T08:05:07.339Z</time></trkpt><trkpt lat="42.1671215" lon="14.6600457"><ele>78.33333333333333</ele><time>2026-04-26T08:05:08.339Z</time></trkpt><trkpt lat="42.1671936" lon="14.6598089"><ele>79.0</ele><time>2026-04-26T08:05:09.339Z</time></trkpt><trkpt lat="42.1672641" lon="14.6595647"><ele>79.0</ele><time>2026-04-26T08:05:10.339Z</time></trkpt><trkpt lat="42.1673375" lon="14.6593164"><ele>79.0</ele><time>2026-04-26T08:05:11.339Z</time></trkpt><trkpt lat="42.1674096" lon="14.65907"><ele>79.0</ele><time>2026-04-26T08:05:12.339Z</time></trkpt><trkpt lat="42.1674779" lon="14.6588318"><ele>78.33333333333333</ele><time>2026-04-26T08:05:13.339Z</time></trkpt><trkpt lat="42.167545" lon="14.658594"><ele>77.66666666666667</ele><time>2026-04-26T08:05:14.339Z</time></trkpt><trkpt lat="42.1676044" lon="14.6583561"><ele>77.0</ele><time>2026-04-26T08:05:15.339Z</time></trkpt><trkpt lat="42.1676521" lon="14.6581077"><ele>77.0</ele><time>2026-04-26T08:05:16.339Z</time></trkpt><trkpt lat="42.1676852" lon="14.657851"><ele>77.0</ele><time>2026-04-26T08:05:17.339Z</time></trkpt><trkpt lat="42.167709" lon="14.6575925"><ele>77.0</ele><time>2026-04-26T08:05:18.339Z</time></trkpt><trkpt lat="42.1677183" lon="14.6573404"><ele>78.0</ele><time>2026-04-26T08:05:19.339Z</time></trkpt><trkpt lat="42.167715" lon="14.6570989"><ele>79.0</ele><time>2026-04-26T08:05:20.339Z</time></trkpt><trkpt lat="42.1676992" lon="14.6568612"><ele>80.0</ele><time>2026-04-26T08:05:21.339Z</time></trkpt><trkpt lat="42.1676724" lon="14.656625"><ele>80.0</ele><time>2026-04-26T08:05:22.339Z</time></trkpt><trkpt lat="42.1676335" lon="14.656391"><ele>80.0</ele><time>2026-04-26T08:05:23.338Z</time></trkpt><trkpt lat="42.1675832" lon="14.6561566"><ele>80.0</ele><time>2026-04-26T08:05:24.339Z</time></trkpt><trkpt lat="42.1675209" lon="14.6559259"><ele>77.33333333333334</ele><time>2026-04-26T08:05:25.339Z</time></trkpt><trkpt lat="42.1674466" lon="14.655704"><ele>74.66666666666667</ele><time>2026-04-26T08:05:26.338Z</time></trkpt><trkpt lat="42.1673586" lon="14.6554931"><ele>72.0</ele><time>2026-04-26T08:05:27.339Z</time></trkpt><trkpt lat="42.1672642" lon="14.6552865"><ele>68.0</ele><time>2026-04-26T08:05:28.338Z</time></trkpt><trkpt lat="42.1671599" lon="14.6550849"><ele>64.0</ele><time>2026-04-26T08:05:29.339Z</time></trkpt><trkpt lat="42.1670412" lon="14.654891"><ele>60.0</ele><time>2026-04-26T08:05:30.339Z</time></trkpt><trkpt lat="42.1669115" lon="14.6547079"><ele>60.0</ele><time>2026-04-26T08:05:31.338Z</time></trkpt><trkpt lat="42.1667716" lon="14.6545358"><ele>60.0</ele><time>2026-04-26T08:05:32.34Z</time></trkpt><trkpt lat="42.166624" lon="14.6543771"><ele>60.0</ele><time>2026-04-26T08:05:33.339Z</time></trkpt><trkpt lat="42.1664757" lon="14.6542339"><ele>62.66666666666667</ele><time>2026-04-26T08:05:34.339Z</time></trkpt><trkpt lat="42.1663301" lon="14.6541053"><ele>65.33333333333334</ele><time>2026-04-26T08:05:35.34Z</time></trkpt><trkpt lat="42.166187" lon="14.6539781"><ele>68.0</ele><time>2026-04-26T08:05:36.338Z</time></trkpt><trkpt lat="42.1660395" lon="14.6538467"><ele>68.0</ele><time>2026-04-26T08:05:37.339Z</time></trkpt><trkpt lat="42.1658876" lon="14.6537185"><ele>68.0</ele><time>2026-04-26T08:05:38.339Z</time></trkpt><trkpt lat="42.165732" lon="14.6535884"><ele>68.0</ele><time>2026-04-26T08:05:39.34Z</time></trkpt><trkpt lat="42.1655725" lon="14.6534553"><ele>65.0</ele><time>2026-04-26T08:05:40.338Z</time></trkpt><trkpt lat="42.1654171" lon="14.6533171"><ele>62.0</ele><time>2026-04-26T08:05:41.339Z</time></trkpt><trkpt lat="42.1652691" lon="14.6531812"><ele>59.0</ele><time>2026-04-26T08:05:42.339Z</time></trkpt><trkpt lat="42.1651254" lon="14.653051"><ele>59.0</ele><time>2026-04-26T08:05:43.338Z</time></trkpt><trkpt lat="42.1649909" lon="14.652922"><ele>59.0</ele><time>2026-04-26T08:05:44.34Z</time></trkpt><trkpt lat="42.1648655" lon="14.6527899"><ele>59.0</ele><time>2026-04-26T08:05:45.339Z</time></trkpt><trkpt lat="42.1647497" lon="14.6526519"><ele>53.66666666666667</ele><time>2026-04-26T08:05:46.339Z</time></trkpt><trkpt lat="42.1646331" lon="14.6525083"><ele>48.333333333333336</ele><time>2026-04-26T08:05:47.338Z</time></trkpt><trkpt lat="42.1645189" lon="14.6523511"><ele>43.0</ele><time>2026-04-26T08:05:48.339Z</time></trkpt><trkpt lat="42.1644123" lon="14.6521769"><ele>43.0</ele><time>2026-04-26T08:05:49.338Z</time></trkpt><trkpt lat="42.1643044" lon="14.6519945"><ele>43.0</ele><time>2026-04-26T08:05:50.34Z</time></trkpt><trkpt lat="42.1642068" lon="14.651795"><ele>43.0</ele><time>2026-04-26T08:05:51.34Z</time></trkpt><trkpt lat="42.164116" lon="14.6515787"><ele>38.66666666666667</ele><time>2026-04-26T08:05:52.338Z</time></trkpt><trkpt lat="42.1640328" lon="14.6513442"><ele>34.333333333333336</ele><time>2026-04-26T08:05:53.338Z</time></trkpt><trkpt lat="42.1639526" lon="14.6511057"><ele>30.0</ele><time>2026-04-26T08:05:54.338Z</time></trkpt><trkpt lat="42.1638841" lon="14.6508525"><ele>27.333333333333332</ele><time>2026-04-26T08:05:55.338Z</time></trkpt><trkpt lat="42.1638283" lon="14.6505902"><ele>24.666666666666664</ele><time>2026-04-26T08:05:56.34Z</time></trkpt><trkpt lat="42.1637899" lon="14.6503231"><ele>22.0</ele><time>2026-04-26T08:05:57.339Z</time></trkpt><trkpt lat="42.1637616" lon="14.6500534"><ele>22.0</ele><time>2026-04-26T08:05:58.34Z</time></trkpt><trkpt lat="42.1637483" lon="14.6497723"><ele>22.0</ele><time>2026-04-26T08:05:59.338Z</time></trkpt><trkpt lat="42.1637454" lon="14.6494897"><ele>22.0</ele><time>2026-04-26T08:06:00.338Z</time></trkpt><trkpt lat="42.1637615" lon="14.6491941"><ele>22.0</ele><time>2026-04-26T08:06:01.339Z</time></trkpt><trkpt lat="42.1637823" lon="14.6489006"><ele>22.0</ele><time>2026-04-26T08:06:02.34Z</time></trkpt><trkpt lat="42.1638106" lon="14.6485988"><ele>22.0</ele><time>2026-04-26T08:06:03.339Z</time></trkpt><trkpt lat="42.1638391" lon="14.6483014"><ele>22.0</ele><time>2026-04-26T08:06:04.339Z</time></trkpt><trkpt lat="42.1638658" lon="14.6480086"><ele>22.0</ele><time>2026-04-26T08:06:05.339Z</time></trkpt><trkpt lat="42.1638936" lon="14.6477258"><ele>22.0</ele><time>2026-04-26T08:06:06.339Z</time></trkpt><trkpt lat="42.1639172" lon="14.6474495"><ele>21.333333333333332</ele><time>2026-04-26T08:06:07.339Z</time></trkpt><trkpt lat="42.1639403" lon="14.6471715"><ele>20.666666666666668</ele><time>2026-04-26T08:06:08.339Z</time></trkpt><trkpt lat="42.1639639" lon="14.6468956"><ele>20.0</ele><time>2026-04-26T08:06:09.34Z</time></trkpt><trkpt lat="42.1639881" lon="14.6466202"><ele>20.0</ele><time>2026-04-26T08:06:10.34Z</time></trkpt><trkpt lat="42.1640044" lon="14.6463427"><ele>20.0</ele><time>2026-04-26T08:06:11.339Z</time></trkpt><trkpt lat="42.1640106" lon="14.646065"><ele>20.0</ele><time>2026-04-26T08:06:12.34Z</time></trkpt><trkpt lat="42.1640072" lon="14.6457859"><ele>19.333333333333336</ele><time>2026-04-26T08:06:13.339Z</time></trkpt><trkpt lat="42.164" lon="14.6455067"><ele>18.666666666666668</ele><time>2026-04-26T08:06:14.339Z</time></trkpt><trkpt lat="42.1639909" lon="14.6452239"><ele>18.0</ele><time>2026-04-26T08:06:15.339Z</time></trkpt><trkpt lat="42.1639846" lon="14.6449344"><ele>17.666666666666668</ele><time>2026-04-26T08:06:16.339Z</time></trkpt><trkpt lat="42.1639739" lon="14.6446405"><ele>17.333333333333336</ele><time>2026-04-26T08:06:17.339Z</time></trkpt><trkpt lat="42.1639644" lon="14.6443506"><ele>17.0</ele><time>2026-04-26T08:06:18.339Z</time></trkpt><trkpt lat="42.1639506" lon="14.6440597"><ele>17.0</ele><time>2026-04-26T08:06:19.34Z</time></trkpt><trkpt lat="42.1639419" lon="14.6437795"><ele>17.0</ele><time>2026-04-26T08:06:20.34Z</time></trkpt><trkpt lat="42.1639333" lon="14.6435113"><ele>17.0</ele><time>2026-04-26T08:06:21.339Z</time></trkpt><trkpt lat="42.1639249" lon="14.6432569"><ele>18.0</ele><time>2026-04-26T08:06:22.339Z</time></trkpt><trkpt lat="42.1639211" lon="14.6430126"><ele>19.0</ele><time>2026-04-26T08:06:23.339Z</time></trkpt><trkpt lat="42.1639157" lon="14.6427843"><ele>20.0</ele><time>2026-04-26T08:06:24.339Z</time></trkpt><trkpt lat="42.1639134" lon="14.6425676"><ele>20.0</ele><time>2026-04-26T08:06:25.339Z</time></trkpt><trkpt lat="42.1639128" lon="14.642365"><ele>20.0</ele><time>2026-04-26T08:06:26.338Z</time></trkpt><trkpt lat="42.163915" lon="14.6421706"><ele>20.0</ele><time>2026-04-26T08:06:27.339Z</time></trkpt><trkpt lat="42.1639193" lon="14.6419835"><ele>20.0</ele><time>2026-04-26T08:06:28.339Z</time></trkpt><trkpt lat="42.1639322" lon="14.6418088"><ele>20.0</ele><time>2026-04-26T08:06:29.338Z</time></trkpt><trkpt lat="42.1639525" lon="14.6416583"><ele>20.0</ele><time>2026-04-26T08:06:30.34Z</time></trkpt><trkpt lat="42.1639814" lon="14.6415284"><ele>20.0</ele><time>2026-04-26T08:06:31.339Z</time></trkpt><trkpt lat="42.1640102" lon="14.6414228"><ele>20.0</ele><time>2026-04-26T08:06:32.339Z</time></trkpt><trkpt lat="42.1640524" lon="14.641324"><ele>20.0</ele><time>2026-04-26T08:06:33.339Z</time></trkpt><trkpt lat="42.1641155" lon="14.6412389"><ele>20.0</ele><time>2026-04-26T08:06:34.339Z</time></trkpt><trkpt lat="42.1641828" lon="14.6411568"><ele>20.0</ele><time>2026-04-26T08:06:35.339Z</time></trkpt><trkpt lat="42.1642416" lon="14.6410586"><ele>20.0</ele><time>2026-04-26T08:06:36.339Z</time></trkpt><trkpt lat="42.1642918" lon="14.6409492"><ele>20.0</ele><time>2026-04-26T08:06:37.339Z</time></trkpt><trkpt lat="42.1643531" lon="14.6408466"><ele>20.0</ele><time>2026-04-26T08:06:38.339Z</time></trkpt><trkpt lat="42.1644328" lon="14.6407603"><ele>20.0</ele><time>2026-04-26T08:06:39.34Z</time></trkpt><trkpt lat="42.1645296" lon="14.640687"><ele>20.0</ele><time>2026-04-26T08:06:40.339Z</time></trkpt><trkpt lat="42.1646413" lon="14.6406326"><ele>20.0</ele><time>2026-04-26T08:06:41.338Z</time></trkpt><trkpt lat="42.1647647" lon="14.6405784"><ele>20.0</ele><time>2026-04-26T08:06:42.338Z</time></trkpt><trkpt lat="42.1649004" lon="14.6405152"><ele>19.75</ele><time>2026-04-26T08:06:43.339Z</time></trkpt><trkpt lat="42.1650343" lon="14.6404618"><ele>19.5</ele><time>2026-04-26T08:06:44.339Z</time></trkpt><trkpt lat="42.1651678" lon="14.6404258"><ele>19.25</ele><time>2026-04-26T08:06:45.339Z</time></trkpt><trkpt lat="42.1653107" lon="14.640391"><ele>19.0</ele><time>2026-04-26T08:06:46.339Z</time></trkpt><trkpt lat="42.1654685" lon="14.6403579"><ele>19.0</ele><time>2026-04-26T08:06:47.339Z</time></trkpt><trkpt lat="42.1656348" lon="14.6403259"><ele>19.0</ele><time>2026-04-26T08:06:48.339Z</time></trkpt><trkpt lat="42.1657893" lon="14.640302"><ele>19.0</ele><time>2026-04-26T08:06:49.339Z</time></trkpt><trkpt lat="42.1659373" lon="14.6402763"><ele>18.666666666666664</ele><time>2026-04-26T08:06:50.339Z</time></trkpt><trkpt lat="42.1660803" lon="14.6402538"><ele>18.333333333333332</ele><time>2026-04-26T08:06:51.34Z</time></trkpt><trkpt lat="42.166233" lon="14.6402333"><ele>18.0</ele><time>2026-04-26T08:06:52.339Z</time></trkpt><trkpt lat="42.1663945" lon="14.6402094"><ele>17.666666666666668</ele><time>2026-04-26T08:06:53.338Z</time></trkpt><trkpt lat="42.1665631" lon="14.6401828"><ele>17.333333333333336</ele><time>2026-04-26T08:06:54.339Z</time></trkpt><trkpt lat="42.1667333" lon="14.6401533"><ele>17.0</ele><time>2026-04-26T08:06:55.339Z</time></trkpt><trkpt lat="42.1669099" lon="14.6401256"><ele>17.0</ele><time>2026-04-26T08:06:56.339Z</time></trkpt><trkpt lat="42.1670955" lon="14.640096"><ele>17.0</ele><time>2026-04-26T08:06:57.338Z</time></trkpt><trkpt lat="42.1672768" lon="14.6400694"><ele>17.0</ele><time>2026-04-26T08:06:58.339Z</time></trkpt><trkpt lat="42.1674607" lon="14.6400393"><ele>17.0</ele><time>2026-04-26T08:06:59.338Z</time></trkpt><trkpt lat="42.1676493" lon="14.6400067"><ele>17.0</ele><time>2026-04-26T08:07:00.339Z</time></trkpt><trkpt lat="42.1678385" lon="14.639976"><ele>17.0</ele><time>2026-04-26T08:07:01.34Z</time></trkpt><trkpt lat="42.1680312" lon="14.6399461"><ele>17.333333333333336</ele><time>2026-04-26T08:07:02.338Z</time></trkpt><trkpt lat="42.1682265" lon="14.6399144"><ele>17.666666666666668</ele><time>2026-04-26T08:07:03.339Z</time></trkpt><trkpt lat="42.1684179" lon="14.6398851"><ele>18.0</ele><time>2026-04-26T08:07:04.339Z</time></trkpt><trkpt lat="42.1686044" lon="14.6398531"><ele>18.0</ele><time>2026-04-26T08:07:05.338Z</time></trkpt><trkpt lat="42.1687833" lon="14.6398214"><ele>18.0</ele><time>2026-04-26T08:07:06.339Z</time></trkpt><trkpt lat="42.1689502" lon="14.6397937"><ele>18.0</ele><time>2026-04-26T08:07:07.338Z</time></trkpt><trkpt lat="42.169112" lon="14.6397646"><ele>18.0</ele><time>2026-04-26T08:07:08.339Z</time></trkpt><trkpt lat="42.1692742" lon="14.6397412"><ele>18.0</ele><time>2026-04-26T08:07:09.339Z</time></trkpt><trkpt lat="42.169437" lon="14.6397178"><ele>18.0</ele><time>2026-04-26T08:07:10.339Z</time></trkpt><trkpt lat="42.1696003" lon="14.6396911"><ele>18.0</ele><time>2026-04-26T08:07:11.34Z</time></trkpt><trkpt lat="42.1697568" lon="14.6396646"><ele>18.0</ele><time>2026-04-26T08:07:12.339Z</time></trkpt><trkpt lat="42.1699059" lon="14.6396363"><ele>18.0</ele><time>2026-04-26T08:07:13.338Z</time></trkpt><trkpt lat="42.1700452" lon="14.6396144"><ele>18.0</ele><time>2026-04-26T08:07:14.339Z</time></trkpt><trkpt lat="42.1701684" lon="14.6395931"><ele>17.666666666666668</ele><time>2026-04-26T08:07:15.339Z</time></trkpt><trkpt lat="42.1702756" lon="14.6395779"><ele>17.333333333333332</ele><time>2026-04-26T08:07:16.338Z</time></trkpt><trkpt lat="42.1703529" lon="14.6395682"><ele>17.0</ele><time>2026-04-26T08:07:17.339Z</time></trkpt><trkpt lat="42.1704239" lon="14.6395599"><ele>16.666666666666664</ele><time>2026-04-26T08:07:18.338Z</time></trkpt><trkpt lat="42.1705082" lon="14.6395467"><ele>16.333333333333332</ele><time>2026-04-26T08:07:19.338Z</time></trkpt><trkpt lat="42.1706123" lon="14.6395203"><ele>16.0</ele><time>2026-04-26T08:07:20.34Z</time></trkpt><trkpt lat="42.1707354" lon="14.6394967"><ele>16.0</ele><time>2026-04-26T08:07:21.338Z</time></trkpt><trkpt lat="42.1708794" lon="14.6394754"><ele>16.0</ele><time>2026-04-26T08:07:22.339Z</time></trkpt><trkpt lat="42.1710415" lon="14.639445"><ele>16.0</ele><time>2026-04-26T08:07:23.339Z</time></trkpt><trkpt lat="42.171218" lon="14.6394183"><ele>16.0</ele><time>2026-04-26T08:07:24.34Z</time></trkpt><trkpt lat="42.171406" lon="14.6393877"><ele>16.0</ele><time>2026-04-26T08:07:25.339Z</time></trkpt><trkpt lat="42.1716089" lon="14.6393559"><ele>16.0</ele><time>2026-04-26T08:07:26.339Z</time></trkpt><trkpt lat="42.1718114" lon="14.6393203"><ele>15.666666666666666</ele><time>2026-04-26T08:07:27.339Z</time></trkpt><trkpt lat="42.1720205" lon="14.6392847"><ele>15.333333333333332</ele><time>2026-04-26T08:07:28.339Z</time></trkpt><trkpt lat="42.172232" lon="14.6392501"><ele>15.0</ele><time>2026-04-26T08:07:29.339Z</time></trkpt><trkpt lat="42.1724457" lon="14.6392173"><ele>14.666666666666668</ele><time>2026-04-26T08:07:30.339Z</time></trkpt><trkpt lat="42.1726605" lon="14.6391837"><ele>14.333333333333334</ele><time>2026-04-26T08:07:31.34Z</time></trkpt><trkpt lat="42.1728732" lon="14.6391507"><ele>14.0</ele><time>2026-04-26T08:07:32.339Z</time></trkpt><trkpt lat="42.1730896" lon="14.6391134"><ele>13.666666666666668</ele><time>2026-04-26T08:07:33.338Z</time></trkpt><trkpt lat="42.1733018" lon="14.6390733"><ele>13.333333333333332</ele><time>2026-04-26T08:07:34.339Z</time></trkpt><trkpt lat="42.1735128" lon="14.6390406"><ele>13.0</ele><time>2026-04-26T08:07:35.34Z</time></trkpt><trkpt lat="42.1737248" lon="14.6390087"><ele>13.0</ele><time>2026-04-26T08:07:36.339Z</time></trkpt><trkpt lat="42.173943" lon="14.6389676"><ele>13.0</ele><time>2026-04-26T08:07:37.338Z</time></trkpt><trkpt lat="42.1741604" lon="14.6389291"><ele>13.0</ele><time>2026-04-26T08:07:38.339Z</time></trkpt><trkpt lat="42.1743775" lon="14.638896"><ele>13.333333333333332</ele><time>2026-04-26T08:07:39.339Z</time></trkpt><trkpt lat="42.1745958" lon="14.6388615"><ele>13.666666666666668</ele><time>2026-04-26T08:07:40.339Z</time></trkpt><trkpt lat="42.1748122" lon="14.6388245"><ele>14.0</ele><time>2026-04-26T08:07:41.338Z</time></trkpt><trkpt lat="42.1750295" lon="14.6387883"><ele>14.333333333333334</ele><time>2026-04-26T08:07:42.338Z</time></trkpt><trkpt lat="42.1752464" lon="14.6387532"><ele>14.666666666666668</ele><time>2026-04-26T08:07:43.338Z</time></trkpt><trkpt lat="42.1754655" lon="14.638719"><ele>15.0</ele><time>2026-04-26T08:07:44.338Z</time></trkpt><trkpt lat="42.1756826" lon="14.6386825"><ele>14.333333333333332</ele><time>2026-04-26T08:07:45.339Z</time></trkpt><trkpt lat="42.1758979" lon="14.6386479"><ele>13.666666666666666</ele><time>2026-04-26T08:07:46.339Z</time></trkpt><trkpt lat="42.1761222" lon="14.6386135"><ele>13.0</ele><time>2026-04-26T08:07:47.339Z</time></trkpt><trkpt lat="42.1763522" lon="14.6385735"><ele>14.0</ele><time>2026-04-26T08:07:48.339Z</time></trkpt><trkpt lat="42.1765742" lon="14.6385414"><ele>15.0</ele><time>2026-04-26T08:07:49.338Z</time></trkpt><trkpt lat="42.1767967" lon="14.6385081"><ele>16.0</ele><time>2026-04-26T08:07:50.339Z</time></trkpt><trkpt lat="42.1770161" lon="14.6384731"><ele>16.0</ele><time>2026-04-26T08:07:51.339Z</time></trkpt><trkpt lat="42.1772312" lon="14.6384388"><ele>16.0</ele><time>2026-04-26T08:07:52.34Z</time></trkpt><trkpt lat="42.17744" lon="14.6384054"><ele>16.0</ele><time>2026-04-26T08:07:53.34Z</time></trkpt><trkpt lat="42.1776436" lon="14.6383727"><ele>15.333333333333332</ele><time>2026-04-26T08:07:54.339Z</time></trkpt><trkpt lat="42.1778447" lon="14.6383422"><ele>14.666666666666668</ele><time>2026-04-26T08:07:55.338Z</time></trkpt><trkpt lat="42.1780437" lon="14.6383025"><ele>14.0</ele><time>2026-04-26T08:07:56.338Z</time></trkpt><trkpt lat="42.1782436" lon="14.6382516"><ele>13.666666666666668</ele><time>2026-04-26T08:07:57.338Z</time></trkpt><trkpt lat="42.1784383" lon="14.638189"><ele>13.333333333333332</ele><time>2026-04-26T08:07:58.339Z</time></trkpt><trkpt lat="42.178637" lon="14.6380916"><ele>13.0</ele><time>2026-04-26T08:07:59.339Z</time></trkpt><trkpt lat="42.1788395" lon="14.637982"><ele>11.5</ele><time>2026-04-26T08:08:00.339Z</time></trkpt><trkpt lat="42.179048" lon="14.6378574"><ele>10.0</ele><time>2026-04-26T08:08:01.34Z</time></trkpt><trkpt lat="42.1792581" lon="14.6377182"><ele>12.333333333333334</ele><time>2026-04-26T08:08:02.339Z</time></trkpt><trkpt lat="42.1794614" lon="14.6375852"><ele>14.666666666666668</ele><time>2026-04-26T08:08:03.34Z</time></trkpt><trkpt lat="42.1796552" lon="14.637459"><ele>17.0</ele><time>2026-04-26T08:08:04.34Z</time></trkpt><trkpt lat="42.1798395" lon="14.6373388"><ele>16.333333333333336</ele><time>2026-04-26T08:08:05.339Z</time></trkpt><trkpt lat="42.1800277" lon="14.6372129"><ele>15.666666666666668</ele><time>2026-04-26T08:08:06.338Z</time></trkpt><trkpt lat="42.1802215" lon="14.6370856"><ele>15.0</ele><time>2026-04-26T08:08:07.339Z</time></trkpt><trkpt lat="42.1804182" lon="14.6369516"><ele>15.0</ele><time>2026-04-26T08:08:08.339Z</time></trkpt><trkpt lat="42.1806144" lon="14.6368127"><ele>15.0</ele><time>2026-04-26T08:08:09.339Z</time></trkpt><trkpt lat="42.180814" lon="14.6366769"><ele>15.0</ele><time>2026-04-26T08:08:10.339Z</time></trkpt><trkpt lat="42.1810151" lon="14.6365458"><ele>15.0</ele><time>2026-04-26T08:08:11.34Z</time></trkpt><trkpt lat="42.1812109" lon="14.6364178"><ele>15.0</ele><time>2026-04-26T08:08:12.339Z</time></trkpt><trkpt lat="42.1813994" lon="14.6362925"><ele>15.0</ele><time>2026-04-26T08:08:13.338Z</time></trkpt><trkpt lat="42.1815835" lon="14.6361655"><ele>15.333333333333332</ele><time>2026-04-26T08:08:14.339Z</time></trkpt><trkpt lat="42.1817649" lon="14.6360423"><ele>15.666666666666666</ele><time>2026-04-26T08:08:15.339Z</time></trkpt><trkpt lat="42.1819477" lon="14.6359253"><ele>16.0</ele><time>2026-04-26T08:08:16.34Z</time></trkpt><trkpt lat="42.1821263" lon="14.6358025"><ele>16.0</ele><time>2026-04-26T08:08:17.338Z</time></trkpt><trkpt lat="42.1823063" lon="14.6356844"><ele>16.0</ele><time>2026-04-26T08:08:18.338Z</time></trkpt><trkpt lat="42.1824898" lon="14.635564"><ele>16.0</ele><time>2026-04-26T08:08:19.338Z</time></trkpt><trkpt lat="42.182674" lon="14.6354455"><ele>15.333333333333332</ele><time>2026-04-26T08:08:20.339Z</time></trkpt><trkpt lat="42.182862" lon="14.635316"><ele>14.666666666666668</ele><time>2026-04-26T08:08:21.339Z</time></trkpt><trkpt lat="42.1830529" lon="14.6351905"><ele>14.0</ele><time>2026-04-26T08:08:22.339Z</time></trkpt><trkpt lat="42.1832416" lon="14.6350689"><ele>13.333333333333334</ele><time>2026-04-26T08:08:23.339Z</time></trkpt><trkpt lat="42.1834261" lon="14.6349547"><ele>12.666666666666668</ele><time>2026-04-26T08:08:24.34Z</time></trkpt><trkpt lat="42.1836092" lon="14.6348478"><ele>12.0</ele><time>2026-04-26T08:08:25.339Z</time></trkpt><trkpt lat="42.1837978" lon="14.634745"><ele>12.0</ele><time>2026-04-26T08:08:26.339Z</time></trkpt><trkpt lat="42.1839821" lon="14.6346491"><ele>12.0</ele><time>2026-04-26T08:08:27.339Z</time></trkpt><trkpt lat="42.1841647" lon="14.6345589"><ele>12.0</ele><time>2026-04-26T08:08:28.339Z</time></trkpt><trkpt lat="42.1843456" lon="14.6344811"><ele>12.666666666666668</ele><time>2026-04-26T08:08:29.338Z</time></trkpt><trkpt lat="42.1845315" lon="14.6344145"><ele>13.333333333333334</ele><time>2026-04-26T08:08:30.34Z</time></trkpt><trkpt lat="42.1847225" lon="14.6343621"><ele>14.0</ele><time>2026-04-26T08:08:31.339Z</time></trkpt><trkpt lat="42.1849173" lon="14.6343236"><ele>14.0</ele><time>2026-04-26T08:08:32.339Z</time></trkpt><trkpt lat="42.1851132" lon="14.6342909"><ele>14.0</ele><time>2026-04-26T08:08:33.338Z</time></trkpt><trkpt lat="42.1853141" lon="14.6342507"><ele>14.0</ele><time>2026-04-26T08:08:34.338Z</time></trkpt><trkpt lat="42.1855212" lon="14.6342106"><ele>13.666666666666668</ele><time>2026-04-26T08:08:35.339Z</time></trkpt><trkpt lat="42.1857303" lon="14.6341745"><ele>13.333333333333332</ele><time>2026-04-26T08:08:36.339Z</time></trkpt><trkpt lat="42.1859448" lon="14.6341355"><ele>13.0</ele><time>2026-04-26T08:08:37.339Z</time></trkpt><trkpt lat="42.1861682" lon="14.6340915"><ele>13.0</ele><time>2026-04-26T08:08:38.339Z</time></trkpt><trkpt lat="42.1863991" lon="14.6340412"><ele>13.0</ele><time>2026-04-26T08:08:39.339Z</time></trkpt><trkpt lat="42.1866392" lon="14.6339962"><ele>12.5</ele><time>2026-04-26T08:08:40.339Z</time></trkpt><trkpt lat="42.1868861" lon="14.6339589"><ele>12.0</ele><time>2026-04-26T08:08:41.339Z</time></trkpt><trkpt lat="42.187125" lon="14.6339271"><ele>12.0</ele><time>2026-04-26T08:08:42.339Z</time></trkpt><trkpt lat="42.1873547" lon="14.633895"><ele>12.0</ele><time>2026-04-26T08:08:43.339Z</time></trkpt><trkpt lat="42.187576" lon="14.6338585"><ele>12.0</ele><time>2026-04-26T08:08:44.339Z</time></trkpt><trkpt lat="42.1877959" lon="14.6338181"><ele>12.0</ele><time>2026-04-26T08:08:45.339Z</time></trkpt><trkpt lat="42.1880095" lon="14.6337797"><ele>12.0</ele><time>2026-04-26T08:08:46.339Z</time></trkpt><trkpt lat="42.1882214" lon="14.6337433"><ele>12.0</ele><time>2026-04-26T08:08:47.339Z</time></trkpt><trkpt lat="42.1884294" lon="14.6337097"><ele>12.0</ele><time>2026-04-26T08:08:48.339Z</time></trkpt><trkpt lat="42.1886385" lon="14.6336808"><ele>12.0</ele><time>2026-04-26T08:08:49.339Z</time></trkpt><trkpt lat="42.1888443" lon="14.6336541"><ele>14.333333333333332</ele><time>2026-04-26T08:08:50.34Z</time></trkpt><trkpt lat="42.189049" lon="14.6336214"><ele>16.666666666666664</ele><time>2026-04-26T08:08:51.339Z</time></trkpt><trkpt lat="42.1892538" lon="14.6335808"><ele>19.0</ele><time>2026-04-26T08:08:52.34Z</time></trkpt><trkpt lat="42.1894555" lon="14.6335454"><ele>19.0</ele><time>2026-04-26T08:08:53.339Z</time></trkpt><trkpt lat="42.1896536" lon="14.6335106"><ele>19.0</ele><time>2026-04-26T08:08:54.339Z</time></trkpt><trkpt lat="42.1898461" lon="14.633477"><ele>19.0</ele><time>2026-04-26T08:08:55.339Z</time></trkpt><trkpt lat="42.190041" lon="14.6334433"><ele>19.0</ele><time>2026-04-26T08:08:56.34Z</time></trkpt><trkpt lat="42.1902328" lon="14.6334118"><ele>19.0</ele><time>2026-04-26T08:08:57.339Z</time></trkpt><trkpt lat="42.1904221" lon="14.6333779"><ele>19.0</ele><time>2026-04-26T08:08:58.34Z</time></trkpt><trkpt lat="42.1906053" lon="14.6333442"><ele>17.333333333333332</ele><time>2026-04-26T08:08:59.339Z</time></trkpt><trkpt lat="42.1907898" lon="14.6333107"><ele>15.666666666666668</ele><time>2026-04-26T08:09:00.339Z</time></trkpt><trkpt lat="42.1909605" lon="14.6332794"><ele>14.0</ele><time>2026-04-26T08:09:01.339Z</time></trkpt><trkpt lat="42.1911193" lon="14.6332514"><ele>14.0</ele><time>2026-04-26T08:09:02.338Z</time></trkpt><trkpt lat="42.1912635" lon="14.6332236"><ele>14.0</ele><time>2026-04-26T08:09:03.339Z</time></trkpt><trkpt lat="42.1913971" lon="14.6332005"><ele>14.0</ele><time>2026-04-26T08:09:04.338Z</time></trkpt><trkpt lat="42.1915068" lon="14.633184"><ele>14.0</ele><time>2026-04-26T08:09:05.338Z</time></trkpt><trkpt lat="42.1915934" lon="14.6331704"><ele>13.500000000000002</ele><time>2026-04-26T08:09:06.34Z</time></trkpt><trkpt lat="42.191657" lon="14.6331609"><ele>13.0</ele><time>2026-04-26T08:09:07.338Z</time></trkpt><trkpt lat="42.1917555" lon="14.6331505"><ele>12.5</ele><time>2026-04-26T08:09:09.339Z</time></trkpt><trkpt lat="42.1918392" lon="14.6331299"><ele>12.0</ele><time>2026-04-26T08:09:12.339Z</time></trkpt><trkpt lat="42.1919052" lon="14.6331275"><ele>11.5</ele><time>2026-04-26T08:09:14.339Z</time></trkpt><trkpt lat="42.191993" lon="14.6331451"><ele>11.0</ele><time>2026-04-26T08:09:16.339Z</time></trkpt><trkpt lat="42.1920924" lon="14.6331598"><ele>11.0</ele><time>2026-04-26T08:09:18.338Z</time></trkpt><trkpt lat="42.1921704" lon="14.6331219"><ele>11.0</ele><time>2026-04-26T08:09:20.339Z</time></trkpt><trkpt lat="42.1922726" lon="14.6330557"><ele>11.0</ele><time>2026-04-26T08:09:22.339Z</time></trkpt><trkpt lat="42.1923521" lon="14.6330245"><ele>11.0</ele><time>2026-04-26T08:09:23.338Z</time></trkpt><trkpt lat="42.1924525" lon="14.6330031"><ele>11.0</ele><time>2026-04-26T08:09:24.338Z</time></trkpt><trkpt lat="42.1925499" lon="14.6329838"><ele>11.600000000000001</ele><time>2026-04-26T08:09:25.339Z</time></trkpt><trkpt lat="42.1926506" lon="14.6329548"><ele>12.2</ele><time>2026-04-26T08:09:26.339Z</time></trkpt><trkpt lat="42.1927515" lon="14.632912"><ele>12.799999999999999</ele><time>2026-04-26T08:09:27.339Z</time></trkpt><trkpt lat="42.1928504" lon="14.6328468"><ele>13.399999999999999</ele><time>2026-04-26T08:09:28.339Z</time></trkpt><trkpt lat="42.192952" lon="14.6327639"><ele>14.0</ele><time>2026-04-26T08:09:29.339Z</time></trkpt><trkpt lat="42.1930556" lon="14.6326597"><ele>14.5</ele><time>2026-04-26T08:09:30.339Z</time></trkpt><trkpt lat="42.1931522" lon="14.6325324"><ele>15.0</ele><time>2026-04-26T08:09:31.338Z</time></trkpt><trkpt lat="42.1932354" lon="14.6323877"><ele>15.5</ele><time>2026-04-26T08:09:32.339Z</time></trkpt><trkpt lat="42.1933029" lon="14.632223"><ele>16.0</ele><time>2026-04-26T08:09:33.339Z</time></trkpt><trkpt lat="42.1933599" lon="14.6320324"><ele>14.333333333333332</ele><time>2026-04-26T08:09:34.339Z</time></trkpt><trkpt lat="42.1934129" lon="14.6318073"><ele>12.666666666666666</ele><time>2026-04-26T08:09:35.339Z</time></trkpt><trkpt lat="42.1934622" lon="14.6315739"><ele>11.0</ele><time>2026-04-26T08:09:36.338Z</time></trkpt><trkpt lat="42.1935126" lon="14.6313436"><ele>12.0</ele><time>2026-04-26T08:09:37.339Z</time></trkpt><trkpt lat="42.1935585" lon="14.6311165"><ele>13.0</ele><time>2026-04-26T08:09:38.339Z</time></trkpt><trkpt lat="42.1936086" lon="14.630906"><ele>14.0</ele><time>2026-04-26T08:09:39.339Z</time></trkpt><trkpt lat="42.1936528" lon="14.6307058"><ele>14.0</ele><time>2026-04-26T08:09:40.34Z</time></trkpt><trkpt lat="42.1936993" lon="14.6305126"><ele>14.0</ele><time>2026-04-26T08:09:41.339Z</time></trkpt><trkpt lat="42.1937459" lon="14.6303209"><ele>14.0</ele><time>2026-04-26T08:09:42.339Z</time></trkpt><trkpt lat="42.1937899" lon="14.6301206"><ele>17.666666666666668</ele><time>2026-04-26T08:09:43.339Z</time></trkpt><trkpt lat="42.193836" lon="14.6299085"><ele>21.333333333333336</ele><time>2026-04-26T08:09:44.34Z</time></trkpt><trkpt lat="42.1938848" lon="14.6297004"><ele>25.0</ele><time>2026-04-26T08:09:45.338Z</time></trkpt><trkpt lat="42.1939312" lon="14.6294968"><ele>26.5</ele><time>2026-04-26T08:09:46.339Z</time></trkpt><trkpt lat="42.1939704" lon="14.6293051"><ele>28.0</ele><time>2026-04-26T08:09:47.339Z</time></trkpt><trkpt lat="42.1940128" lon="14.6291188"><ele>29.5</ele><time>2026-04-26T08:09:48.339Z</time></trkpt><trkpt lat="42.1940528" lon="14.6289415"><ele>31.0</ele><time>2026-04-26T08:09:49.339Z</time></trkpt><trkpt lat="42.1940866" lon="14.6287767"><ele>27.0</ele><time>2026-04-26T08:09:50.339Z</time></trkpt><trkpt lat="42.1941227" lon="14.6286273"><ele>23.0</ele><time>2026-04-26T08:09:51.339Z</time></trkpt><trkpt lat="42.1941552" lon="14.6284947"><ele>19.0</ele><time>2026-04-26T08:09:52.338Z</time></trkpt><trkpt lat="42.1941865" lon="14.6283684"><ele>15.0</ele><time>2026-04-26T08:09:53.338Z</time></trkpt><trkpt lat="42.1942146" lon="14.6282509"><ele>11.0</ele><time>2026-04-26T08:09:54.339Z</time></trkpt><trkpt lat="42.1942411" lon="14.6281441"><ele>11.0</ele><time>2026-04-26T08:09:55.339Z</time></trkpt><trkpt lat="42.1942616" lon="14.6280485"><ele>11.0</ele><time>2026-04-26T08:09:56.338Z</time></trkpt><trkpt lat="42.1942808" lon="14.627963"><ele>11.0</ele><time>2026-04-26T08:09:57.338Z</time></trkpt><trkpt lat="42.1943023" lon="14.6278643"><ele>11.0</ele><time>2026-04-26T08:09:58.339Z</time></trkpt><trkpt lat="42.1943396" lon="14.6277593"><ele>11.0</ele><time>2026-04-26T08:09:59.339Z</time></trkpt><trkpt lat="42.1943961" lon="14.6276692"><ele>11.0</ele><time>2026-04-26T08:10:00.34Z</time></trkpt><trkpt lat="42.1944551" lon="14.6275765"><ele>10.833333333333332</ele><time>2026-04-26T08:10:01.338Z</time></trkpt><trkpt lat="42.1944974" lon="14.6274755"><ele>10.666666666666666</ele><time>2026-04-26T08:10:02.339Z</time></trkpt><trkpt lat="42.1945234" lon="14.6273698"><ele>10.5</ele><time>2026-04-26T08:10:03.339Z</time></trkpt><trkpt lat="42.1945275" lon="14.6272668"><ele>10.333333333333334</ele><time>2026-04-26T08:10:04.339Z</time></trkpt><trkpt lat="42.194522" lon="14.6271627"><ele>10.166666666666668</ele><time>2026-04-26T08:10:05.339Z</time></trkpt><trkpt lat="42.1945168" lon="14.6270484"><ele>10.0</ele><time>2026-04-26T08:10:06.338Z</time></trkpt><trkpt lat="42.1945308" lon="14.6269102"><ele>10.5</ele><time>2026-04-26T08:10:07.339Z</time></trkpt><trkpt lat="42.1945535" lon="14.626757"><ele>11.0</ele><time>2026-04-26T08:10:08.339Z</time></trkpt><trkpt lat="42.1945866" lon="14.6265868"><ele>11.5</ele><time>2026-04-26T08:10:09.34Z</time></trkpt><trkpt lat="42.1946261" lon="14.6263913"><ele>12.0</ele><time>2026-04-26T08:10:10.339Z</time></trkpt><trkpt lat="42.1946687" lon="14.6262121"><ele>11.75</ele><time>2026-04-26T08:10:11.339Z</time></trkpt><trkpt lat="42.1947095" lon="14.6260498"><ele>11.5</ele><time>2026-04-26T08:10:12.339Z</time></trkpt><trkpt lat="42.1947507" lon="14.6258863"><ele>11.25</ele><time>2026-04-26T08:10:13.339Z</time></trkpt><trkpt lat="42.1947876" lon="14.6257282"><ele>11.0</ele><time>2026-04-26T08:10:14.339Z</time></trkpt><trkpt lat="42.1948239" lon="14.6255758"><ele>10.75</ele><time>2026-04-26T08:10:15.338Z</time></trkpt><trkpt lat="42.19486" lon="14.625428"><ele>10.5</ele><time>2026-04-26T08:10:16.339Z</time></trkpt><trkpt lat="42.1948959" lon="14.6252809"><ele>10.25</ele><time>2026-04-26T08:10:17.338Z</time></trkpt><trkpt lat="42.194934" lon="14.625126"><ele>10.0</ele><time>2026-04-26T08:10:18.338Z</time></trkpt><trkpt lat="42.1949781" lon="14.6249617"><ele>10.0</ele><time>2026-04-26T08:10:19.339Z</time></trkpt><trkpt lat="42.1950409" lon="14.6247942"><ele>10.0</ele><time>2026-04-26T08:10:20.339Z</time></trkpt><trkpt lat="42.1951287" lon="14.6246268"><ele>10.0</ele><time>2026-04-26T08:10:21.338Z</time></trkpt><trkpt lat="42.1952161" lon="14.6244596"><ele>10.0</ele><time>2026-04-26T08:10:22.339Z</time></trkpt><trkpt lat="42.1953895" lon="14.6243388"><ele>10.333333333333334</ele><time>2026-04-26T08:10:23.339Z</time></trkpt><trkpt lat="42.1955498" lon="14.62422"><ele>10.666666666666666</ele><time>2026-04-26T08:10:24.34Z</time></trkpt><trkpt lat="42.1957236" lon="14.6241097"><ele>11.0</ele><time>2026-04-26T08:10:25.34Z</time></trkpt><trkpt lat="42.1958947" lon="14.6239916"><ele>11.0</ele><time>2026-04-26T08:10:26.338Z</time></trkpt><trkpt lat="42.1960538" lon="14.6238708"><ele>11.0</ele><time>2026-04-26T08:10:27.339Z</time></trkpt><trkpt lat="42.196196" lon="14.6237513"><ele>11.0</ele><time>2026-04-26T08:10:28.339Z</time></trkpt><trkpt lat="42.1963266" lon="14.6236228"><ele>11.666666666666666</ele><time>2026-04-26T08:10:29.339Z</time></trkpt><trkpt lat="42.1964484" lon="14.6234775"><ele>12.333333333333332</ele><time>2026-04-26T08:10:30.339Z</time></trkpt><trkpt lat="42.1965572" lon="14.6233241"><ele>13.0</ele><time>2026-04-26T08:10:31.339Z</time></trkpt><trkpt lat="42.1966581" lon="14.6231594"><ele>13.666666666666666</ele><time>2026-04-26T08:10:32.34Z</time></trkpt><trkpt lat="42.1967505" lon="14.6229722"><ele>14.333333333333332</ele><time>2026-04-26T08:10:33.338Z</time></trkpt><trkpt lat="42.1968339" lon="14.6227691"><ele>15.0</ele><time>2026-04-26T08:10:34.34Z</time></trkpt><trkpt lat="42.1969001" lon="14.622556"><ele>16.0</ele><time>2026-04-26T08:10:35.338Z</time></trkpt><trkpt lat="42.1969544" lon="14.6223464"><ele>17.0</ele><time>2026-04-26T08:10:36.339Z</time></trkpt><trkpt lat="42.1969988" lon="14.6221455"><ele>18.0</ele><time>2026-04-26T08:10:37.339Z</time></trkpt><trkpt lat="42.1970348" lon="14.6219455"><ele>18.666666666666668</ele><time>2026-04-26T08:10:38.339Z</time></trkpt><trkpt lat="42.1970653" lon="14.6217401"><ele>19.333333333333336</ele><time>2026-04-26T08:10:39.339Z</time></trkpt><trkpt lat="42.1970957" lon="14.6215313"><ele>20.0</ele><time>2026-04-26T08:10:40.339Z</time></trkpt><trkpt lat="42.1971254" lon="14.6213268"><ele>21.333333333333336</ele><time>2026-04-26T08:10:41.339Z</time></trkpt><trkpt lat="42.1971584" lon="14.6211179"><ele>22.666666666666668</ele><time>2026-04-26T08:10:42.339Z</time></trkpt><trkpt lat="42.1971944" lon="14.6209054"><ele>24.0</ele><time>2026-04-26T08:10:43.339Z</time></trkpt><trkpt lat="42.1972279" lon="14.6206944"><ele>24.0</ele><time>2026-04-26T08:10:44.339Z</time></trkpt><trkpt lat="42.1972629" lon="14.6204798"><ele>24.0</ele><time>2026-04-26T08:10:45.34Z</time></trkpt><trkpt lat="42.1972976" lon="14.6202513"><ele>24.0</ele><time>2026-04-26T08:10:46.339Z</time></trkpt><trkpt lat="42.1973339" lon="14.6200188"><ele>23.0</ele><time>2026-04-26T08:10:47.338Z</time></trkpt><trkpt lat="42.1973702" lon="14.6197978"><ele>22.0</ele><time>2026-04-26T08:10:48.339Z</time></trkpt><trkpt lat="42.1974045" lon="14.6195836"><ele>21.0</ele><time>2026-04-26T08:10:49.339Z</time></trkpt><trkpt lat="42.1974366" lon="14.6193818"><ele>21.0</ele><time>2026-04-26T08:10:50.339Z</time></trkpt><trkpt lat="42.1974691" lon="14.6191722"><ele>21.0</ele><time>2026-04-26T08:10:51.338Z</time></trkpt><trkpt lat="42.1975053" lon="14.6189574"><ele>21.0</ele><time>2026-04-26T08:10:52.338Z</time></trkpt><trkpt lat="42.1975428" lon="14.6187526"><ele>22.333333333333336</ele><time>2026-04-26T08:10:53.339Z</time></trkpt><trkpt lat="42.1975824" lon="14.6185532"><ele>23.666666666666668</ele><time>2026-04-26T08:10:54.338Z</time></trkpt><trkpt lat="42.1976235" lon="14.6183577"><ele>25.0</ele><time>2026-04-26T08:10:55.339Z</time></trkpt><trkpt lat="42.1976694" lon="14.6181609"><ele>25.0</ele><time>2026-04-26T08:10:56.339Z</time></trkpt><trkpt lat="42.1977234" lon="14.6179596"><ele>25.0</ele><time>2026-04-26T08:10:57.338Z</time></trkpt><trkpt lat="42.1977872" lon="14.6177585"><ele>25.0</ele><time>2026-04-26T08:10:58.339Z</time></trkpt><trkpt lat="42.1978633" lon="14.6175568"><ele>27.333333333333336</ele><time>2026-04-26T08:10:59.339Z</time></trkpt><trkpt lat="42.1979495" lon="14.6173504"><ele>29.666666666666664</ele><time>2026-04-26T08:11:00.339Z</time></trkpt><trkpt lat="42.1980547" lon="14.6171378"><ele>32.0</ele><time>2026-04-26T08:11:01.339Z</time></trkpt><trkpt lat="42.1981644" lon="14.6169272"><ele>27.666666666666664</ele><time>2026-04-26T08:11:02.338Z</time></trkpt><trkpt lat="42.1982842" lon="14.6167"><ele>23.333333333333332</ele><time>2026-04-26T08:11:03.34Z</time></trkpt><trkpt lat="42.1984066" lon="14.6164572"><ele>19.0</ele><time>2026-04-26T08:11:04.339Z</time></trkpt><trkpt lat="42.1985391" lon="14.6162125"><ele>24.5</ele><time>2026-04-26T08:11:05.34Z</time></trkpt><trkpt lat="42.1986724" lon="14.6159695"><ele>30.0</ele><time>2026-04-26T08:11:06.339Z</time></trkpt><trkpt lat="42.1988146" lon="14.6157302"><ele>30.0</ele><time>2026-04-26T08:11:07.339Z</time></trkpt><trkpt lat="42.1989529" lon="14.6154972"><ele>30.0</ele><time>2026-04-26T08:11:08.338Z</time></trkpt><trkpt lat="42.1990855" lon="14.615258"><ele>30.0</ele><time>2026-04-26T08:11:09.339Z</time></trkpt><trkpt lat="42.1992122" lon="14.6150268"><ele>29.666666666666664</ele><time>2026-04-26T08:11:10.339Z</time></trkpt><trkpt lat="42.1993327" lon="14.6148062"><ele>29.333333333333332</ele><time>2026-04-26T08:11:11.339Z</time></trkpt><trkpt lat="42.1994494" lon="14.6145854"><ele>29.0</ele><time>2026-04-26T08:11:12.34Z</time></trkpt><trkpt lat="42.1995644" lon="14.6143628"><ele>29.0</ele><time>2026-04-26T08:11:13.338Z</time></trkpt><trkpt lat="42.1996734" lon="14.6141344"><ele>29.0</ele><time>2026-04-26T08:11:14.339Z</time></trkpt><trkpt lat="42.1997716" lon="14.6138912"><ele>29.0</ele><time>2026-04-26T08:11:15.339Z</time></trkpt><trkpt lat="42.1998558" lon="14.6136305"><ele>24.0</ele><time>2026-04-26T08:11:16.338Z</time></trkpt><trkpt lat="42.1999253" lon="14.6133628"><ele>19.0</ele><time>2026-04-26T08:11:17.339Z</time></trkpt><trkpt lat="42.1999822" lon="14.6130912"><ele>14.0</ele><time>2026-04-26T08:11:18.338Z</time></trkpt><trkpt lat="42.2000183" lon="14.6128271"><ele>13.666666666666668</ele><time>2026-04-26T08:11:19.339Z</time></trkpt><trkpt lat="42.2000374" lon="14.6125556"><ele>13.333333333333332</ele><time>2026-04-26T08:11:20.339Z</time></trkpt><trkpt lat="42.2000411" lon="14.6122763"><ele>13.0</ele><time>2026-04-26T08:11:21.338Z</time></trkpt><trkpt lat="42.2000304" lon="14.6119943"><ele>12.666666666666666</ele><time>2026-04-26T08:11:22.337Z</time></trkpt><trkpt lat="42.2000032" lon="14.6117135"><ele>12.333333333333332</ele><time>2026-04-26T08:11:23.337Z</time></trkpt><trkpt lat="42.1999609" lon="14.6114441"><ele>12.0</ele><time>2026-04-26T08:11:24.338Z</time></trkpt><trkpt lat="42.1999161" lon="14.6111879"><ele>12.0</ele><time>2026-04-26T08:11:25.339Z</time></trkpt><trkpt lat="42.199865" lon="14.6109374"><ele>12.0</ele><time>2026-04-26T08:11:26.338Z</time></trkpt><trkpt lat="42.1998119" lon="14.610686"><ele>12.0</ele><time>2026-04-26T08:11:27.337Z</time></trkpt><trkpt lat="42.1997537" lon="14.6104314"><ele>15.0</ele><time>2026-04-26T08:11:28.337Z</time></trkpt><trkpt lat="42.1996944" lon="14.6101688"><ele>18.0</ele><time>2026-04-26T08:11:29.339Z</time></trkpt><trkpt lat="42.1996344" lon="14.6098993"><ele>21.0</ele><time>2026-04-26T08:11:30.339Z</time></trkpt><trkpt lat="42.199576" lon="14.609627"><ele>20.333333333333332</ele><time>2026-04-26T08:11:31.337Z</time></trkpt><trkpt lat="42.1995111" lon="14.6093567"><ele>19.666666666666664</ele><time>2026-04-26T08:11:32.338Z</time></trkpt><trkpt lat="42.1994484" lon="14.6090949"><ele>19.0</ele><time>2026-04-26T08:11:33.338Z</time></trkpt><trkpt lat="42.199389" lon="14.6088464"><ele>17.333333333333332</ele><time>2026-04-26T08:11:34.337Z</time></trkpt><trkpt lat="42.1993367" lon="14.6086061"><ele>15.666666666666668</ele><time>2026-04-26T08:11:35.338Z</time></trkpt><trkpt lat="42.1992838" lon="14.6083845"><ele>14.0</ele><time>2026-04-26T08:11:36.338Z</time></trkpt><trkpt lat="42.1992327" lon="14.6081653"><ele>14.0</ele><time>2026-04-26T08:11:37.338Z</time></trkpt><trkpt lat="42.1991818" lon="14.6079522"><ele>14.0</ele><time>2026-04-26T08:11:38.339Z</time></trkpt><trkpt lat="42.1991328" lon="14.6077433"><ele>14.0</ele><time>2026-04-26T08:11:39.338Z</time></trkpt><trkpt lat="42.1990848" lon="14.6075346"><ele>13.666666666666668</ele><time>2026-04-26T08:11:40.337Z</time></trkpt><trkpt lat="42.1990351" lon="14.6073228"><ele>13.333333333333332</ele><time>2026-04-26T08:11:41.338Z</time></trkpt><trkpt lat="42.1989845" lon="14.6071044"><ele>13.0</ele><time>2026-04-26T08:11:42.337Z</time></trkpt><trkpt lat="42.1989321" lon="14.6068767"><ele>15.0</ele><time>2026-04-26T08:11:43.338Z</time></trkpt><trkpt lat="42.1988787" lon="14.6066494"><ele>17.0</ele><time>2026-04-26T08:11:44.338Z</time></trkpt><trkpt lat="42.1988294" lon="14.6064199"><ele>19.0</ele><time>2026-04-26T08:11:45.338Z</time></trkpt><trkpt lat="42.1987807" lon="14.6062034"><ele>19.333333333333332</ele><time>2026-04-26T08:11:46.338Z</time></trkpt><trkpt lat="42.1987321" lon="14.6059915"><ele>19.666666666666668</ele><time>2026-04-26T08:11:47.338Z</time></trkpt><trkpt lat="42.1986859" lon="14.6057833"><ele>20.0</ele><time>2026-04-26T08:11:48.338Z</time></trkpt><trkpt lat="42.1986478" lon="14.6055781"><ele>20.0</ele><time>2026-04-26T08:11:49.338Z</time></trkpt><trkpt lat="42.198618" lon="14.6053699"><ele>20.0</ele><time>2026-04-26T08:11:50.338Z</time></trkpt><trkpt lat="42.1985946" lon="14.6051577"><ele>20.0</ele><time>2026-04-26T08:11:51.338Z</time></trkpt><trkpt lat="42.1985781" lon="14.6049318"><ele>19.666666666666668</ele><time>2026-04-26T08:11:52.338Z</time></trkpt><trkpt lat="42.1985735" lon="14.6046847"><ele>19.333333333333332</ele><time>2026-04-26T08:11:53.338Z</time></trkpt><trkpt lat="42.1985837" lon="14.6044308"><ele>19.0</ele><time>2026-04-26T08:11:54.338Z</time></trkpt><trkpt lat="42.1986071" lon="14.6041838"><ele>18.333333333333332</ele><time>2026-04-26T08:11:55.338Z</time></trkpt><trkpt lat="42.1986353" lon="14.6039428"><ele>17.666666666666668</ele><time>2026-04-26T08:11:56.337Z</time></trkpt><trkpt lat="42.1986676" lon="14.6036992"><ele>17.0</ele><time>2026-04-26T08:11:57.337Z</time></trkpt><trkpt lat="42.1986997" lon="14.6034586"><ele>17.0</ele><time>2026-04-26T08:11:58.339Z</time></trkpt><trkpt lat="42.1987311" lon="14.6032253"><ele>17.0</ele><time>2026-04-26T08:11:59.337Z</time></trkpt><trkpt lat="42.1987629" lon="14.6030036"><ele>17.0</ele><time>2026-04-26T08:12:00.338Z</time></trkpt><trkpt lat="42.1987914" lon="14.6027901"><ele>16.333333333333336</ele><time>2026-04-26T08:12:01.338Z</time></trkpt><trkpt lat="42.1988318" lon="14.6025739"><ele>15.666666666666668</ele><time>2026-04-26T08:12:02.338Z</time></trkpt><trkpt lat="42.198867" lon="14.6023662"><ele>15.0</ele><time>2026-04-26T08:12:03.338Z</time></trkpt><trkpt lat="42.1988963" lon="14.602157"><ele>15.666666666666668</ele><time>2026-04-26T08:12:04.338Z</time></trkpt><trkpt lat="42.1989267" lon="14.6019522"><ele>16.333333333333336</ele><time>2026-04-26T08:12:05.337Z</time></trkpt><trkpt lat="42.1989577" lon="14.6017579"><ele>17.0</ele><time>2026-04-26T08:12:06.338Z</time></trkpt><trkpt lat="42.1989966" lon="14.6015612"><ele>15.0</ele><time>2026-04-26T08:12:07.337Z</time></trkpt><trkpt lat="42.1990458" lon="14.6013603"><ele>13.0</ele><time>2026-04-26T08:12:08.338Z</time></trkpt><trkpt lat="42.1991097" lon="14.6011551"><ele>11.0</ele><time>2026-04-26T08:12:09.337Z</time></trkpt><trkpt lat="42.1991849" lon="14.6009563"><ele>11.0</ele><time>2026-04-26T08:12:10.338Z</time></trkpt><trkpt lat="42.1992791" lon="14.600762"><ele>11.0</ele><time>2026-04-26T08:12:11.337Z</time></trkpt><trkpt lat="42.1993869" lon="14.6005764"><ele>11.0</ele><time>2026-04-26T08:12:12.338Z</time></trkpt><trkpt lat="42.1995046" lon="14.6004144"><ele>12.0</ele><time>2026-04-26T08:12:13.338Z</time></trkpt><trkpt lat="42.1996237" lon="14.6002629"><ele>13.0</ele><time>2026-04-26T08:12:14.338Z</time></trkpt><trkpt lat="42.1997526" lon="14.6001262"><ele>14.0</ele><time>2026-04-26T08:12:15.338Z</time></trkpt><trkpt lat="42.1998889" lon="14.5999952"><ele>12.0</ele><time>2026-04-26T08:12:16.338Z</time></trkpt><trkpt lat="42.2000224" lon="14.59987"><ele>10.0</ele><time>2026-04-26T08:12:17.338Z</time></trkpt><trkpt lat="42.2001548" lon="14.5997503"><ele>8.0</ele><time>2026-04-26T08:12:18.337Z</time></trkpt><trkpt lat="42.2002889" lon="14.5996276"><ele>8.0</ele><time>2026-04-26T08:12:19.338Z</time></trkpt><trkpt lat="42.2004224" lon="14.5995089"><ele>8.0</ele><time>2026-04-26T08:12:20.337Z</time></trkpt><trkpt lat="42.200555" lon="14.5993908"><ele>8.0</ele><time>2026-04-26T08:12:21.338Z</time></trkpt><trkpt lat="42.2006785" lon="14.5992825"><ele>7.25</ele><time>2026-04-26T08:12:22.338Z</time></trkpt><trkpt lat="42.2007992" lon="14.5991727"><ele>6.5</ele><time>2026-04-26T08:12:23.338Z</time></trkpt><trkpt lat="42.2009233" lon="14.5990653"><ele>5.75</ele><time>2026-04-26T08:12:24.338Z</time></trkpt><trkpt lat="42.2010483" lon="14.5989489"><ele>5.0</ele><time>2026-04-26T08:12:25.338Z</time></trkpt><trkpt lat="42.2011806" lon="14.5988297"><ele>5.0</ele><time>2026-04-26T08:12:26.338Z</time></trkpt><trkpt lat="42.2013173" lon="14.5987138"><ele>5.0</ele><time>2026-04-26T08:12:27.338Z</time></trkpt><trkpt lat="42.2014548" lon="14.5985955"><ele>5.0</ele><time>2026-04-26T08:12:28.338Z</time></trkpt><trkpt lat="42.2015967" lon="14.5984821"><ele>5.333333333333334</ele><time>2026-04-26T08:12:29.338Z</time></trkpt><trkpt lat="42.2017399" lon="14.5983778"><ele>5.666666666666667</ele><time>2026-04-26T08:12:30.337Z</time></trkpt><trkpt lat="42.2018782" lon="14.5982797"><ele>6.0</ele><time>2026-04-26T08:12:31.338Z</time></trkpt><trkpt lat="42.2020183" lon="14.5981848"><ele>6.0</ele><time>2026-04-26T08:12:32.338Z</time></trkpt><trkpt lat="42.2021594" lon="14.598089"><ele>6.0</ele><time>2026-04-26T08:12:33.338Z</time></trkpt><trkpt lat="42.2022881" lon="14.5980016"><ele>6.0</ele><time>2026-04-26T08:12:34.338Z</time></trkpt><trkpt lat="42.2024119" lon="14.5979231"><ele>6.0</ele><time>2026-04-26T08:12:35.338Z</time></trkpt><trkpt lat="42.2025341" lon="14.5978445"><ele>5.5</ele><time>2026-04-26T08:12:36.338Z</time></trkpt><trkpt lat="42.2026509" lon="14.5977636"><ele>5.0</ele><time>2026-04-26T08:12:37.338Z</time></trkpt><trkpt lat="42.2027681" lon="14.5976812"><ele>4.5</ele><time>2026-04-26T08:12:38.338Z</time></trkpt><trkpt lat="42.202882" lon="14.5976027"><ele>4.0</ele><time>2026-04-26T08:12:39.338Z</time></trkpt><trkpt lat="42.2029993" lon="14.5975223"><ele>4.0</ele><time>2026-04-26T08:12:40.338Z</time></trkpt><trkpt lat="42.2031209" lon="14.5974422"><ele>4.0</ele><time>2026-04-26T08:12:41.338Z</time></trkpt><trkpt lat="42.203246" lon="14.5973607"><ele>4.0</ele><time>2026-04-26T08:12:42.338Z</time></trkpt><trkpt lat="42.2033679" lon="14.5972799"><ele>4.0</ele><time>2026-04-26T08:12:43.339Z</time></trkpt><trkpt lat="42.2034818" lon="14.5972045"><ele>4.2</ele><time>2026-04-26T08:12:44.338Z</time></trkpt><trkpt lat="42.2035886" lon="14.5971354"><ele>4.4</ele><time>2026-04-26T08:12:45.338Z</time></trkpt><trkpt lat="42.2036863" lon="14.5970723"><ele>4.6</ele><time>2026-04-26T08:12:46.338Z</time></trkpt><trkpt lat="42.2037732" lon="14.5970147"><ele>4.8</ele><time>2026-04-26T08:12:47.338Z</time></trkpt><trkpt lat="42.2038511" lon="14.5969614"><ele>5.0</ele><time>2026-04-26T08:12:48.338Z</time></trkpt><trkpt lat="42.2039191" lon="14.5969173"><ele>5.0</ele><time>2026-04-26T08:12:49.338Z</time></trkpt><trkpt lat="42.2039868" lon="14.5968801"><ele>5.0</ele><time>2026-04-26T08:12:50.338Z</time></trkpt><trkpt lat="42.2040538" lon="14.5968328"><ele>5.0</ele><time>2026-04-26T08:12:51.337Z</time></trkpt><trkpt lat="42.2041273" lon="14.5967846"><ele>5.0</ele><time>2026-04-26T08:12:52.338Z</time></trkpt><trkpt lat="42.2042118" lon="14.5967512"><ele>5.0</ele><time>2026-04-26T08:12:53.338Z</time></trkpt><trkpt lat="42.2042925" lon="14.5967358"><ele>5.0</ele><time>2026-04-26T08:12:54.338Z</time></trkpt><trkpt lat="42.2043673" lon="14.5967346"><ele>5.333333333333334</ele><time>2026-04-26T08:12:55.338Z</time></trkpt><trkpt lat="42.2044395" lon="14.5967164"><ele>5.666666666666667</ele><time>2026-04-26T08:12:56.338Z</time></trkpt><trkpt lat="42.2044991" lon="14.5966684"><ele>6.0</ele><time>2026-04-26T08:12:57.337Z</time></trkpt><trkpt lat="42.2045562" lon="14.5965981"><ele>6.333333333333334</ele><time>2026-04-26T08:12:58.338Z</time></trkpt><trkpt lat="42.2046119" lon="14.5965101"><ele>6.666666666666667</ele><time>2026-04-26T08:12:59.338Z</time></trkpt><trkpt lat="42.2046847" lon="14.5964313"><ele>7.0</ele><time>2026-04-26T08:13:00.337Z</time></trkpt><trkpt lat="42.2047725" lon="14.5963644"><ele>8.25</ele><time>2026-04-26T08:13:01.339Z</time></trkpt><trkpt lat="42.2048733" lon="14.5962898"><ele>9.5</ele><time>2026-04-26T08:13:02.338Z</time></trkpt><trkpt lat="42.2049786" lon="14.5962163"><ele>10.75</ele><time>2026-04-26T08:13:03.337Z</time></trkpt><trkpt lat="42.2050847" lon="14.5961442"><ele>12.0</ele><time>2026-04-26T08:13:04.339Z</time></trkpt><trkpt lat="42.2051901" lon="14.5960724"><ele>12.0</ele><time>2026-04-26T08:13:05.337Z</time></trkpt><trkpt lat="42.2053097" lon="14.595992"><ele>12.0</ele><time>2026-04-26T08:13:06.338Z</time></trkpt><trkpt lat="42.2054322" lon="14.5959066"><ele>12.0</ele><time>2026-04-26T08:13:07.338Z</time></trkpt><trkpt lat="42.2055642" lon="14.5958152"><ele>12.0</ele><time>2026-04-26T08:13:08.339Z</time></trkpt><trkpt lat="42.2057018" lon="14.595725"><ele>12.0</ele><time>2026-04-26T08:13:09.338Z</time></trkpt><trkpt lat="42.2058425" lon="14.5956339"><ele>12.0</ele><time>2026-04-26T08:13:10.338Z</time></trkpt><trkpt lat="42.2059845" lon="14.5955375"><ele>12.0</ele><time>2026-04-26T08:13:11.338Z</time></trkpt><trkpt lat="42.2061295" lon="14.5954401"><ele>12.0</ele><time>2026-04-26T08:13:12.337Z</time></trkpt><trkpt lat="42.2062763" lon="14.5953451"><ele>12.0</ele><time>2026-04-26T08:13:13.337Z</time></trkpt><trkpt lat="42.2064228" lon="14.5952515"><ele>12.0</ele><time>2026-04-26T08:13:14.339Z</time></trkpt><trkpt lat="42.2065695" lon="14.5951549"><ele>13.666666666666668</ele><time>2026-04-26T08:13:15.338Z</time></trkpt><trkpt lat="42.2067096" lon="14.5950596"><ele>15.333333333333334</ele><time>2026-04-26T08:13:16.338Z</time></trkpt><trkpt lat="42.2068441" lon="14.594967"><ele>17.0</ele><time>2026-04-26T08:13:17.338Z</time></trkpt><trkpt lat="42.2069794" lon="14.5948706"><ele>17.0</ele><time>2026-04-26T08:13:18.337Z</time></trkpt><trkpt lat="42.2071113" lon="14.5947665"><ele>17.0</ele><time>2026-04-26T08:13:19.337Z</time></trkpt><trkpt lat="42.2072444" lon="14.5946579"><ele>17.0</ele><time>2026-04-26T08:13:20.337Z</time></trkpt><trkpt lat="42.2073731" lon="14.5945451"><ele>18.333333333333336</ele><time>2026-04-26T08:13:21.337Z</time></trkpt><trkpt lat="42.2074969" lon="14.5944281"><ele>19.666666666666668</ele><time>2026-04-26T08:13:22.338Z</time></trkpt><trkpt lat="42.2076197" lon="14.5943122"><ele>21.0</ele><time>2026-04-26T08:13:23.338Z</time></trkpt><trkpt lat="42.2077395" lon="14.5941884"><ele>21.0</ele><time>2026-04-26T08:13:24.337Z</time></trkpt><trkpt lat="42.2078571" lon="14.5940679"><ele>21.0</ele><time>2026-04-26T08:13:25.338Z</time></trkpt><trkpt lat="42.2079748" lon="14.5939479"><ele>21.0</ele><time>2026-04-26T08:13:26.338Z</time></trkpt><trkpt lat="42.2080919" lon="14.5938252"><ele>21.0</ele><time>2026-04-26T08:13:27.338Z</time></trkpt><trkpt lat="42.2082045" lon="14.5937071"><ele>20.5</ele><time>2026-04-26T08:13:28.337Z</time></trkpt><trkpt lat="42.2083133" lon="14.5935943"><ele>20.0</ele><time>2026-04-26T08:13:29.337Z</time></trkpt><trkpt lat="42.208418" lon="14.5934834"><ele>19.5</ele><time>2026-04-26T08:13:30.338Z</time></trkpt><trkpt lat="42.2085213" lon="14.5933758"><ele>19.0</ele><time>2026-04-26T08:13:31.338Z</time></trkpt><trkpt lat="42.208623" lon="14.5932696"><ele>19.0</ele><time>2026-04-26T08:13:32.338Z</time></trkpt><trkpt lat="42.2087239" lon="14.5931604"><ele>19.0</ele><time>2026-04-26T08:13:33.339Z</time></trkpt><trkpt lat="42.2088262" lon="14.5930506"><ele>19.0</ele><time>2026-04-26T08:13:34.339Z</time></trkpt><trkpt lat="42.208929" lon="14.5929374"><ele>19.0</ele><time>2026-04-26T08:13:35.339Z</time></trkpt><trkpt lat="42.2090209" lon="14.5928249"><ele>20.25</ele><time>2026-04-26T08:13:36.339Z</time></trkpt><trkpt lat="42.2091103" lon="14.5927082"><ele>21.5</ele><time>2026-04-26T08:13:37.339Z</time></trkpt><trkpt lat="42.2091983" lon="14.592587"><ele>22.75</ele><time>2026-04-26T08:13:38.337Z</time></trkpt><trkpt lat="42.2092895" lon="14.5924485"><ele>24.0</ele><time>2026-04-26T08:13:39.338Z</time></trkpt><trkpt lat="42.2093851" lon="14.5922823"><ele>24.0</ele><time>2026-04-26T08:13:40.338Z</time></trkpt><trkpt lat="42.209489" lon="14.5920795"><ele>24.0</ele><time>2026-04-26T08:13:41.338Z</time></trkpt><trkpt lat="42.2096077" lon="14.5918579"><ele>24.0</ele><time>2026-04-26T08:13:42.338Z</time></trkpt><trkpt lat="42.2097292" lon="14.5916383"><ele>23.666666666666668</ele><time>2026-04-26T08:13:43.337Z</time></trkpt><trkpt lat="42.2098455" lon="14.5914218"><ele>23.333333333333336</ele><time>2026-04-26T08:13:44.338Z</time></trkpt><trkpt lat="42.209969" lon="14.591187"><ele>23.0</ele><time>2026-04-26T08:13:45.338Z</time></trkpt><trkpt lat="42.2101033" lon="14.5909292"><ele>23.0</ele><time>2026-04-26T08:13:46.338Z</time></trkpt><trkpt lat="42.2102491" lon="14.5906532"><ele>23.0</ele><time>2026-04-26T08:13:47.338Z</time></trkpt><trkpt lat="42.2104114" lon="14.5903742"><ele>27.0</ele><time>2026-04-26T08:13:48.339Z</time></trkpt><trkpt lat="42.2105646" lon="14.5901081"><ele>31.0</ele><time>2026-04-26T08:13:49.338Z</time></trkpt><trkpt lat="42.210706" lon="14.5898502"><ele>27.5</ele><time>2026-04-26T08:13:50.338Z</time></trkpt><trkpt lat="42.2108416" lon="14.5895974"><ele>24.0</ele><time>2026-04-26T08:13:51.338Z</time></trkpt><trkpt lat="42.2109749" lon="14.5893519"><ele>24.0</ele><time>2026-04-26T08:13:52.338Z</time></trkpt><trkpt lat="42.2111062" lon="14.5891069"><ele>24.0</ele><time>2026-04-26T08:13:53.338Z</time></trkpt><trkpt lat="42.2112283" lon="14.5888663"><ele>24.0</ele><time>2026-04-26T08:13:54.338Z</time></trkpt><trkpt lat="42.2113478" lon="14.5886135"><ele>28.5</ele><time>2026-04-26T08:13:55.337Z</time></trkpt><trkpt lat="42.2114634" lon="14.5883508"><ele>33.0</ele><time>2026-04-26T08:13:56.338Z</time></trkpt><trkpt lat="42.2115727" lon="14.5880832"><ele>28.666666666666668</ele><time>2026-04-26T08:13:57.338Z</time></trkpt><trkpt lat="42.2116805" lon="14.5878173"><ele>24.333333333333336</ele><time>2026-04-26T08:13:58.338Z</time></trkpt><trkpt lat="42.2117881" lon="14.5875508"><ele>20.0</ele><time>2026-04-26T08:13:59.338Z</time></trkpt><trkpt lat="42.2119018" lon="14.5872912"><ele>20.0</ele><time>2026-04-26T08:14:00.338Z</time></trkpt><trkpt lat="42.2120216" lon="14.5870358"><ele>20.0</ele><time>2026-04-26T08:14:01.338Z</time></trkpt><trkpt lat="42.2121566" lon="14.5867816"><ele>22.5</ele><time>2026-04-26T08:14:02.339Z</time></trkpt><trkpt lat="42.2122998" lon="14.5865292"><ele>25.0</ele><time>2026-04-26T08:14:03.338Z</time></trkpt><trkpt lat="42.2124365" lon="14.5862803"><ele>20.5</ele><time>2026-04-26T08:14:04.337Z</time></trkpt><trkpt lat="42.2125719" lon="14.5860322"><ele>16.0</ele><time>2026-04-26T08:14:05.338Z</time></trkpt><trkpt lat="42.2127103" lon="14.585781"><ele>16.0</ele><time>2026-04-26T08:14:06.339Z</time></trkpt><trkpt lat="42.2128331" lon="14.5855254"><ele>16.0</ele><time>2026-04-26T08:14:07.338Z</time></trkpt><trkpt lat="42.2129517" lon="14.5852525"><ele>14.0</ele><time>2026-04-26T08:14:08.338Z</time></trkpt><trkpt lat="42.2130626" lon="14.5849596"><ele>12.0</ele><time>2026-04-26T08:14:09.338Z</time></trkpt><trkpt lat="42.2131727" lon="14.584657"><ele>17.0</ele><time>2026-04-26T08:14:10.339Z</time></trkpt><trkpt lat="42.213287" lon="14.584358"><ele>22.0</ele><time>2026-04-26T08:14:11.337Z</time></trkpt><trkpt lat="42.2133987" lon="14.5840663"><ele>22.0</ele><time>2026-04-26T08:14:12.338Z</time></trkpt><trkpt lat="42.2134997" lon="14.5837915"><ele>22.0</ele><time>2026-04-26T08:14:13.338Z</time></trkpt><trkpt lat="42.2135983" lon="14.5835361"><ele>22.0</ele><time>2026-04-26T08:14:14.338Z</time></trkpt><trkpt lat="42.2137012" lon="14.583292"><ele>23.0</ele><time>2026-04-26T08:14:15.338Z</time></trkpt><trkpt lat="42.213815" lon="14.5830496"><ele>24.0</ele><time>2026-04-26T08:14:16.338Z</time></trkpt><trkpt lat="42.2139335" lon="14.5828057"><ele>25.0</ele><time>2026-04-26T08:14:17.338Z</time></trkpt><trkpt lat="42.2140598" lon="14.5825616"><ele>25.0</ele><time>2026-04-26T08:14:18.338Z</time></trkpt><trkpt lat="42.2141926" lon="14.5823165"><ele>25.0</ele><time>2026-04-26T08:14:19.337Z</time></trkpt><trkpt lat="42.2143213" lon="14.5820695"><ele>25.0</ele><time>2026-04-26T08:14:20.338Z</time></trkpt><trkpt lat="42.2144446" lon="14.58182"><ele>25.0</ele><time>2026-04-26T08:14:21.338Z</time></trkpt><trkpt lat="42.2145694" lon="14.5815717"><ele>25.0</ele><time>2026-04-26T08:14:22.338Z</time></trkpt><trkpt lat="42.2146955" lon="14.5813367"><ele>25.0</ele><time>2026-04-26T08:14:23.339Z</time></trkpt><trkpt lat="42.2148173" lon="14.5811039"><ele>23.0</ele><time>2026-04-26T08:14:24.337Z</time></trkpt><trkpt lat="42.2149382" lon="14.5808761"><ele>21.0</ele><time>2026-04-26T08:14:25.339Z</time></trkpt><trkpt lat="42.2150595" lon="14.5806525"><ele>19.0</ele><time>2026-04-26T08:14:26.338Z</time></trkpt><trkpt lat="42.2151718" lon="14.5804211"><ele>20.333333333333332</ele><time>2026-04-26T08:14:27.337Z</time></trkpt><trkpt lat="42.215285" lon="14.580177"><ele>21.666666666666668</ele><time>2026-04-26T08:14:28.338Z</time></trkpt><trkpt lat="42.2154095" lon="14.5799251"><ele>23.0</ele><time>2026-04-26T08:14:29.338Z</time></trkpt><trkpt lat="42.2155429" lon="14.5796713"><ele>21.5</ele><time>2026-04-26T08:14:30.338Z</time></trkpt><trkpt lat="42.2156705" lon="14.5794147"><ele>20.0</ele><time>2026-04-26T08:14:31.338Z</time></trkpt><trkpt lat="42.2158061" lon="14.5791471"><ele>20.0</ele><time>2026-04-26T08:14:32.338Z</time></trkpt><trkpt lat="42.2159355" lon="14.5788918"><ele>20.0</ele><time>2026-04-26T08:14:33.338Z</time></trkpt><trkpt lat="42.216057" lon="14.5786556"><ele>20.0</ele><time>2026-04-26T08:14:34.338Z</time></trkpt><trkpt lat="42.2161714" lon="14.5784299"><ele>20.0</ele><time>2026-04-26T08:14:35.338Z</time></trkpt><trkpt lat="42.2162839" lon="14.5782123"><ele>20.0</ele><time>2026-04-26T08:14:36.338Z</time></trkpt><trkpt lat="42.2163928" lon="14.5779894"><ele>20.0</ele><time>2026-04-26T08:14:37.338Z</time></trkpt><trkpt lat="42.216504" lon="14.5777741"><ele>20.0</ele><time>2026-04-26T08:14:38.339Z</time></trkpt><trkpt lat="42.2166139" lon="14.5775787"><ele>20.0</ele><time>2026-04-26T08:14:39.338Z</time></trkpt><trkpt lat="42.2167009" lon="14.5774003"><ele>20.0</ele><time>2026-04-26T08:14:40.338Z</time></trkpt><trkpt lat="42.2167892" lon="14.5772181"><ele>23.333333333333336</ele><time>2026-04-26T08:14:41.338Z</time></trkpt><trkpt lat="42.2168611" lon="14.5770166"><ele>26.666666666666668</ele><time>2026-04-26T08:14:42.338Z</time></trkpt><trkpt lat="42.2169139" lon="14.5767937"><ele>30.0</ele><time>2026-04-26T08:14:43.339Z</time></trkpt><trkpt lat="42.2169395" lon="14.5765486"><ele>30.0</ele><time>2026-04-26T08:14:44.339Z</time></trkpt><trkpt lat="42.216954" lon="14.5762985"><ele>30.0</ele><time>2026-04-26T08:14:45.337Z</time></trkpt><trkpt lat="42.216962" lon="14.5760603"><ele>30.0</ele><time>2026-04-26T08:14:46.339Z</time></trkpt><trkpt lat="42.2169746" lon="14.5758413"><ele>30.0</ele><time>2026-04-26T08:14:47.338Z</time></trkpt><trkpt lat="42.217001" lon="14.5756402"><ele>30.0</ele><time>2026-04-26T08:14:48.338Z</time></trkpt><trkpt lat="42.2170473" lon="14.5754514"><ele>30.0</ele><time>2026-04-26T08:14:49.338Z</time></trkpt><trkpt lat="42.2171168" lon="14.5752742"><ele>30.0</ele><time>2026-04-26T08:14:50.337Z</time></trkpt><trkpt lat="42.2172139" lon="14.575117"><ele>27.0</ele><time>2026-04-26T08:14:51.338Z</time></trkpt><trkpt lat="42.2173327" lon="14.5749733"><ele>24.0</ele><time>2026-04-26T08:14:52.338Z</time></trkpt><trkpt lat="42.2174674" lon="14.5748369"><ele>21.0</ele><time>2026-04-26T08:14:53.338Z</time></trkpt><trkpt lat="42.217603" lon="14.5746966"><ele>21.0</ele><time>2026-04-26T08:14:54.338Z</time></trkpt><trkpt lat="42.2177368" lon="14.5745434"><ele>21.0</ele><time>2026-04-26T08:14:55.338Z</time></trkpt><trkpt lat="42.2178614" lon="14.5743623"><ele>21.0</ele><time>2026-04-26T08:14:56.338Z</time></trkpt><trkpt lat="42.2179726" lon="14.5741604"><ele>20.333333333333332</ele><time>2026-04-26T08:14:57.339Z</time></trkpt><trkpt lat="42.2180759" lon="14.5739318"><ele>19.666666666666664</ele><time>2026-04-26T08:14:58.338Z</time></trkpt><trkpt lat="42.2181803" lon="14.5736789"><ele>19.0</ele><time>2026-04-26T08:14:59.337Z</time></trkpt><trkpt lat="42.2182838" lon="14.5734069"><ele>19.0</ele><time>2026-04-26T08:15:00.338Z</time></trkpt><trkpt lat="42.2183888" lon="14.57314"><ele>19.0</ele><time>2026-04-26T08:15:01.338Z</time></trkpt><trkpt lat="42.218491" lon="14.5728874"><ele>19.0</ele><time>2026-04-26T08:15:02.338Z</time></trkpt><trkpt lat="42.2185869" lon="14.5726516"><ele>19.333333333333332</ele><time>2026-04-26T08:15:03.338Z</time></trkpt><trkpt lat="42.2186733" lon="14.5724235"><ele>19.666666666666668</ele><time>2026-04-26T08:15:04.337Z</time></trkpt><trkpt lat="42.2187594" lon="14.5722101"><ele>20.0</ele><time>2026-04-26T08:15:05.338Z</time></trkpt><trkpt lat="42.2188547" lon="14.5720097"><ele>19.0</ele><time>2026-04-26T08:15:06.338Z</time></trkpt><trkpt lat="42.2189719" lon="14.5718084"><ele>18.0</ele><time>2026-04-26T08:15:07.338Z</time></trkpt><trkpt lat="42.2191124" lon="14.5716048"><ele>17.0</ele><time>2026-04-26T08:15:08.338Z</time></trkpt><trkpt lat="42.2192647" lon="14.5713896"><ele>19.5</ele><time>2026-04-26T08:15:09.337Z</time></trkpt><trkpt lat="42.2194265" lon="14.5711677"><ele>22.0</ele><time>2026-04-26T08:15:10.339Z</time></trkpt><trkpt lat="42.2195908" lon="14.5709402"><ele>22.0</ele><time>2026-04-26T08:15:11.338Z</time></trkpt><trkpt lat="42.219752" lon="14.5707168"><ele>22.0</ele><time>2026-04-26T08:15:12.338Z</time></trkpt><trkpt lat="42.2199071" lon="14.5705103"><ele>22.0</ele><time>2026-04-26T08:15:13.338Z</time></trkpt><trkpt lat="42.2200556" lon="14.5703046"><ele>20.666666666666664</ele><time>2026-04-26T08:15:14.338Z</time></trkpt><trkpt lat="42.2201983" lon="14.5700864"><ele>19.333333333333332</ele><time>2026-04-26T08:15:15.337Z</time></trkpt><trkpt lat="42.2203326" lon="14.5698458"><ele>18.0</ele><time>2026-04-26T08:15:16.338Z</time></trkpt><trkpt lat="42.2204624" lon="14.5695816"><ele>21.0</ele><time>2026-04-26T08:15:17.338Z</time></trkpt><trkpt lat="42.220592" lon="14.5693091"><ele>24.0</ele><time>2026-04-26T08:15:18.337Z</time></trkpt><trkpt lat="42.2207216" lon="14.5690204"><ele>18.5</ele><time>2026-04-26T08:15:19.337Z</time></trkpt><trkpt lat="42.2208511" lon="14.5687278"><ele>13.0</ele><time>2026-04-26T08:15:20.337Z</time></trkpt><trkpt lat="42.2209746" lon="14.5684329"><ele>13.0</ele><time>2026-04-26T08:15:21.338Z</time></trkpt><trkpt lat="42.2211017" lon="14.5681439"><ele>13.0</ele><time>2026-04-26T08:15:22.339Z</time></trkpt><trkpt lat="42.2212297" lon="14.5678543"><ele>14.5</ele><time>2026-04-26T08:15:23.338Z</time></trkpt><trkpt lat="42.2213556" lon="14.5675686"><ele>16.0</ele><time>2026-04-26T08:15:24.338Z</time></trkpt><trkpt lat="42.2214773" lon="14.5672855"><ele>12.0</ele><time>2026-04-26T08:15:25.338Z</time></trkpt><trkpt lat="42.2216034" lon="14.56701"><ele>8.0</ele><time>2026-04-26T08:15:26.338Z</time></trkpt><trkpt lat="42.2217276" lon="14.566738"><ele>8.0</ele><time>2026-04-26T08:15:27.338Z</time></trkpt><trkpt lat="42.2218481" lon="14.5664696"><ele>8.0</ele><time>2026-04-26T08:15:28.338Z</time></trkpt><trkpt lat="42.2219658" lon="14.5662003"><ele>15.0</ele><time>2026-04-26T08:15:29.338Z</time></trkpt><trkpt lat="42.2220812" lon="14.5659332"><ele>22.0</ele><time>2026-04-26T08:15:30.338Z</time></trkpt><trkpt lat="42.2221974" lon="14.565666"><ele>18.0</ele><time>2026-04-26T08:15:31.339Z</time></trkpt><trkpt lat="42.2223186" lon="14.5653947"><ele>14.0</ele><time>2026-04-26T08:15:32.339Z</time></trkpt><trkpt lat="42.2224433" lon="14.5651161"><ele>14.0</ele><time>2026-04-26T08:15:33.339Z</time></trkpt><trkpt lat="42.2225667" lon="14.5648331"><ele>14.0</ele><time>2026-04-26T08:15:34.338Z</time></trkpt><trkpt lat="42.2226902" lon="14.5645556"><ele>16.0</ele><time>2026-04-26T08:15:35.338Z</time></trkpt><trkpt lat="42.2228116" lon="14.5642806"><ele>18.0</ele><time>2026-04-26T08:15:36.338Z</time></trkpt><trkpt lat="42.2229314" lon="14.5640129"><ele>18.0</ele><time>2026-04-26T08:15:37.338Z</time></trkpt><trkpt lat="42.2230468" lon="14.5637449"><ele>18.0</ele><time>2026-04-26T08:15:38.337Z</time></trkpt><trkpt lat="42.2231639" lon="14.5634826"><ele>13.5</ele><time>2026-04-26T08:15:39.338Z</time></trkpt><trkpt lat="42.2232792" lon="14.5632203"><ele>9.0</ele><time>2026-04-26T08:15:40.338Z</time></trkpt><trkpt lat="42.2233971" lon="14.562956"><ele>11.666666666666668</ele><time>2026-04-26T08:15:41.337Z</time></trkpt><trkpt lat="42.2235119" lon="14.5626973"><ele>14.333333333333334</ele><time>2026-04-26T08:15:42.337Z</time></trkpt><trkpt lat="42.2236255" lon="14.5624391"><ele>17.0</ele><time>2026-04-26T08:15:43.337Z</time></trkpt><trkpt lat="42.2237412" lon="14.5621815"><ele>18.666666666666668</ele><time>2026-04-26T08:15:44.338Z</time></trkpt><trkpt lat="42.2238533" lon="14.5619308"><ele>20.333333333333332</ele><time>2026-04-26T08:15:45.338Z</time></trkpt><trkpt lat="42.2239578" lon="14.561692"><ele>22.0</ele><time>2026-04-26T08:15:46.338Z</time></trkpt><trkpt lat="42.2240579" lon="14.5614678"><ele>19.666666666666664</ele><time>2026-04-26T08:15:47.338Z</time></trkpt><trkpt lat="42.2241515" lon="14.5612557"><ele>17.333333333333332</ele><time>2026-04-26T08:15:48.338Z</time></trkpt><trkpt lat="42.2242407" lon="14.5610549"><ele>15.0</ele><time>2026-04-26T08:15:49.338Z</time></trkpt><trkpt lat="42.2243273" lon="14.5608652"><ele>15.0</ele><time>2026-04-26T08:15:50.338Z</time></trkpt><trkpt lat="42.2244069" lon="14.5606809"><ele>15.0</ele><time>2026-04-26T08:15:51.338Z</time></trkpt><trkpt lat="42.224487" lon="14.5605063"><ele>15.0</ele><time>2026-04-26T08:15:52.339Z</time></trkpt><trkpt lat="42.2245637" lon="14.5603199"><ele>15.666666666666668</ele><time>2026-04-26T08:15:53.338Z</time></trkpt><trkpt lat="42.2246442" lon="14.5601253"><ele>16.333333333333336</ele><time>2026-04-26T08:15:54.338Z</time></trkpt><trkpt lat="42.2247298" lon="14.559925"><ele>17.0</ele><time>2026-04-26T08:15:55.338Z</time></trkpt><trkpt lat="42.2248187" lon="14.5597234"><ele>14.333333333333334</ele><time>2026-04-26T08:15:56.337Z</time></trkpt><trkpt lat="42.2249044" lon="14.5595194"><ele>11.666666666666668</ele><time>2026-04-26T08:15:57.337Z</time></trkpt><trkpt lat="42.2249878" lon="14.5593163"><ele>9.0</ele><time>2026-04-26T08:15:58.338Z</time></trkpt><trkpt lat="42.2250708" lon="14.5591119"><ele>9.0</ele><time>2026-04-26T08:15:59.339Z</time></trkpt><trkpt lat="42.2251523" lon="14.5589094"><ele>9.0</ele><time>2026-04-26T08:16:00.338Z</time></trkpt><trkpt lat="42.2252311" lon="14.5587092"><ele>9.0</ele><time>2026-04-26T08:16:01.337Z</time></trkpt><trkpt lat="42.2253069" lon="14.558511"><ele>10.333333333333332</ele><time>2026-04-26T08:16:02.337Z</time></trkpt><trkpt lat="42.2253875" lon="14.5583171"><ele>11.666666666666666</ele><time>2026-04-26T08:16:03.339Z</time></trkpt><trkpt lat="42.2254667" lon="14.5581178"><ele>13.0</ele><time>2026-04-26T08:16:04.338Z</time></trkpt><trkpt lat="42.2255466" lon="14.5579149"><ele>14.333333333333332</ele><time>2026-04-26T08:16:05.338Z</time></trkpt><trkpt lat="42.2256292" lon="14.5577041"><ele>15.666666666666668</ele><time>2026-04-26T08:16:06.338Z</time></trkpt><trkpt lat="42.2257192" lon="14.5574954"><ele>17.0</ele><time>2026-04-26T08:16:07.338Z</time></trkpt><trkpt lat="42.225807" lon="14.5572771"><ele>16.666666666666668</ele><time>2026-04-26T08:16:08.338Z</time></trkpt><trkpt lat="42.2258895" lon="14.5570663"><ele>16.333333333333332</ele><time>2026-04-26T08:16:09.338Z</time></trkpt><trkpt lat="42.2259695" lon="14.5568584"><ele>16.0</ele><time>2026-04-26T08:16:10.338Z</time></trkpt><trkpt lat="42.2260543" lon="14.5566554"><ele>16.0</ele><time>2026-04-26T08:16:11.338Z</time></trkpt><trkpt lat="42.2261384" lon="14.5564529"><ele>16.0</ele><time>2026-04-26T08:16:12.338Z</time></trkpt><trkpt lat="42.2262222" lon="14.5562519"><ele>16.0</ele><time>2026-04-26T08:16:13.338Z</time></trkpt><trkpt lat="42.2263012" lon="14.556047"><ele>18.666666666666664</ele><time>2026-04-26T08:16:14.338Z</time></trkpt><trkpt lat="42.2263839" lon="14.5558458"><ele>21.333333333333332</ele><time>2026-04-26T08:16:15.337Z</time></trkpt><trkpt lat="42.2264702" lon="14.5556421"><ele>24.0</ele><time>2026-04-26T08:16:16.338Z</time></trkpt><trkpt lat="42.2265545" lon="14.5554431"><ele>20.333333333333332</ele><time>2026-04-26T08:16:17.338Z</time></trkpt><trkpt lat="42.2266464" lon="14.555249"><ele>16.666666666666664</ele><time>2026-04-26T08:16:18.338Z</time></trkpt><trkpt lat="42.2267361" lon="14.5550541"><ele>13.0</ele><time>2026-04-26T08:16:19.338Z</time></trkpt><trkpt lat="42.2268283" lon="14.5548626"><ele>13.0</ele><time>2026-04-26T08:16:20.338Z</time></trkpt><trkpt lat="42.2269216" lon="14.5546692"><ele>13.0</ele><time>2026-04-26T08:16:21.337Z</time></trkpt><trkpt lat="42.2270173" lon="14.5544632"><ele>13.0</ele><time>2026-04-26T08:16:22.338Z</time></trkpt><trkpt lat="42.2271228" lon="14.5542379"><ele>12.666666666666666</ele><time>2026-04-26T08:16:23.339Z</time></trkpt><trkpt lat="42.2272288" lon="14.5539979"><ele>12.333333333333332</ele><time>2026-04-26T08:16:24.338Z</time></trkpt><trkpt lat="42.2273397" lon="14.5537434"><ele>12.0</ele><time>2026-04-26T08:16:25.338Z</time></trkpt><trkpt lat="42.2274745" lon="14.5534926"><ele>12.0</ele><time>2026-04-26T08:16:26.338Z</time></trkpt><trkpt lat="42.227615" lon="14.5532376"><ele>12.0</ele><time>2026-04-26T08:16:27.338Z</time></trkpt><trkpt lat="42.2277481" lon="14.5529805"><ele>16.0</ele><time>2026-04-26T08:16:28.338Z</time></trkpt><trkpt lat="42.2278711" lon="14.5527242"><ele>20.0</ele><time>2026-04-26T08:16:29.338Z</time></trkpt><trkpt lat="42.2279848" lon="14.5524856"><ele>24.0</ele><time>2026-04-26T08:16:30.337Z</time></trkpt><trkpt lat="42.2280968" lon="14.5522618"><ele>19.333333333333332</ele><time>2026-04-26T08:16:31.337Z</time></trkpt><trkpt lat="42.2282127" lon="14.552054"><ele>14.666666666666668</ele><time>2026-04-26T08:16:32.338Z</time></trkpt><trkpt lat="42.2283409" lon="14.5518554"><ele>10.0</ele><time>2026-04-26T08:16:33.338Z</time></trkpt><trkpt lat="42.2284773" lon="14.551671"><ele>10.0</ele><time>2026-04-26T08:16:34.337Z</time></trkpt><trkpt lat="42.2286064" lon="14.5514958"><ele>10.0</ele><time>2026-04-26T08:16:35.338Z</time></trkpt><trkpt lat="42.2287204" lon="14.5512994"><ele>10.0</ele><time>2026-04-26T08:16:36.338Z</time></trkpt><trkpt lat="42.2288302" lon="14.5510755"><ele>10.0</ele><time>2026-04-26T08:16:37.337Z</time></trkpt><trkpt lat="42.2289433" lon="14.5508404"><ele>10.0</ele><time>2026-04-26T08:16:38.339Z</time></trkpt><trkpt lat="42.2290592" lon="14.5505956"><ele>10.0</ele><time>2026-04-26T08:16:39.338Z</time></trkpt><trkpt lat="42.2291683" lon="14.5503571"><ele>10.0</ele><time>2026-04-26T08:16:40.337Z</time></trkpt><trkpt lat="42.2292821" lon="14.5501325"><ele>10.0</ele><time>2026-04-26T08:16:41.337Z</time></trkpt><trkpt lat="42.2293889" lon="14.5499098"><ele>10.0</ele><time>2026-04-26T08:16:42.337Z</time></trkpt><trkpt lat="42.2294942" lon="14.5496889"><ele>8.0</ele><time>2026-04-26T08:16:43.338Z</time></trkpt><trkpt lat="42.2296022" lon="14.5494751"><ele>6.0</ele><time>2026-04-26T08:16:44.338Z</time></trkpt><trkpt lat="42.2297045" lon="14.5492602"><ele>4.0</ele><time>2026-04-26T08:16:45.337Z</time></trkpt><trkpt lat="42.2298154" lon="14.5490294"><ele>4.0</ele><time>2026-04-26T08:16:46.338Z</time></trkpt><trkpt lat="42.2299301" lon="14.5487823"><ele>4.0</ele><time>2026-04-26T08:16:47.339Z</time></trkpt><trkpt lat="42.2300446" lon="14.5485215"><ele>4.0</ele><time>2026-04-26T08:16:48.338Z</time></trkpt><trkpt lat="42.2301625" lon="14.548259"><ele>8.5</ele><time>2026-04-26T08:16:49.338Z</time></trkpt><trkpt lat="42.2302778" lon="14.5479906"><ele>13.0</ele><time>2026-04-26T08:16:50.338Z</time></trkpt><trkpt lat="42.2303895" lon="14.547734"><ele>13.666666666666666</ele><time>2026-04-26T08:16:51.338Z</time></trkpt><trkpt lat="42.2304919" lon="14.5474878"><ele>14.333333333333332</ele><time>2026-04-26T08:16:52.338Z</time></trkpt><trkpt lat="42.2305894" lon="14.5472549"><ele>15.0</ele><time>2026-04-26T08:16:53.338Z</time></trkpt><trkpt lat="42.2306803" lon="14.5470288"><ele>15.0</ele><time>2026-04-26T08:16:54.338Z</time></trkpt><trkpt lat="42.2307762" lon="14.5468159"><ele>15.0</ele><time>2026-04-26T08:16:55.338Z</time></trkpt><trkpt lat="42.2308867" lon="14.546608"><ele>15.0</ele><time>2026-04-26T08:16:56.339Z</time></trkpt><trkpt lat="42.2310129" lon="14.5464152"><ele>15.0</ele><time>2026-04-26T08:16:57.338Z</time></trkpt><trkpt lat="42.2311458" lon="14.5462287"><ele>15.0</ele><time>2026-04-26T08:16:58.338Z</time></trkpt><trkpt lat="42.2312874" lon="14.5460508"><ele>15.0</ele><time>2026-04-26T08:16:59.338Z</time></trkpt><trkpt lat="42.2314235" lon="14.5458739"><ele>17.0</ele><time>2026-04-26T08:17:00.338Z</time></trkpt><trkpt lat="42.2315566" lon="14.5456933"><ele>19.0</ele><time>2026-04-26T08:17:01.339Z</time></trkpt><trkpt lat="42.2316925" lon="14.5455044"><ele>21.0</ele><time>2026-04-26T08:17:02.338Z</time></trkpt><trkpt lat="42.2318307" lon="14.5453078"><ele>21.0</ele><time>2026-04-26T08:17:03.338Z</time></trkpt><trkpt lat="42.231974" lon="14.5451041"><ele>21.0</ele><time>2026-04-26T08:17:04.338Z</time></trkpt><trkpt lat="42.232126" lon="14.5449002"><ele>21.0</ele><time>2026-04-26T08:17:05.338Z</time></trkpt><trkpt lat="42.2322801" lon="14.5446989"><ele>18.666666666666668</ele><time>2026-04-26T08:17:06.338Z</time></trkpt><trkpt lat="42.2324334" lon="14.5445096"><ele>16.333333333333336</ele><time>2026-04-26T08:17:07.337Z</time></trkpt><trkpt lat="42.2325848" lon="14.544332"><ele>14.0</ele><time>2026-04-26T08:17:08.338Z</time></trkpt><trkpt lat="42.2327377" lon="14.5441474"><ele>14.0</ele><time>2026-04-26T08:17:09.337Z</time></trkpt><trkpt lat="42.2328777" lon="14.5439531"><ele>14.0</ele><time>2026-04-26T08:17:10.337Z</time></trkpt><trkpt lat="42.233009" lon="14.5437454"><ele>14.0</ele><time>2026-04-26T08:17:11.338Z</time></trkpt><trkpt lat="42.2331317" lon="14.5435308"><ele>13.0</ele><time>2026-04-26T08:17:12.338Z</time></trkpt><trkpt lat="42.233256" lon="14.5433137"><ele>12.0</ele><time>2026-04-26T08:17:13.338Z</time></trkpt><trkpt lat="42.2333754" lon="14.5430944"><ele>11.0</ele><time>2026-04-26T08:17:14.338Z</time></trkpt><trkpt lat="42.2334921" lon="14.5428716"><ele>14.666666666666666</ele><time>2026-04-26T08:17:15.338Z</time></trkpt><trkpt lat="42.2336024" lon="14.54265"><ele>18.333333333333332</ele><time>2026-04-26T08:17:16.338Z</time></trkpt><trkpt lat="42.2337089" lon="14.5424183"><ele>22.0</ele><time>2026-04-26T08:17:17.338Z</time></trkpt><trkpt lat="42.2338089" lon="14.5421821"><ele>22.666666666666664</ele><time>2026-04-26T08:17:18.338Z</time></trkpt><trkpt lat="42.2339059" lon="14.5419412"><ele>23.333333333333332</ele><time>2026-04-26T08:17:19.338Z</time></trkpt><trkpt lat="42.2340039" lon="14.5416986"><ele>24.0</ele><time>2026-04-26T08:17:20.338Z</time></trkpt><trkpt lat="42.2341083" lon="14.5414514"><ele>14.0</ele><time>2026-04-26T08:17:21.337Z</time></trkpt><trkpt lat="42.2342162" lon="14.5411887"><ele>4.0</ele><time>2026-04-26T08:17:22.338Z</time></trkpt><trkpt lat="42.2343298" lon="14.5409219"><ele>4.0</ele><time>2026-04-26T08:17:23.339Z</time></trkpt><trkpt lat="42.2344462" lon="14.5406506"><ele>4.0</ele><time>2026-04-26T08:17:24.339Z</time></trkpt><trkpt lat="42.2345623" lon="14.5403797"><ele>4.5</ele><time>2026-04-26T08:17:25.337Z</time></trkpt><trkpt lat="42.234682" lon="14.5401009"><ele>5.0</ele><time>2026-04-26T08:17:26.338Z</time></trkpt><trkpt lat="42.2348065" lon="14.5398122"><ele>6.0</ele><time>2026-04-26T08:17:27.337Z</time></trkpt><trkpt lat="42.2349328" lon="14.5395206"><ele>7.0</ele><time>2026-04-26T08:17:28.337Z</time></trkpt><trkpt lat="42.235059" lon="14.5392249"><ele>7.0</ele><time>2026-04-26T08:17:29.338Z</time></trkpt><trkpt lat="42.235186" lon="14.5389234"><ele>7.0</ele><time>2026-04-26T08:17:30.338Z</time></trkpt><trkpt lat="42.2353128" lon="14.5386271"><ele>6.5</ele><time>2026-04-26T08:17:31.338Z</time></trkpt><trkpt lat="42.235431" lon="14.5383401"><ele>6.0</ele><time>2026-04-26T08:17:32.339Z</time></trkpt><trkpt lat="42.235553" lon="14.5380513"><ele>5.5</ele><time>2026-04-26T08:17:33.338Z</time></trkpt><trkpt lat="42.2356748" lon="14.5377712"><ele>5.0</ele><time>2026-04-26T08:17:34.338Z</time></trkpt><trkpt lat="42.2358006" lon="14.5374964"><ele>5.0</ele><time>2026-04-26T08:17:35.339Z</time></trkpt><trkpt lat="42.2359244" lon="14.537207"><ele>5.0</ele><time>2026-04-26T08:17:36.339Z</time></trkpt><trkpt lat="42.2360486" lon="14.5369142"><ele>5.0</ele><time>2026-04-26T08:17:37.337Z</time></trkpt><trkpt lat="42.2361723" lon="14.5366242"><ele>5.0</ele><time>2026-04-26T08:17:38.338Z</time></trkpt><trkpt lat="42.2363022" lon="14.5363389"><ele>4.0</ele><time>2026-04-26T08:17:39.338Z</time></trkpt><trkpt lat="42.2364315" lon="14.5360486"><ele>3.0</ele><time>2026-04-26T08:17:40.338Z</time></trkpt><trkpt lat="42.2365591" lon="14.5357563"><ele>3.0</ele><time>2026-04-26T08:17:41.337Z</time></trkpt><trkpt lat="42.2366892" lon="14.5354688"><ele>3.0</ele><time>2026-04-26T08:17:42.338Z</time></trkpt><trkpt lat="42.2368113" lon="14.5351953"><ele>3.0</ele><time>2026-04-26T08:17:43.339Z</time></trkpt><trkpt lat="42.2369328" lon="14.5349378"><ele>3.0</ele><time>2026-04-26T08:17:44.338Z</time></trkpt><trkpt lat="42.2370501" lon="14.5346833"><ele>3.0</ele><time>2026-04-26T08:17:45.337Z</time></trkpt><trkpt lat="42.2371619" lon="14.5344381"><ele>3.0</ele><time>2026-04-26T08:17:46.339Z</time></trkpt><trkpt lat="42.2372682" lon="14.5341999"><ele>3.0</ele><time>2026-04-26T08:17:47.338Z</time></trkpt><trkpt lat="42.2373788" lon="14.5339538"><ele>3.0</ele><time>2026-04-26T08:17:48.337Z</time></trkpt><trkpt lat="42.2374938" lon="14.533704"><ele>3.0</ele><time>2026-04-26T08:17:49.337Z</time></trkpt><trkpt lat="42.2376145" lon="14.533436"><ele>3.0</ele><time>2026-04-26T08:17:50.337Z</time></trkpt><trkpt lat="42.2377389" lon="14.533162"><ele>4.0</ele><time>2026-04-26T08:17:51.338Z</time></trkpt><trkpt lat="42.237866" lon="14.5328867"><ele>5.0</ele><time>2026-04-26T08:17:52.338Z</time></trkpt><trkpt lat="42.2379878" lon="14.5326227"><ele>5.0</ele><time>2026-04-26T08:17:53.339Z</time></trkpt><trkpt lat="42.2381031" lon="14.5323733"><ele>5.0</ele><time>2026-04-26T08:17:54.339Z</time></trkpt><trkpt lat="42.2382102" lon="14.5321258"><ele>5.0</ele><time>2026-04-26T08:17:55.338Z</time></trkpt><trkpt lat="42.2383158" lon="14.5318931"><ele>4.0</ele><time>2026-04-26T08:17:56.339Z</time></trkpt><trkpt lat="42.2384205" lon="14.531672"><ele>3.0</ele><time>2026-04-26T08:17:57.338Z</time></trkpt><trkpt lat="42.2385207" lon="14.5314614"><ele>2.0</ele><time>2026-04-26T08:17:58.338Z</time></trkpt><trkpt lat="42.2386159" lon="14.5312567"><ele>1.3333333333333333</ele><time>2026-04-26T08:17:59.338Z</time></trkpt><trkpt lat="42.2387035" lon="14.5310583"><ele>0.6666666666666666</ele><time>2026-04-26T08:18:00.337Z</time></trkpt><trkpt lat="42.2387937" lon="14.5308602"><ele>0.0</ele><time>2026-04-26T08:18:01.338Z</time></trkpt><trkpt lat="42.2388793" lon="14.5306679"><ele>0.0</ele><time>2026-04-26T08:18:02.338Z</time></trkpt><trkpt lat="42.2389618" lon="14.5304869"><ele>0.0</ele><time>2026-04-26T08:18:03.337Z</time></trkpt><trkpt lat="42.23904" lon="14.5303155"><ele>0.0</ele><time>2026-04-26T08:18:04.339Z</time></trkpt><trkpt lat="42.2391136" lon="14.5301564"><ele>0.0</ele><time>2026-04-26T08:18:05.339Z</time></trkpt><trkpt lat="42.2391801" lon="14.5300065"><ele>0.16666666666666666</ele><time>2026-04-26T08:18:06.337Z</time></trkpt><trkpt lat="42.2392417" lon="14.5298763"><ele>0.3333333333333333</ele><time>2026-04-26T08:18:07.338Z</time></trkpt><trkpt lat="42.2392959" lon="14.5297666"><ele>0.5</ele><time>2026-04-26T08:18:08.337Z</time></trkpt><trkpt lat="42.2393463" lon="14.5296725"><ele>0.6666666666666666</ele><time>2026-04-26T08:18:09.338Z</time></trkpt><trkpt lat="42.2393937" lon="14.529597"><ele>0.8333333333333333</ele><time>2026-04-26T08:18:10.338Z</time></trkpt><trkpt lat="42.239454" lon="14.5295514"><ele>1.0</ele><time>2026-04-26T08:18:11.338Z</time></trkpt><trkpt lat="42.2395156" lon="14.529521"><ele>0.9999999999999999</ele><time>2026-04-26T08:18:12.337Z</time></trkpt><trkpt lat="42.2395797" lon="14.5295222"><ele>1.0</ele><time>2026-04-26T08:18:13.338Z</time></trkpt><trkpt lat="42.2396498" lon="14.5295495"><ele>1.0</ele><time>2026-04-26T08:18:14.339Z</time></trkpt><trkpt lat="42.2397238" lon="14.5296003"><ele>1.0</ele><time>2026-04-26T08:18:15.338Z</time></trkpt><trkpt lat="42.2397956" lon="14.5296603"><ele>0.9999999999999999</ele><time>2026-04-26T08:18:16.338Z</time></trkpt><trkpt lat="42.2398738" lon="14.5297088"><ele>1.0</ele><time>2026-04-26T08:18:17.339Z</time></trkpt><trkpt lat="42.2399469" lon="14.5297782"><ele>1.0</ele><time>2026-04-26T08:18:18.338Z</time></trkpt><trkpt lat="42.2400158" lon="14.5298422"><ele>1.0</ele><time>2026-04-26T08:18:19.338Z</time></trkpt><trkpt lat="42.2400764" lon="14.5298992"><ele>1.0</ele><time>2026-04-26T08:18:20.338Z</time></trkpt><trkpt lat="42.2401532" lon="14.5299438"><ele>1.0</ele><time>2026-04-26T08:18:22.339Z</time></trkpt><trkpt lat="42.2402546" lon="14.5299477"><ele>1.0</ele><time>2026-04-26T08:18:25.338Z</time></trkpt><trkpt lat="42.2403526" lon="14.529885"><ele>1.0</ele><time>2026-04-26T08:18:27.338Z</time></trkpt><trkpt lat="42.2403964" lon="14.5298224"><ele>0.9999999999999999</ele><time>2026-04-26T08:18:28.337Z</time></trkpt><trkpt lat="42.2404314" lon="14.5297463"><ele>1.0</ele><time>2026-04-26T08:18:29.338Z</time></trkpt><trkpt lat="42.2404657" lon="14.5296553"><ele>1.0</ele><time>2026-04-26T08:18:30.338Z</time></trkpt><trkpt lat="42.2405011" lon="14.5295667"><ele>0.9999999999999999</ele><time>2026-04-26T08:18:31.337Z</time></trkpt><trkpt lat="42.2405408" lon="14.5294798"><ele>1.0</ele><time>2026-04-26T08:18:32.337Z</time></trkpt><trkpt lat="42.2405754" lon="14.5293866"><ele>1.0</ele><time>2026-04-26T08:18:33.338Z</time></trkpt><trkpt lat="42.2406101" lon="14.5292909"><ele>0.8333333333333333</ele><time>2026-04-26T08:18:34.339Z</time></trkpt><trkpt lat="42.2406403" lon="14.5292003"><ele>0.6666666666666666</ele><time>2026-04-26T08:18:35.338Z</time></trkpt><trkpt lat="42.2406757" lon="14.5291058"><ele>0.5</ele><time>2026-04-26T08:18:36.338Z</time></trkpt><trkpt lat="42.2407184" lon="14.5290132"><ele>0.3333333333333333</ele><time>2026-04-26T08:18:37.339Z</time></trkpt><trkpt lat="42.2407582" lon="14.5289053"><ele>0.16666666666666666</ele><time>2026-04-26T08:18:38.337Z</time></trkpt><trkpt lat="42.2407974" lon="14.5287889"><ele>0.0</ele><time>2026-04-26T08:18:39.338Z</time></trkpt><trkpt lat="42.2408398" lon="14.528667"><ele>-0.2</ele><time>2026-04-26T08:18:40.338Z</time></trkpt><trkpt lat="42.2408874" lon="14.5285414"><ele>-0.4</ele><time>2026-04-26T08:18:41.338Z</time></trkpt><trkpt lat="42.2409334" lon="14.5284144"><ele>-0.6000000000000001</ele><time>2026-04-26T08:18:42.338Z</time></trkpt><trkpt lat="42.2409883" lon="14.5282878"><ele>-0.8</ele><time>2026-04-26T08:18:43.338Z</time></trkpt><trkpt lat="42.2410476" lon="14.5281583"><ele>-1.0</ele><time>2026-04-26T08:18:44.338Z</time></trkpt><trkpt lat="42.2411104" lon="14.5280266"><ele>-0.8</ele><time>2026-04-26T08:18:45.338Z</time></trkpt><trkpt lat="42.2411703" lon="14.5278922"><ele>-0.6000000000000001</ele><time>2026-04-26T08:18:46.339Z</time></trkpt><trkpt lat="42.2412239" lon="14.5277603"><ele>-0.4</ele><time>2026-04-26T08:18:47.337Z</time></trkpt><trkpt lat="42.2412751" lon="14.5276291"><ele>-0.2</ele><time>2026-04-26T08:18:48.338Z</time></trkpt><trkpt lat="42.2413263" lon="14.5274978"><ele>0.0</ele><time>2026-04-26T08:18:49.338Z</time></trkpt><trkpt lat="42.2413772" lon="14.5273614"><ele>0.0</ele><time>2026-04-26T08:18:50.338Z</time></trkpt><trkpt lat="42.2414295" lon="14.5272207"><ele>0.0</ele><time>2026-04-26T08:18:51.338Z</time></trkpt><trkpt lat="42.241485" lon="14.5270785"><ele>0.0</ele><time>2026-04-26T08:18:52.339Z</time></trkpt><trkpt lat="42.2415407" lon="14.5269427"><ele>0.0</ele><time>2026-04-26T08:18:53.338Z</time></trkpt><trkpt lat="42.2415929" lon="14.5268167"><ele>0.3333333333333333</ele><time>2026-04-26T08:18:54.338Z</time></trkpt><trkpt lat="42.2416388" lon="14.5267067"><ele>0.6666666666666666</ele><time>2026-04-26T08:18:55.338Z</time></trkpt><trkpt lat="42.2416802" lon="14.5266079"><ele>1.0</ele><time>2026-04-26T08:18:56.337Z</time></trkpt><trkpt lat="42.2417185" lon="14.5265101"><ele>1.3333333333333333</ele><time>2026-04-26T08:18:57.338Z</time></trkpt><trkpt lat="42.2417587" lon="14.5264129"><ele>1.6666666666666665</ele><time>2026-04-26T08:18:58.337Z</time></trkpt><trkpt lat="42.2417968" lon="14.5263164"><ele>2.0</ele><time>2026-04-26T08:18:59.338Z</time></trkpt><trkpt lat="42.2418357" lon="14.5262281"><ele>2.0</ele><time>2026-04-26T08:19:00.338Z</time></trkpt><trkpt lat="42.2418699" lon="14.5261427"><ele>2.0</ele><time>2026-04-26T08:19:01.339Z</time></trkpt><trkpt lat="42.2419239" lon="14.5260061"><ele>2.0</ele><time>2026-04-26T08:19:03.337Z</time></trkpt><trkpt lat="42.2419687" lon="14.525886"><ele>2.0</ele><time>2026-04-26T08:19:05.337Z</time></trkpt><trkpt lat="42.2420144" lon="14.5257567"><ele>2.0</ele><time>2026-04-26T08:19:07.338Z</time></trkpt><trkpt lat="42.2420642" lon="14.5256159"><ele>1.9999999999999998</ele><time>2026-04-26T08:19:09.338Z</time></trkpt><trkpt lat="42.2421111" lon="14.5254957"><ele>2.0</ele><time>2026-04-26T08:19:11.339Z</time></trkpt><trkpt lat="42.2421629" lon="14.525377"><ele>2.0</ele><time>2026-04-26T08:19:13.338Z</time></trkpt><trkpt lat="42.2422127" lon="14.5252712"><ele>2.0</ele><time>2026-04-26T08:19:15.338Z</time></trkpt><trkpt lat="42.2422476" lon="14.525182"><ele>1.9999999999999998</ele><time>2026-04-26T08:19:17.338Z</time></trkpt><trkpt lat="42.2422839" lon="14.5251036"><ele>2.0</ele><time>2026-04-26T08:19:19.338Z</time></trkpt><trkpt lat="42.2423289" lon="14.5249842"><ele>1.9999999999999998</ele><time>2026-04-26T08:19:21.338Z</time></trkpt><trkpt lat="42.2423594" lon="14.5248991"><ele>2.0</ele><time>2026-04-26T08:19:22.339Z</time></trkpt><trkpt lat="42.242397" lon="14.5248102"><ele>2.0</ele><time>2026-04-26T08:19:23.338Z</time></trkpt><trkpt lat="42.2424368" lon="14.5247154"><ele>2.0</ele><time>2026-04-26T08:19:24.338Z</time></trkpt><trkpt lat="42.2424758" lon="14.5246148"><ele>1.9999999999999998</ele><time>2026-04-26T08:19:25.337Z</time></trkpt><trkpt lat="42.2425175" lon="14.5245137"><ele>2.0</ele><time>2026-04-26T08:19:26.337Z</time></trkpt><trkpt lat="42.2425589" lon="14.5244167"><ele>1.9999999999999998</ele><time>2026-04-26T08:19:27.339Z</time></trkpt><trkpt lat="42.2425987" lon="14.5243191"><ele>2.0</ele><time>2026-04-26T08:19:28.339Z</time></trkpt><trkpt lat="42.2426408" lon="14.5242198"><ele>2.0</ele><time>2026-04-26T08:19:29.338Z</time></trkpt><trkpt lat="42.2426871" lon="14.5241248"><ele>2.0</ele><time>2026-04-26T08:19:30.339Z</time></trkpt><trkpt lat="42.242738" lon="14.5240252"><ele>1.9999999999999998</ele><time>2026-04-26T08:19:31.339Z</time></trkpt><trkpt lat="42.242789" lon="14.5239193"><ele>2.0</ele><time>2026-04-26T08:19:32.338Z</time></trkpt><trkpt lat="42.2428443" lon="14.5238071"><ele>1.8</ele><time>2026-04-26T08:19:33.338Z</time></trkpt><trkpt lat="42.2428989" lon="14.5236882"><ele>1.6</ele><time>2026-04-26T08:19:34.338Z</time></trkpt><trkpt lat="42.2429572" lon="14.5235719"><ele>1.4000000000000001</ele><time>2026-04-26T08:19:35.337Z</time></trkpt><trkpt lat="42.2430156" lon="14.52346"><ele>1.2000000000000002</ele><time>2026-04-26T08:19:36.338Z</time></trkpt><trkpt lat="42.2430769" lon="14.523353"><ele>1.0</ele><time>2026-04-26T08:19:37.337Z</time></trkpt><trkpt lat="42.2431376" lon="14.5232466"><ele>0.9999999999999999</ele><time>2026-04-26T08:19:38.337Z</time></trkpt><trkpt lat="42.2431931" lon="14.5231532"><ele>1.0</ele><time>2026-04-26T08:19:39.338Z</time></trkpt><trkpt lat="42.2432451" lon="14.5230623"><ele>1.0</ele><time>2026-04-26T08:19:40.339Z</time></trkpt><trkpt lat="42.2432961" lon="14.5229756"><ele>1.0</ele><time>2026-04-26T08:19:41.339Z</time></trkpt><trkpt lat="42.2433473" lon="14.5228876"><ele>0.9999999999999999</ele><time>2026-04-26T08:19:42.337Z</time></trkpt><trkpt lat="42.243396" lon="14.5228027"><ele>1.0</ele><time>2026-04-26T08:19:43.339Z</time></trkpt><trkpt lat="42.2434449" lon="14.5227194"><ele>1.1666666666666665</ele><time>2026-04-26T08:19:44.338Z</time></trkpt><trkpt lat="42.2434946" lon="14.5226418"><ele>1.3333333333333333</ele><time>2026-04-26T08:19:45.337Z</time></trkpt><trkpt lat="42.2435487" lon="14.5225633"><ele>1.5</ele><time>2026-04-26T08:19:46.338Z</time></trkpt><trkpt lat="42.2436003" lon="14.5224786"><ele>1.6666666666666665</ele><time>2026-04-26T08:19:47.337Z</time></trkpt><trkpt lat="42.2436475" lon="14.5223973"><ele>1.8333333333333333</ele><time>2026-04-26T08:19:48.339Z</time></trkpt><trkpt lat="42.2437009" lon="14.52232"><ele>2.0</ele><time>2026-04-26T08:19:49.337Z</time></trkpt><trkpt lat="42.2437594" lon="14.5222455"><ele>1.9999999999999998</ele><time>2026-04-26T08:19:50.338Z</time></trkpt><trkpt lat="42.2438196" lon="14.5221678"><ele>2.0</ele><time>2026-04-26T08:19:51.337Z</time></trkpt><trkpt lat="42.2438786" lon="14.5220807"><ele>2.0</ele><time>2026-04-26T08:19:52.338Z</time></trkpt><trkpt lat="42.2439311" lon="14.521993"><ele>2.0</ele><time>2026-04-26T08:19:53.338Z</time></trkpt><trkpt lat="42.2439854" lon="14.5219078"><ele>1.9999999999999998</ele><time>2026-04-26T08:19:54.338Z</time></trkpt><trkpt lat="42.2440383" lon="14.521829"><ele>2.0</ele><time>2026-04-26T08:19:55.338Z</time></trkpt><trkpt lat="42.2440869" lon="14.5217569"><ele>1.857142857142857</ele><time>2026-04-26T08:19:56.338Z</time></trkpt><trkpt lat="42.2441348" lon="14.5216902"><ele>1.714285714285714</ele><time>2026-04-26T08:19:57.338Z</time></trkpt><trkpt lat="42.2441779" lon="14.5216263"><ele>1.5714285714285714</ele><time>2026-04-26T08:19:58.337Z</time></trkpt><trkpt lat="42.2442199" lon="14.5215596"><ele>1.4285714285714284</ele><time>2026-04-26T08:19:59.339Z</time></trkpt><trkpt lat="42.2442671" lon="14.5214905"><ele>1.2857142857142856</ele><time>2026-04-26T08:20:00.338Z</time></trkpt><trkpt lat="42.2443136" lon="14.5214245"><ele>1.1428571428571428</ele><time>2026-04-26T08:20:01.338Z</time></trkpt><trkpt lat="42.2443599" lon="14.521361"><ele>1.0</ele><time>2026-04-26T08:20:02.338Z</time></trkpt><trkpt lat="42.2444078" lon="14.5212923"><ele>1.7142857142857142</ele><time>2026-04-26T08:20:03.338Z</time></trkpt><trkpt lat="42.244455" lon="14.521219"><ele>2.4285714285714284</ele><time>2026-04-26T08:20:04.339Z</time></trkpt><trkpt lat="42.2445042" lon="14.5211508"><ele>3.1428571428571423</ele><time>2026-04-26T08:20:05.338Z</time></trkpt><trkpt lat="42.2445534" lon="14.5210758"><ele>3.8571428571428568</ele><time>2026-04-26T08:20:06.339Z</time></trkpt><trkpt lat="42.2446057" lon="14.5210029"><ele>4.571428571428571</ele><time>2026-04-26T08:20:07.338Z</time></trkpt><trkpt lat="42.2446605" lon="14.5209283"><ele>5.285714285714286</ele><time>2026-04-26T08:20:08.338Z</time></trkpt><trkpt lat="42.2447128" lon="14.5208564"><ele>6.0</ele><time>2026-04-26T08:20:09.338Z</time></trkpt><trkpt lat="42.2447603" lon="14.5207882"><ele>6.166666666666667</ele><time>2026-04-26T08:20:10.338Z</time></trkpt><trkpt lat="42.2448015" lon="14.5207221"><ele>6.333333333333334</ele><time>2026-04-26T08:20:11.338Z</time></trkpt><trkpt lat="42.2448719" lon="14.5206202"><ele>6.5</ele><time>2026-04-26T08:20:13.337Z</time></trkpt><trkpt lat="42.2449151" lon="14.5205544"><ele>6.666666666666667</ele><time>2026-04-26T08:20:15.337Z</time></trkpt><trkpt lat="42.244956" lon="14.5204681"><ele>6.833333333333334</ele><time>2026-04-26T08:20:17.338Z</time></trkpt><trkpt lat="42.2450179" lon="14.5203633"><ele>7.0</ele><time>2026-04-26T08:20:19.339Z</time></trkpt><trkpt lat="42.2450874" lon="14.5202688"><ele>7.0</ele><time>2026-04-26T08:20:21.338Z</time></trkpt><trkpt lat="42.2451383" lon="14.5201637"><ele>7.0</ele><time>2026-04-26T08:20:24.337Z</time></trkpt><trkpt lat="42.2451836" lon="14.5200588"><ele>7.0</ele><time>2026-04-26T08:20:27.338Z</time></trkpt><trkpt lat="42.2452436" lon="14.5200249"><ele>7.0</ele><time>2026-04-26T08:21:44.338Z</time></trkpt><trkpt lat="42.2452954" lon="14.5199708"><ele>7.0</ele><time>2026-04-26T08:21:51.338Z</time></trkpt><trkpt lat="42.2453607" lon="14.5199716"><ele>7.0</ele><time>2026-04-26T08:22:44.336Z</time></trkpt><trkpt lat="42.2452973" lon="14.5199941"><ele>7.0</ele><time>2026-04-26T08:28:38.337Z</time></trkpt><trkpt lat="42.2452555" lon="14.5200704"><ele>7.000000000000001</ele><time>2026-04-26T08:28:44.376Z</time></trkpt><trkpt lat="42.2452256" lon="14.5199902"><ele>7.0</ele><time>2026-04-26T08:34:49.336Z</time></trkpt><trkpt lat="42.2452696" lon="14.5198646"><ele>7.0</ele><time>2026-04-26T08:34:52.336Z</time></trkpt><trkpt lat="42.245311" lon="14.5197667"><ele>7.0</ele><time>2026-04-26T08:34:54.335Z</time></trkpt><trkpt lat="42.2453551" lon="14.5196575"><ele>7.000000000000001</ele><time>2026-04-26T08:34:56.336Z</time></trkpt><trkpt lat="42.2454057" lon="14.5195456"><ele>7.0</ele><time>2026-04-26T08:34:58.336Z</time></trkpt><trkpt lat="42.2454617" lon="14.5194194"><ele>6.8</ele><time>2026-04-26T08:35:00.336Z</time></trkpt><trkpt lat="42.2455199" lon="14.5192813"><ele>6.6</ele><time>2026-04-26T08:35:02.336Z</time></trkpt><trkpt lat="42.2455844" lon="14.5191447"><ele>6.3999999999999995</ele><time>2026-04-26T08:35:04.335Z</time></trkpt><trkpt lat="42.2456163" lon="14.5190657"><ele>6.199999999999999</ele><time>2026-04-26T08:35:05.335Z</time></trkpt><trkpt lat="42.2456507" lon="14.5189823"><ele>6.0</ele><time>2026-04-26T08:35:06.337Z</time></trkpt><trkpt lat="42.2456922" lon="14.5188909"><ele>5.666666666666667</ele><time>2026-04-26T08:35:07.335Z</time></trkpt><trkpt lat="42.2457382" lon="14.5188032"><ele>5.333333333333333</ele><time>2026-04-26T08:35:08.336Z</time></trkpt><trkpt lat="42.2457837" lon="14.5187105"><ele>5.0</ele><time>2026-04-26T08:35:09.336Z</time></trkpt><trkpt lat="42.2458311" lon="14.5186173"><ele>4.666666666666666</ele><time>2026-04-26T08:35:10.336Z</time></trkpt><trkpt lat="42.2458778" lon="14.5185315"><ele>4.333333333333333</ele><time>2026-04-26T08:35:11.336Z</time></trkpt><trkpt lat="42.2459236" lon="14.5184482"><ele>4.0</ele><time>2026-04-26T08:35:12.336Z</time></trkpt><trkpt lat="42.2459681" lon="14.5183653"><ele>3.9999999999999996</ele><time>2026-04-26T08:35:13.336Z</time></trkpt><trkpt lat="42.2460143" lon="14.5182738"><ele>4.0</ele><time>2026-04-26T08:35:14.336Z</time></trkpt><trkpt lat="42.2460635" lon="14.51818"><ele>4.0</ele><time>2026-04-26T08:35:15.336Z</time></trkpt><trkpt lat="42.2461171" lon="14.5180837"><ele>4.0</ele><time>2026-04-26T08:35:16.336Z</time></trkpt><trkpt lat="42.24617" lon="14.5179854"><ele>3.9999999999999996</ele><time>2026-04-26T08:35:17.335Z</time></trkpt><trkpt lat="42.2462248" lon="14.5178882"><ele>4.0</ele><time>2026-04-26T08:35:18.336Z</time></trkpt><trkpt lat="42.246277" lon="14.5177856"><ele>3.8000000000000003</ele><time>2026-04-26T08:35:19.336Z</time></trkpt><trkpt lat="42.2463324" lon="14.5176861"><ele>3.6000000000000005</ele><time>2026-04-26T08:35:20.336Z</time></trkpt><trkpt lat="42.2463839" lon="14.5175872"><ele>3.4</ele><time>2026-04-26T08:35:21.336Z</time></trkpt><trkpt lat="42.2464394" lon="14.5174888"><ele>3.2</ele><time>2026-04-26T08:35:22.335Z</time></trkpt><trkpt lat="42.2464941" lon="14.517383"><ele>3.0</ele><time>2026-04-26T08:35:23.335Z</time></trkpt><trkpt lat="42.246552" lon="14.5172788"><ele>3.0</ele><time>2026-04-26T08:35:24.336Z</time></trkpt><trkpt lat="42.2466067" lon="14.5171761"><ele>3.0</ele><time>2026-04-26T08:35:25.336Z</time></trkpt><trkpt lat="42.2466589" lon="14.5170726"><ele>3.0</ele><time>2026-04-26T08:35:26.337Z</time></trkpt><trkpt lat="42.2467146" lon="14.5169669"><ele>3.0</ele><time>2026-04-26T08:35:27.335Z</time></trkpt><trkpt lat="42.2467736" lon="14.5168624"><ele>3.0</ele><time>2026-04-26T08:35:28.336Z</time></trkpt><trkpt lat="42.2468313" lon="14.5167584"><ele>3.4</ele><time>2026-04-26T08:35:29.337Z</time></trkpt><trkpt lat="42.2468933" lon="14.5166532"><ele>3.8</ele><time>2026-04-26T08:35:30.336Z</time></trkpt><trkpt lat="42.2469493" lon="14.5165423"><ele>4.2</ele><time>2026-04-26T08:35:31.337Z</time></trkpt><trkpt lat="42.2470044" lon="14.5164407"><ele>4.6</ele><time>2026-04-26T08:35:32.336Z</time></trkpt><trkpt lat="42.2470545" lon="14.5163484"><ele>5.0</ele><time>2026-04-26T08:35:33.336Z</time></trkpt><trkpt lat="42.2471063" lon="14.5162579"><ele>4.6</ele><time>2026-04-26T08:35:34.336Z</time></trkpt><trkpt lat="42.2471529" lon="14.5161711"><ele>4.2</ele><time>2026-04-26T08:35:35.336Z</time></trkpt><trkpt lat="42.2471955" lon="14.5160923"><ele>3.8</ele><time>2026-04-26T08:35:36.336Z</time></trkpt><trkpt lat="42.2472687" lon="14.5159682"><ele>3.4</ele><time>2026-04-26T08:35:38.337Z</time></trkpt><trkpt lat="42.2473409" lon="14.5158513"><ele>3.0</ele><time>2026-04-26T08:35:40.335Z</time></trkpt><trkpt lat="42.2473984" lon="14.5157249"><ele>3.0</ele><time>2026-04-26T08:35:42.336Z</time></trkpt><trkpt lat="42.2474385" lon="14.5156555"><ele>3.0</ele><time>2026-04-26T08:35:43.335Z</time></trkpt><trkpt lat="42.2474855" lon="14.5155865"><ele>3.0</ele><time>2026-04-26T08:35:44.335Z</time></trkpt><trkpt lat="42.2475276" lon="14.5155005"><ele>3.0</ele><time>2026-04-26T08:35:45.336Z</time></trkpt><trkpt lat="42.2475703" lon="14.5154073"><ele>3.0</ele><time>2026-04-26T08:35:46.336Z</time></trkpt><trkpt lat="42.2476168" lon="14.5153153"><ele>3.0</ele><time>2026-04-26T08:35:47.335Z</time></trkpt><trkpt lat="42.2476629" lon="14.5152266"><ele>3.5</ele><time>2026-04-26T08:35:48.336Z</time></trkpt><trkpt lat="42.2477074" lon="14.5151362"><ele>4.0</ele><time>2026-04-26T08:35:49.336Z</time></trkpt><trkpt lat="42.2477623" lon="14.5150434"><ele>4.5</ele><time>2026-04-26T08:35:50.336Z</time></trkpt><trkpt lat="42.2478195" lon="14.5149452"><ele>5.0</ele><time>2026-04-26T08:35:51.335Z</time></trkpt><trkpt lat="42.2478732" lon="14.5148527"><ele>5.5</ele><time>2026-04-26T08:35:52.336Z</time></trkpt><trkpt lat="42.2479229" lon="14.5147589"><ele>6.0</ele><time>2026-04-26T08:35:53.337Z</time></trkpt><trkpt lat="42.247974" lon="14.5146586"><ele>6.4</ele><time>2026-04-26T08:35:54.336Z</time></trkpt><trkpt lat="42.248028" lon="14.5145625"><ele>6.8</ele><time>2026-04-26T08:35:55.335Z</time></trkpt><trkpt lat="42.2480806" lon="14.5144634"><ele>7.200000000000001</ele><time>2026-04-26T08:35:56.336Z</time></trkpt><trkpt lat="42.2481341" lon="14.5143644"><ele>7.6000000000000005</ele><time>2026-04-26T08:35:57.336Z</time></trkpt><trkpt lat="42.2481861" lon="14.5142603"><ele>8.0</ele><time>2026-04-26T08:35:58.336Z</time></trkpt><trkpt lat="42.2482438" lon="14.5141545"><ele>7.6000000000000005</ele><time>2026-04-26T08:35:59.336Z</time></trkpt><trkpt lat="42.2483014" lon="14.5140467"><ele>7.200000000000001</ele><time>2026-04-26T08:36:00.336Z</time></trkpt><trkpt lat="42.2483562" lon="14.5139444"><ele>6.8</ele><time>2026-04-26T08:36:01.337Z</time></trkpt><trkpt lat="42.248409" lon="14.5138387"><ele>6.4</ele><time>2026-04-26T08:36:02.335Z</time></trkpt><trkpt lat="42.2484614" lon="14.5137307"><ele>6.0</ele><time>2026-04-26T08:36:03.336Z</time></trkpt><trkpt lat="42.2485225" lon="14.5136261"><ele>6.0</ele><time>2026-04-26T08:36:04.335Z</time></trkpt><trkpt lat="42.2485826" lon="14.5135185"><ele>6.0</ele><time>2026-04-26T08:36:05.337Z</time></trkpt><trkpt lat="42.2486388" lon="14.5134198"><ele>6.0</ele><time>2026-04-26T08:36:06.336Z</time></trkpt><trkpt lat="42.2486901" lon="14.5133183"><ele>6.0</ele><time>2026-04-26T08:36:07.336Z</time></trkpt><trkpt lat="42.2487428" lon="14.5132229"><ele>6.0</ele><time>2026-04-26T08:36:08.336Z</time></trkpt><trkpt lat="42.2487963" lon="14.5131238"><ele>6.0</ele><time>2026-04-26T08:36:09.337Z</time></trkpt><trkpt lat="42.2488513" lon="14.5130199"><ele>6.0</ele><time>2026-04-26T08:36:10.336Z</time></trkpt><trkpt lat="42.2489098" lon="14.5129187"><ele>6.0</ele><time>2026-04-26T08:36:11.336Z</time></trkpt><trkpt lat="42.2489693" lon="14.5128201"><ele>6.0</ele><time>2026-04-26T08:36:12.337Z</time></trkpt><trkpt lat="42.2490282" lon="14.5127234"><ele>6.0</ele><time>2026-04-26T08:36:13.336Z</time></trkpt><trkpt lat="42.2490895" lon="14.5126332"><ele>5.3999999999999995</ele><time>2026-04-26T08:36:14.336Z</time></trkpt><trkpt lat="42.2491504" lon="14.5125372"><ele>4.8</ele><time>2026-04-26T08:36:15.335Z</time></trkpt><trkpt lat="42.2492152" lon="14.5124469"><ele>4.199999999999999</ele><time>2026-04-26T08:36:16.336Z</time></trkpt><trkpt lat="42.2492819" lon="14.5123528"><ele>3.5999999999999996</ele><time>2026-04-26T08:36:17.336Z</time></trkpt><trkpt lat="42.2493504" lon="14.512261"><ele>3.0</ele><time>2026-04-26T08:36:18.335Z</time></trkpt><trkpt lat="42.2494208" lon="14.5121629"><ele>3.5999999999999996</ele><time>2026-04-26T08:36:19.336Z</time></trkpt><trkpt lat="42.2494951" lon="14.512064"><ele>4.199999999999999</ele><time>2026-04-26T08:36:20.336Z</time></trkpt><trkpt lat="42.2495666" lon="14.5119669"><ele>4.8</ele><time>2026-04-26T08:36:21.336Z</time></trkpt><trkpt lat="42.2496418" lon="14.511866"><ele>5.3999999999999995</ele><time>2026-04-26T08:36:22.336Z</time></trkpt><trkpt lat="42.2497155" lon="14.5117676"><ele>6.0</ele><time>2026-04-26T08:36:23.336Z</time></trkpt><trkpt lat="42.2497822" lon="14.5116776"><ele>6.0</ele><time>2026-04-26T08:36:24.335Z</time></trkpt><trkpt lat="42.2498434" lon="14.511596"><ele>6.0</ele><time>2026-04-26T08:36:25.336Z</time></trkpt><trkpt lat="42.2499006" lon="14.5115227"><ele>6.0</ele><time>2026-04-26T08:36:26.337Z</time></trkpt><trkpt lat="42.2499542" lon="14.5114525"><ele>6.0</ele><time>2026-04-26T08:36:27.336Z</time></trkpt><trkpt lat="42.2500036" lon="14.5113848"><ele>6.0</ele><time>2026-04-26T08:36:28.336Z</time></trkpt><trkpt lat="42.2500851" lon="14.5112733"><ele>6.0</ele><time>2026-04-26T08:36:30.336Z</time></trkpt><trkpt lat="42.2501634" lon="14.5111691"><ele>6.0</ele><time>2026-04-26T08:36:32.336Z</time></trkpt><trkpt lat="42.2502421" lon="14.5110582"><ele>6.0</ele><time>2026-04-26T08:36:34.336Z</time></trkpt><trkpt lat="42.250307" lon="14.5109729"><ele>6.0</ele><time>2026-04-26T08:36:36.336Z</time></trkpt><trkpt lat="42.2503546" lon="14.5109046"><ele>6.0</ele><time>2026-04-26T08:36:38.336Z</time></trkpt><trkpt lat="42.2504273" lon="14.5108112"><ele>6.0</ele><time>2026-04-26T08:36:41.336Z</time></trkpt><trkpt lat="42.2504867" lon="14.5107374"><ele>5.999999999999999</ele><time>2026-04-26T08:36:43.336Z</time></trkpt><trkpt lat="42.2505326" lon="14.5106681"><ele>6.0</ele><time>2026-04-26T08:36:45.336Z</time></trkpt><trkpt lat="42.2505852" lon="14.5105945"><ele>6.0</ele><time>2026-04-26T08:36:47.336Z</time></trkpt><trkpt lat="42.2506315" lon="14.5105178"><ele>6.0</ele><time>2026-04-26T08:36:49.336Z</time></trkpt><trkpt lat="42.2506835" lon="14.5104509"><ele>6.0</ele><time>2026-04-26T08:36:51.336Z</time></trkpt><trkpt lat="42.2507346" lon="14.5103929"><ele>5.999999999999999</ele><time>2026-04-26T08:36:53.336Z</time></trkpt><trkpt lat="42.2507861" lon="14.5103234"><ele>6.0</ele><time>2026-04-26T08:36:55.336Z</time></trkpt><trkpt lat="42.2508431" lon="14.510236"><ele>5.8</ele><time>2026-04-26T08:36:57.335Z</time></trkpt><trkpt lat="42.2509132" lon="14.5101461"><ele>5.6</ele><time>2026-04-26T08:36:59.336Z</time></trkpt><trkpt lat="42.2509979" lon="14.5100428"><ele>5.4</ele><time>2026-04-26T08:37:01.337Z</time></trkpt><trkpt lat="42.2510762" lon="14.5099346"><ele>5.2</ele><time>2026-04-26T08:37:03.337Z</time></trkpt><trkpt lat="42.251154" lon="14.5098333"><ele>5.0</ele><time>2026-04-26T08:37:05.336Z</time></trkpt><trkpt lat="42.2512358" lon="14.5097156"><ele>5.0</ele><time>2026-04-26T08:37:07.336Z</time></trkpt><trkpt lat="42.2512861" lon="14.5096506"><ele>5.0</ele><time>2026-04-26T08:37:08.337Z</time></trkpt><trkpt lat="42.2513338" lon="14.5095852"><ele>5.0</ele><time>2026-04-26T08:37:09.335Z</time></trkpt><trkpt lat="42.2513811" lon="14.5095234"><ele>5.0</ele><time>2026-04-26T08:37:10.336Z</time></trkpt><trkpt lat="42.2514626" lon="14.509414"><ele>5.0</ele><time>2026-04-26T08:37:12.336Z</time></trkpt><trkpt lat="42.2515252" lon="14.5093272"><ele>5.0</ele><time>2026-04-26T08:37:14.335Z</time></trkpt><trkpt lat="42.2515754" lon="14.5092644"><ele>5.0</ele><time>2026-04-26T08:37:16.336Z</time></trkpt><trkpt lat="42.2516275" lon="14.5091838"><ele>5.0</ele><time>2026-04-26T08:37:18.336Z</time></trkpt><trkpt lat="42.2516973" lon="14.5090995"><ele>5.0</ele><time>2026-04-26T08:37:20.335Z</time></trkpt><trkpt lat="42.2517714" lon="14.5090133"><ele>5.0</ele><time>2026-04-26T08:37:22.336Z</time></trkpt><trkpt lat="42.2518165" lon="14.5089327"><ele>5.0</ele><time>2026-04-26T08:37:25.337Z</time></trkpt><trkpt lat="42.2518124" lon="14.5088372"><ele>5.0</ele><time>2026-04-26T08:37:56.336Z</time></trkpt><trkpt lat="42.2517719" lon="14.5087288"><ele>5.333333333333334</ele><time>2026-04-26T08:37:59.336Z</time></trkpt><trkpt lat="42.2517236" lon="14.5086558"><ele>5.666666666666667</ele><time>2026-04-26T08:38:01.336Z</time></trkpt><trkpt lat="42.2516704" lon="14.5085798"><ele>6.0</ele><time>2026-04-26T08:38:03.336Z</time></trkpt><trkpt lat="42.2516293" lon="14.508515"><ele>6.333333333333334</ele><time>2026-04-26T08:38:05.336Z</time></trkpt><trkpt lat="42.25158" lon="14.5084279"><ele>6.666666666666667</ele><time>2026-04-26T08:38:09.335Z</time></trkpt><trkpt lat="42.2515423" lon="14.5083022"><ele>7.0</ele><time>2026-04-26T08:38:12.336Z</time></trkpt><trkpt lat="42.2515201" lon="14.5081705"><ele>7.000000000000001</ele><time>2026-04-26T08:38:14.336Z</time></trkpt><trkpt lat="42.2515357" lon="14.5080263"><ele>7.0</ele><time>2026-04-26T08:38:16.336Z</time></trkpt><trkpt lat="42.2515651" lon="14.5079501"><ele>7.0</ele><time>2026-04-26T08:38:17.335Z</time></trkpt><trkpt lat="42.2516057" lon="14.5078677"><ele>7.0</ele><time>2026-04-26T08:38:18.336Z</time></trkpt><trkpt lat="42.2516477" lon="14.5077747"><ele>7.000000000000001</ele><time>2026-04-26T08:38:19.336Z</time></trkpt><trkpt lat="42.2516916" lon="14.507678"><ele>7.0</ele><time>2026-04-26T08:38:20.335Z</time></trkpt><trkpt lat="42.2517408" lon="14.5075782"><ele>7.500000000000001</ele><time>2026-04-26T08:38:21.336Z</time></trkpt><trkpt lat="42.2517962" lon="14.507483"><ele>8.0</ele><time>2026-04-26T08:38:22.336Z</time></trkpt><trkpt lat="42.2518574" lon="14.5073945"><ele>8.5</ele><time>2026-04-26T08:38:23.336Z</time></trkpt><trkpt lat="42.2519254" lon="14.5073103"><ele>9.0</ele><time>2026-04-26T08:38:24.336Z</time></trkpt><trkpt lat="42.2519915" lon="14.5072335"><ele>9.5</ele><time>2026-04-26T08:38:25.336Z</time></trkpt><trkpt lat="42.252059" lon="14.5071612"><ele>10.0</ele><time>2026-04-26T08:38:26.335Z</time></trkpt><trkpt lat="42.25212" lon="14.5071036"><ele>10.666666666666668</ele><time>2026-04-26T08:38:27.336Z</time></trkpt><trkpt lat="42.2521707" lon="14.5070492"><ele>11.333333333333334</ele><time>2026-04-26T08:38:28.336Z</time></trkpt><trkpt lat="42.2522644" lon="14.5069576"><ele>12.0</ele><time>2026-04-26T08:38:30.335Z</time></trkpt><trkpt lat="42.2523156" lon="14.5069068"><ele>12.666666666666668</ele><time>2026-04-26T08:38:31.335Z</time></trkpt><trkpt lat="42.252409" lon="14.5068096"><ele>13.333333333333334</ele><time>2026-04-26T08:38:33.336Z</time></trkpt><trkpt lat="42.2524628" lon="14.5067647"><ele>14.0</ele><time>2026-04-26T08:38:34.336Z</time></trkpt><trkpt lat="42.2525147" lon="14.5067105"><ele>14.0</ele><time>2026-04-26T08:38:35.336Z</time></trkpt><trkpt lat="42.2525782" lon="14.5066521"><ele>13.999999999999998</ele><time>2026-04-26T08:38:36.336Z</time></trkpt><trkpt lat="42.2526645" lon="14.5065934"><ele>13.999999999999998</ele><time>2026-04-26T08:38:37.336Z</time></trkpt><trkpt lat="42.2527638" lon="14.5065264"><ele>14.0</ele><time>2026-04-26T08:38:38.336Z</time></trkpt><trkpt lat="42.2528639" lon="14.5064636"><ele>14.0</ele><time>2026-04-26T08:38:39.336Z</time></trkpt><trkpt lat="42.2529676" lon="14.5063949"><ele>14.0</ele><time>2026-04-26T08:38:40.335Z</time></trkpt><trkpt lat="42.2530788" lon="14.5063332"><ele>14.0</ele><time>2026-04-26T08:38:41.336Z</time></trkpt><trkpt lat="42.2531981" lon="14.5062751"><ele>14.0</ele><time>2026-04-26T08:38:42.335Z</time></trkpt><trkpt lat="42.2533352" lon="14.5062145"><ele>14.0</ele><time>2026-04-26T08:38:43.336Z</time></trkpt><trkpt lat="42.2534694" lon="14.5061591"><ele>14.5</ele><time>2026-04-26T08:38:44.336Z</time></trkpt><trkpt lat="42.2535965" lon="14.5061089"><ele>15.0</ele><time>2026-04-26T08:38:45.335Z</time></trkpt><trkpt lat="42.2537114" lon="14.5060538"><ele>15.5</ele><time>2026-04-26T08:38:46.336Z</time></trkpt><trkpt lat="42.2538141" lon="14.5059918"><ele>16.0</ele><time>2026-04-26T08:38:47.336Z</time></trkpt><trkpt lat="42.2539143" lon="14.5059272"><ele>14.25</ele><time>2026-04-26T08:38:48.336Z</time></trkpt><trkpt lat="42.2540182" lon="14.5058553"><ele>12.5</ele><time>2026-04-26T08:38:49.336Z</time></trkpt><trkpt lat="42.2541353" lon="14.5057762"><ele>10.75</ele><time>2026-04-26T08:38:50.336Z</time></trkpt><trkpt lat="42.2542644" lon="14.5056851"><ele>9.0</ele><time>2026-04-26T08:38:51.336Z</time></trkpt><trkpt lat="42.2543875" lon="14.5055934"><ele>9.0</ele><time>2026-04-26T08:38:52.336Z</time></trkpt><trkpt lat="42.2545039" lon="14.5055025"><ele>9.0</ele><time>2026-04-26T08:38:53.335Z</time></trkpt><trkpt lat="42.2546125" lon="14.5054143"><ele>9.0</ele><time>2026-04-26T08:38:54.336Z</time></trkpt><trkpt lat="42.2547254" lon="14.50533"><ele>9.0</ele><time>2026-04-26T08:38:55.336Z</time></trkpt><trkpt lat="42.2548299" lon="14.5052503"><ele>9.8</ele><time>2026-04-26T08:38:56.335Z</time></trkpt><trkpt lat="42.254922" lon="14.5051728"><ele>10.600000000000001</ele><time>2026-04-26T08:38:57.337Z</time></trkpt><trkpt lat="42.2550096" lon="14.5050949"><ele>11.4</ele><time>2026-04-26T08:38:58.335Z</time></trkpt><trkpt lat="42.2550904" lon="14.5050191"><ele>12.200000000000001</ele><time>2026-04-26T08:38:59.336Z</time></trkpt><trkpt lat="42.2551628" lon="14.5049458"><ele>13.0</ele><time>2026-04-26T08:39:00.336Z</time></trkpt><trkpt lat="42.2552214" lon="14.5048775"><ele>13.0</ele><time>2026-04-26T08:39:01.336Z</time></trkpt><trkpt lat="42.2552847" lon="14.5047948"><ele>13.0</ele><time>2026-04-26T08:39:03.336Z</time></trkpt><trkpt lat="42.2553367" lon="14.5047433"><ele>13.0</ele><time>2026-04-26T08:39:05.336Z</time></trkpt><trkpt lat="42.2553984" lon="14.5046893"><ele>13.0</ele><time>2026-04-26T08:39:07.336Z</time></trkpt><trkpt lat="42.2554991" lon="14.5046122"><ele>13.0</ele><time>2026-04-26T08:39:09.336Z</time></trkpt><trkpt lat="42.2555878" lon="14.5045213"><ele>15.600000000000001</ele><time>2026-04-26T08:39:11.336Z</time></trkpt><trkpt lat="42.2556126" lon="14.5043912"><ele>18.200000000000003</ele><time>2026-04-26T08:39:13.336Z</time></trkpt><trkpt lat="42.255558" lon="14.5042913"><ele>20.8</ele><time>2026-04-26T08:39:15.337Z</time></trkpt><trkpt lat="42.2554419" lon="14.5042681"><ele>23.400000000000002</ele><time>2026-04-26T08:39:17.336Z</time></trkpt><trkpt lat="42.2553613" lon="14.5042701"><ele>26.0</ele><time>2026-04-26T08:39:18.337Z</time></trkpt><trkpt lat="42.2552618" lon="14.5042734"><ele>26.0</ele><time>2026-04-26T08:39:19.336Z</time></trkpt><trkpt lat="42.2551475" lon="14.5042794"><ele>26.0</ele><time>2026-04-26T08:39:20.336Z</time></trkpt><trkpt lat="42.2550398" lon="14.50429"><ele>26.0</ele><time>2026-04-26T08:39:21.335Z</time></trkpt><trkpt lat="42.2549334" lon="14.5043081"><ele>26.0</ele><time>2026-04-26T08:39:22.336Z</time></trkpt><trkpt lat="42.2548231" lon="14.5043378"><ele>26.0</ele><time>2026-04-26T08:39:23.336Z</time></trkpt><trkpt lat="42.254709" lon="14.5043814"><ele>24.75</ele><time>2026-04-26T08:39:24.335Z</time></trkpt><trkpt lat="42.2545928" lon="14.5044437"><ele>23.5</ele><time>2026-04-26T08:39:25.336Z</time></trkpt><trkpt lat="42.2544736" lon="14.5045107"><ele>22.25</ele><time>2026-04-26T08:39:26.337Z</time></trkpt><trkpt lat="42.2543479" lon="14.50458"><ele>21.0</ele><time>2026-04-26T08:39:27.335Z</time></trkpt><trkpt lat="42.2542278" lon="14.5046429"><ele>21.0</ele><time>2026-04-26T08:39:28.335Z</time></trkpt><trkpt lat="42.2541033" lon="14.5047159"><ele>21.0</ele><time>2026-04-26T08:39:29.335Z</time></trkpt><trkpt lat="42.2539755" lon="14.5047957"><ele>21.0</ele><time>2026-04-26T08:39:30.335Z</time></trkpt><trkpt lat="42.2538429" lon="14.5048719"><ele>21.0</ele><time>2026-04-26T08:39:31.335Z</time></trkpt><trkpt lat="42.2537144" lon="14.5049378"><ele>24.25</ele><time>2026-04-26T08:39:32.335Z</time></trkpt><trkpt lat="42.2536013" lon="14.5050024"><ele>27.5</ele><time>2026-04-26T08:39:33.335Z</time></trkpt><trkpt lat="42.2534908" lon="14.5050662"><ele>30.75</ele><time>2026-04-26T08:39:34.334Z</time></trkpt><trkpt lat="42.2533907" lon="14.5051385"><ele>34.0</ele><time>2026-04-26T08:39:35.335Z</time></trkpt><trkpt lat="42.2532978" lon="14.5052162"><ele>34.0</ele><time>2026-04-26T08:39:36.334Z</time></trkpt><trkpt lat="42.2532048" lon="14.5053136"><ele>34.0</ele><time>2026-04-26T08:39:37.336Z</time></trkpt><trkpt lat="42.2531015" lon="14.5054118"><ele>34.0</ele><time>2026-04-26T08:39:38.335Z</time></trkpt><trkpt lat="42.2529927" lon="14.5054994"><ele>34.0</ele><time>2026-04-26T08:39:39.335Z</time></trkpt><trkpt lat="42.2528775" lon="14.5055771"><ele>32.25</ele><time>2026-04-26T08:39:40.336Z</time></trkpt><trkpt lat="42.2527679" lon="14.5056471"><ele>30.5</ele><time>2026-04-26T08:39:41.335Z</time></trkpt><trkpt lat="42.252666" lon="14.5057101"><ele>28.75</ele><time>2026-04-26T08:39:42.335Z</time></trkpt><trkpt lat="42.2525597" lon="14.5057675"><ele>27.0</ele><time>2026-04-26T08:39:43.334Z</time></trkpt><trkpt lat="42.2524483" lon="14.505813"><ele>27.0</ele><time>2026-04-26T08:39:44.335Z</time></trkpt><trkpt lat="42.2523376" lon="14.5058588"><ele>27.0</ele><time>2026-04-26T08:39:45.335Z</time></trkpt><trkpt lat="42.2522243" lon="14.5059136"><ele>27.0</ele><time>2026-04-26T08:39:46.335Z</time></trkpt><trkpt lat="42.2521151" lon="14.505964"><ele>27.0</ele><time>2026-04-26T08:39:47.334Z</time></trkpt><trkpt lat="42.252006" lon="14.5060161"><ele>29.200000000000003</ele><time>2026-04-26T08:39:48.335Z</time></trkpt><trkpt lat="42.2519035" lon="14.5060591"><ele>31.400000000000002</ele><time>2026-04-26T08:39:49.335Z</time></trkpt><trkpt lat="42.251808" lon="14.5060986"><ele>33.599999999999994</ele><time>2026-04-26T08:39:50.335Z</time></trkpt><trkpt lat="42.251708" lon="14.5061306"><ele>35.8</ele><time>2026-04-26T08:39:51.335Z</time></trkpt><trkpt lat="42.2516062" lon="14.5061459"><ele>38.0</ele><time>2026-04-26T08:39:52.334Z</time></trkpt><trkpt lat="42.2515034" lon="14.5061293"><ele>38.4</ele><time>2026-04-26T08:39:53.335Z</time></trkpt><trkpt lat="42.2514071" lon="14.5060845"><ele>38.8</ele><time>2026-04-26T08:39:54.334Z</time></trkpt><trkpt lat="42.2513215" lon="14.5060069"><ele>39.2</ele><time>2026-04-26T08:39:55.334Z</time></trkpt><trkpt lat="42.2512377" lon="14.5058961"><ele>39.6</ele><time>2026-04-26T08:39:56.335Z</time></trkpt><trkpt lat="42.2511574" lon="14.5057774"><ele>40.0</ele><time>2026-04-26T08:39:57.335Z</time></trkpt><trkpt lat="42.2510798" lon="14.5056624"><ele>40.0</ele><time>2026-04-26T08:39:58.336Z</time></trkpt><trkpt lat="42.251" lon="14.5055472"><ele>40.0</ele><time>2026-04-26T08:39:59.335Z</time></trkpt><trkpt lat="42.2509175" lon="14.5054325"><ele>40.0</ele><time>2026-04-26T08:40:00.335Z</time></trkpt><trkpt lat="42.2508368" lon="14.5053146"><ele>40.0</ele><time>2026-04-26T08:40:01.335Z</time></trkpt><trkpt lat="42.2507545" lon="14.5051982"><ele>40.75</ele><time>2026-04-26T08:40:02.335Z</time></trkpt><trkpt lat="42.250677" lon="14.505081"><ele>41.5</ele><time>2026-04-26T08:40:03.335Z</time></trkpt><trkpt lat="42.2505939" lon="14.5049643"><ele>42.25</ele><time>2026-04-26T08:40:04.335Z</time></trkpt><trkpt lat="42.2505118" lon="14.5048437"><ele>43.0</ele><time>2026-04-26T08:40:05.335Z</time></trkpt><trkpt lat="42.2504324" lon="14.5047256"><ele>43.0</ele><time>2026-04-26T08:40:06.335Z</time></trkpt><trkpt lat="42.2503617" lon="14.5046216"><ele>43.0</ele><time>2026-04-26T08:40:07.335Z</time></trkpt><trkpt lat="42.2503098" lon="14.5045337"><ele>43.0</ele><time>2026-04-26T08:40:08.334Z</time></trkpt><trkpt lat="42.250286" lon="14.5044489"><ele>43.0</ele><time>2026-04-26T08:40:09.335Z</time></trkpt><trkpt lat="42.2502967" lon="14.5042987"><ele>43.0</ele><time>2026-04-26T08:40:11.335Z</time></trkpt><trkpt lat="42.2503744" lon="14.5041542"><ele>43.4</ele><time>2026-04-26T08:40:13.334Z</time></trkpt><trkpt lat="42.2504342" lon="14.5040648"><ele>43.8</ele><time>2026-04-26T08:40:14.334Z</time></trkpt><trkpt lat="42.2505044" lon="14.5039711"><ele>44.2</ele><time>2026-04-26T08:40:15.335Z</time></trkpt><trkpt lat="42.2505817" lon="14.5038694"><ele>44.6</ele><time>2026-04-26T08:40:16.334Z</time></trkpt><trkpt lat="42.2506674" lon="14.5037572"><ele>45.0</ele><time>2026-04-26T08:40:17.335Z</time></trkpt><trkpt lat="42.2507576" lon="14.5036347"><ele>46.25</ele><time>2026-04-26T08:40:18.335Z</time></trkpt><trkpt lat="42.2508527" lon="14.5035069"><ele>47.5</ele><time>2026-04-26T08:40:19.335Z</time></trkpt><trkpt lat="42.2509501" lon="14.503386"><ele>48.75</ele><time>2026-04-26T08:40:20.334Z</time></trkpt><trkpt lat="42.2510468" lon="14.5032668"><ele>50.0</ele><time>2026-04-26T08:40:21.335Z</time></trkpt><trkpt lat="42.2511428" lon="14.5031387"><ele>50.0</ele><time>2026-04-26T08:40:22.335Z</time></trkpt><trkpt lat="42.2512319" lon="14.5030152"><ele>50.0</ele><time>2026-04-26T08:40:23.335Z</time></trkpt><trkpt lat="42.2513113" lon="14.5028963"><ele>50.0</ele><time>2026-04-26T08:40:24.335Z</time></trkpt><trkpt lat="42.2513742" lon="14.5027725"><ele>50.0</ele><time>2026-04-26T08:40:25.335Z</time></trkpt><trkpt lat="42.2514235" lon="14.5026357"><ele>50.6</ele><time>2026-04-26T08:40:26.335Z</time></trkpt><trkpt lat="42.2514541" lon="14.502483"><ele>51.2</ele><time>2026-04-26T08:40:27.335Z</time></trkpt><trkpt lat="42.2514781" lon="14.502336"><ele>51.8</ele><time>2026-04-26T08:40:28.335Z</time></trkpt><trkpt lat="42.2515106" lon="14.5022121"><ele>52.4</ele><time>2026-04-26T08:40:29.336Z</time></trkpt><trkpt lat="42.2515619" lon="14.5021099"><ele>53.0</ele><time>2026-04-26T08:40:30.335Z</time></trkpt><trkpt lat="42.251631" lon="14.502033"><ele>54.4</ele><time>2026-04-26T08:40:31.335Z</time></trkpt><trkpt lat="42.2517104" lon="14.5019853"><ele>55.8</ele><time>2026-04-26T08:40:32.335Z</time></trkpt><trkpt lat="42.2517977" lon="14.5019788"><ele>57.2</ele><time>2026-04-26T08:40:33.334Z</time></trkpt><trkpt lat="42.2518896" lon="14.5020119"><ele>58.6</ele><time>2026-04-26T08:40:34.335Z</time></trkpt><trkpt lat="42.2519884" lon="14.5020723"><ele>60.0</ele><time>2026-04-26T08:40:35.335Z</time></trkpt><trkpt lat="42.252092" lon="14.5021398"><ele>60.0</ele><time>2026-04-26T08:40:36.335Z</time></trkpt><trkpt lat="42.2521988" lon="14.5022063"><ele>60.0</ele><time>2026-04-26T08:40:37.335Z</time></trkpt><trkpt lat="42.2522985" lon="14.5022696"><ele>60.0</ele><time>2026-04-26T08:40:38.334Z</time></trkpt><trkpt lat="42.2523915" lon="14.502327"><ele>60.0</ele><time>2026-04-26T08:40:39.336Z</time></trkpt><trkpt lat="42.2524781" lon="14.5023921"><ele>60.0</ele><time>2026-04-26T08:40:40.335Z</time></trkpt><trkpt lat="42.2525553" lon="14.502477"><ele>60.4</ele><time>2026-04-26T08:40:41.334Z</time></trkpt><trkpt lat="42.252615" lon="14.5025871"><ele>60.8</ele><time>2026-04-26T08:40:42.335Z</time></trkpt><trkpt lat="42.2526494" lon="14.5027159"><ele>61.2</ele><time>2026-04-26T08:40:43.335Z</time></trkpt><trkpt lat="42.2526683" lon="14.5028544"><ele>61.6</ele><time>2026-04-26T08:40:44.335Z</time></trkpt><trkpt lat="42.2526803" lon="14.5029955"><ele>62.0</ele><time>2026-04-26T08:40:45.335Z</time></trkpt><trkpt lat="42.252695" lon="14.5031279"><ele>62.0</ele><time>2026-04-26T08:40:46.336Z</time></trkpt><trkpt lat="42.2527234" lon="14.5032558"><ele>62.0</ele><time>2026-04-26T08:40:47.335Z</time></trkpt><trkpt lat="42.252767" lon="14.5033804"><ele>62.0</ele><time>2026-04-26T08:40:48.334Z</time></trkpt><trkpt lat="42.2528297" lon="14.5035003"><ele>62.0</ele><time>2026-04-26T08:40:49.335Z</time></trkpt><trkpt lat="42.2529005" lon="14.5036077"><ele>62.0</ele><time>2026-04-26T08:40:50.335Z</time></trkpt><trkpt lat="42.2529796" lon="14.5036904"><ele>62.0</ele><time>2026-04-26T08:40:51.335Z</time></trkpt><trkpt lat="42.2530619" lon="14.5037453"><ele>62.0</ele><time>2026-04-26T08:40:52.335Z</time></trkpt><trkpt lat="42.2531517" lon="14.5037693"><ele>62.0</ele><time>2026-04-26T08:40:53.335Z</time></trkpt><trkpt lat="42.2532435" lon="14.5037586"><ele>62.0</ele><time>2026-04-26T08:40:54.334Z</time></trkpt><trkpt lat="42.2533275" lon="14.503709"><ele>62.0</ele><time>2026-04-26T08:40:55.335Z</time></trkpt><trkpt lat="42.2534056" lon="14.5036304"><ele>63.8</ele><time>2026-04-26T08:40:56.335Z</time></trkpt><trkpt lat="42.2534695" lon="14.5035233"><ele>65.6</ele><time>2026-04-26T08:40:57.335Z</time></trkpt><trkpt lat="42.253533" lon="14.5034047"><ele>67.39999999999999</ele><time>2026-04-26T08:40:58.335Z</time></trkpt><trkpt lat="42.2535964" lon="14.5033008"><ele>69.2</ele><time>2026-04-26T08:40:59.335Z</time></trkpt><trkpt lat="42.2536617" lon="14.5032057"><ele>71.0</ele><time>2026-04-26T08:41:00.336Z</time></trkpt><trkpt lat="42.2537343" lon="14.5031407"><ele>71.0</ele><time>2026-04-26T08:41:01.334Z</time></trkpt><trkpt lat="42.2538147" lon="14.5031051"><ele>71.0</ele><time>2026-04-26T08:41:02.335Z</time></trkpt><trkpt lat="42.2539106" lon="14.5030786"><ele>71.0</ele><time>2026-04-26T08:41:03.335Z</time></trkpt><trkpt lat="42.2540181" lon="14.5030549"><ele>71.0</ele><time>2026-04-26T08:41:04.336Z</time></trkpt><trkpt lat="42.2541314" lon="14.5030216"><ele>71.0</ele><time>2026-04-26T08:41:05.335Z</time></trkpt><trkpt lat="42.2542409" lon="14.5029938"><ele>72.0</ele><time>2026-04-26T08:41:06.335Z</time></trkpt><trkpt lat="42.2543358" lon="14.5029714"><ele>73.0</ele><time>2026-04-26T08:41:07.335Z</time></trkpt><trkpt lat="42.2544238" lon="14.5029422"><ele>74.0</ele><time>2026-04-26T08:41:08.336Z</time></trkpt><trkpt lat="42.254501" lon="14.5028839"><ele>75.0</ele><time>2026-04-26T08:41:09.335Z</time></trkpt><trkpt lat="42.2545633" lon="14.5027958"><ele>76.0</ele><time>2026-04-26T08:41:10.335Z</time></trkpt><trkpt lat="42.2546196" lon="14.5026806"><ele>76.0</ele><time>2026-04-26T08:41:11.334Z</time></trkpt><trkpt lat="42.2546603" lon="14.5025399"><ele>76.0</ele><time>2026-04-26T08:41:12.335Z</time></trkpt><trkpt lat="42.254694" lon="14.5023861"><ele>76.0</ele><time>2026-04-26T08:41:13.335Z</time></trkpt><trkpt lat="42.2547258" lon="14.5022439"><ele>76.0</ele><time>2026-04-26T08:41:14.334Z</time></trkpt><trkpt lat="42.2547609" lon="14.5021085"><ele>76.0</ele><time>2026-04-26T08:41:15.335Z</time></trkpt><trkpt lat="42.254811" lon="14.501987"><ele>76.8</ele><time>2026-04-26T08:41:16.335Z</time></trkpt><trkpt lat="42.2548786" lon="14.5018897"><ele>77.6</ele><time>2026-04-26T08:41:17.334Z</time></trkpt><trkpt lat="42.2549587" lon="14.5018122"><ele>78.4</ele><time>2026-04-26T08:41:18.335Z</time></trkpt><trkpt lat="42.2550499" lon="14.5017528"><ele>79.2</ele><time>2026-04-26T08:41:19.335Z</time></trkpt><trkpt lat="42.2551374" lon="14.5016951"><ele>80.0</ele><time>2026-04-26T08:41:20.334Z</time></trkpt><trkpt lat="42.2552186" lon="14.50163"><ele>80.0</ele><time>2026-04-26T08:41:21.335Z</time></trkpt><trkpt lat="42.2552925" lon="14.5015549"><ele>80.0</ele><time>2026-04-26T08:41:22.335Z</time></trkpt><trkpt lat="42.2553418" lon="14.5014653"><ele>80.0</ele><time>2026-04-26T08:41:23.335Z</time></trkpt><trkpt lat="42.2553697" lon="14.5013604"><ele>80.0</ele><time>2026-04-26T08:41:24.334Z</time></trkpt><trkpt lat="42.2553719" lon="14.501241"><ele>80.0</ele><time>2026-04-26T08:41:25.335Z</time></trkpt><trkpt lat="42.2553473" lon="14.5011168"><ele>80.0</ele><time>2026-04-26T08:41:26.335Z</time></trkpt><trkpt lat="42.2553012" lon="14.5009953"><ele>81.25</ele><time>2026-04-26T08:41:27.334Z</time></trkpt><trkpt lat="42.2552381" lon="14.5008757"><ele>82.5</ele><time>2026-04-26T08:41:28.335Z</time></trkpt><trkpt lat="42.2551647" lon="14.5007546"><ele>83.75</ele><time>2026-04-26T08:41:29.335Z</time></trkpt><trkpt lat="42.255088" lon="14.5006231"><ele>85.0</ele><time>2026-04-26T08:41:30.334Z</time></trkpt><trkpt lat="42.2550055" lon="14.5004835"><ele>85.66666666666666</ele><time>2026-04-26T08:41:31.334Z</time></trkpt><trkpt lat="42.2549118" lon="14.5003334"><ele>86.33333333333333</ele><time>2026-04-26T08:41:32.334Z</time></trkpt><trkpt lat="42.2548103" lon="14.5001715"><ele>87.0</ele><time>2026-04-26T08:41:33.335Z</time></trkpt><trkpt lat="42.2547127" lon="14.5000075"><ele>87.0</ele><time>2026-04-26T08:41:34.335Z</time></trkpt><trkpt lat="42.2546241" lon="14.4998513"><ele>87.0</ele><time>2026-04-26T08:41:35.334Z</time></trkpt><trkpt lat="42.2545417" lon="14.4997102"><ele>87.0</ele><time>2026-04-26T08:41:36.334Z</time></trkpt><trkpt lat="42.254464" lon="14.4995756"><ele>87.0</ele><time>2026-04-26T08:41:37.335Z</time></trkpt><trkpt lat="42.2543931" lon="14.4994417"><ele>89.75</ele><time>2026-04-26T08:41:38.334Z</time></trkpt><trkpt lat="42.254319" lon="14.4993101"><ele>92.5</ele><time>2026-04-26T08:41:39.335Z</time></trkpt><trkpt lat="42.2542448" lon="14.4991888"><ele>95.25</ele><time>2026-04-26T08:41:40.335Z</time></trkpt><trkpt lat="42.2541658" lon="14.4990819"><ele>98.0</ele><time>2026-04-26T08:41:41.335Z</time></trkpt><trkpt lat="42.2540799" lon="14.4990083"><ele>98.0</ele><time>2026-04-26T08:41:42.335Z</time></trkpt><trkpt lat="42.2539912" lon="14.4989513"><ele>98.0</ele><time>2026-04-26T08:41:43.335Z</time></trkpt><trkpt lat="42.2539052" lon="14.4989079"><ele>98.0</ele><time>2026-04-26T08:41:44.335Z</time></trkpt><trkpt lat="42.2538163" lon="14.4988732"><ele>98.0</ele><time>2026-04-26T08:41:45.335Z</time></trkpt><trkpt lat="42.2537285" lon="14.4988407"><ele>98.0</ele><time>2026-04-26T08:41:46.335Z</time></trkpt><trkpt lat="42.2536445" lon="14.4988094"><ele>99.0</ele><time>2026-04-26T08:41:47.334Z</time></trkpt><trkpt lat="42.2535575" lon="14.498775"><ele>100.0</ele><time>2026-04-26T08:41:48.335Z</time></trkpt><trkpt lat="42.2534618" lon="14.4987433"><ele>101.0</ele><time>2026-04-26T08:41:49.335Z</time></trkpt><trkpt lat="42.2533703" lon="14.4987063"><ele>102.0</ele><time>2026-04-26T08:41:50.335Z</time></trkpt><trkpt lat="42.2532775" lon="14.4986761"><ele>103.0</ele><time>2026-04-26T08:41:51.335Z</time></trkpt><trkpt lat="42.2531879" lon="14.4986438"><ele>101.60000000000001</ele><time>2026-04-26T08:41:52.336Z</time></trkpt><trkpt lat="42.2531083" lon="14.4986094"><ele>100.2</ele><time>2026-04-26T08:41:53.335Z</time></trkpt><trkpt lat="42.2530468" lon="14.4985713"><ele>98.8</ele><time>2026-04-26T08:41:54.335Z</time></trkpt><trkpt lat="42.252971" lon="14.4984488"><ele>97.4</ele><time>2026-04-26T08:41:56.335Z</time></trkpt><trkpt lat="42.2529383" lon="14.4982913"><ele>96.0</ele><time>2026-04-26T08:41:58.336Z</time></trkpt><trkpt lat="42.2528384" lon="14.4981925"><ele>96.0</ele><time>2026-04-26T08:42:00.335Z</time></trkpt><trkpt lat="42.2527809" lon="14.4981427"><ele>96.0</ele><time>2026-04-26T08:42:01.335Z</time></trkpt><trkpt lat="42.2527289" lon="14.4980701"><ele>96.0</ele><time>2026-04-26T08:42:02.334Z</time></trkpt><trkpt lat="42.2526781" lon="14.4979873"><ele>96.0</ele><time>2026-04-26T08:42:03.335Z</time></trkpt><trkpt lat="42.2526359" lon="14.4978979"><ele>96.0</ele><time>2026-04-26T08:42:04.335Z</time></trkpt><trkpt lat="42.2526075" lon="14.4977988"><ele>96.0</ele><time>2026-04-26T08:42:05.335Z</time></trkpt><trkpt lat="42.2526025" lon="14.4977011"><ele>97.85714285714285</ele><time>2026-04-26T08:42:06.335Z</time></trkpt><trkpt lat="42.2526157" lon="14.497604"><ele>99.71428571428571</ele><time>2026-04-26T08:42:07.335Z</time></trkpt><trkpt lat="42.2526456" lon="14.4975121"><ele>101.57142857142857</ele><time>2026-04-26T08:42:08.335Z</time></trkpt><trkpt lat="42.2526894" lon="14.497424"><ele>103.42857142857142</ele><time>2026-04-26T08:42:09.335Z</time></trkpt><trkpt lat="42.2527403" lon="14.4973427"><ele>105.28571428571429</ele><time>2026-04-26T08:42:10.335Z</time></trkpt><trkpt lat="42.2527898" lon="14.4972782"><ele>107.14285714285714</ele><time>2026-04-26T08:42:11.336Z</time></trkpt><trkpt lat="42.2528505" lon="14.4972396"><ele>109.0</ele><time>2026-04-26T08:42:12.334Z</time></trkpt><trkpt lat="42.2529234" lon="14.4972255"><ele>109.0</ele><time>2026-04-26T08:42:13.334Z</time></trkpt><trkpt lat="42.2530032" lon="14.4972275"><ele>109.0</ele><time>2026-04-26T08:42:14.335Z</time></trkpt><trkpt lat="42.2530842" lon="14.4972213"><ele>109.0</ele><time>2026-04-26T08:42:15.336Z</time></trkpt><trkpt lat="42.2531676" lon="14.4971882"><ele>109.0</ele><time>2026-04-26T08:42:16.335Z</time></trkpt><trkpt lat="42.2532565" lon="14.4971279"><ele>109.0</ele><time>2026-04-26T08:42:17.335Z</time></trkpt><trkpt lat="42.2533443" lon="14.4970557"><ele>109.50000000000001</ele><time>2026-04-26T08:42:18.334Z</time></trkpt><trkpt lat="42.2534245" lon="14.4969784"><ele>110.0</ele><time>2026-04-26T08:42:19.335Z</time></trkpt><trkpt lat="42.2534948" lon="14.4969056"><ele>110.5</ele><time>2026-04-26T08:42:20.335Z</time></trkpt><trkpt lat="42.2535534" lon="14.4968465"><ele>111.0</ele><time>2026-04-26T08:42:21.335Z</time></trkpt><trkpt lat="42.2536054" lon="14.4967985"><ele>111.50000000000001</ele><time>2026-04-26T08:42:22.335Z</time></trkpt><trkpt lat="42.2536828" lon="14.4967415"><ele>112.0</ele><time>2026-04-26T08:42:24.334Z</time></trkpt><trkpt lat="42.2537428" lon="14.4966839"><ele>112.00000000000001</ele><time>2026-04-26T08:42:27.335Z</time></trkpt><trkpt lat="42.2537302" lon="14.4965614"><ele>112.0</ele><time>2026-04-26T08:42:30.334Z</time></trkpt><trkpt lat="42.2537019" lon="14.4964844"><ele>112.0</ele><time>2026-04-26T08:42:31.336Z</time></trkpt><trkpt lat="42.2536613" lon="14.4963968"><ele>112.0</ele><time>2026-04-26T08:42:32.335Z</time></trkpt><trkpt lat="42.2536234" lon="14.4963113"><ele>112.00000000000001</ele><time>2026-04-26T08:42:33.334Z</time></trkpt><trkpt lat="42.2535812" lon="14.4962251"><ele>112.0</ele><time>2026-04-26T08:42:34.335Z</time></trkpt><trkpt lat="42.2535333" lon="14.4961261"><ele>111.8</ele><time>2026-04-26T08:42:35.335Z</time></trkpt><trkpt lat="42.2534822" lon="14.4960208"><ele>111.6</ele><time>2026-04-26T08:42:36.335Z</time></trkpt><trkpt lat="42.2534296" lon="14.495918"><ele>111.39999999999999</ele><time>2026-04-26T08:42:37.335Z</time></trkpt><trkpt lat="42.2533767" lon="14.4958139"><ele>111.19999999999999</ele><time>2026-04-26T08:42:38.335Z</time></trkpt><trkpt lat="42.2533146" lon="14.4956965"><ele>111.0</ele><time>2026-04-26T08:42:39.335Z</time></trkpt><trkpt lat="42.2532619" lon="14.4956"><ele>111.0</ele><time>2026-04-26T08:42:40.335Z</time></trkpt><trkpt lat="42.2532235" lon="14.4955148"><ele>111.0</ele><time>2026-04-26T08:42:41.334Z</time></trkpt><trkpt lat="42.2531681" lon="14.4953804"><ele>111.0</ele><time>2026-04-26T08:42:43.336Z</time></trkpt><trkpt lat="42.2531336" lon="14.4953086"><ele>111.0</ele><time>2026-04-26T08:42:44.335Z</time></trkpt><trkpt lat="42.2530942" lon="14.4952272"><ele>111.0</ele><time>2026-04-26T08:42:45.334Z</time></trkpt><trkpt lat="42.2530428" lon="14.4951269"><ele>111.0</ele><time>2026-04-26T08:42:46.335Z</time></trkpt><trkpt lat="42.2529847" lon="14.4950209"><ele>112.0</ele><time>2026-04-26T08:42:47.335Z</time></trkpt><trkpt lat="42.2529213" lon="14.4949012"><ele>113.0</ele><time>2026-04-26T08:42:48.335Z</time></trkpt><trkpt lat="42.252859" lon="14.4947719"><ele>114.0</ele><time>2026-04-26T08:42:49.334Z</time></trkpt><trkpt lat="42.2527964" lon="14.4946426"><ele>115.0</ele><time>2026-04-26T08:42:50.336Z</time></trkpt><trkpt lat="42.2527341" lon="14.4945238"><ele>116.0</ele><time>2026-04-26T08:42:51.334Z</time></trkpt><trkpt lat="42.2526704" lon="14.494406"><ele>116.6</ele><time>2026-04-26T08:42:52.336Z</time></trkpt><trkpt lat="42.2526024" lon="14.4942781"><ele>117.19999999999999</ele><time>2026-04-26T08:42:53.335Z</time></trkpt><trkpt lat="42.2525451" lon="14.4941634"><ele>117.80000000000001</ele><time>2026-04-26T08:42:54.334Z</time></trkpt><trkpt lat="42.252488" lon="14.4940413"><ele>118.4</ele><time>2026-04-26T08:42:55.336Z</time></trkpt><trkpt lat="42.2524259" lon="14.4939158"><ele>119.0</ele><time>2026-04-26T08:42:56.335Z</time></trkpt><trkpt lat="42.2523642" lon="14.4937758"><ele>119.0</ele><time>2026-04-26T08:42:57.334Z</time></trkpt><trkpt lat="42.252299" lon="14.4936427"><ele>119.0</ele><time>2026-04-26T08:42:58.336Z</time></trkpt><trkpt lat="42.2522346" lon="14.4935165"><ele>119.0</ele><time>2026-04-26T08:42:59.335Z</time></trkpt><trkpt lat="42.2521703" lon="14.4933917"><ele>119.0</ele><time>2026-04-26T08:43:00.335Z</time></trkpt><trkpt lat="42.2521026" lon="14.4932685"><ele>119.0</ele><time>2026-04-26T08:43:01.335Z</time></trkpt><trkpt lat="42.252033" lon="14.4931441"><ele>119.0</ele><time>2026-04-26T08:43:02.334Z</time></trkpt><trkpt lat="42.2519663" lon="14.4930082"><ele>119.0</ele><time>2026-04-26T08:43:03.335Z</time></trkpt><trkpt lat="42.2518958" lon="14.4928562"><ele>119.0</ele><time>2026-04-26T08:43:04.335Z</time></trkpt><trkpt lat="42.2518272" lon="14.4927147"><ele>119.25</ele><time>2026-04-26T08:43:05.334Z</time></trkpt><trkpt lat="42.2517567" lon="14.4925704"><ele>119.5</ele><time>2026-04-26T08:43:06.334Z</time></trkpt><trkpt lat="42.2516818" lon="14.4924209"><ele>119.75</ele><time>2026-04-26T08:43:07.336Z</time></trkpt><trkpt lat="42.2516055" lon="14.4922642"><ele>120.0</ele><time>2026-04-26T08:43:08.335Z</time></trkpt><trkpt lat="42.2515292" lon="14.4921105"><ele>120.0</ele><time>2026-04-26T08:43:09.335Z</time></trkpt><trkpt lat="42.251451" lon="14.4919475"><ele>120.0</ele><time>2026-04-26T08:43:10.335Z</time></trkpt><trkpt lat="42.251369" lon="14.4917886"><ele>120.0</ele><time>2026-04-26T08:43:11.336Z</time></trkpt><trkpt lat="42.2512878" lon="14.4916257"><ele>120.0</ele><time>2026-04-26T08:43:12.335Z</time></trkpt><trkpt lat="42.2512039" lon="14.4914529"><ele>120.0</ele><time>2026-04-26T08:43:13.334Z</time></trkpt><trkpt lat="42.2511195" lon="14.4912907"><ele>120.0</ele><time>2026-04-26T08:43:14.335Z</time></trkpt><trkpt lat="42.2510395" lon="14.4911291"><ele>120.0</ele><time>2026-04-26T08:43:15.335Z</time></trkpt><trkpt lat="42.2509595" lon="14.4909754"><ele>120.0</ele><time>2026-04-26T08:43:16.334Z</time></trkpt><trkpt lat="42.2508754" lon="14.4908134"><ele>120.75</ele><time>2026-04-26T08:43:17.335Z</time></trkpt><trkpt lat="42.2507973" lon="14.4906585"><ele>121.5</ele><time>2026-04-26T08:43:18.336Z</time></trkpt><trkpt lat="42.2507193" lon="14.4905026"><ele>122.25</ele><time>2026-04-26T08:43:19.336Z</time></trkpt><trkpt lat="42.2506393" lon="14.4903419"><ele>123.0</ele><time>2026-04-26T08:43:20.336Z</time></trkpt><trkpt lat="42.2505596" lon="14.4901825"><ele>124.5</ele><time>2026-04-26T08:43:21.336Z</time></trkpt><trkpt lat="42.2504802" lon="14.4900178"><ele>126.0</ele><time>2026-04-26T08:43:22.335Z</time></trkpt><trkpt lat="42.2504013" lon="14.4898554"><ele>127.5</ele><time>2026-04-26T08:43:23.334Z</time></trkpt><trkpt lat="42.2503173" lon="14.4896995"><ele>129.0</ele><time>2026-04-26T08:43:24.335Z</time></trkpt><trkpt lat="42.2502387" lon="14.4895451"><ele>129.25</ele><time>2026-04-26T08:43:25.334Z</time></trkpt><trkpt lat="42.2501587" lon="14.4893895"><ele>129.5</ele><time>2026-04-26T08:43:26.336Z</time></trkpt><trkpt lat="42.250077" lon="14.4892278"><ele>129.75</ele><time>2026-04-26T08:43:27.335Z</time></trkpt><trkpt lat="42.2500089" lon="14.4890835"><ele>130.0</ele><time>2026-04-26T08:43:28.335Z</time></trkpt><trkpt lat="42.2499326" lon="14.4889297"><ele>130.0</ele><time>2026-04-26T08:43:29.336Z</time></trkpt><trkpt lat="42.2498693" lon="14.4887781"><ele>130.0</ele><time>2026-04-26T08:43:30.335Z</time></trkpt><trkpt lat="42.2497992" lon="14.4886338"><ele>130.0</ele><time>2026-04-26T08:43:31.334Z</time></trkpt><trkpt lat="42.2497239" lon="14.4884834"><ele>130.0</ele><time>2026-04-26T08:43:32.335Z</time></trkpt><trkpt lat="42.249648" lon="14.488337"><ele>130.0</ele><time>2026-04-26T08:43:33.335Z</time></trkpt><trkpt lat="42.2495759" lon="14.4881841"><ele>130.0</ele><time>2026-04-26T08:43:34.335Z</time></trkpt><trkpt lat="42.2495057" lon="14.4880492"><ele>130.0</ele><time>2026-04-26T08:43:35.335Z</time></trkpt><trkpt lat="42.2494298" lon="14.487901"><ele>130.0</ele><time>2026-04-26T08:43:36.336Z</time></trkpt><trkpt lat="42.249351" lon="14.4877415"><ele>130.5</ele><time>2026-04-26T08:43:37.335Z</time></trkpt><trkpt lat="42.2492746" lon="14.4875914"><ele>131.0</ele><time>2026-04-26T08:43:38.335Z</time></trkpt><trkpt lat="42.249206" lon="14.4874622"><ele>131.5</ele><time>2026-04-26T08:43:39.335Z</time></trkpt><trkpt lat="42.249138" lon="14.4873197"><ele>132.0</ele><time>2026-04-26T08:43:40.335Z</time></trkpt><trkpt lat="42.2490657" lon="14.4871768"><ele>132.5</ele><time>2026-04-26T08:43:41.334Z</time></trkpt><trkpt lat="42.2489954" lon="14.4870379"><ele>133.0</ele><time>2026-04-26T08:43:42.335Z</time></trkpt><trkpt lat="42.248921" lon="14.4868972"><ele>133.5</ele><time>2026-04-26T08:43:43.335Z</time></trkpt><trkpt lat="42.2488341" lon="14.4867489"><ele>134.0</ele><time>2026-04-26T08:43:44.335Z</time></trkpt><trkpt lat="42.2487614" lon="14.4865973"><ele>134.5</ele><time>2026-04-26T08:43:45.335Z</time></trkpt><trkpt lat="42.2486977" lon="14.4864548"><ele>135.0</ele><time>2026-04-26T08:43:46.336Z</time></trkpt><trkpt lat="42.2486309" lon="14.4863153"><ele>135.5</ele><time>2026-04-26T08:43:47.335Z</time></trkpt><trkpt lat="42.2485626" lon="14.486193"><ele>136.0</ele><time>2026-04-26T08:43:48.336Z</time></trkpt><trkpt lat="42.2485035" lon="14.4860652"><ele>136.0</ele><time>2026-04-26T08:43:49.335Z</time></trkpt><trkpt lat="42.2484407" lon="14.4859459"><ele>136.0</ele><time>2026-04-26T08:43:50.335Z</time></trkpt><trkpt lat="42.2483833" lon="14.4858299"><ele>136.0</ele><time>2026-04-26T08:43:51.335Z</time></trkpt><trkpt lat="42.2483231" lon="14.4857166"><ele>136.0</ele><time>2026-04-26T08:43:52.335Z</time></trkpt><trkpt lat="42.2482704" lon="14.485611"><ele>136.0</ele><time>2026-04-26T08:43:53.335Z</time></trkpt><trkpt lat="42.2482209" lon="14.48551"><ele>136.16666666666669</ele><time>2026-04-26T08:43:54.334Z</time></trkpt><trkpt lat="42.2481729" lon="14.4854127"><ele>136.33333333333334</ele><time>2026-04-26T08:43:55.334Z</time></trkpt><trkpt lat="42.248126" lon="14.485325"><ele>136.5</ele><time>2026-04-26T08:43:56.335Z</time></trkpt><trkpt lat="42.248084" lon="14.4852395"><ele>136.66666666666666</ele><time>2026-04-26T08:43:57.335Z</time></trkpt><trkpt lat="42.2480501" lon="14.4851672"><ele>136.83333333333331</ele><time>2026-04-26T08:43:58.335Z</time></trkpt><trkpt lat="42.248014" lon="14.4850914"><ele>137.0</ele><time>2026-04-26T08:43:59.335Z</time></trkpt><trkpt lat="42.2479704" lon="14.4849641"><ele>137.2</ele><time>2026-04-26T08:44:01.335Z</time></trkpt><trkpt lat="42.2479017" lon="14.4848585"><ele>137.39999999999998</ele><time>2026-04-26T08:44:03.334Z</time></trkpt><trkpt lat="42.2478089" lon="14.4848642"><ele>137.60000000000002</ele><time>2026-04-26T08:44:05.334Z</time></trkpt><trkpt lat="42.2477366" lon="14.4849747"><ele>137.8</ele><time>2026-04-26T08:44:07.335Z</time></trkpt><trkpt lat="42.2476974" lon="14.4850628"><ele>138.0</ele><time>2026-04-26T08:44:08.335Z</time></trkpt><trkpt lat="42.247647" lon="14.4851568"><ele>138.0</ele><time>2026-04-26T08:44:09.335Z</time></trkpt><trkpt lat="42.2475826" lon="14.4852673"><ele>138.0</ele><time>2026-04-26T08:44:10.335Z</time></trkpt><trkpt lat="42.2475119" lon="14.4853938"><ele>138.0</ele><time>2026-04-26T08:44:11.335Z</time></trkpt><trkpt lat="42.2474461" lon="14.4855126"><ele>138.0</ele><time>2026-04-26T08:44:12.335Z</time></trkpt><trkpt lat="42.24738" lon="14.485622"><ele>138.0</ele><time>2026-04-26T08:44:13.335Z</time></trkpt><trkpt lat="42.2473139" lon="14.485726"><ele>138.0</ele><time>2026-04-26T08:44:14.335Z</time></trkpt><trkpt lat="42.2472551" lon="14.4858271"><ele>138.0</ele><time>2026-04-26T08:44:15.336Z</time></trkpt><trkpt lat="42.2472026" lon="14.485929"><ele>138.0</ele><time>2026-04-26T08:44:16.335Z</time></trkpt><trkpt lat="42.24716" lon="14.4860368"><ele>138.0</ele><time>2026-04-26T08:44:17.334Z</time></trkpt><trkpt lat="42.2471356" lon="14.4861496"><ele>138.0</ele><time>2026-04-26T08:44:18.335Z</time></trkpt><trkpt lat="42.2471282" lon="14.4862752"><ele>136.25</ele><time>2026-04-26T08:44:19.334Z</time></trkpt><trkpt lat="42.2471394" lon="14.4864174"><ele>134.5</ele><time>2026-04-26T08:44:20.335Z</time></trkpt><trkpt lat="42.2471722" lon="14.4865663"><ele>132.75</ele><time>2026-04-26T08:44:21.334Z</time></trkpt><trkpt lat="42.2472165" lon="14.4867235"><ele>131.0</ele><time>2026-04-26T08:44:22.334Z</time></trkpt><trkpt lat="42.2472663" lon="14.4868858"><ele>131.0</ele><time>2026-04-26T08:44:23.335Z</time></trkpt><trkpt lat="42.2473168" lon="14.4870499"><ele>131.0</ele><time>2026-04-26T08:44:24.336Z</time></trkpt><trkpt lat="42.2473658" lon="14.4872067"><ele>131.0</ele><time>2026-04-26T08:44:25.336Z</time></trkpt><trkpt lat="42.2474095" lon="14.4873533"><ele>131.0</ele><time>2026-04-26T08:44:26.335Z</time></trkpt><trkpt lat="42.2474549" lon="14.4874993"><ele>131.0</ele><time>2026-04-26T08:44:27.334Z</time></trkpt><trkpt lat="42.2475049" lon="14.4876426"><ele>131.0</ele><time>2026-04-26T08:44:28.335Z</time></trkpt><trkpt lat="42.2475679" lon="14.4877827"><ele>131.0</ele><time>2026-04-26T08:44:29.334Z</time></trkpt><trkpt lat="42.2476431" lon="14.4879235"><ele>131.0</ele><time>2026-04-26T08:44:30.335Z</time></trkpt><trkpt lat="42.2477272" lon="14.4880672"><ele>129.5</ele><time>2026-04-26T08:44:31.334Z</time></trkpt><trkpt lat="42.247814" lon="14.4882118"><ele>128.0</ele><time>2026-04-26T08:44:32.335Z</time></trkpt><trkpt lat="42.2479008" lon="14.488357"><ele>126.5</ele><time>2026-04-26T08:44:33.334Z</time></trkpt><trkpt lat="42.2479889" lon="14.4885065"><ele>125.0</ele><time>2026-04-26T08:44:34.335Z</time></trkpt><trkpt lat="42.2480756" lon="14.4886524"><ele>124.33333333333333</ele><time>2026-04-26T08:44:35.336Z</time></trkpt><trkpt lat="42.2481686" lon="14.4888061"><ele>123.66666666666666</ele><time>2026-04-26T08:44:36.336Z</time></trkpt><trkpt lat="42.2482662" lon="14.48896"><ele>123.0</ele><time>2026-04-26T08:44:37.334Z</time></trkpt><trkpt lat="42.2483616" lon="14.4891219"><ele>123.0</ele><time>2026-04-26T08:44:38.335Z</time></trkpt><trkpt lat="42.2484545" lon="14.4892939"><ele>123.0</ele><time>2026-04-26T08:44:39.335Z</time></trkpt><trkpt lat="42.2485495" lon="14.4894591"><ele>123.0</ele><time>2026-04-26T08:44:40.335Z</time></trkpt><trkpt lat="42.2486439" lon="14.4896273"><ele>121.66666666666666</ele><time>2026-04-26T08:44:41.336Z</time></trkpt><trkpt lat="42.2487333" lon="14.4897892"><ele>120.33333333333333</ele><time>2026-04-26T08:44:42.335Z</time></trkpt><trkpt lat="42.2488284" lon="14.4899518"><ele>119.0</ele><time>2026-04-26T08:44:43.334Z</time></trkpt><trkpt lat="42.2489223" lon="14.4901224"><ele>120.66666666666666</ele><time>2026-04-26T08:44:44.335Z</time></trkpt><trkpt lat="42.2490214" lon="14.4902959"><ele>122.33333333333334</ele><time>2026-04-26T08:44:45.335Z</time></trkpt><trkpt lat="42.2491225" lon="14.4904691"><ele>124.0</ele><time>2026-04-26T08:44:46.336Z</time></trkpt><trkpt lat="42.249228" lon="14.4906438"><ele>120.33333333333334</ele><time>2026-04-26T08:44:47.335Z</time></trkpt><trkpt lat="42.2493314" lon="14.4908228"><ele>116.66666666666666</ele><time>2026-04-26T08:44:48.335Z</time></trkpt><trkpt lat="42.2494399" lon="14.4910017"><ele>113.0</ele><time>2026-04-26T08:44:49.335Z</time></trkpt><trkpt lat="42.2495512" lon="14.4911894"><ele>113.0</ele><time>2026-04-26T08:44:50.334Z</time></trkpt><trkpt lat="42.2496639" lon="14.4913784"><ele>113.0</ele><time>2026-04-26T08:44:51.335Z</time></trkpt><trkpt lat="42.249773" lon="14.4915642"><ele>113.0</ele><time>2026-04-26T08:44:52.336Z</time></trkpt><trkpt lat="42.2498803" lon="14.4917447"><ele>113.0</ele><time>2026-04-26T08:44:53.334Z</time></trkpt><trkpt lat="42.2499828" lon="14.4919136"><ele>113.0</ele><time>2026-04-26T08:44:54.335Z</time></trkpt><trkpt lat="42.250083" lon="14.4920766"><ele>113.0</ele><time>2026-04-26T08:44:55.335Z</time></trkpt><trkpt lat="42.2501802" lon="14.4922321"><ele>111.0</ele><time>2026-04-26T08:44:56.335Z</time></trkpt><trkpt lat="42.2502732" lon="14.4923816"><ele>109.0</ele><time>2026-04-26T08:44:57.335Z</time></trkpt><trkpt lat="42.2503549" lon="14.4925242"><ele>107.0</ele><time>2026-04-26T08:44:58.335Z</time></trkpt><trkpt lat="42.25043" lon="14.4926501"><ele>105.0</ele><time>2026-04-26T08:44:59.335Z</time></trkpt><trkpt lat="42.2504985" lon="14.4927785"><ele>105.0</ele><time>2026-04-26T08:45:00.336Z</time></trkpt><trkpt lat="42.2505429" lon="14.4929121"><ele>105.0</ele><time>2026-04-26T08:45:01.334Z</time></trkpt><trkpt lat="42.2505726" lon="14.4930501"><ele>105.0</ele><time>2026-04-26T08:45:02.335Z</time></trkpt><trkpt lat="42.25058" lon="14.4932041"><ele>105.0</ele><time>2026-04-26T08:45:03.336Z</time></trkpt><trkpt lat="42.2505653" lon="14.4933553"><ele>105.0</ele><time>2026-04-26T08:45:04.336Z</time></trkpt><trkpt lat="42.2505244" lon="14.4935058"><ele>103.75</ele><time>2026-04-26T08:45:05.334Z</time></trkpt><trkpt lat="42.2504652" lon="14.4936614"><ele>102.5</ele><time>2026-04-26T08:45:06.335Z</time></trkpt><trkpt lat="42.2503915" lon="14.4938236"><ele>101.25</ele><time>2026-04-26T08:45:07.335Z</time></trkpt><trkpt lat="42.2503099" lon="14.4939892"><ele>100.0</ele><time>2026-04-26T08:45:08.335Z</time></trkpt><trkpt lat="42.2502218" lon="14.4941571"><ele>97.66666666666667</ele><time>2026-04-26T08:45:09.335Z</time></trkpt><trkpt lat="42.2501308" lon="14.4943269"><ele>95.33333333333334</ele><time>2026-04-26T08:45:10.335Z</time></trkpt><trkpt lat="42.2500405" lon="14.4944984"><ele>93.0</ele><time>2026-04-26T08:45:11.335Z</time></trkpt><trkpt lat="42.2499518" lon="14.4946751"><ele>92.33333333333333</ele><time>2026-04-26T08:45:12.336Z</time></trkpt><trkpt lat="42.2498589" lon="14.4948482"><ele>91.66666666666666</ele><time>2026-04-26T08:45:13.335Z</time></trkpt><trkpt lat="42.2497676" lon="14.4950302"><ele>91.0</ele><time>2026-04-26T08:45:14.335Z</time></trkpt><trkpt lat="42.2496748" lon="14.4952056"><ele>90.0</ele><time>2026-04-26T08:45:15.336Z</time></trkpt><trkpt lat="42.2495857" lon="14.4953733"><ele>89.0</ele><time>2026-04-26T08:45:16.335Z</time></trkpt><trkpt lat="42.2495009" lon="14.4955374"><ele>88.0</ele><time>2026-04-26T08:45:17.336Z</time></trkpt><trkpt lat="42.2494186" lon="14.4956977"><ele>87.0</ele><time>2026-04-26T08:45:18.334Z</time></trkpt><trkpt lat="42.249342" lon="14.4958509"><ele>85.6</ele><time>2026-04-26T08:45:19.336Z</time></trkpt><trkpt lat="42.2492683" lon="14.4959909"><ele>84.19999999999999</ele><time>2026-04-26T08:45:20.335Z</time></trkpt><trkpt lat="42.2492062" lon="14.4961204"><ele>82.8</ele><time>2026-04-26T08:45:21.334Z</time></trkpt><trkpt lat="42.2491525" lon="14.4962415"><ele>81.4</ele><time>2026-04-26T08:45:22.334Z</time></trkpt><trkpt lat="42.2491115" lon="14.4963586"><ele>80.0</ele><time>2026-04-26T08:45:23.335Z</time></trkpt><trkpt lat="42.2490832" lon="14.4964836"><ele>79.0</ele><time>2026-04-26T08:45:24.335Z</time></trkpt><trkpt lat="42.2490716" lon="14.49661"><ele>78.0</ele><time>2026-04-26T08:45:25.334Z</time></trkpt><trkpt lat="42.249081" lon="14.4967365"><ele>77.0</ele><time>2026-04-26T08:45:26.335Z</time></trkpt><trkpt lat="42.2491075" lon="14.4968574"><ele>76.0</ele><time>2026-04-26T08:45:27.335Z</time></trkpt><trkpt lat="42.2491543" lon="14.4969791"><ele>75.0</ele><time>2026-04-26T08:45:28.335Z</time></trkpt><trkpt lat="42.2492136" lon="14.4971057"><ele>73.5</ele><time>2026-04-26T08:45:29.334Z</time></trkpt><trkpt lat="42.2492766" lon="14.4972378"><ele>72.0</ele><time>2026-04-26T08:45:30.336Z</time></trkpt><trkpt lat="42.2493314" lon="14.497367"><ele>70.5</ele><time>2026-04-26T08:45:31.334Z</time></trkpt><trkpt lat="42.2493736" lon="14.4975075"><ele>69.0</ele><time>2026-04-26T08:45:32.335Z</time></trkpt><trkpt lat="42.2494051" lon="14.4976573"><ele>69.0</ele><time>2026-04-26T08:45:33.336Z</time></trkpt><trkpt lat="42.2494233" lon="14.4978175"><ele>69.0</ele><time>2026-04-26T08:45:34.335Z</time></trkpt><trkpt lat="42.2494339" lon="14.4979884"><ele>69.0</ele><time>2026-04-26T08:45:35.335Z</time></trkpt><trkpt lat="42.2494369" lon="14.4981697"><ele>69.0</ele><time>2026-04-26T08:45:36.335Z</time></trkpt><trkpt lat="42.2494333" lon="14.4983533"><ele>67.5</ele><time>2026-04-26T08:45:37.335Z</time></trkpt><trkpt lat="42.2494395" lon="14.4985369"><ele>66.0</ele><time>2026-04-26T08:45:38.335Z</time></trkpt><trkpt lat="42.2494439" lon="14.498728"><ele>64.5</ele><time>2026-04-26T08:45:39.335Z</time></trkpt><trkpt lat="42.2494461" lon="14.4989248"><ele>63.0</ele><time>2026-04-26T08:45:40.335Z</time></trkpt><trkpt lat="42.2494493" lon="14.4991229"><ele>61.33333333333333</ele><time>2026-04-26T08:45:41.335Z</time></trkpt><trkpt lat="42.2494529" lon="14.4993251"><ele>59.666666666666664</ele><time>2026-04-26T08:45:42.335Z</time></trkpt><trkpt lat="42.2494569" lon="14.499541"><ele>58.0</ele><time>2026-04-26T08:45:43.334Z</time></trkpt><trkpt lat="42.249465" lon="14.4997571"><ele>57.33333333333333</ele><time>2026-04-26T08:45:44.335Z</time></trkpt><trkpt lat="42.2494735" lon="14.4999692"><ele>56.66666666666667</ele><time>2026-04-26T08:45:45.335Z</time></trkpt><trkpt lat="42.2494762" lon="14.5001714"><ele>56.0</ele><time>2026-04-26T08:45:46.334Z</time></trkpt><trkpt lat="42.2494739" lon="14.5003665"><ele>55.5</ele><time>2026-04-26T08:45:47.336Z</time></trkpt><trkpt lat="42.2494731" lon="14.5005498"><ele>55.0</ele><time>2026-04-26T08:45:48.336Z</time></trkpt><trkpt lat="42.2494803" lon="14.5007255"><ele>54.5</ele><time>2026-04-26T08:45:49.335Z</time></trkpt><trkpt lat="42.2494819" lon="14.5008909"><ele>54.0</ele><time>2026-04-26T08:45:50.335Z</time></trkpt><trkpt lat="42.2494778" lon="14.5010422"><ele>54.0</ele><time>2026-04-26T08:45:51.335Z</time></trkpt><trkpt lat="42.2494695" lon="14.501185"><ele>54.00000000000001</ele><time>2026-04-26T08:45:52.335Z</time></trkpt><trkpt lat="42.2494557" lon="14.5013114"><ele>54.00000000000001</ele><time>2026-04-26T08:45:53.335Z</time></trkpt><trkpt lat="42.2494436" lon="14.5014166"><ele>54.0</ele><time>2026-04-26T08:45:54.335Z</time></trkpt><trkpt lat="42.2494261" lon="14.5015025"><ele>54.0</ele><time>2026-04-26T08:45:55.335Z</time></trkpt><trkpt lat="42.2493728" lon="14.5016316"><ele>53.6</ele><time>2026-04-26T08:45:57.335Z</time></trkpt><trkpt lat="42.2493067" lon="14.5017669"><ele>53.2</ele><time>2026-04-26T08:45:59.336Z</time></trkpt><trkpt lat="42.2492812" lon="14.5019334"><ele>52.800000000000004</ele><time>2026-04-26T08:46:01.336Z</time></trkpt><trkpt lat="42.2493012" lon="14.502025"><ele>52.400000000000006</ele><time>2026-04-26T08:46:02.334Z</time></trkpt><trkpt lat="42.2493417" lon="14.5021076"><ele>52.0</ele><time>2026-04-26T08:46:03.336Z</time></trkpt><trkpt lat="42.2493893" lon="14.502186"><ele>51.400000000000006</ele><time>2026-04-26T08:46:04.335Z</time></trkpt><trkpt lat="42.2494296" lon="14.5022711"><ele>50.800000000000004</ele><time>2026-04-26T08:46:05.335Z</time></trkpt><trkpt lat="42.2494631" lon="14.502378"><ele>50.2</ele><time>2026-04-26T08:46:06.335Z</time></trkpt><trkpt lat="42.2494827" lon="14.5025056"><ele>49.6</ele><time>2026-04-26T08:46:07.336Z</time></trkpt><trkpt lat="42.2494939" lon="14.502652"><ele>49.0</ele><time>2026-04-26T08:46:08.336Z</time></trkpt><trkpt lat="42.2495053" lon="14.5028053"><ele>48.400000000000006</ele><time>2026-04-26T08:46:09.335Z</time></trkpt><trkpt lat="42.2495227" lon="14.5029583"><ele>47.8</ele><time>2026-04-26T08:46:10.335Z</time></trkpt><trkpt lat="42.2495371" lon="14.5031043"><ele>47.2</ele><time>2026-04-26T08:46:11.335Z</time></trkpt><trkpt lat="42.2495609" lon="14.5032507"><ele>46.599999999999994</ele><time>2026-04-26T08:46:12.335Z</time></trkpt><trkpt lat="42.249594" lon="14.5033976"><ele>46.0</ele><time>2026-04-26T08:46:13.334Z</time></trkpt><trkpt lat="42.249645" lon="14.5035395"><ele>46.0</ele><time>2026-04-26T08:46:14.335Z</time></trkpt><trkpt lat="42.2497118" lon="14.5036835"><ele>46.0</ele><time>2026-04-26T08:46:15.336Z</time></trkpt><trkpt lat="42.2497861" lon="14.5038245"><ele>46.0</ele><time>2026-04-26T08:46:16.334Z</time></trkpt><trkpt lat="42.2498719" lon="14.5039646"><ele>46.0</ele><time>2026-04-26T08:46:17.335Z</time></trkpt><trkpt lat="42.2499647" lon="14.5041005"><ele>45.75</ele><time>2026-04-26T08:46:18.335Z</time></trkpt><trkpt lat="42.2500568" lon="14.5042331"><ele>45.5</ele><time>2026-04-26T08:46:19.335Z</time></trkpt><trkpt lat="42.2501489" lon="14.5043683"><ele>45.25</ele><time>2026-04-26T08:46:20.334Z</time></trkpt><trkpt lat="42.2502413" lon="14.5045051"><ele>45.0</ele><time>2026-04-26T08:46:21.334Z</time></trkpt><trkpt lat="42.2503332" lon="14.5046462"><ele>44.75</ele><time>2026-04-26T08:46:22.335Z</time></trkpt><trkpt lat="42.2504288" lon="14.504784"><ele>44.5</ele><time>2026-04-26T08:46:23.334Z</time></trkpt><trkpt lat="42.2505248" lon="14.5049217"><ele>44.25</ele><time>2026-04-26T08:46:24.334Z</time></trkpt><trkpt lat="42.2506156" lon="14.5050598"><ele>44.0</ele><time>2026-04-26T08:46:25.334Z</time></trkpt><trkpt lat="42.2507157" lon="14.5052052"><ele>44.0</ele><time>2026-04-26T08:46:26.335Z</time></trkpt><trkpt lat="42.2508176" lon="14.505357"><ele>44.0</ele><time>2026-04-26T08:46:27.336Z</time></trkpt><trkpt lat="42.2509127" lon="14.5055018"><ele>44.0</ele><time>2026-04-26T08:46:28.335Z</time></trkpt><trkpt lat="42.2510051" lon="14.5056385"><ele>44.0</ele><time>2026-04-26T08:46:29.335Z</time></trkpt><trkpt lat="42.2510919" lon="14.5057688"><ele>43.2</ele><time>2026-04-26T08:46:30.335Z</time></trkpt><trkpt lat="42.2511747" lon="14.5058902"><ele>42.400000000000006</ele><time>2026-04-26T08:46:31.336Z</time></trkpt><trkpt lat="42.2512511" lon="14.5059963"><ele>41.6</ele><time>2026-04-26T08:46:32.335Z</time></trkpt><trkpt lat="42.2513299" lon="14.506078"><ele>40.8</ele><time>2026-04-26T08:46:33.335Z</time></trkpt><trkpt lat="42.2514176" lon="14.5061399"><ele>40.0</ele><time>2026-04-26T08:46:34.334Z</time></trkpt><trkpt lat="42.251506" lon="14.5061834"><ele>39.6</ele><time>2026-04-26T08:46:35.335Z</time></trkpt><trkpt lat="42.2515988" lon="14.5062055"><ele>39.2</ele><time>2026-04-26T08:46:36.335Z</time></trkpt><trkpt lat="42.2517009" lon="14.5062006"><ele>38.8</ele><time>2026-04-26T08:46:37.334Z</time></trkpt><trkpt lat="42.2518136" lon="14.5061725"><ele>38.4</ele><time>2026-04-26T08:46:38.334Z</time></trkpt><trkpt lat="42.2519356" lon="14.5061097"><ele>38.0</ele><time>2026-04-26T08:46:39.335Z</time></trkpt><trkpt lat="42.2520591" lon="14.5060517"><ele>38.0</ele><time>2026-04-26T08:46:40.335Z</time></trkpt><trkpt lat="42.252183" lon="14.5059999"><ele>38.0</ele><time>2026-04-26T08:46:41.336Z</time></trkpt><trkpt lat="42.2523068" lon="14.5059401"><ele>38.0</ele><time>2026-04-26T08:46:42.335Z</time></trkpt><trkpt lat="42.2524274" lon="14.5058813"><ele>38.0</ele><time>2026-04-26T08:46:43.335Z</time></trkpt><trkpt lat="42.2525441" lon="14.5058254"><ele>35.25</ele><time>2026-04-26T08:46:44.336Z</time></trkpt><trkpt lat="42.2526666" lon="14.505775"><ele>32.5</ele><time>2026-04-26T08:46:45.335Z</time></trkpt><trkpt lat="42.2527805" lon="14.5057139"><ele>29.75</ele><time>2026-04-26T08:46:46.335Z</time></trkpt><trkpt lat="42.2528893" lon="14.505643"><ele>27.0</ele><time>2026-04-26T08:46:47.335Z</time></trkpt><trkpt lat="42.252996" lon="14.5055644"><ele>27.0</ele><time>2026-04-26T08:46:48.334Z</time></trkpt><trkpt lat="42.253099" lon="14.5054748"><ele>27.0</ele><time>2026-04-26T08:46:49.334Z</time></trkpt><trkpt lat="42.2532016" lon="14.5053761"><ele>27.0</ele><time>2026-04-26T08:46:50.335Z</time></trkpt><trkpt lat="42.25329" lon="14.5052768"><ele>27.0</ele><time>2026-04-26T08:46:51.335Z</time></trkpt><trkpt lat="42.2533941" lon="14.5051817"><ele>28.75</ele><time>2026-04-26T08:46:52.335Z</time></trkpt><trkpt lat="42.2535158" lon="14.505103"><ele>30.5</ele><time>2026-04-26T08:46:53.335Z</time></trkpt><trkpt lat="42.2536404" lon="14.5050223"><ele>32.25</ele><time>2026-04-26T08:46:54.335Z</time></trkpt><trkpt lat="42.2537725" lon="14.504948"><ele>34.0</ele><time>2026-04-26T08:46:55.335Z</time></trkpt><trkpt lat="42.2539037" lon="14.5048722"><ele>30.75</ele><time>2026-04-26T08:46:56.335Z</time></trkpt><trkpt lat="42.2540318" lon="14.5047925"><ele>27.5</ele><time>2026-04-26T08:46:57.335Z</time></trkpt><trkpt lat="42.2541597" lon="14.5047269"><ele>24.25</ele><time>2026-04-26T08:46:58.335Z</time></trkpt><trkpt lat="42.2542778" lon="14.5046597"><ele>21.0</ele><time>2026-04-26T08:46:59.336Z</time></trkpt><trkpt lat="42.2543974" lon="14.5045995"><ele>22.25</ele><time>2026-04-26T08:47:00.336Z</time></trkpt><trkpt lat="42.2545117" lon="14.504536"><ele>23.5</ele><time>2026-04-26T08:47:01.336Z</time></trkpt><trkpt lat="42.2546212" lon="14.5044743"><ele>24.75</ele><time>2026-04-26T08:47:02.335Z</time></trkpt><trkpt lat="42.2547221" lon="14.5044199"><ele>26.0</ele><time>2026-04-26T08:47:03.334Z</time></trkpt><trkpt lat="42.2548176" lon="14.5043856"><ele>25.999999999999996</ele><time>2026-04-26T08:47:04.335Z</time></trkpt><trkpt lat="42.2549103" lon="14.5043701"><ele>26.0</ele><time>2026-04-26T08:47:05.335Z</time></trkpt><trkpt lat="42.2549939" lon="14.5043594"><ele>26.0</ele><time>2026-04-26T08:47:06.334Z</time></trkpt><trkpt lat="42.2550698" lon="14.5043516"><ele>26.0</ele><time>2026-04-26T08:47:07.335Z</time></trkpt><trkpt lat="42.2551358" lon="14.5043507"><ele>25.999999999999996</ele><time>2026-04-26T08:47:08.334Z</time></trkpt><trkpt lat="42.2552548" lon="14.5043762"><ele>26.0</ele><time>2026-04-26T08:47:10.335Z</time></trkpt><trkpt lat="42.2553422" lon="14.5044467"><ele>26.0</ele><time>2026-04-26T08:47:12.335Z</time></trkpt><trkpt lat="42.2553699" lon="14.5045791"><ele>26.0</ele><time>2026-04-26T08:47:14.335Z</time></trkpt><trkpt lat="42.2553018" lon="14.504727"><ele>26.0</ele><time>2026-04-26T08:47:16.335Z</time></trkpt><trkpt lat="42.2552429" lon="14.504804"><ele>26.0</ele><time>2026-04-26T08:47:17.335Z</time></trkpt><trkpt lat="42.2551693" lon="14.5048868"><ele>26.0</ele><time>2026-04-26T08:47:18.335Z</time></trkpt><trkpt lat="42.2550918" lon="14.5049755"><ele>24.75</ele><time>2026-04-26T08:47:19.335Z</time></trkpt><trkpt lat="42.2549909" lon="14.5050653"><ele>23.5</ele><time>2026-04-26T08:47:20.335Z</time></trkpt><trkpt lat="42.2548845" lon="14.505154"><ele>22.25</ele><time>2026-04-26T08:47:21.335Z</time></trkpt><trkpt lat="42.254782" lon="14.5052426"><ele>21.0</ele><time>2026-04-26T08:47:22.334Z</time></trkpt><trkpt lat="42.254673" lon="14.50533"><ele>18.0</ele><time>2026-04-26T08:47:23.334Z</time></trkpt><trkpt lat="42.2545672" lon="14.5054125"><ele>15.0</ele><time>2026-04-26T08:47:24.335Z</time></trkpt><trkpt lat="42.2544625" lon="14.5054947"><ele>12.0</ele><time>2026-04-26T08:47:25.334Z</time></trkpt><trkpt lat="42.2543589" lon="14.505573"><ele>9.0</ele><time>2026-04-26T08:47:26.334Z</time></trkpt><trkpt lat="42.2542594" lon="14.5056502"><ele>9.0</ele><time>2026-04-26T08:47:27.335Z</time></trkpt><trkpt lat="42.2541642" lon="14.5057214"><ele>9.0</ele><time>2026-04-26T08:47:28.334Z</time></trkpt><trkpt lat="42.254073" lon="14.5057904"><ele>9.0</ele><time>2026-04-26T08:47:29.335Z</time></trkpt><trkpt lat="42.2539803" lon="14.5058618"><ele>9.0</ele><time>2026-04-26T08:47:30.335Z</time></trkpt><trkpt lat="42.253887" lon="14.5059236"><ele>9.0</ele><time>2026-04-26T08:47:31.334Z</time></trkpt><trkpt lat="42.2537909" lon="14.5059716"><ele>10.4</ele><time>2026-04-26T08:47:32.334Z</time></trkpt><trkpt lat="42.2536932" lon="14.5060134"><ele>11.8</ele><time>2026-04-26T08:47:33.336Z</time></trkpt><trkpt lat="42.2536016" lon="14.5060497"><ele>13.200000000000001</ele><time>2026-04-26T08:47:34.335Z</time></trkpt><trkpt lat="42.2535126" lon="14.5060811"><ele>14.600000000000001</ele><time>2026-04-26T08:47:35.335Z</time></trkpt><trkpt lat="42.2534198" lon="14.5061095"><ele>16.0</ele><time>2026-04-26T08:47:36.335Z</time></trkpt><trkpt lat="42.2533289" lon="14.5061426"><ele>15.999999999999998</ele><time>2026-04-26T08:47:37.334Z</time></trkpt><trkpt lat="42.2532439" lon="14.5061809"><ele>16.0</ele><time>2026-04-26T08:47:38.335Z</time></trkpt><trkpt lat="42.2531673" lon="14.506223"><ele>16.0</ele><time>2026-04-26T08:47:39.334Z</time></trkpt><trkpt lat="42.2530962" lon="14.5062621"><ele>16.0</ele><time>2026-04-26T08:47:40.335Z</time></trkpt><trkpt lat="42.2530334" lon="14.5063003"><ele>15.999999999999998</ele><time>2026-04-26T08:47:41.334Z</time></trkpt><trkpt lat="42.2529708" lon="14.5063368"><ele>16.0</ele><time>2026-04-26T08:47:42.335Z</time></trkpt><trkpt lat="42.2528688" lon="14.5064038"><ele>15.666666666666666</ele><time>2026-04-26T08:47:44.335Z</time></trkpt><trkpt lat="42.2527818" lon="14.506463"><ele>15.333333333333332</ele><time>2026-04-26T08:47:46.335Z</time></trkpt><trkpt lat="42.2527245" lon="14.5064987"><ele>15.0</ele><time>2026-04-26T08:47:47.335Z</time></trkpt><trkpt lat="42.252661" lon="14.5065409"><ele>14.666666666666668</ele><time>2026-04-26T08:47:48.335Z</time></trkpt><trkpt lat="42.2525903" lon="14.5065862"><ele>14.333333333333334</ele><time>2026-04-26T08:47:49.334Z</time></trkpt><trkpt lat="42.2525146" lon="14.5066325"><ele>14.0</ele><time>2026-04-26T08:47:50.335Z</time></trkpt><trkpt lat="42.2524344" lon="14.5066844"><ele>14.000000000000002</ele><time>2026-04-26T08:47:51.336Z</time></trkpt><trkpt lat="42.2523493" lon="14.506742"><ele>14.0</ele><time>2026-04-26T08:47:52.335Z</time></trkpt><trkpt lat="42.2522699" lon="14.5067904"><ele>14.0</ele><time>2026-04-26T08:47:53.335Z</time></trkpt><trkpt lat="42.2522033" lon="14.5068388"><ele>14.0</ele><time>2026-04-26T08:47:54.335Z</time></trkpt><trkpt lat="42.2521416" lon="14.5068836"><ele>14.000000000000002</ele><time>2026-04-26T08:47:55.335Z</time></trkpt><trkpt lat="42.2520786" lon="14.5069347"><ele>14.0</ele><time>2026-04-26T08:47:56.335Z</time></trkpt><trkpt lat="42.2520178" lon="14.5069918"><ele>13.333333333333334</ele><time>2026-04-26T08:47:57.335Z</time></trkpt><trkpt lat="42.2519547" lon="14.5070487"><ele>12.666666666666668</ele><time>2026-04-26T08:47:58.335Z</time></trkpt><trkpt lat="42.2518945" lon="14.5071095"><ele>12.0</ele><time>2026-04-26T08:47:59.335Z</time></trkpt><trkpt lat="42.2518366" lon="14.5071763"><ele>11.333333333333334</ele><time>2026-04-26T08:48:00.335Z</time></trkpt><trkpt lat="42.2517792" lon="14.5072379"><ele>10.666666666666668</ele><time>2026-04-26T08:48:01.335Z</time></trkpt><trkpt lat="42.2517237" lon="14.5073063"><ele>10.0</ele><time>2026-04-26T08:48:02.335Z</time></trkpt><trkpt lat="42.251667" lon="14.507374"><ele>10.0</ele><time>2026-04-26T08:48:03.335Z</time></trkpt><trkpt lat="42.2516029" lon="14.5074444"><ele>10.0</ele><time>2026-04-26T08:48:04.335Z</time></trkpt><trkpt lat="42.2515359" lon="14.5075238"><ele>10.0</ele><time>2026-04-26T08:48:05.334Z</time></trkpt><trkpt lat="42.2514612" lon="14.5076145"><ele>10.0</ele><time>2026-04-26T08:48:06.336Z</time></trkpt><trkpt lat="42.2513756" lon="14.507722"><ele>10.0</ele><time>2026-04-26T08:48:07.335Z</time></trkpt><trkpt lat="42.2512707" lon="14.507858"><ele>12.333333333333334</ele><time>2026-04-26T08:48:08.334Z</time></trkpt><trkpt lat="42.2511455" lon="14.5080096"><ele>14.666666666666668</ele><time>2026-04-26T08:48:09.336Z</time></trkpt><trkpt lat="42.2510075" lon="14.5081754"><ele>17.0</ele><time>2026-04-26T08:48:10.335Z</time></trkpt><trkpt lat="42.2508707" lon="14.5083386"><ele>17.0</ele><time>2026-04-26T08:48:11.336Z</time></trkpt><trkpt lat="42.2507272" lon="14.50851"><ele>17.0</ele><time>2026-04-26T08:48:12.335Z</time></trkpt><trkpt lat="42.250596" lon="14.5086688"><ele>17.0</ele><time>2026-04-26T08:48:13.335Z</time></trkpt><trkpt lat="42.2504736" lon="14.508815"><ele>17.25</ele><time>2026-04-26T08:48:14.335Z</time></trkpt><trkpt lat="42.2503611" lon="14.5089475"><ele>17.5</ele><time>2026-04-26T08:48:15.335Z</time></trkpt><trkpt lat="42.2502563" lon="14.5090733"><ele>17.75</ele><time>2026-04-26T08:48:16.335Z</time></trkpt><trkpt lat="42.2501614" lon="14.5091943"><ele>18.0</ele><time>2026-04-26T08:48:17.336Z</time></trkpt><trkpt lat="42.2500636" lon="14.5093125"><ele>18.0</ele><time>2026-04-26T08:48:18.336Z</time></trkpt><trkpt lat="42.2499634" lon="14.5094288"><ele>18.0</ele><time>2026-04-26T08:48:19.336Z</time></trkpt><trkpt lat="42.249865" lon="14.5095401"><ele>18.0</ele><time>2026-04-26T08:48:20.335Z</time></trkpt><trkpt lat="42.249775" lon="14.509651"><ele>18.0</ele><time>2026-04-26T08:48:21.335Z</time></trkpt><trkpt lat="42.2496925" lon="14.5097613"><ele>19.0</ele><time>2026-04-26T08:48:22.336Z</time></trkpt><trkpt lat="42.2496099" lon="14.5098789"><ele>20.0</ele><time>2026-04-26T08:48:23.334Z</time></trkpt><trkpt lat="42.249525" lon="14.5099977"><ele>21.0</ele><time>2026-04-26T08:48:24.335Z</time></trkpt><trkpt lat="42.2494386" lon="14.5101278"><ele>22.0</ele><time>2026-04-26T08:48:25.334Z</time></trkpt><trkpt lat="42.2493488" lon="14.5102691"><ele>20.25</ele><time>2026-04-26T08:48:26.335Z</time></trkpt><trkpt lat="42.2492607" lon="14.5104172"><ele>18.5</ele><time>2026-04-26T08:48:27.335Z</time></trkpt><trkpt lat="42.2491727" lon="14.5105642"><ele>16.75</ele><time>2026-04-26T08:48:28.336Z</time></trkpt><trkpt lat="42.2490882" lon="14.5107086"><ele>15.0</ele><time>2026-04-26T08:48:29.335Z</time></trkpt><trkpt lat="42.2490038" lon="14.5108413"><ele>15.25</ele><time>2026-04-26T08:48:30.335Z</time></trkpt><trkpt lat="42.2489244" lon="14.5109701"><ele>15.5</ele><time>2026-04-26T08:48:31.334Z</time></trkpt><trkpt lat="42.2488453" lon="14.511094"><ele>15.75</ele><time>2026-04-26T08:48:32.334Z</time></trkpt><trkpt lat="42.2487705" lon="14.5112146"><ele>16.0</ele><time>2026-04-26T08:48:33.335Z</time></trkpt><trkpt lat="42.2486859" lon="14.5113489"><ele>16.0</ele><time>2026-04-26T08:48:34.335Z</time></trkpt><trkpt lat="42.2485975" lon="14.511494"><ele>16.0</ele><time>2026-04-26T08:48:35.336Z</time></trkpt><trkpt lat="42.2484985" lon="14.5116645"><ele>16.0</ele><time>2026-04-26T08:48:36.336Z</time></trkpt><trkpt lat="42.2483926" lon="14.5118484"><ele>16.0</ele><time>2026-04-26T08:48:37.334Z</time></trkpt><trkpt lat="42.2482781" lon="14.5120355"><ele>16.0</ele><time>2026-04-26T08:48:38.335Z</time></trkpt><trkpt lat="42.2481667" lon="14.5122089"><ele>16.0</ele><time>2026-04-26T08:48:39.335Z</time></trkpt><trkpt lat="42.2480669" lon="14.5123725"><ele>16.0</ele><time>2026-04-26T08:48:40.335Z</time></trkpt><trkpt lat="42.2479756" lon="14.5125307"><ele>16.0</ele><time>2026-04-26T08:48:41.335Z</time></trkpt><trkpt lat="42.2478879" lon="14.5126815"><ele>16.0</ele><time>2026-04-26T08:48:42.335Z</time></trkpt><trkpt lat="42.2478" lon="14.5128282"><ele>16.0</ele><time>2026-04-26T08:48:43.335Z</time></trkpt><trkpt lat="42.2477136" lon="14.5129779"><ele>16.0</ele><time>2026-04-26T08:48:44.335Z</time></trkpt><trkpt lat="42.2476304" lon="14.5131274"><ele>16.0</ele><time>2026-04-26T08:48:45.335Z</time></trkpt><trkpt lat="42.2475481" lon="14.513279"><ele>16.0</ele><time>2026-04-26T08:48:46.335Z</time></trkpt><trkpt lat="42.2474672" lon="14.5134321"><ele>16.0</ele><time>2026-04-26T08:48:47.335Z</time></trkpt><trkpt lat="42.2473883" lon="14.5135796"><ele>16.0</ele><time>2026-04-26T08:48:48.336Z</time></trkpt><trkpt lat="42.2473052" lon="14.5137235"><ele>16.0</ele><time>2026-04-26T08:48:49.335Z</time></trkpt><trkpt lat="42.2472264" lon="14.513864"><ele>16.0</ele><time>2026-04-26T08:48:50.334Z</time></trkpt><trkpt lat="42.2471517" lon="14.5139982"><ele>16.0</ele><time>2026-04-26T08:48:51.335Z</time></trkpt><trkpt lat="42.247083" lon="14.5141294"><ele>16.0</ele><time>2026-04-26T08:48:52.335Z</time></trkpt><trkpt lat="42.2470146" lon="14.5142579"><ele>16.0</ele><time>2026-04-26T08:48:53.335Z</time></trkpt><trkpt lat="42.2469414" lon="14.5143922"><ele>16.0</ele><time>2026-04-26T08:48:54.335Z</time></trkpt><trkpt lat="42.2468713" lon="14.5145182"><ele>16.0</ele><time>2026-04-26T08:48:55.336Z</time></trkpt><trkpt lat="42.2468013" lon="14.5146442"><ele>15.600000000000001</ele><time>2026-04-26T08:48:56.335Z</time></trkpt><trkpt lat="42.2467349" lon="14.5147655"><ele>15.200000000000001</ele><time>2026-04-26T08:48:57.335Z</time></trkpt><trkpt lat="42.2466691" lon="14.5148854"><ele>14.799999999999999</ele><time>2026-04-26T08:48:58.335Z</time></trkpt><trkpt lat="42.246603" lon="14.5150019"><ele>14.399999999999999</ele><time>2026-04-26T08:48:59.334Z</time></trkpt><trkpt lat="42.2465358" lon="14.5151185"><ele>14.0</ele><time>2026-04-26T08:49:00.335Z</time></trkpt><trkpt lat="42.2464647" lon="14.5152398"><ele>14.25</ele><time>2026-04-26T08:49:01.335Z</time></trkpt><trkpt lat="42.2463944" lon="14.5153698"><ele>14.5</ele><time>2026-04-26T08:49:02.335Z</time></trkpt><trkpt lat="42.2463158" lon="14.5155033"><ele>14.75</ele><time>2026-04-26T08:49:03.335Z</time></trkpt><trkpt lat="42.2462397" lon="14.5156363"><ele>15.0</ele><time>2026-04-26T08:49:04.335Z</time></trkpt><trkpt lat="42.2461627" lon="14.5157666"><ele>14.5</ele><time>2026-04-26T08:49:05.336Z</time></trkpt><trkpt lat="42.2460777" lon="14.5158956"><ele>14.0</ele><time>2026-04-26T08:49:06.335Z</time></trkpt><trkpt lat="42.2459848" lon="14.5160432"><ele>13.5</ele><time>2026-04-26T08:49:07.335Z</time></trkpt><trkpt lat="42.2458825" lon="14.5162037"><ele>13.0</ele><time>2026-04-26T08:49:08.334Z</time></trkpt><trkpt lat="42.2457786" lon="14.5163652"><ele>12.5</ele><time>2026-04-26T08:49:09.334Z</time></trkpt><trkpt lat="42.2456831" lon="14.5165222"><ele>12.0</ele><time>2026-04-26T08:49:10.336Z</time></trkpt><trkpt lat="42.2455847" lon="14.5166728"><ele>11.5</ele><time>2026-04-26T08:49:11.335Z</time></trkpt><trkpt lat="42.2454898" lon="14.5168179"><ele>11.0</ele><time>2026-04-26T08:49:12.335Z</time></trkpt><trkpt lat="42.2453988" lon="14.5169578"><ele>10.5</ele><time>2026-04-26T08:49:13.335Z</time></trkpt><trkpt lat="42.245309" lon="14.5170987"><ele>10.0</ele><time>2026-04-26T08:49:14.336Z</time></trkpt><trkpt lat="42.2452177" lon="14.5172368"><ele>9.5</ele><time>2026-04-26T08:49:15.335Z</time></trkpt><trkpt lat="42.2451236" lon="14.5173827"><ele>9.0</ele><time>2026-04-26T08:49:16.335Z</time></trkpt><trkpt lat="42.2450274" lon="14.5175339"><ele>9.0</ele><time>2026-04-26T08:49:17.334Z</time></trkpt><trkpt lat="42.2449331" lon="14.5176857"><ele>9.0</ele><time>2026-04-26T08:49:18.334Z</time></trkpt><trkpt lat="42.2448361" lon="14.5178368"><ele>9.0</ele><time>2026-04-26T08:49:19.334Z</time></trkpt><trkpt lat="42.24474" lon="14.5179855"><ele>9.0</ele><time>2026-04-26T08:49:20.334Z</time></trkpt><trkpt lat="42.2446411" lon="14.5181302"><ele>9.0</ele><time>2026-04-26T08:49:21.335Z</time></trkpt><trkpt lat="42.2445343" lon="14.5182838"><ele>9.0</ele><time>2026-04-26T08:49:22.335Z</time></trkpt><trkpt lat="42.2444221" lon="14.5184423"><ele>9.0</ele><time>2026-04-26T08:49:23.335Z</time></trkpt><trkpt lat="42.2443004" lon="14.5186051"><ele>9.0</ele><time>2026-04-26T08:49:24.335Z</time></trkpt><trkpt lat="42.2441729" lon="14.5187751"><ele>9.0</ele><time>2026-04-26T08:49:25.335Z</time></trkpt><trkpt lat="42.24404" lon="14.5189496"><ele>9.0</ele><time>2026-04-26T08:49:26.335Z</time></trkpt><trkpt lat="42.2439077" lon="14.5191257"><ele>9.333333333333334</ele><time>2026-04-26T08:49:27.335Z</time></trkpt><trkpt lat="42.2437718" lon="14.5193047"><ele>9.666666666666668</ele><time>2026-04-26T08:49:28.335Z</time></trkpt><trkpt lat="42.2436296" lon="14.5194895"><ele>10.0</ele><time>2026-04-26T08:49:29.335Z</time></trkpt><trkpt lat="42.2434926" lon="14.5196672"><ele>9.333333333333334</ele><time>2026-04-26T08:49:30.335Z</time></trkpt><trkpt lat="42.2433662" lon="14.5198394"><ele>8.666666666666666</ele><time>2026-04-26T08:49:31.334Z</time></trkpt><trkpt lat="42.243247" lon="14.5200094"><ele>8.0</ele><time>2026-04-26T08:49:32.335Z</time></trkpt><trkpt lat="42.2431383" lon="14.5201703"><ele>8.5</ele><time>2026-04-26T08:49:33.335Z</time></trkpt><trkpt lat="42.2430406" lon="14.5203284"><ele>9.0</ele><time>2026-04-26T08:49:34.335Z</time></trkpt><trkpt lat="42.2429484" lon="14.5204846"><ele>9.5</ele><time>2026-04-26T08:49:35.335Z</time></trkpt><trkpt lat="42.2428656" lon="14.5206378"><ele>10.0</ele><time>2026-04-26T08:49:36.335Z</time></trkpt><trkpt lat="42.2427917" lon="14.5207871"><ele>9.0</ele><time>2026-04-26T08:49:37.335Z</time></trkpt><trkpt lat="42.2427204" lon="14.5209447"><ele>8.0</ele><time>2026-04-26T08:49:38.334Z</time></trkpt><trkpt lat="42.2426546" lon="14.5211012"><ele>7.0</ele><time>2026-04-26T08:49:39.335Z</time></trkpt><trkpt lat="42.2425929" lon="14.5212599"><ele>6.0</ele><time>2026-04-26T08:49:40.335Z</time></trkpt><trkpt lat="42.2425332" lon="14.5214153"><ele>5.25</ele><time>2026-04-26T08:49:41.335Z</time></trkpt><trkpt lat="42.2424781" lon="14.5215674"><ele>4.5</ele><time>2026-04-26T08:49:42.335Z</time></trkpt><trkpt lat="42.2424285" lon="14.5217168"><ele>3.75</ele><time>2026-04-26T08:49:43.335Z</time></trkpt><trkpt lat="42.2423798" lon="14.521864"><ele>3.0</ele><time>2026-04-26T08:49:44.336Z</time></trkpt><trkpt lat="42.2423364" lon="14.52201"><ele>2.6</ele><time>2026-04-26T08:49:45.335Z</time></trkpt><trkpt lat="42.2422984" lon="14.5221549"><ele>2.1999999999999997</ele><time>2026-04-26T08:49:46.334Z</time></trkpt><trkpt lat="42.2422629" lon="14.5222911"><ele>1.8</ele><time>2026-04-26T08:49:47.335Z</time></trkpt><trkpt lat="42.242231" lon="14.5224218"><ele>1.4</ele><time>2026-04-26T08:49:48.335Z</time></trkpt><trkpt lat="42.2422017" lon="14.5225453"><ele>1.0</ele><time>2026-04-26T08:49:49.334Z</time></trkpt><trkpt lat="42.2421755" lon="14.5226589"><ele>1.0</ele><time>2026-04-26T08:49:50.335Z</time></trkpt><trkpt lat="42.2421483" lon="14.5227631"><ele>1.0</ele><time>2026-04-26T08:49:51.336Z</time></trkpt><trkpt lat="42.2421231" lon="14.5228767"><ele>1.0</ele><time>2026-04-26T08:49:52.334Z</time></trkpt><trkpt lat="42.2420883" lon="14.5230015"><ele>1.0</ele><time>2026-04-26T08:49:53.335Z</time></trkpt><trkpt lat="42.2420512" lon="14.5231275"><ele>1.0</ele><time>2026-04-26T08:49:54.335Z</time></trkpt><trkpt lat="42.2420203" lon="14.5232409"><ele>1.2000000000000002</ele><time>2026-04-26T08:49:55.334Z</time></trkpt><trkpt lat="42.2419912" lon="14.5233572"><ele>1.4000000000000001</ele><time>2026-04-26T08:49:56.335Z</time></trkpt><trkpt lat="42.2419649" lon="14.5234842"><ele>1.6</ele><time>2026-04-26T08:49:57.335Z</time></trkpt><trkpt lat="42.2419296" lon="14.5236164"><ele>1.8</ele><time>2026-04-26T08:49:58.335Z</time></trkpt><trkpt lat="42.2418818" lon="14.5237518"><ele>2.0</ele><time>2026-04-26T08:49:59.334Z</time></trkpt><trkpt lat="42.241831" lon="14.5238981"><ele>2.25</ele><time>2026-04-26T08:50:00.334Z</time></trkpt><trkpt lat="42.2417787" lon="14.5240597"><ele>2.5</ele><time>2026-04-26T08:50:01.335Z</time></trkpt><trkpt lat="42.2417212" lon="14.524237"><ele>2.75</ele><time>2026-04-26T08:50:02.335Z</time></trkpt><trkpt lat="42.2416526" lon="14.5244216"><ele>3.0</ele><time>2026-04-26T08:50:03.335Z</time></trkpt><trkpt lat="42.2415724" lon="14.524616"><ele>2.3333333333333335</ele><time>2026-04-26T08:50:04.335Z</time></trkpt><trkpt lat="42.2414859" lon="14.5248289"><ele>1.6666666666666665</ele><time>2026-04-26T08:50:05.335Z</time></trkpt><trkpt lat="42.2413883" lon="14.5250438"><ele>1.0</ele><time>2026-04-26T08:50:06.335Z</time></trkpt><trkpt lat="42.2412952" lon="14.5252485"><ele>1.0</ele><time>2026-04-26T08:50:07.335Z</time></trkpt><trkpt lat="42.241213" lon="14.5254442"><ele>1.0</ele><time>2026-04-26T08:50:08.335Z</time></trkpt><trkpt lat="42.2411316" lon="14.5256327"><ele>1.0</ele><time>2026-04-26T08:50:09.335Z</time></trkpt><trkpt lat="42.2410511" lon="14.5258139"><ele>1.0</ele><time>2026-04-26T08:50:10.334Z</time></trkpt><trkpt lat="42.2409684" lon="14.5259936"><ele>1.0</ele><time>2026-04-26T08:50:11.334Z</time></trkpt><trkpt lat="42.2408811" lon="14.5261771"><ele>1.0</ele><time>2026-04-26T08:50:12.335Z</time></trkpt><trkpt lat="42.2407952" lon="14.5263631"><ele>1.0</ele><time>2026-04-26T08:50:13.335Z</time></trkpt><trkpt lat="42.2407096" lon="14.5265489"><ele>1.0</ele><time>2026-04-26T08:50:14.335Z</time></trkpt><trkpt lat="42.2406253" lon="14.5267309"><ele>1.0</ele><time>2026-04-26T08:50:15.334Z</time></trkpt><trkpt lat="42.2405418" lon="14.5269086"><ele>0.6666666666666666</ele><time>2026-04-26T08:50:16.335Z</time></trkpt><trkpt lat="42.2404647" lon="14.5270825"><ele>0.3333333333333333</ele><time>2026-04-26T08:50:17.334Z</time></trkpt><trkpt lat="42.240389" lon="14.5272555"><ele>0.0</ele><time>2026-04-26T08:50:18.336Z</time></trkpt><trkpt lat="42.2403047" lon="14.5274289"><ele>0.0</ele><time>2026-04-26T08:50:19.335Z</time></trkpt><trkpt lat="42.2402204" lon="14.5276184"><ele>0.0</ele><time>2026-04-26T08:50:20.335Z</time></trkpt><trkpt lat="42.2401323" lon="14.5278136"><ele>0.0</ele><time>2026-04-26T08:50:21.334Z</time></trkpt><trkpt lat="42.240042" lon="14.5280131"><ele>0.0</ele><time>2026-04-26T08:50:22.336Z</time></trkpt><trkpt lat="42.2399532" lon="14.528205"><ele>0.0</ele><time>2026-04-26T08:50:23.336Z</time></trkpt><trkpt lat="42.2398726" lon="14.528386"><ele>0.0</ele><time>2026-04-26T08:50:24.334Z</time></trkpt><trkpt lat="42.2397901" lon="14.5285626"><ele>0.3333333333333333</ele><time>2026-04-26T08:50:25.335Z</time></trkpt><trkpt lat="42.2397108" lon="14.5287349"><ele>0.6666666666666666</ele><time>2026-04-26T08:50:26.335Z</time></trkpt><trkpt lat="42.2396289" lon="14.5289088"><ele>1.0</ele><time>2026-04-26T08:50:27.335Z</time></trkpt><trkpt lat="42.2395495" lon="14.5290888"><ele>1.0</ele><time>2026-04-26T08:50:28.335Z</time></trkpt><trkpt lat="42.2394685" lon="14.5292657"><ele>1.0</ele><time>2026-04-26T08:50:29.336Z</time></trkpt><trkpt lat="42.2393941" lon="14.5294383"><ele>1.0</ele><time>2026-04-26T08:50:30.335Z</time></trkpt><trkpt lat="42.2393192" lon="14.5296095"><ele>1.0</ele><time>2026-04-26T08:50:31.335Z</time></trkpt><trkpt lat="42.2392348" lon="14.5297833"><ele>1.0</ele><time>2026-04-26T08:50:32.335Z</time></trkpt><trkpt lat="42.2391498" lon="14.529961"><ele>1.0</ele><time>2026-04-26T08:50:33.335Z</time></trkpt><trkpt lat="42.2390664" lon="14.5301471"><ele>1.0</ele><time>2026-04-26T08:50:34.335Z</time></trkpt><trkpt lat="42.2389858" lon="14.5303334"><ele>0.6666666666666666</ele><time>2026-04-26T08:50:35.334Z</time></trkpt><trkpt lat="42.2389025" lon="14.5305162"><ele>0.3333333333333333</ele><time>2026-04-26T08:50:36.335Z</time></trkpt><trkpt lat="42.2388188" lon="14.5307032"><ele>0.0</ele><time>2026-04-26T08:50:37.334Z</time></trkpt><trkpt lat="42.2387355" lon="14.5308911"><ele>0.0</ele><time>2026-04-26T08:50:38.335Z</time></trkpt><trkpt lat="42.2386484" lon="14.5310791"><ele>0.0</ele><time>2026-04-26T08:50:39.335Z</time></trkpt><trkpt lat="42.238564" lon="14.5312633"><ele>0.0</ele><time>2026-04-26T08:50:40.335Z</time></trkpt><trkpt lat="42.2384806" lon="14.5314432"><ele>0.6666666666666666</ele><time>2026-04-26T08:50:41.335Z</time></trkpt><trkpt lat="42.2383972" lon="14.5316279"><ele>1.3333333333333333</ele><time>2026-04-26T08:50:42.335Z</time></trkpt><trkpt lat="42.2383143" lon="14.5318174"><ele>2.0</ele><time>2026-04-26T08:50:43.335Z</time></trkpt><trkpt lat="42.2382324" lon="14.532006"><ele>2.6666666666666665</ele><time>2026-04-26T08:50:44.335Z</time></trkpt><trkpt lat="42.2381472" lon="14.5321912"><ele>3.333333333333333</ele><time>2026-04-26T08:50:45.335Z</time></trkpt><trkpt lat="42.2380625" lon="14.5323749"><ele>4.0</ele><time>2026-04-26T08:50:46.334Z</time></trkpt><trkpt lat="42.2379748" lon="14.5325591"><ele>4.333333333333333</ele><time>2026-04-26T08:50:47.334Z</time></trkpt><trkpt lat="42.2378893" lon="14.5327568"><ele>4.666666666666667</ele><time>2026-04-26T08:50:48.334Z</time></trkpt><trkpt lat="42.237801" lon="14.5329584"><ele>5.0</ele><time>2026-04-26T08:50:49.334Z</time></trkpt><trkpt lat="42.2377092" lon="14.5331692"><ele>4.333333333333334</ele><time>2026-04-26T08:50:50.336Z</time></trkpt><trkpt lat="42.2376107" lon="14.5333821"><ele>3.666666666666667</ele><time>2026-04-26T08:50:51.335Z</time></trkpt><trkpt lat="42.2375132" lon="14.5335939"><ele>3.0</ele><time>2026-04-26T08:50:52.335Z</time></trkpt><trkpt lat="42.2374208" lon="14.5338006"><ele>3.0</ele><time>2026-04-26T08:50:53.334Z</time></trkpt><trkpt lat="42.2373285" lon="14.5339967"><ele>3.0</ele><time>2026-04-26T08:50:54.335Z</time></trkpt><trkpt lat="42.2372401" lon="14.5341916"><ele>3.0</ele><time>2026-04-26T08:50:55.334Z</time></trkpt><trkpt lat="42.2371519" lon="14.5343859"><ele>2.6666666666666665</ele><time>2026-04-26T08:50:56.335Z</time></trkpt><trkpt lat="42.2370638" lon="14.5345758"><ele>2.333333333333333</ele><time>2026-04-26T08:50:57.336Z</time></trkpt><trkpt lat="42.236975" lon="14.5347735"><ele>2.0</ele><time>2026-04-26T08:50:58.335Z</time></trkpt><trkpt lat="42.2368831" lon="14.5349779"><ele>2.0</ele><time>2026-04-26T08:50:59.335Z</time></trkpt><trkpt lat="42.2367887" lon="14.5351887"><ele>2.0</ele><time>2026-04-26T08:51:00.335Z</time></trkpt><trkpt lat="42.2366899" lon="14.5354035"><ele>2.0</ele><time>2026-04-26T08:51:01.335Z</time></trkpt><trkpt lat="42.2365953" lon="14.5356131"><ele>2.333333333333333</ele><time>2026-04-26T08:51:02.335Z</time></trkpt><trkpt lat="42.2365021" lon="14.5358174"><ele>2.6666666666666665</ele><time>2026-04-26T08:51:03.334Z</time></trkpt><trkpt lat="42.2364087" lon="14.5360131"><ele>3.0</ele><time>2026-04-26T08:51:04.335Z</time></trkpt><trkpt lat="42.2363207" lon="14.5362062"><ele>3.666666666666667</ele><time>2026-04-26T08:51:05.335Z</time></trkpt><trkpt lat="42.2362319" lon="14.5363953"><ele>4.333333333333334</ele><time>2026-04-26T08:51:06.335Z</time></trkpt><trkpt lat="42.2361456" lon="14.5365884"><ele>5.0</ele><time>2026-04-26T08:51:07.335Z</time></trkpt><trkpt lat="42.2360558" lon="14.5367894"><ele>5.0</ele><time>2026-04-26T08:51:08.335Z</time></trkpt><trkpt lat="42.2359702" lon="14.5369914"><ele>5.0</ele><time>2026-04-26T08:51:09.336Z</time></trkpt><trkpt lat="42.2358833" lon="14.5371916"><ele>5.0</ele><time>2026-04-26T08:51:10.334Z</time></trkpt><trkpt lat="42.2357919" lon="14.537389"><ele>5.0</ele><time>2026-04-26T08:51:11.335Z</time></trkpt><trkpt lat="42.2357058" lon="14.5375903"><ele>5.0</ele><time>2026-04-26T08:51:12.335Z</time></trkpt><trkpt lat="42.2356228" lon="14.537792"><ele>5.0</ele><time>2026-04-26T08:51:13.336Z</time></trkpt><trkpt lat="42.2355376" lon="14.5379908"><ele>5.333333333333334</ele><time>2026-04-26T08:51:14.335Z</time></trkpt><trkpt lat="42.2354513" lon="14.5381904"><ele>5.666666666666667</ele><time>2026-04-26T08:51:15.335Z</time></trkpt><trkpt lat="42.2353645" lon="14.5383837"><ele>6.0</ele><time>2026-04-26T08:51:16.336Z</time></trkpt><trkpt lat="42.2352786" lon="14.5385807"><ele>6.333333333333334</ele><time>2026-04-26T08:51:17.336Z</time></trkpt><trkpt lat="42.2351922" lon="14.5387765"><ele>6.666666666666667</ele><time>2026-04-26T08:51:18.335Z</time></trkpt><trkpt lat="42.235109" lon="14.5389683"><ele>7.0</ele><time>2026-04-26T08:51:19.335Z</time></trkpt><trkpt lat="42.235027" lon="14.539163"><ele>7.0</ele><time>2026-04-26T08:51:20.336Z</time></trkpt><trkpt lat="42.2349447" lon="14.5393634"><ele>7.0</ele><time>2026-04-26T08:51:21.336Z</time></trkpt><trkpt lat="42.2348585" lon="14.5395726"><ele>7.0</ele><time>2026-04-26T08:51:22.335Z</time></trkpt><trkpt lat="42.2347733" lon="14.5397747"><ele>7.333333333333334</ele><time>2026-04-26T08:51:23.335Z</time></trkpt><trkpt lat="42.2346937" lon="14.5399699"><ele>7.666666666666666</ele><time>2026-04-26T08:51:24.335Z</time></trkpt><trkpt lat="42.2346137" lon="14.5401585"><ele>8.0</ele><time>2026-04-26T08:51:25.335Z</time></trkpt><trkpt lat="42.2345323" lon="14.5403384"><ele>6.666666666666666</ele><time>2026-04-26T08:51:26.336Z</time></trkpt><trkpt lat="42.2344525" lon="14.5405171"><ele>5.333333333333333</ele><time>2026-04-26T08:51:27.335Z</time></trkpt><trkpt lat="42.2343734" lon="14.5406961"><ele>4.0</ele><time>2026-04-26T08:51:28.335Z</time></trkpt><trkpt lat="42.2342967" lon="14.5408725"><ele>4.0</ele><time>2026-04-26T08:51:29.335Z</time></trkpt><trkpt lat="42.2342225" lon="14.5410368"><ele>4.0</ele><time>2026-04-26T08:51:30.335Z</time></trkpt><trkpt lat="42.2341567" lon="14.541191"><ele>4.0</ele><time>2026-04-26T08:51:31.335Z</time></trkpt><trkpt lat="42.2340976" lon="14.5413289"><ele>4.0</ele><time>2026-04-26T08:51:32.335Z</time></trkpt><trkpt lat="42.2340456" lon="14.5414539"><ele>4.0</ele><time>2026-04-26T08:51:33.334Z</time></trkpt><trkpt lat="42.2339986" lon="14.5415569"><ele>4.0</ele><time>2026-04-26T08:51:34.334Z</time></trkpt><trkpt lat="42.233961" lon="14.5416385"><ele>4.0</ele><time>2026-04-26T08:51:35.335Z</time></trkpt><trkpt lat="42.2338921" lon="14.5417171"><ele>4.0</ele><time>2026-04-26T08:51:37.335Z</time></trkpt><trkpt lat="42.2337972" lon="14.5416911"><ele>4.0</ele><time>2026-04-26T08:51:39.334Z</time></trkpt><trkpt lat="42.2337106" lon="14.541573"><ele>5.5</ele><time>2026-04-26T08:51:41.335Z</time></trkpt><trkpt lat="42.233656" lon="14.5415091"><ele>7.0</ele><time>2026-04-26T08:51:42.335Z</time></trkpt><trkpt lat="42.233591" lon="14.5414377"><ele>8.5</ele><time>2026-04-26T08:51:43.335Z</time></trkpt><trkpt lat="42.2335173" lon="14.5413617"><ele>10.0</ele><time>2026-04-26T08:51:44.334Z</time></trkpt><trkpt lat="42.2334373" lon="14.5412969"><ele>11.499999999999998</ele><time>2026-04-26T08:51:45.335Z</time></trkpt><trkpt lat="42.2333416" lon="14.5412367"><ele>13.0</ele><time>2026-04-26T08:51:46.335Z</time></trkpt><trkpt lat="42.2332428" lon="14.5411843"><ele>13.0</ele><time>2026-04-26T08:51:47.335Z</time></trkpt><trkpt lat="42.2331403" lon="14.5411193"><ele>13.0</ele><time>2026-04-26T08:51:48.335Z</time></trkpt><trkpt lat="42.2330231" lon="14.5410419"><ele>13.0</ele><time>2026-04-26T08:51:49.334Z</time></trkpt><trkpt lat="42.2329101" lon="14.5409791"><ele>13.0</ele><time>2026-04-26T08:51:50.335Z</time></trkpt><trkpt lat="42.232779" lon="14.5409363"><ele>16.0</ele><time>2026-04-26T08:51:51.335Z</time></trkpt><trkpt lat="42.2326521" lon="14.5409068"><ele>19.0</ele><time>2026-04-26T08:51:52.334Z</time></trkpt><trkpt lat="42.2325167" lon="14.5408767"><ele>22.0</ele><time>2026-04-26T08:51:53.335Z</time></trkpt><trkpt lat="42.2323953" lon="14.5408342"><ele>25.0</ele><time>2026-04-26T08:51:54.335Z</time></trkpt><trkpt lat="42.2322777" lon="14.5407699"><ele>26.75</ele><time>2026-04-26T08:51:55.335Z</time></trkpt><trkpt lat="42.2321679" lon="14.5406913"><ele>28.5</ele><time>2026-04-26T08:51:56.335Z</time></trkpt><trkpt lat="42.2320725" lon="14.5406004"><ele>30.25</ele><time>2026-04-26T08:51:57.336Z</time></trkpt><trkpt lat="42.2319896" lon="14.5404924"><ele>32.0</ele><time>2026-04-26T08:51:58.335Z</time></trkpt><trkpt lat="42.2319314" lon="14.5403477"><ele>32.0</ele><time>2026-04-26T08:51:59.335Z</time></trkpt><trkpt lat="42.2318878" lon="14.5401844"><ele>32.0</ele><time>2026-04-26T08:52:00.335Z</time></trkpt><trkpt lat="42.2318591" lon="14.540004"><ele>32.0</ele><time>2026-04-26T08:52:01.335Z</time></trkpt><trkpt lat="42.2318421" lon="14.5398305"><ele>32.0</ele><time>2026-04-26T08:52:02.334Z</time></trkpt><trkpt lat="42.2318185" lon="14.5396753"><ele>29.5</ele><time>2026-04-26T08:52:03.335Z</time></trkpt><trkpt lat="42.2317684" lon="14.5395155"><ele>27.0</ele><time>2026-04-26T08:52:04.335Z</time></trkpt><trkpt lat="42.2317018" lon="14.5393731"><ele>24.5</ele><time>2026-04-26T08:52:05.336Z</time></trkpt><trkpt lat="42.2316083" lon="14.5392369"><ele>22.0</ele><time>2026-04-26T08:52:06.334Z</time></trkpt><trkpt lat="42.2315082" lon="14.5391065"><ele>25.5</ele><time>2026-04-26T08:52:07.334Z</time></trkpt><trkpt lat="42.2314151" lon="14.5389865"><ele>29.0</ele><time>2026-04-26T08:52:08.335Z</time></trkpt><trkpt lat="42.2313192" lon="14.5388821"><ele>32.5</ele><time>2026-04-26T08:52:09.335Z</time></trkpt><trkpt lat="42.2312171" lon="14.5387959"><ele>36.0</ele><time>2026-04-26T08:52:10.335Z</time></trkpt><trkpt lat="42.2311056" lon="14.5387247"><ele>34.5</ele><time>2026-04-26T08:52:11.335Z</time></trkpt><trkpt lat="42.2309822" lon="14.5386596"><ele>33.0</ele><time>2026-04-26T08:52:12.334Z</time></trkpt><trkpt lat="42.2308471" lon="14.5386011"><ele>31.5</ele><time>2026-04-26T08:52:13.336Z</time></trkpt><trkpt lat="42.2306947" lon="14.5385484"><ele>30.0</ele><time>2026-04-26T08:52:14.335Z</time></trkpt><trkpt lat="42.230539" lon="14.5385016"><ele>30.0</ele><time>2026-04-26T08:52:15.335Z</time></trkpt><trkpt lat="42.2303857" lon="14.5384522"><ele>30.0</ele><time>2026-04-26T08:52:16.335Z</time></trkpt><trkpt lat="42.2302366" lon="14.538401"><ele>30.0</ele><time>2026-04-26T08:52:17.335Z</time></trkpt><trkpt lat="42.2300913" lon="14.5383322"><ele>30.0</ele><time>2026-04-26T08:52:18.336Z</time></trkpt><trkpt lat="42.2299566" lon="14.5382667"><ele>30.0</ele><time>2026-04-26T08:52:19.336Z</time></trkpt><trkpt lat="42.2298297" lon="14.5382087"><ele>30.0</ele><time>2026-04-26T08:52:20.335Z</time></trkpt><trkpt lat="42.2297023" lon="14.5381685"><ele>30.0</ele><time>2026-04-26T08:52:21.335Z</time></trkpt><trkpt lat="42.229575" lon="14.538167"><ele>31.5</ele><time>2026-04-26T08:52:22.335Z</time></trkpt><trkpt lat="42.2294375" lon="14.538192"><ele>33.0</ele><time>2026-04-26T08:52:23.335Z</time></trkpt><trkpt lat="42.2293101" lon="14.5382506"><ele>34.5</ele><time>2026-04-26T08:52:24.335Z</time></trkpt><trkpt lat="42.2291933" lon="14.5383173"><ele>36.0</ele><time>2026-04-26T08:52:25.335Z</time></trkpt><trkpt lat="42.2290718" lon="14.5383625"><ele>39.0</ele><time>2026-04-26T08:52:26.335Z</time></trkpt><trkpt lat="42.2289596" lon="14.5383672"><ele>42.0</ele><time>2026-04-26T08:52:27.335Z</time></trkpt><trkpt lat="42.2288457" lon="14.5383491"><ele>45.0</ele><time>2026-04-26T08:52:28.336Z</time></trkpt><trkpt lat="42.2287336" lon="14.538287"><ele>48.0</ele><time>2026-04-26T08:52:29.335Z</time></trkpt><trkpt lat="42.2286228" lon="14.5382004"><ele>48.0</ele><time>2026-04-26T08:52:30.336Z</time></trkpt><trkpt lat="42.2285054" lon="14.5381058"><ele>48.0</ele><time>2026-04-26T08:52:31.335Z</time></trkpt><trkpt lat="42.2284097" lon="14.537984"><ele>48.0</ele><time>2026-04-26T08:52:32.334Z</time></trkpt><trkpt lat="42.2283104" lon="14.5378819"><ele>48.0</ele><time>2026-04-26T08:52:33.335Z</time></trkpt><trkpt lat="42.2282231" lon="14.5377773"><ele>47.0</ele><time>2026-04-26T08:52:34.336Z</time></trkpt><trkpt lat="42.2281314" lon="14.5377023"><ele>46.0</ele><time>2026-04-26T08:52:35.336Z</time></trkpt><trkpt lat="42.2280429" lon="14.5376379"><ele>45.0</ele><time>2026-04-26T08:52:36.335Z</time></trkpt><trkpt lat="42.2279268" lon="14.5375932"><ele>44.0</ele><time>2026-04-26T08:52:37.336Z</time></trkpt><trkpt lat="42.2278103" lon="14.5375409"><ele>44.0</ele><time>2026-04-26T08:52:38.335Z</time></trkpt><trkpt lat="42.2276783" lon="14.537498"><ele>44.0</ele><time>2026-04-26T08:52:39.335Z</time></trkpt><trkpt lat="42.2275391" lon="14.5374647"><ele>44.0</ele><time>2026-04-26T08:52:40.336Z</time></trkpt><trkpt lat="42.227399" lon="14.5374161"><ele>44.0</ele><time>2026-04-26T08:52:41.334Z</time></trkpt><trkpt lat="42.2272536" lon="14.5373646"><ele>44.75</ele><time>2026-04-26T08:52:42.336Z</time></trkpt><trkpt lat="42.2271111" lon="14.5372998"><ele>45.5</ele><time>2026-04-26T08:52:43.334Z</time></trkpt><trkpt lat="42.2269785" lon="14.5372279"><ele>46.25</ele><time>2026-04-26T08:52:44.334Z</time></trkpt><trkpt lat="42.2268526" lon="14.5371881"><ele>47.0</ele><time>2026-04-26T08:52:45.335Z</time></trkpt><trkpt lat="42.2267306" lon="14.5371514"><ele>47.0</ele><time>2026-04-26T08:52:46.335Z</time></trkpt><trkpt lat="42.2266237" lon="14.5371203"><ele>47.0</ele><time>2026-04-26T08:52:47.334Z</time></trkpt><trkpt lat="42.2265115" lon="14.5371258"><ele>47.0</ele><time>2026-04-26T08:52:48.335Z</time></trkpt><trkpt lat="42.2264008" lon="14.5371533"><ele>47.0</ele><time>2026-04-26T08:52:49.335Z</time></trkpt><trkpt lat="42.2262964" lon="14.5372444"><ele>47.25</ele><time>2026-04-26T08:52:50.335Z</time></trkpt><trkpt lat="42.226193" lon="14.5373361"><ele>47.5</ele><time>2026-04-26T08:52:51.334Z</time></trkpt><trkpt lat="42.2260848" lon="14.5374042"><ele>47.75</ele><time>2026-04-26T08:52:52.336Z</time></trkpt><trkpt lat="42.2259555" lon="14.5374548"><ele>48.0</ele><time>2026-04-26T08:52:53.334Z</time></trkpt><trkpt lat="42.2258223" lon="14.5375046"><ele>48.0</ele><time>2026-04-26T08:52:54.335Z</time></trkpt><trkpt lat="42.22569" lon="14.5375422"><ele>48.0</ele><time>2026-04-26T08:52:55.335Z</time></trkpt><trkpt lat="42.2255653" lon="14.5375676"><ele>48.0</ele><time>2026-04-26T08:52:56.334Z</time></trkpt><trkpt lat="42.2254432" lon="14.5375748"><ele>48.0</ele><time>2026-04-26T08:52:57.335Z</time></trkpt><trkpt lat="42.225306" lon="14.5375726"><ele>49.0</ele><time>2026-04-26T08:52:58.335Z</time></trkpt><trkpt lat="42.2251686" lon="14.5375666"><ele>50.0</ele><time>2026-04-26T08:52:59.336Z</time></trkpt><trkpt lat="42.2250374" lon="14.5375674"><ele>51.0</ele><time>2026-04-26T08:53:00.335Z</time></trkpt><trkpt lat="42.2249192" lon="14.5375652"><ele>52.0</ele><time>2026-04-26T08:53:01.335Z</time></trkpt><trkpt lat="42.2247932" lon="14.5375612"><ele>53.75</ele><time>2026-04-26T08:53:02.335Z</time></trkpt><trkpt lat="42.2246846" lon="14.5375199"><ele>55.5</ele><time>2026-04-26T08:53:03.334Z</time></trkpt><trkpt lat="42.2245704" lon="14.5374899"><ele>57.25</ele><time>2026-04-26T08:53:04.336Z</time></trkpt><trkpt lat="42.2244961" lon="14.5373601"><ele>59.0</ele><time>2026-04-26T08:53:05.334Z</time></trkpt><trkpt lat="42.2244112" lon="14.5372452"><ele>59.0</ele><time>2026-04-26T08:53:06.335Z</time></trkpt><trkpt lat="42.2243586" lon="14.5371019"><ele>59.0</ele><time>2026-04-26T08:53:07.335Z</time></trkpt><trkpt lat="42.2242979" lon="14.5369599"><ele>59.0</ele><time>2026-04-26T08:53:08.335Z</time></trkpt><trkpt lat="42.224293" lon="14.5368011"><ele>59.0</ele><time>2026-04-26T08:53:09.336Z</time></trkpt><trkpt lat="42.2242443" lon="14.5366733"><ele>60.2</ele><time>2026-04-26T08:53:10.336Z</time></trkpt><trkpt lat="42.2241808" lon="14.536557"><ele>61.400000000000006</ele><time>2026-04-26T08:53:11.335Z</time></trkpt><trkpt lat="42.2241003" lon="14.5364641"><ele>62.6</ele><time>2026-04-26T08:53:12.334Z</time></trkpt><trkpt lat="42.2240012" lon="14.5364046"><ele>63.8</ele><time>2026-04-26T08:53:13.335Z</time></trkpt><trkpt lat="42.2238921" lon="14.5363747"><ele>65.0</ele><time>2026-04-26T08:53:14.334Z</time></trkpt><trkpt lat="42.2237739" lon="14.5363547"><ele>65.0</ele><time>2026-04-26T08:53:15.335Z</time></trkpt><trkpt lat="42.2236526" lon="14.5363324"><ele>65.0</ele><time>2026-04-26T08:53:16.336Z</time></trkpt><trkpt lat="42.2235283" lon="14.5363024"><ele>65.0</ele><time>2026-04-26T08:53:17.335Z</time></trkpt><trkpt lat="42.2234031" lon="14.5362599"><ele>65.0</ele><time>2026-04-26T08:53:18.335Z</time></trkpt><trkpt lat="42.2232699" lon="14.536205"><ele>64.0</ele><time>2026-04-26T08:53:19.335Z</time></trkpt><trkpt lat="42.2231388" lon="14.536137"><ele>63.0</ele><time>2026-04-26T08:53:20.335Z</time></trkpt><trkpt lat="42.2230156" lon="14.5360635"><ele>62.0</ele><time>2026-04-26T08:53:21.336Z</time></trkpt><trkpt lat="42.2228926" lon="14.5359766"><ele>61.0</ele><time>2026-04-26T08:53:22.336Z</time></trkpt><trkpt lat="42.2227746" lon="14.5358656"><ele>61.0</ele><time>2026-04-26T08:53:23.334Z</time></trkpt><trkpt lat="42.2226665" lon="14.5357433"><ele>61.0</ele><time>2026-04-26T08:53:24.335Z</time></trkpt><trkpt lat="42.2225597" lon="14.535599"><ele>61.0</ele><time>2026-04-26T08:53:25.335Z</time></trkpt><trkpt lat="42.2224418" lon="14.5354509"><ele>61.0</ele><time>2026-04-26T08:53:26.336Z</time></trkpt><trkpt lat="42.2223377" lon="14.5353117"><ele>61.0</ele><time>2026-04-26T08:53:27.335Z</time></trkpt><trkpt lat="42.2222326" lon="14.5351855"><ele>61.0</ele><time>2026-04-26T08:53:28.334Z</time></trkpt><trkpt lat="42.222123" lon="14.5350634"><ele>61.0</ele><time>2026-04-26T08:53:29.335Z</time></trkpt><trkpt lat="42.222008" lon="14.5349516"><ele>61.0</ele><time>2026-04-26T08:53:30.335Z</time></trkpt><trkpt lat="42.2218882" lon="14.5348566"><ele>61.0</ele><time>2026-04-26T08:53:31.335Z</time></trkpt><trkpt lat="42.2217629" lon="14.5347786"><ele>61.0</ele><time>2026-04-26T08:53:32.335Z</time></trkpt><trkpt lat="42.2216354" lon="14.5347153"><ele>61.0</ele><time>2026-04-26T08:53:33.335Z</time></trkpt><trkpt lat="42.2215132" lon="14.5346617"><ele>61.75</ele><time>2026-04-26T08:53:34.335Z</time></trkpt><trkpt lat="42.2213973" lon="14.5346044"><ele>62.5</ele><time>2026-04-26T08:53:35.335Z</time></trkpt><trkpt lat="42.2212875" lon="14.5345283"><ele>63.25</ele><time>2026-04-26T08:53:36.335Z</time></trkpt><trkpt lat="42.2211899" lon="14.5344248"><ele>64.0</ele><time>2026-04-26T08:53:37.335Z</time></trkpt><trkpt lat="42.2211109" lon="14.5342932"><ele>64.0</ele><time>2026-04-26T08:53:38.335Z</time></trkpt><trkpt lat="42.2210539" lon="14.5341472"><ele>64.0</ele><time>2026-04-26T08:53:39.335Z</time></trkpt><trkpt lat="42.2209981" lon="14.5339952"><ele>64.0</ele><time>2026-04-26T08:53:40.335Z</time></trkpt><trkpt lat="42.2209273" lon="14.533848"><ele>64.0</ele><time>2026-04-26T08:53:41.335Z</time></trkpt><trkpt lat="42.2208321" lon="14.5337056"><ele>64.0</ele><time>2026-04-26T08:53:42.334Z</time></trkpt><trkpt lat="42.2207234" lon="14.5335632"><ele>64.0</ele><time>2026-04-26T08:53:43.334Z</time></trkpt><trkpt lat="42.2205937" lon="14.5334454"><ele>64.0</ele><time>2026-04-26T08:53:44.335Z</time></trkpt><trkpt lat="42.2204749" lon="14.5333247"><ele>64.0</ele><time>2026-04-26T08:53:45.335Z</time></trkpt><trkpt lat="42.2203821" lon="14.5331915"><ele>64.0</ele><time>2026-04-26T08:53:46.334Z</time></trkpt><trkpt lat="42.2203037" lon="14.5330483"><ele>64.0</ele><time>2026-04-26T08:53:47.335Z</time></trkpt><trkpt lat="42.2202301" lon="14.5329089"><ele>64.0</ele><time>2026-04-26T08:53:48.335Z</time></trkpt><trkpt lat="42.2201578" lon="14.5327756"><ele>61.5</ele><time>2026-04-26T08:53:49.336Z</time></trkpt><trkpt lat="42.2200608" lon="14.532679"><ele>59.0</ele><time>2026-04-26T08:53:50.334Z</time></trkpt><trkpt lat="42.2199721" lon="14.5325725"><ele>56.5</ele><time>2026-04-26T08:53:51.336Z</time></trkpt><trkpt lat="42.2198592" lon="14.5325333"><ele>54.0</ele><time>2026-04-26T08:53:52.336Z</time></trkpt><trkpt lat="42.2197479" lon="14.5324994"><ele>54.0</ele><time>2026-04-26T08:53:53.335Z</time></trkpt><trkpt lat="42.2196309" lon="14.5324859"><ele>54.0</ele><time>2026-04-26T08:53:54.335Z</time></trkpt><trkpt lat="42.2195138" lon="14.5324863"><ele>54.0</ele><time>2026-04-26T08:53:55.335Z</time></trkpt><trkpt lat="42.2193925" lon="14.5324678"><ele>54.0</ele><time>2026-04-26T08:53:56.334Z</time></trkpt><trkpt lat="42.2192658" lon="14.5324215"><ele>54.0</ele><time>2026-04-26T08:53:57.335Z</time></trkpt><trkpt lat="42.2191378" lon="14.5323547"><ele>54.0</ele><time>2026-04-26T08:53:58.335Z</time></trkpt><trkpt lat="42.2190052" lon="14.5322602"><ele>54.0</ele><time>2026-04-26T08:53:59.335Z</time></trkpt><trkpt lat="42.2188705" lon="14.5321578"><ele>54.0</ele><time>2026-04-26T08:54:00.335Z</time></trkpt><trkpt lat="42.2187361" lon="14.5320612"><ele>52.25</ele><time>2026-04-26T08:54:01.336Z</time></trkpt><trkpt lat="42.2186058" lon="14.5319776"><ele>50.5</ele><time>2026-04-26T08:54:02.335Z</time></trkpt><trkpt lat="42.2184701" lon="14.531905"><ele>48.75</ele><time>2026-04-26T08:54:03.336Z</time></trkpt><trkpt lat="42.2183384" lon="14.531843"><ele>47.0</ele><time>2026-04-26T08:54:04.335Z</time></trkpt><trkpt lat="42.2182098" lon="14.5317952"><ele>49.0</ele><time>2026-04-26T08:54:05.335Z</time></trkpt><trkpt lat="42.2180865" lon="14.5317683"><ele>51.0</ele><time>2026-04-26T08:54:06.334Z</time></trkpt><trkpt lat="42.2179588" lon="14.5317534"><ele>53.0</ele><time>2026-04-26T08:54:07.335Z</time></trkpt><trkpt lat="42.2178318" lon="14.5317499"><ele>55.0</ele><time>2026-04-26T08:54:08.334Z</time></trkpt><trkpt lat="42.2177161" lon="14.5317515"><ele>55.0</ele><time>2026-04-26T08:54:09.335Z</time></trkpt><trkpt lat="42.2176086" lon="14.5317378"><ele>55.0</ele><time>2026-04-26T08:54:10.335Z</time></trkpt><trkpt lat="42.2175152" lon="14.5317029"><ele>55.0</ele><time>2026-04-26T08:54:11.335Z</time></trkpt><trkpt lat="42.2174344" lon="14.5316465"><ele>55.0</ele><time>2026-04-26T08:54:12.336Z</time></trkpt><trkpt lat="42.217359" lon="14.5315613"><ele>55.0</ele><time>2026-04-26T08:54:13.335Z</time></trkpt><trkpt lat="42.2172969" lon="14.5314422"><ele>54.4</ele><time>2026-04-26T08:54:14.335Z</time></trkpt><trkpt lat="42.2172529" lon="14.5312987"><ele>53.8</ele><time>2026-04-26T08:54:15.336Z</time></trkpt><trkpt lat="42.217223" lon="14.5311548"><ele>53.2</ele><time>2026-04-26T08:54:16.336Z</time></trkpt><trkpt lat="42.2171879" lon="14.5310202"><ele>52.6</ele><time>2026-04-26T08:54:17.336Z</time></trkpt><trkpt lat="42.2171281" lon="14.5308865"><ele>52.0</ele><time>2026-04-26T08:54:18.335Z</time></trkpt><trkpt lat="42.2170446" lon="14.5307543"><ele>52.0</ele><time>2026-04-26T08:54:19.335Z</time></trkpt><trkpt lat="42.2169384" lon="14.5306288"><ele>52.0</ele><time>2026-04-26T08:54:20.335Z</time></trkpt><trkpt lat="42.2168227" lon="14.5305131"><ele>52.0</ele><time>2026-04-26T08:54:21.335Z</time></trkpt><trkpt lat="42.2167099" lon="14.5304035"><ele>52.0</ele><time>2026-04-26T08:54:22.335Z</time></trkpt><trkpt lat="42.2165898" lon="14.5303105"><ele>51.75</ele><time>2026-04-26T08:54:23.334Z</time></trkpt><trkpt lat="42.2164645" lon="14.5302305"><ele>51.5</ele><time>2026-04-26T08:54:24.336Z</time></trkpt><trkpt lat="42.2163493" lon="14.5301574"><ele>51.25</ele><time>2026-04-26T08:54:25.335Z</time></trkpt><trkpt lat="42.2162412" lon="14.5300858"><ele>51.0</ele><time>2026-04-26T08:54:26.335Z</time></trkpt><trkpt lat="42.216139" lon="14.5300179"><ele>51.0</ele><time>2026-04-26T08:54:27.335Z</time></trkpt><trkpt lat="42.2160447" lon="14.5299353"><ele>51.0</ele><time>2026-04-26T08:54:28.335Z</time></trkpt><trkpt lat="42.2159731" lon="14.529811"><ele>51.0</ele><time>2026-04-26T08:54:29.334Z</time></trkpt><trkpt lat="42.2159147" lon="14.5296815"><ele>51.0</ele><time>2026-04-26T08:54:30.335Z</time></trkpt><trkpt lat="42.2158593" lon="14.5295674"><ele>51.0</ele><time>2026-04-26T08:54:31.334Z</time></trkpt><trkpt lat="42.2157909" lon="14.529474"><ele>49.599999999999994</ele><time>2026-04-26T08:54:32.335Z</time></trkpt><trkpt lat="42.2157096" lon="14.5294041"><ele>48.2</ele><time>2026-04-26T08:54:33.334Z</time></trkpt><trkpt lat="42.2156176" lon="14.5293645"><ele>46.8</ele><time>2026-04-26T08:54:34.335Z</time></trkpt><trkpt lat="42.2155093" lon="14.5293526"><ele>45.400000000000006</ele><time>2026-04-26T08:54:35.335Z</time></trkpt><trkpt lat="42.2154016" lon="14.5293604"><ele>44.0</ele><time>2026-04-26T08:54:36.334Z</time></trkpt><trkpt lat="42.2152934" lon="14.529367"><ele>44.0</ele><time>2026-04-26T08:54:37.335Z</time></trkpt><trkpt lat="42.2151801" lon="14.5293552"><ele>44.0</ele><time>2026-04-26T08:54:38.335Z</time></trkpt><trkpt lat="42.2150596" lon="14.5293227"><ele>44.0</ele><time>2026-04-26T08:54:39.335Z</time></trkpt><trkpt lat="42.2149312" lon="14.529261"><ele>44.0</ele><time>2026-04-26T08:54:40.334Z</time></trkpt><trkpt lat="42.2148139" lon="14.5291883"><ele>46.75</ele><time>2026-04-26T08:54:41.334Z</time></trkpt><trkpt lat="42.2147078" lon="14.5291021"><ele>49.5</ele><time>2026-04-26T08:54:42.335Z</time></trkpt><trkpt lat="42.2146116" lon="14.529007"><ele>52.25</ele><time>2026-04-26T08:54:43.335Z</time></trkpt><trkpt lat="42.2145287" lon="14.5289026"><ele>55.0</ele><time>2026-04-26T08:54:44.336Z</time></trkpt><trkpt lat="42.2144654" lon="14.5287804"><ele>53.2</ele><time>2026-04-26T08:54:45.335Z</time></trkpt><trkpt lat="42.2144182" lon="14.5286481"><ele>51.4</ele><time>2026-04-26T08:54:46.335Z</time></trkpt><trkpt lat="42.2143878" lon="14.5285007"><ele>49.599999999999994</ele><time>2026-04-26T08:54:47.335Z</time></trkpt><trkpt lat="42.2143675" lon="14.5283488"><ele>47.8</ele><time>2026-04-26T08:54:48.335Z</time></trkpt><trkpt lat="42.2143391" lon="14.5282032"><ele>46.0</ele><time>2026-04-26T08:54:49.335Z</time></trkpt><trkpt lat="42.2143012" lon="14.5280635"><ele>46.0</ele><time>2026-04-26T08:54:50.334Z</time></trkpt><trkpt lat="42.2142462" lon="14.5279369"><ele>46.0</ele><time>2026-04-26T08:54:51.334Z</time></trkpt><trkpt lat="42.2141743" lon="14.5278256"><ele>46.0</ele><time>2026-04-26T08:54:52.335Z</time></trkpt><trkpt lat="42.2140848" lon="14.5277307"><ele>46.0</ele><time>2026-04-26T08:54:53.334Z</time></trkpt><trkpt lat="42.2139799" lon="14.5276407"><ele>46.25</ele><time>2026-04-26T08:54:54.335Z</time></trkpt><trkpt lat="42.2138672" lon="14.5275547"><ele>46.5</ele><time>2026-04-26T08:54:55.335Z</time></trkpt><trkpt lat="42.2137514" lon="14.5274706"><ele>46.75</ele><time>2026-04-26T08:54:56.335Z</time></trkpt><trkpt lat="42.2136459" lon="14.5273889"><ele>47.0</ele><time>2026-04-26T08:54:57.335Z</time></trkpt><trkpt lat="42.2135565" lon="14.5272997"><ele>47.0</ele><time>2026-04-26T08:54:58.334Z</time></trkpt><trkpt lat="42.2134907" lon="14.5272101"><ele>47.0</ele><time>2026-04-26T08:54:59.334Z</time></trkpt><trkpt lat="42.21344" lon="14.527109"><ele>47.0</ele><time>2026-04-26T08:55:00.335Z</time></trkpt><trkpt lat="42.2134024" lon="14.5270139"><ele>47.0</ele><time>2026-04-26T08:55:01.335Z</time></trkpt><trkpt lat="42.2133756" lon="14.5269301"><ele>47.0</ele><time>2026-04-26T08:55:02.335Z</time></trkpt><trkpt lat="42.2133382" lon="14.5268565"><ele>47.0</ele><time>2026-04-26T08:55:03.336Z</time></trkpt><trkpt lat="42.213282" lon="14.526789"><ele>47.0</ele><time>2026-04-26T08:55:04.334Z</time></trkpt><trkpt lat="42.2132294" lon="14.5267139"><ele>47.0</ele><time>2026-04-26T08:55:05.336Z</time></trkpt><trkpt lat="42.2131874" lon="14.526606"><ele>47.0</ele><time>2026-04-26T08:55:06.335Z</time></trkpt><trkpt lat="42.2131536" lon="14.526489"><ele>47.0</ele><time>2026-04-26T08:55:07.335Z</time></trkpt><trkpt lat="42.2131171" lon="14.5263793"><ele>47.0</ele><time>2026-04-26T08:55:08.335Z</time></trkpt><trkpt lat="42.2130632" lon="14.5262798"><ele>47.0</ele><time>2026-04-26T08:55:09.335Z</time></trkpt><trkpt lat="42.2129846" lon="14.5262002"><ele>47.0</ele><time>2026-04-26T08:55:10.336Z</time></trkpt><trkpt lat="42.2128888" lon="14.5261323"><ele>47.0</ele><time>2026-04-26T08:55:11.335Z</time></trkpt><trkpt lat="42.2127838" lon="14.5260749"><ele>47.0</ele><time>2026-04-26T08:55:12.334Z</time></trkpt><trkpt lat="42.212689" lon="14.5260043"><ele>47.0</ele><time>2026-04-26T08:55:13.334Z</time></trkpt><trkpt lat="42.2126007" lon="14.5259081"><ele>47.0</ele><time>2026-04-26T08:55:14.335Z</time></trkpt><trkpt lat="42.2125282" lon="14.5257896"><ele>47.0</ele><time>2026-04-26T08:55:15.334Z</time></trkpt><trkpt lat="42.2124504" lon="14.5256787"><ele>47.0</ele><time>2026-04-26T08:55:16.336Z</time></trkpt><trkpt lat="42.2123852" lon="14.5255874"><ele>47.0</ele><time>2026-04-26T08:55:17.335Z</time></trkpt><trkpt lat="42.2122995" lon="14.525521"><ele>47.0</ele><time>2026-04-26T08:55:18.335Z</time></trkpt><trkpt lat="42.2121989" lon="14.5254853"><ele>47.0</ele><time>2026-04-26T08:55:19.335Z</time></trkpt><trkpt lat="42.2120932" lon="14.5254882"><ele>48.25</ele><time>2026-04-26T08:55:20.335Z</time></trkpt><trkpt lat="42.2119742" lon="14.525519"><ele>49.5</ele><time>2026-04-26T08:55:21.335Z</time></trkpt><trkpt lat="42.2118487" lon="14.5255528"><ele>50.75</ele><time>2026-04-26T08:55:22.335Z</time></trkpt><trkpt lat="42.2117238" lon="14.5255844"><ele>52.0</ele><time>2026-04-26T08:55:23.335Z</time></trkpt><trkpt lat="42.2116072" lon="14.5256168"><ele>52.0</ele><time>2026-04-26T08:55:24.335Z</time></trkpt><trkpt lat="42.2114927" lon="14.5256364"><ele>52.0</ele><time>2026-04-26T08:55:25.336Z</time></trkpt><trkpt lat="42.2113751" lon="14.5256383"><ele>52.0</ele><time>2026-04-26T08:55:26.335Z</time></trkpt><trkpt lat="42.2112572" lon="14.5256043"><ele>52.0</ele><time>2026-04-26T08:55:27.334Z</time></trkpt><trkpt lat="42.2111462" lon="14.5255236"><ele>52.25</ele><time>2026-04-26T08:55:28.334Z</time></trkpt><trkpt lat="42.211038" lon="14.5254135"><ele>52.5</ele><time>2026-04-26T08:55:29.335Z</time></trkpt><trkpt lat="42.2109355" lon="14.5252994"><ele>52.75</ele><time>2026-04-26T08:55:30.334Z</time></trkpt><trkpt lat="42.2108299" lon="14.5252195"><ele>53.0</ele><time>2026-04-26T08:55:31.335Z</time></trkpt><trkpt lat="42.210704" lon="14.5251628"><ele>53.5</ele><time>2026-04-26T08:55:32.335Z</time></trkpt><trkpt lat="42.210575" lon="14.5251266"><ele>54.0</ele><time>2026-04-26T08:55:33.336Z</time></trkpt><trkpt lat="42.2104636" lon="14.5250975"><ele>54.5</ele><time>2026-04-26T08:55:34.336Z</time></trkpt><trkpt lat="42.2103557" lon="14.5250672"><ele>55.0</ele><time>2026-04-26T08:55:35.334Z</time></trkpt><trkpt lat="42.2102514" lon="14.5250143"><ele>55.0</ele><time>2026-04-26T08:55:36.335Z</time></trkpt><trkpt lat="42.2101513" lon="14.5249386"><ele>55.0</ele><time>2026-04-26T08:55:37.335Z</time></trkpt><trkpt lat="42.2100565" lon="14.5248364"><ele>55.0</ele><time>2026-04-26T08:55:38.334Z</time></trkpt><trkpt lat="42.2099588" lon="14.5247246"><ele>55.0</ele><time>2026-04-26T08:55:39.336Z</time></trkpt><trkpt lat="42.2098519" lon="14.5246175"><ele>55.33333333333333</ele><time>2026-04-26T08:55:40.335Z</time></trkpt><trkpt lat="42.2097277" lon="14.5245244"><ele>55.66666666666667</ele><time>2026-04-26T08:55:41.335Z</time></trkpt><trkpt lat="42.2095878" lon="14.5244439"><ele>56.0</ele><time>2026-04-26T08:55:42.335Z</time></trkpt><trkpt lat="42.2094294" lon="14.5243733"><ele>56.0</ele><time>2026-04-26T08:55:43.335Z</time></trkpt><trkpt lat="42.2092667" lon="14.5243047"><ele>56.0</ele><time>2026-04-26T08:55:44.335Z</time></trkpt><trkpt lat="42.2091075" lon="14.5242317"><ele>56.0</ele><time>2026-04-26T08:55:45.335Z</time></trkpt><trkpt lat="42.2089463" lon="14.5241607"><ele>58.0</ele><time>2026-04-26T08:55:46.335Z</time></trkpt><trkpt lat="42.2087854" lon="14.5240962"><ele>60.0</ele><time>2026-04-26T08:55:47.336Z</time></trkpt><trkpt lat="42.2086239" lon="14.5240257"><ele>62.0</ele><time>2026-04-26T08:55:48.335Z</time></trkpt><trkpt lat="42.2084643" lon="14.5239475"><ele>62.0</ele><time>2026-04-26T08:55:49.335Z</time></trkpt><trkpt lat="42.2083088" lon="14.5238664"><ele>62.0</ele><time>2026-04-26T08:55:50.335Z</time></trkpt><trkpt lat="42.2081648" lon="14.523788"><ele>62.0</ele><time>2026-04-26T08:55:51.335Z</time></trkpt><trkpt lat="42.2080334" lon="14.5237135"><ele>61.75</ele><time>2026-04-26T08:55:52.334Z</time></trkpt><trkpt lat="42.2079128" lon="14.5236484"><ele>61.5</ele><time>2026-04-26T08:55:53.335Z</time></trkpt><trkpt lat="42.2077951" lon="14.5235951"><ele>61.25</ele><time>2026-04-26T08:55:54.334Z</time></trkpt><trkpt lat="42.2076643" lon="14.5235698"><ele>61.0</ele><time>2026-04-26T08:55:55.335Z</time></trkpt><trkpt lat="42.2075404" lon="14.5235618"><ele>61.0</ele><time>2026-04-26T08:55:56.335Z</time></trkpt><trkpt lat="42.207418" lon="14.5235736"><ele>61.0</ele><time>2026-04-26T08:55:57.335Z</time></trkpt><trkpt lat="42.2073018" lon="14.5235985"><ele>61.0</ele><time>2026-04-26T08:55:58.335Z</time></trkpt><trkpt lat="42.2071814" lon="14.5236371"><ele>61.0</ele><time>2026-04-26T08:55:59.335Z</time></trkpt><trkpt lat="42.2070669" lon="14.5236988"><ele>63.199999999999996</ele><time>2026-04-26T08:56:00.335Z</time></trkpt><trkpt lat="42.2069584" lon="14.5237679"><ele>65.39999999999999</ele><time>2026-04-26T08:56:01.334Z</time></trkpt><trkpt lat="42.2068655" lon="14.5238298"><ele>67.6</ele><time>2026-04-26T08:56:02.335Z</time></trkpt><trkpt lat="42.2067793" lon="14.5238753"><ele>69.8</ele><time>2026-04-26T08:56:03.335Z</time></trkpt><trkpt lat="42.2066902" lon="14.523904"><ele>72.0</ele><time>2026-04-26T08:56:04.335Z</time></trkpt><trkpt lat="42.2065965" lon="14.5239035"><ele>72.0</ele><time>2026-04-26T08:56:05.335Z</time></trkpt><trkpt lat="42.206503" lon="14.5238689"><ele>72.0</ele><time>2026-04-26T08:56:06.335Z</time></trkpt><trkpt lat="42.2064076" lon="14.523802"><ele>72.0</ele><time>2026-04-26T08:56:07.334Z</time></trkpt><trkpt lat="42.2063102" lon="14.523707"><ele>72.0</ele><time>2026-04-26T08:56:08.335Z</time></trkpt><trkpt lat="42.2062048" lon="14.5236011"><ele>72.5</ele><time>2026-04-26T08:56:09.335Z</time></trkpt><trkpt lat="42.2060921" lon="14.5234935"><ele>73.0</ele><time>2026-04-26T08:56:10.335Z</time></trkpt><trkpt lat="42.2059719" lon="14.5233777"><ele>73.5</ele><time>2026-04-26T08:56:11.336Z</time></trkpt><trkpt lat="42.2058483" lon="14.5232569"><ele>74.0</ele><time>2026-04-26T08:56:12.334Z</time></trkpt><trkpt lat="42.2057265" lon="14.523131"><ele>75.0</ele><time>2026-04-26T08:56:13.336Z</time></trkpt><trkpt lat="42.2056146" lon="14.5230221"><ele>76.0</ele><time>2026-04-26T08:56:14.335Z</time></trkpt><trkpt lat="42.2055168" lon="14.5229266"><ele>77.0</ele><time>2026-04-26T08:56:15.334Z</time></trkpt><trkpt lat="42.2054314" lon="14.5228418"><ele>78.0</ele><time>2026-04-26T08:56:16.335Z</time></trkpt><trkpt lat="42.2053618" lon="14.5227787"><ele>79.0</ele><time>2026-04-26T08:56:17.334Z</time></trkpt><trkpt lat="42.2052953" lon="14.5227341"><ele>79.0</ele><time>2026-04-26T08:56:18.336Z</time></trkpt><trkpt lat="42.2052281" lon="14.5227192"><ele>79.0</ele><time>2026-04-26T08:56:19.334Z</time></trkpt><trkpt lat="42.2051344" lon="14.5228014"><ele>79.0</ele><time>2026-04-26T08:56:21.336Z</time></trkpt><trkpt lat="42.2051193" lon="14.5228898"><ele>79.0</ele><time>2026-04-26T08:56:22.335Z</time></trkpt><trkpt lat="42.2051359" lon="14.5229953"><ele>79.0</ele><time>2026-04-26T08:56:23.335Z</time></trkpt><trkpt lat="42.205177" lon="14.5231163"><ele>79.0</ele><time>2026-04-26T08:56:24.335Z</time></trkpt><trkpt lat="42.2052391" lon="14.5232599"><ele>81.0</ele><time>2026-04-26T08:56:25.335Z</time></trkpt><trkpt lat="42.2053088" lon="14.5234168"><ele>83.0</ele><time>2026-04-26T08:56:26.335Z</time></trkpt><trkpt lat="42.2053843" lon="14.5235637"><ele>85.0</ele><time>2026-04-26T08:56:27.335Z</time></trkpt><trkpt lat="42.2054679" lon="14.5237104"><ele>87.0</ele><time>2026-04-26T08:56:28.335Z</time></trkpt><trkpt lat="42.2055421" lon="14.5238405"><ele>85.25</ele><time>2026-04-26T08:56:29.335Z</time></trkpt><trkpt lat="42.2056076" lon="14.5239565"><ele>83.5</ele><time>2026-04-26T08:56:30.335Z</time></trkpt><trkpt lat="42.2056541" lon="14.5240824"><ele>81.75</ele><time>2026-04-26T08:56:31.335Z</time></trkpt><trkpt lat="42.2056872" lon="14.5242279"><ele>80.0</ele><time>2026-04-26T08:56:32.335Z</time></trkpt><trkpt lat="42.2057025" lon="14.5244037"><ele>82.66666666666667</ele><time>2026-04-26T08:56:33.335Z</time></trkpt><trkpt lat="42.2057053" lon="14.524604"><ele>85.33333333333333</ele><time>2026-04-26T08:56:34.334Z</time></trkpt><trkpt lat="42.2057019" lon="14.5248185"><ele>88.0</ele><time>2026-04-26T08:56:35.334Z</time></trkpt><trkpt lat="42.2056985" lon="14.5250179"><ele>88.0</ele><time>2026-04-26T08:56:36.334Z</time></trkpt><trkpt lat="42.2056959" lon="14.5252188"><ele>88.0</ele><time>2026-04-26T08:56:37.334Z</time></trkpt><trkpt lat="42.2056904" lon="14.5254101"><ele>88.0</ele><time>2026-04-26T08:56:38.334Z</time></trkpt><trkpt lat="42.2056883" lon="14.5255953"><ele>88.0</ele><time>2026-04-26T08:56:39.335Z</time></trkpt><trkpt lat="42.2056834" lon="14.5257767"><ele>91.66666666666666</ele><time>2026-04-26T08:56:40.335Z</time></trkpt><trkpt lat="42.2056821" lon="14.5259713"><ele>95.33333333333333</ele><time>2026-04-26T08:56:41.336Z</time></trkpt><trkpt lat="42.2056841" lon="14.5261772"><ele>99.0</ele><time>2026-04-26T08:56:42.335Z</time></trkpt><trkpt lat="42.2056841" lon="14.526391"><ele>100.66666666666666</ele><time>2026-04-26T08:56:43.336Z</time></trkpt><trkpt lat="42.205682" lon="14.5266081"><ele>102.33333333333333</ele><time>2026-04-26T08:56:44.335Z</time></trkpt><trkpt lat="42.205681" lon="14.5268156"><ele>104.0</ele><time>2026-04-26T08:56:45.335Z</time></trkpt><trkpt lat="42.20568" lon="14.5270184"><ele>104.0</ele><time>2026-04-26T08:56:46.334Z</time></trkpt><trkpt lat="42.2056795" lon="14.5272141"><ele>104.0</ele><time>2026-04-26T08:56:47.335Z</time></trkpt><trkpt lat="42.205682" lon="14.5274119"><ele>104.0</ele><time>2026-04-26T08:56:48.335Z</time></trkpt><trkpt lat="42.2056862" lon="14.5276126"><ele>104.0</ele><time>2026-04-26T08:56:49.335Z</time></trkpt><trkpt lat="42.2056922" lon="14.5278171"><ele>103.0</ele><time>2026-04-26T08:56:50.335Z</time></trkpt><trkpt lat="42.2057019" lon="14.5280285"><ele>102.0</ele><time>2026-04-26T08:56:51.335Z</time></trkpt><trkpt lat="42.2057101" lon="14.5282364"><ele>101.0</ele><time>2026-04-26T08:56:52.334Z</time></trkpt><trkpt lat="42.2057136" lon="14.5284409"><ele>101.0</ele><time>2026-04-26T08:56:53.334Z</time></trkpt><trkpt lat="42.2057106" lon="14.5286499"><ele>101.0</ele><time>2026-04-26T08:56:54.335Z</time></trkpt><trkpt lat="42.2057038" lon="14.5288573"><ele>101.0</ele><time>2026-04-26T08:56:55.334Z</time></trkpt><trkpt lat="42.2056936" lon="14.5290629"><ele>100.25</ele><time>2026-04-26T08:56:56.335Z</time></trkpt><trkpt lat="42.2056847" lon="14.5292639"><ele>99.5</ele><time>2026-04-26T08:56:57.336Z</time></trkpt><trkpt lat="42.2056683" lon="14.5294459"><ele>98.75</ele><time>2026-04-26T08:56:58.335Z</time></trkpt><trkpt lat="42.2056529" lon="14.529619"><ele>98.0</ele><time>2026-04-26T08:56:59.335Z</time></trkpt><trkpt lat="42.2056317" lon="14.529795"><ele>93.0</ele><time>2026-04-26T08:57:00.335Z</time></trkpt><trkpt lat="42.2055788" lon="14.5299925"><ele>88.0</ele><time>2026-04-26T08:57:01.335Z</time></trkpt><trkpt lat="42.2055111" lon="14.5301899"><ele>83.0</ele><time>2026-04-26T08:57:02.334Z</time></trkpt><trkpt lat="42.2054394" lon="14.5303973"><ele>82.33333333333334</ele><time>2026-04-26T08:57:03.335Z</time></trkpt><trkpt lat="42.2053777" lon="14.5306091"><ele>81.66666666666667</ele><time>2026-04-26T08:57:04.336Z</time></trkpt><trkpt lat="42.2053234" lon="14.5308264"><ele>81.0</ele><time>2026-04-26T08:57:05.335Z</time></trkpt><trkpt lat="42.2052755" lon="14.5310565"><ele>81.66666666666667</ele><time>2026-04-26T08:57:06.335Z</time></trkpt><trkpt lat="42.2052251" lon="14.5312883"><ele>82.33333333333334</ele><time>2026-04-26T08:57:07.335Z</time></trkpt><trkpt lat="42.2051767" lon="14.5315233"><ele>83.0</ele><time>2026-04-26T08:57:08.334Z</time></trkpt><trkpt lat="42.2051312" lon="14.531757"><ele>83.0</ele><time>2026-04-26T08:57:09.335Z</time></trkpt><trkpt lat="42.2050814" lon="14.5319822"><ele>83.0</ele><time>2026-04-26T08:57:10.335Z</time></trkpt><trkpt lat="42.2050282" lon="14.5321959"><ele>83.0</ele><time>2026-04-26T08:57:11.335Z</time></trkpt><trkpt lat="42.2049792" lon="14.532405"><ele>83.33333333333334</ele><time>2026-04-26T08:57:12.335Z</time></trkpt><trkpt lat="42.2049322" lon="14.5326087"><ele>83.66666666666667</ele><time>2026-04-26T08:57:13.335Z</time></trkpt><trkpt lat="42.2048927" lon="14.5328111"><ele>84.0</ele><time>2026-04-26T08:57:14.335Z</time></trkpt><trkpt lat="42.2048615" lon="14.5330188"><ele>83.0</ele><time>2026-04-26T08:57:15.336Z</time></trkpt><trkpt lat="42.2048361" lon="14.5332296"><ele>82.0</ele><time>2026-04-26T08:57:16.334Z</time></trkpt><trkpt lat="42.2048185" lon="14.533443"><ele>81.0</ele><time>2026-04-26T08:57:17.335Z</time></trkpt><trkpt lat="42.2048119" lon="14.5336503"><ele>79.5</ele><time>2026-04-26T08:57:18.335Z</time></trkpt><trkpt lat="42.2048125" lon="14.5338492"><ele>78.0</ele><time>2026-04-26T08:57:19.335Z</time></trkpt><trkpt lat="42.2048209" lon="14.5340409"><ele>76.5</ele><time>2026-04-26T08:57:20.336Z</time></trkpt><trkpt lat="42.2048376" lon="14.5342284"><ele>75.0</ele><time>2026-04-26T08:57:21.334Z</time></trkpt><trkpt lat="42.2048567" lon="14.5344101"><ele>73.25</ele><time>2026-04-26T08:57:22.335Z</time></trkpt><trkpt lat="42.2048837" lon="14.5345916"><ele>71.5</ele><time>2026-04-26T08:57:23.336Z</time></trkpt><trkpt lat="42.2049302" lon="14.5347821"><ele>69.75</ele><time>2026-04-26T08:57:24.335Z</time></trkpt><trkpt lat="42.204989" lon="14.5349822"><ele>68.0</ele><time>2026-04-26T08:57:25.336Z</time></trkpt><trkpt lat="42.2050462" lon="14.5351765"><ele>68.0</ele><time>2026-04-26T08:57:26.336Z</time></trkpt><trkpt lat="42.2051066" lon="14.535361"><ele>68.0</ele><time>2026-04-26T08:57:27.335Z</time></trkpt><trkpt lat="42.2051603" lon="14.5355359"><ele>68.0</ele><time>2026-04-26T08:57:28.335Z</time></trkpt><trkpt lat="42.2052126" lon="14.5357089"><ele>68.0</ele><time>2026-04-26T08:57:29.335Z</time></trkpt><trkpt lat="42.205256" lon="14.535877"><ele>66.75</ele><time>2026-04-26T08:57:30.335Z</time></trkpt><trkpt lat="42.2052985" lon="14.5360446"><ele>65.5</ele><time>2026-04-26T08:57:31.334Z</time></trkpt><trkpt lat="42.20534" lon="14.5362083"><ele>64.25</ele><time>2026-04-26T08:57:32.335Z</time></trkpt><trkpt lat="42.2053746" lon="14.5363498"><ele>63.0</ele><time>2026-04-26T08:57:33.335Z</time></trkpt><trkpt lat="42.205403" lon="14.5364793"><ele>62.666666666666664</ele><time>2026-04-26T08:57:34.336Z</time></trkpt><trkpt lat="42.2054273" lon="14.5366025"><ele>62.33333333333333</ele><time>2026-04-26T08:57:35.335Z</time></trkpt><trkpt lat="42.2054483" lon="14.5367227"><ele>62.0</ele><time>2026-04-26T08:57:36.335Z</time></trkpt><trkpt lat="42.2054748" lon="14.5368342"><ele>61.666666666666664</ele><time>2026-04-26T08:57:37.334Z</time></trkpt><trkpt lat="42.205503" lon="14.5369293"><ele>61.33333333333333</ele><time>2026-04-26T08:57:38.336Z</time></trkpt><trkpt lat="42.2055317" lon="14.5370124"><ele>61.0</ele><time>2026-04-26T08:57:39.335Z</time></trkpt><trkpt lat="42.205616" lon="14.5371179"><ele>60.99999999999999</ele><time>2026-04-26T08:57:41.335Z</time></trkpt><trkpt lat="42.2057281" lon="14.5370905"><ele>61.0</ele><time>2026-04-26T08:57:43.336Z</time></trkpt><trkpt lat="42.2057928" lon="14.5370597"><ele>61.0</ele><time>2026-04-26T08:57:44.335Z</time></trkpt><trkpt lat="42.2058706" lon="14.5370447"><ele>61.0</ele><time>2026-04-26T08:57:45.335Z</time></trkpt><trkpt lat="42.2059496" lon="14.5370574"><ele>60.99999999999999</ele><time>2026-04-26T08:57:46.335Z</time></trkpt><trkpt lat="42.2060231" lon="14.537106"><ele>61.0</ele><time>2026-04-26T08:57:47.335Z</time></trkpt><trkpt lat="42.2060844" lon="14.5371879"><ele>59.8</ele><time>2026-04-26T08:57:48.335Z</time></trkpt><trkpt lat="42.2061351" lon="14.5372968"><ele>58.599999999999994</ele><time>2026-04-26T08:57:49.334Z</time></trkpt><trkpt lat="42.2061787" lon="14.5374305"><ele>57.4</ele><time>2026-04-26T08:57:50.335Z</time></trkpt><trkpt lat="42.2062238" lon="14.5375804"><ele>56.2</ele><time>2026-04-26T08:57:51.335Z</time></trkpt><trkpt lat="42.2062701" lon="14.5377271"><ele>55.0</ele><time>2026-04-26T08:57:52.334Z</time></trkpt><trkpt lat="42.2063162" lon="14.5378802"><ele>54.25</ele><time>2026-04-26T08:57:53.336Z</time></trkpt><trkpt lat="42.2063611" lon="14.5380263"><ele>53.5</ele><time>2026-04-26T08:57:54.335Z</time></trkpt><trkpt lat="42.2064032" lon="14.5381653"><ele>52.75</ele><time>2026-04-26T08:57:55.334Z</time></trkpt><trkpt lat="42.2064467" lon="14.5383062"><ele>52.0</ele><time>2026-04-26T08:57:56.335Z</time></trkpt><trkpt lat="42.2064858" lon="14.5384503"><ele>52.5</ele><time>2026-04-26T08:57:57.335Z</time></trkpt><trkpt lat="42.2065323" lon="14.5386008"><ele>53.0</ele><time>2026-04-26T08:57:58.335Z</time></trkpt><trkpt lat="42.2065817" lon="14.5387555"><ele>53.5</ele><time>2026-04-26T08:57:59.336Z</time></trkpt><trkpt lat="42.2066357" lon="14.5389221"><ele>54.0</ele><time>2026-04-26T08:58:00.335Z</time></trkpt><trkpt lat="42.2066994" lon="14.539106"><ele>52.66666666666667</ele><time>2026-04-26T08:58:01.334Z</time></trkpt><trkpt lat="42.2067682" lon="14.5393168"><ele>51.333333333333336</ele><time>2026-04-26T08:58:02.335Z</time></trkpt><trkpt lat="42.2068249" lon="14.5395266"><ele>50.0</ele><time>2026-04-26T08:58:03.336Z</time></trkpt><trkpt lat="42.2068766" lon="14.5397293"><ele>48.66666666666667</ele><time>2026-04-26T08:58:04.335Z</time></trkpt><trkpt lat="42.2069367" lon="14.5399304"><ele>47.333333333333336</ele><time>2026-04-26T08:58:05.335Z</time></trkpt><trkpt lat="42.2070005" lon="14.5401324"><ele>46.0</ele><time>2026-04-26T08:58:06.335Z</time></trkpt><trkpt lat="42.2070725" lon="14.5403298"><ele>44.66666666666667</ele><time>2026-04-26T08:58:07.335Z</time></trkpt><trkpt lat="42.2071637" lon="14.5405232"><ele>43.333333333333336</ele><time>2026-04-26T08:58:08.335Z</time></trkpt><trkpt lat="42.2072684" lon="14.5407147"><ele>42.0</ele><time>2026-04-26T08:58:09.335Z</time></trkpt><trkpt lat="42.2073766" lon="14.5408985"><ele>42.0</ele><time>2026-04-26T08:58:10.335Z</time></trkpt><trkpt lat="42.2074854" lon="14.5410847"><ele>42.0</ele><time>2026-04-26T08:58:11.335Z</time></trkpt><trkpt lat="42.2075907" lon="14.541268"><ele>42.0</ele><time>2026-04-26T08:58:12.334Z</time></trkpt><trkpt lat="42.2076965" lon="14.5414523"><ele>41.0</ele><time>2026-04-26T08:58:13.335Z</time></trkpt><trkpt lat="42.2078031" lon="14.541639"><ele>40.0</ele><time>2026-04-26T08:58:14.334Z</time></trkpt><trkpt lat="42.2079079" lon="14.5418284"><ele>39.0</ele><time>2026-04-26T08:58:15.335Z</time></trkpt><trkpt lat="42.2080106" lon="14.5420106"><ele>38.666666666666664</ele><time>2026-04-26T08:58:16.335Z</time></trkpt><trkpt lat="42.2081168" lon="14.5421931"><ele>38.33333333333333</ele><time>2026-04-26T08:58:17.334Z</time></trkpt><trkpt lat="42.2082241" lon="14.5423765"><ele>38.0</ele><time>2026-04-26T08:58:18.335Z</time></trkpt><trkpt lat="42.2083315" lon="14.5425624"><ele>37.666666666666664</ele><time>2026-04-26T08:58:19.335Z</time></trkpt><trkpt lat="42.208436" lon="14.5427465"><ele>37.333333333333336</ele><time>2026-04-26T08:58:20.336Z</time></trkpt><trkpt lat="42.2085332" lon="14.542914"><ele>37.0</ele><time>2026-04-26T08:58:21.334Z</time></trkpt><trkpt lat="42.2086248" lon="14.5430695"><ele>37.0</ele><time>2026-04-26T08:58:22.335Z</time></trkpt><trkpt lat="42.2087119" lon="14.5432211"><ele>37.0</ele><time>2026-04-26T08:58:23.336Z</time></trkpt><trkpt lat="42.2087991" lon="14.543373"><ele>37.0</ele><time>2026-04-26T08:58:24.334Z</time></trkpt><trkpt lat="42.2088939" lon="14.5435357"><ele>37.0</ele><time>2026-04-26T08:58:25.335Z</time></trkpt><trkpt lat="42.2089879" lon="14.5437089"><ele>37.66666666666667</ele><time>2026-04-26T08:58:26.334Z</time></trkpt><trkpt lat="42.2090928" lon="14.5438907"><ele>38.333333333333336</ele><time>2026-04-26T08:58:27.335Z</time></trkpt><trkpt lat="42.209203" lon="14.5440775"><ele>39.0</ele><time>2026-04-26T08:58:28.334Z</time></trkpt><trkpt lat="42.2093191" lon="14.5442742"><ele>39.0</ele><time>2026-04-26T08:58:29.334Z</time></trkpt><trkpt lat="42.2094378" lon="14.5444887"><ele>39.0</ele><time>2026-04-26T08:58:30.335Z</time></trkpt><trkpt lat="42.2095481" lon="14.5447285"><ele>39.0</ele><time>2026-04-26T08:58:31.334Z</time></trkpt><trkpt lat="42.2096494" lon="14.544977"><ele>39.333333333333336</ele><time>2026-04-26T08:58:32.335Z</time></trkpt><trkpt lat="42.2097426" lon="14.5452091"><ele>39.66666666666667</ele><time>2026-04-26T08:58:33.335Z</time></trkpt><trkpt lat="42.2098313" lon="14.5454234"><ele>40.0</ele><time>2026-04-26T08:58:34.335Z</time></trkpt><trkpt lat="42.2099188" lon="14.5456235"><ele>40.0</ele><time>2026-04-26T08:58:35.334Z</time></trkpt><trkpt lat="42.2099943" lon="14.5458018"><ele>40.0</ele><time>2026-04-26T08:58:36.334Z</time></trkpt><trkpt lat="42.210065" lon="14.5459699"><ele>40.0</ele><time>2026-04-26T08:58:37.334Z</time></trkpt><trkpt lat="42.2101402" lon="14.5461444"><ele>40.0</ele><time>2026-04-26T08:58:38.335Z</time></trkpt><trkpt lat="42.2101925" lon="14.5463397"><ele>39.333333333333336</ele><time>2026-04-26T08:58:39.336Z</time></trkpt><trkpt lat="42.210225" lon="14.5465541"><ele>38.666666666666664</ele><time>2026-04-26T08:58:40.335Z</time></trkpt><trkpt lat="42.2102348" lon="14.5467857"><ele>38.0</ele><time>2026-04-26T08:58:41.334Z</time></trkpt><trkpt lat="42.2102261" lon="14.5470321"><ele>37.666666666666664</ele><time>2026-04-26T08:58:42.336Z</time></trkpt><trkpt lat="42.2102093" lon="14.5472876"><ele>37.333333333333336</ele><time>2026-04-26T08:58:43.335Z</time></trkpt><trkpt lat="42.2101916" lon="14.5475552"><ele>37.0</ele><time>2026-04-26T08:58:44.336Z</time></trkpt><trkpt lat="42.2101747" lon="14.5478167"><ele>37.66666666666667</ele><time>2026-04-26T08:58:45.335Z</time></trkpt><trkpt lat="42.2101562" lon="14.548077"><ele>38.333333333333336</ele><time>2026-04-26T08:58:46.335Z</time></trkpt><trkpt lat="42.2101367" lon="14.5483392"><ele>39.0</ele><time>2026-04-26T08:58:47.334Z</time></trkpt><trkpt lat="42.2101213" lon="14.5486043"><ele>39.333333333333336</ele><time>2026-04-26T08:58:48.335Z</time></trkpt><trkpt lat="42.2101059" lon="14.5488753"><ele>39.66666666666667</ele><time>2026-04-26T08:58:49.334Z</time></trkpt><trkpt lat="42.2100886" lon="14.5491418"><ele>40.0</ele><time>2026-04-26T08:58:50.335Z</time></trkpt><trkpt lat="42.2100713" lon="14.5494091"><ele>40.333333333333336</ele><time>2026-04-26T08:58:51.335Z</time></trkpt><trkpt lat="42.2100518" lon="14.549671"><ele>40.666666666666664</ele><time>2026-04-26T08:58:52.335Z</time></trkpt><trkpt lat="42.2100387" lon="14.5499285"><ele>41.0</ele><time>2026-04-26T08:58:53.334Z</time></trkpt><trkpt lat="42.2100186" lon="14.5501826"><ele>41.33333333333333</ele><time>2026-04-26T08:58:54.335Z</time></trkpt><trkpt lat="42.2099918" lon="14.5504332"><ele>41.666666666666664</ele><time>2026-04-26T08:58:55.334Z</time></trkpt><trkpt lat="42.2099692" lon="14.5506912"><ele>42.0</ele><time>2026-04-26T08:58:56.334Z</time></trkpt><trkpt lat="42.2099473" lon="14.550952"><ele>43.0</ele><time>2026-04-26T08:58:57.335Z</time></trkpt><trkpt lat="42.2099198" lon="14.5512123"><ele>44.0</ele><time>2026-04-26T08:58:58.335Z</time></trkpt><trkpt lat="42.2098931" lon="14.5514701"><ele>45.0</ele><time>2026-04-26T08:58:59.335Z</time></trkpt><trkpt lat="42.2098695" lon="14.5517242"><ele>45.0</ele><time>2026-04-26T08:59:00.336Z</time></trkpt><trkpt lat="42.2098482" lon="14.5519736"><ele>45.0</ele><time>2026-04-26T08:59:01.334Z</time></trkpt><trkpt lat="42.2098221" lon="14.5522207"><ele>45.0</ele><time>2026-04-26T08:59:02.335Z</time></trkpt><trkpt lat="42.209799" lon="14.5524601"><ele>42.333333333333336</ele><time>2026-04-26T08:59:03.334Z</time></trkpt><trkpt lat="42.2097767" lon="14.5526983"><ele>39.66666666666667</ele><time>2026-04-26T08:59:04.336Z</time></trkpt><trkpt lat="42.2097394" lon="14.5529474"><ele>37.0</ele><time>2026-04-26T08:59:05.335Z</time></trkpt><trkpt lat="42.2096832" lon="14.5532055"><ele>37.0</ele><time>2026-04-26T08:59:06.335Z</time></trkpt><trkpt lat="42.2096143" lon="14.5534649"><ele>37.0</ele><time>2026-04-26T08:59:07.335Z</time></trkpt><trkpt lat="42.2095489" lon="14.5537281"><ele>37.0</ele><time>2026-04-26T08:59:08.335Z</time></trkpt><trkpt lat="42.2094809" lon="14.5539915"><ele>38.66666666666667</ele><time>2026-04-26T08:59:09.335Z</time></trkpt><trkpt lat="42.2094181" lon="14.5542445"><ele>40.333333333333336</ele><time>2026-04-26T08:59:10.335Z</time></trkpt><trkpt lat="42.2093601" lon="14.5544899"><ele>42.0</ele><time>2026-04-26T08:59:11.335Z</time></trkpt><trkpt lat="42.2093053" lon="14.5547393"><ele>42.666666666666664</ele><time>2026-04-26T08:59:12.335Z</time></trkpt><trkpt lat="42.2092473" lon="14.5549978"><ele>43.33333333333333</ele><time>2026-04-26T08:59:13.335Z</time></trkpt><trkpt lat="42.2091886" lon="14.5552607"><ele>44.0</ele><time>2026-04-26T08:59:14.334Z</time></trkpt><trkpt lat="42.2091277" lon="14.5555252"><ele>44.33333333333333</ele><time>2026-04-26T08:59:15.335Z</time></trkpt><trkpt lat="42.2090644" lon="14.5557878"><ele>44.666666666666664</ele><time>2026-04-26T08:59:16.335Z</time></trkpt><trkpt lat="42.2089961" lon="14.5560455"><ele>45.0</ele><time>2026-04-26T08:59:17.335Z</time></trkpt><trkpt lat="42.2089383" lon="14.5562868"><ele>42.666666666666664</ele><time>2026-04-26T08:59:18.335Z</time></trkpt><trkpt lat="42.2088815" lon="14.5565154"><ele>40.33333333333333</ele><time>2026-04-26T08:59:19.334Z</time></trkpt><trkpt lat="42.2088303" lon="14.556741"><ele>38.0</ele><time>2026-04-26T08:59:20.335Z</time></trkpt><trkpt lat="42.2087905" lon="14.5569704"><ele>39.0</ele><time>2026-04-26T08:59:21.334Z</time></trkpt><trkpt lat="42.2087696" lon="14.5572125"><ele>40.0</ele><time>2026-04-26T08:59:22.335Z</time></trkpt><trkpt lat="42.20877" lon="14.5574633"><ele>41.0</ele><time>2026-04-26T08:59:23.335Z</time></trkpt><trkpt lat="42.2087788" lon="14.5577225"><ele>40.666666666666664</ele><time>2026-04-26T08:59:24.336Z</time></trkpt><trkpt lat="42.2087903" lon="14.5579829"><ele>40.333333333333336</ele><time>2026-04-26T08:59:25.335Z</time></trkpt><trkpt lat="42.2087976" lon="14.5582461"><ele>40.0</ele><time>2026-04-26T08:59:26.335Z</time></trkpt><trkpt lat="42.2088102" lon="14.5585176"><ele>41.333333333333336</ele><time>2026-04-26T08:59:27.335Z</time></trkpt><trkpt lat="42.2088209" lon="14.5587917"><ele>42.666666666666664</ele><time>2026-04-26T08:59:28.334Z</time></trkpt><trkpt lat="42.208833" lon="14.5590707"><ele>44.0</ele><time>2026-04-26T08:59:29.335Z</time></trkpt><trkpt lat="42.2088457" lon="14.5593516"><ele>44.33333333333333</ele><time>2026-04-26T08:59:30.334Z</time></trkpt><trkpt lat="42.2088563" lon="14.5596299"><ele>44.666666666666664</ele><time>2026-04-26T08:59:31.335Z</time></trkpt><trkpt lat="42.2088639" lon="14.5599058"><ele>45.0</ele><time>2026-04-26T08:59:32.336Z</time></trkpt><trkpt lat="42.2088751" lon="14.5601691"><ele>45.0</ele><time>2026-04-26T08:59:33.335Z</time></trkpt><trkpt lat="42.2088846" lon="14.5604149"><ele>45.0</ele><time>2026-04-26T08:59:34.335Z</time></trkpt><trkpt lat="42.2088963" lon="14.5606581"><ele>45.0</ele><time>2026-04-26T08:59:35.335Z</time></trkpt><trkpt lat="42.2088894" lon="14.5609108"><ele>45.0</ele><time>2026-04-26T08:59:36.335Z</time></trkpt><trkpt lat="42.2088671" lon="14.561169"><ele>45.0</ele><time>2026-04-26T08:59:37.335Z</time></trkpt><trkpt lat="42.2088301" lon="14.5614318"><ele>45.0</ele><time>2026-04-26T08:59:38.336Z</time></trkpt><trkpt lat="42.2087863" lon="14.5616978"><ele>46.33333333333333</ele><time>2026-04-26T08:59:39.335Z</time></trkpt><trkpt lat="42.2087495" lon="14.5619653"><ele>47.666666666666664</ele><time>2026-04-26T08:59:40.335Z</time></trkpt><trkpt lat="42.2087123" lon="14.5622147"><ele>49.0</ele><time>2026-04-26T08:59:41.335Z</time></trkpt><trkpt lat="42.2086729" lon="14.5624528"><ele>49.0</ele><time>2026-04-26T08:59:42.335Z</time></trkpt><trkpt lat="42.2086351" lon="14.5626855"><ele>49.0</ele><time>2026-04-26T08:59:43.335Z</time></trkpt><trkpt lat="42.2085992" lon="14.5629268"><ele>49.0</ele><time>2026-04-26T08:59:44.335Z</time></trkpt><trkpt lat="42.2085662" lon="14.5631764"><ele>49.0</ele><time>2026-04-26T08:59:45.335Z</time></trkpt><trkpt lat="42.2085314" lon="14.5634301"><ele>49.0</ele><time>2026-04-26T08:59:46.335Z</time></trkpt><trkpt lat="42.2084932" lon="14.5636914"><ele>49.0</ele><time>2026-04-26T08:59:47.335Z</time></trkpt><trkpt lat="42.2084537" lon="14.5639553"><ele>49.0</ele><time>2026-04-26T08:59:48.335Z</time></trkpt><trkpt lat="42.2084193" lon="14.5642144"><ele>49.0</ele><time>2026-04-26T08:59:49.335Z</time></trkpt><trkpt lat="42.2083825" lon="14.5644719"><ele>49.0</ele><time>2026-04-26T08:59:50.335Z</time></trkpt><trkpt lat="42.2083443" lon="14.5647247"><ele>49.0</ele><time>2026-04-26T08:59:51.336Z</time></trkpt><trkpt lat="42.2083038" lon="14.5649762"><ele>49.0</ele><time>2026-04-26T08:59:52.334Z</time></trkpt><trkpt lat="42.2082648" lon="14.5652289"><ele>49.0</ele><time>2026-04-26T08:59:53.335Z</time></trkpt><trkpt lat="42.2082267" lon="14.5654874"><ele>49.0</ele><time>2026-04-26T08:59:54.334Z</time></trkpt><trkpt lat="42.2081874" lon="14.5657418"><ele>49.0</ele><time>2026-04-26T08:59:55.334Z</time></trkpt><trkpt lat="42.2081492" lon="14.5659894"><ele>49.0</ele><time>2026-04-26T08:59:56.334Z</time></trkpt><trkpt lat="42.2081171" lon="14.5662382"><ele>46.33333333333333</ele><time>2026-04-26T08:59:57.334Z</time></trkpt><trkpt lat="42.2080808" lon="14.566484"><ele>43.666666666666664</ele><time>2026-04-26T08:59:58.335Z</time></trkpt><trkpt lat="42.2080376" lon="14.5667347"><ele>41.0</ele><time>2026-04-26T08:59:59.335Z</time></trkpt><trkpt lat="42.2079899" lon="14.5669918"><ele>40.33333333333333</ele><time>2026-04-26T09:00:00.334Z</time></trkpt><trkpt lat="42.2079423" lon="14.5672552"><ele>39.666666666666664</ele><time>2026-04-26T09:00:01.336Z</time></trkpt><trkpt lat="42.2078907" lon="14.5675167"><ele>39.0</ele><time>2026-04-26T09:00:02.334Z</time></trkpt><trkpt lat="42.2078319" lon="14.5677798"><ele>39.333333333333336</ele><time>2026-04-26T09:00:03.334Z</time></trkpt><trkpt lat="42.2077703" lon="14.5680429"><ele>39.66666666666667</ele><time>2026-04-26T09:00:04.335Z</time></trkpt><trkpt lat="42.2077168" lon="14.5683109"><ele>40.0</ele><time>2026-04-26T09:00:05.336Z</time></trkpt><trkpt lat="42.2076636" lon="14.5685766"><ele>40.333333333333336</ele><time>2026-04-26T09:00:06.335Z</time></trkpt><trkpt lat="42.2076076" lon="14.5688371"><ele>40.666666666666664</ele><time>2026-04-26T09:00:07.335Z</time></trkpt><trkpt lat="42.2075519" lon="14.569096"><ele>41.0</ele><time>2026-04-26T09:00:08.334Z</time></trkpt><trkpt lat="42.207497" lon="14.5693473"><ele>41.0</ele><time>2026-04-26T09:00:09.334Z</time></trkpt><trkpt lat="42.2074427" lon="14.5695997"><ele>41.0</ele><time>2026-04-26T09:00:10.334Z</time></trkpt><trkpt lat="42.2073946" lon="14.5698521"><ele>41.0</ele><time>2026-04-26T09:00:11.336Z</time></trkpt><trkpt lat="42.2073463" lon="14.5701077"><ele>38.666666666666664</ele><time>2026-04-26T09:00:12.335Z</time></trkpt><trkpt lat="42.2072891" lon="14.5703602"><ele>36.333333333333336</ele><time>2026-04-26T09:00:13.335Z</time></trkpt><trkpt lat="42.2072322" lon="14.5706135"><ele>34.0</ele><time>2026-04-26T09:00:14.335Z</time></trkpt><trkpt lat="42.2071817" lon="14.5708686"><ele>34.0</ele><time>2026-04-26T09:00:15.334Z</time></trkpt><trkpt lat="42.2071255" lon="14.5711176"><ele>34.0</ele><time>2026-04-26T09:00:16.335Z</time></trkpt><trkpt lat="42.2070725" lon="14.5713631"><ele>34.0</ele><time>2026-04-26T09:00:17.334Z</time></trkpt><trkpt lat="42.2070202" lon="14.5716084"><ele>34.0</ele><time>2026-04-26T09:00:18.335Z</time></trkpt><trkpt lat="42.2069689" lon="14.5718499"><ele>34.0</ele><time>2026-04-26T09:00:19.335Z</time></trkpt><trkpt lat="42.206916" lon="14.5720984"><ele>34.0</ele><time>2026-04-26T09:00:20.335Z</time></trkpt><trkpt lat="42.2068651" lon="14.572349"><ele>34.0</ele><time>2026-04-26T09:00:21.335Z</time></trkpt><trkpt lat="42.2068103" lon="14.5726104"><ele>34.0</ele><time>2026-04-26T09:00:22.335Z</time></trkpt><trkpt lat="42.2067525" lon="14.5728775"><ele>34.0</ele><time>2026-04-26T09:00:23.334Z</time></trkpt><trkpt lat="42.206693" lon="14.5731493"><ele>34.333333333333336</ele><time>2026-04-26T09:00:24.334Z</time></trkpt><trkpt lat="42.206628" lon="14.5734196"><ele>34.666666666666664</ele><time>2026-04-26T09:00:25.335Z</time></trkpt><trkpt lat="42.2065699" lon="14.5736999"><ele>35.0</ele><time>2026-04-26T09:00:26.335Z</time></trkpt><trkpt lat="42.2065066" lon="14.5739884"><ele>34.666666666666664</ele><time>2026-04-26T09:00:27.334Z</time></trkpt><trkpt lat="42.2064387" lon="14.57427"><ele>34.333333333333336</ele><time>2026-04-26T09:00:28.336Z</time></trkpt><trkpt lat="42.2063721" lon="14.5745369"><ele>34.0</ele><time>2026-04-26T09:00:29.336Z</time></trkpt><trkpt lat="42.2063107" lon="14.5747996"><ele>34.0</ele><time>2026-04-26T09:00:30.334Z</time></trkpt><trkpt lat="42.2062504" lon="14.57506"><ele>34.0</ele><time>2026-04-26T09:00:31.336Z</time></trkpt><trkpt lat="42.2061855" lon="14.5753214"><ele>34.0</ele><time>2026-04-26T09:00:32.335Z</time></trkpt><trkpt lat="42.2061198" lon="14.5755827"><ele>34.0</ele><time>2026-04-26T09:00:33.335Z</time></trkpt><trkpt lat="42.206061" lon="14.5758341"><ele>34.0</ele><time>2026-04-26T09:00:34.335Z</time></trkpt><trkpt lat="42.2059994" lon="14.5760776"><ele>34.0</ele><time>2026-04-26T09:00:35.336Z</time></trkpt><trkpt lat="42.2059381" lon="14.5763173"><ele>34.0</ele><time>2026-04-26T09:00:36.335Z</time></trkpt><trkpt lat="42.2058798" lon="14.5765577"><ele>34.0</ele><time>2026-04-26T09:00:37.335Z</time></trkpt><trkpt lat="42.2058233" lon="14.5768035"><ele>34.0</ele><time>2026-04-26T09:00:38.335Z</time></trkpt><trkpt lat="42.2057684" lon="14.5770466"><ele>34.0</ele><time>2026-04-26T09:00:39.334Z</time></trkpt><trkpt lat="42.2057152" lon="14.5772798"><ele>34.0</ele><time>2026-04-26T09:00:40.335Z</time></trkpt><trkpt lat="42.2056617" lon="14.5775047"><ele>34.0</ele><time>2026-04-26T09:00:41.335Z</time></trkpt><trkpt lat="42.205604" lon="14.5777301"><ele>33.66666666666667</ele><time>2026-04-26T09:00:42.335Z</time></trkpt><trkpt lat="42.2055503" lon="14.5779687"><ele>33.333333333333336</ele><time>2026-04-26T09:00:43.335Z</time></trkpt><trkpt lat="42.205493" lon="14.5782202"><ele>33.0</ele><time>2026-04-26T09:00:44.334Z</time></trkpt><trkpt lat="42.2054297" lon="14.5784646"><ele>32.0</ele><time>2026-04-26T09:00:45.334Z</time></trkpt><trkpt lat="42.2053718" lon="14.5787043"><ele>31.0</ele><time>2026-04-26T09:00:46.334Z</time></trkpt><trkpt lat="42.2053191" lon="14.5789318"><ele>30.0</ele><time>2026-04-26T09:00:47.336Z</time></trkpt><trkpt lat="42.2052671" lon="14.5791471"><ele>30.0</ele><time>2026-04-26T09:00:48.334Z</time></trkpt><trkpt lat="42.2052177" lon="14.5793589"><ele>30.0</ele><time>2026-04-26T09:00:49.334Z</time></trkpt><trkpt lat="42.2051712" lon="14.5795611"><ele>30.0</ele><time>2026-04-26T09:00:50.335Z</time></trkpt><trkpt lat="42.2051217" lon="14.5797597"><ele>29.75</ele><time>2026-04-26T09:00:51.335Z</time></trkpt><trkpt lat="42.2050766" lon="14.5799423"><ele>29.5</ele><time>2026-04-26T09:00:52.335Z</time></trkpt><trkpt lat="42.2050341" lon="14.5801145"><ele>29.25</ele><time>2026-04-26T09:00:53.335Z</time></trkpt><trkpt lat="42.2049992" lon="14.5802792"><ele>29.0</ele><time>2026-04-26T09:00:54.334Z</time></trkpt><trkpt lat="42.2049757" lon="14.5804528"><ele>29.0</ele><time>2026-04-26T09:00:55.336Z</time></trkpt><trkpt lat="42.2049713" lon="14.5806405"><ele>29.0</ele><time>2026-04-26T09:00:56.335Z</time></trkpt><trkpt lat="42.2049756" lon="14.5808369"><ele>29.0</ele><time>2026-04-26T09:00:57.336Z</time></trkpt><trkpt lat="42.2049907" lon="14.5810365"><ele>29.0</ele><time>2026-04-26T09:00:58.335Z</time></trkpt><trkpt lat="42.2050124" lon="14.5812408"><ele>29.666666666666664</ele><time>2026-04-26T09:00:59.336Z</time></trkpt><trkpt lat="42.2050258" lon="14.5814535"><ele>30.333333333333336</ele><time>2026-04-26T09:01:00.334Z</time></trkpt><trkpt lat="42.2050392" lon="14.5816686"><ele>31.0</ele><time>2026-04-26T09:01:01.335Z</time></trkpt><trkpt lat="42.2050553" lon="14.5818846"><ele>31.25</ele><time>2026-04-26T09:01:02.335Z</time></trkpt><trkpt lat="42.2050708" lon="14.5820901"><ele>31.5</ele><time>2026-04-26T09:01:03.335Z</time></trkpt><trkpt lat="42.205088" lon="14.5822838"><ele>31.75</ele><time>2026-04-26T09:01:04.335Z</time></trkpt><trkpt lat="42.2051022" lon="14.5824671"><ele>32.0</ele><time>2026-04-26T09:01:05.335Z</time></trkpt><trkpt lat="42.2051134" lon="14.5826484"><ele>32.0</ele><time>2026-04-26T09:01:06.335Z</time></trkpt><trkpt lat="42.2051267" lon="14.582835"><ele>32.0</ele><time>2026-04-26T09:01:07.335Z</time></trkpt><trkpt lat="42.2051394" lon="14.5830203"><ele>32.0</ele><time>2026-04-26T09:01:08.335Z</time></trkpt><trkpt lat="42.2051515" lon="14.5832067"><ele>32.0</ele><time>2026-04-26T09:01:09.335Z</time></trkpt><trkpt lat="42.2051646" lon="14.5833953"><ele>31.5</ele><time>2026-04-26T09:01:10.335Z</time></trkpt><trkpt lat="42.2051769" lon="14.5835881"><ele>31.0</ele><time>2026-04-26T09:01:11.335Z</time></trkpt><trkpt lat="42.2051915" lon="14.5837892"><ele>30.5</ele><time>2026-04-26T09:01:12.335Z</time></trkpt><trkpt lat="42.20521" lon="14.583994"><ele>30.0</ele><time>2026-04-26T09:01:13.335Z</time></trkpt><trkpt lat="42.2052224" lon="14.5841998"><ele>30.333333333333336</ele><time>2026-04-26T09:01:14.335Z</time></trkpt><trkpt lat="42.205239" lon="14.5844081"><ele>30.666666666666668</ele><time>2026-04-26T09:01:15.335Z</time></trkpt><trkpt lat="42.2052527" lon="14.5846202"><ele>31.0</ele><time>2026-04-26T09:01:16.335Z</time></trkpt><trkpt lat="42.2052624" lon="14.5848368"><ele>31.0</ele><time>2026-04-26T09:01:17.335Z</time></trkpt><trkpt lat="42.2052689" lon="14.5850568"><ele>31.0</ele><time>2026-04-26T09:01:18.335Z</time></trkpt><trkpt lat="42.2052705" lon="14.5852828"><ele>31.0</ele><time>2026-04-26T09:01:19.335Z</time></trkpt><trkpt lat="42.205274" lon="14.5855122"><ele>31.0</ele><time>2026-04-26T09:01:20.335Z</time></trkpt><trkpt lat="42.205281" lon="14.5857441"><ele>31.0</ele><time>2026-04-26T09:01:21.335Z</time></trkpt><trkpt lat="42.205286" lon="14.5859706"><ele>31.0</ele><time>2026-04-26T09:01:22.334Z</time></trkpt><trkpt lat="42.2052901" lon="14.5861909"><ele>30.333333333333336</ele><time>2026-04-26T09:01:23.335Z</time></trkpt><trkpt lat="42.2052904" lon="14.586412"><ele>29.666666666666664</ele><time>2026-04-26T09:01:24.336Z</time></trkpt><trkpt lat="42.2052951" lon="14.586635"><ele>29.0</ele><time>2026-04-26T09:01:25.335Z</time></trkpt><trkpt lat="42.2053007" lon="14.5868671"><ele>29.0</ele><time>2026-04-26T09:01:26.334Z</time></trkpt><trkpt lat="42.2053057" lon="14.5871064"><ele>29.0</ele><time>2026-04-26T09:01:27.335Z</time></trkpt><trkpt lat="42.20531" lon="14.5873385"><ele>29.0</ele><time>2026-04-26T09:01:28.335Z</time></trkpt><trkpt lat="42.2053144" lon="14.5875632"><ele>29.0</ele><time>2026-04-26T09:01:29.335Z</time></trkpt><trkpt lat="42.205316" lon="14.5877823"><ele>29.0</ele><time>2026-04-26T09:01:30.335Z</time></trkpt><trkpt lat="42.2053157" lon="14.5879951"><ele>29.0</ele><time>2026-04-26T09:01:31.334Z</time></trkpt><trkpt lat="42.2053087" lon="14.5882101"><ele>28.333333333333332</ele><time>2026-04-26T09:01:32.334Z</time></trkpt><trkpt lat="42.2052915" lon="14.5884251"><ele>27.666666666666664</ele><time>2026-04-26T09:01:33.334Z</time></trkpt><trkpt lat="42.2052663" lon="14.5886399"><ele>27.0</ele><time>2026-04-26T09:01:34.334Z</time></trkpt><trkpt lat="42.2052293" lon="14.5888551"><ele>26.666666666666664</ele><time>2026-04-26T09:01:35.335Z</time></trkpt><trkpt lat="42.2051864" lon="14.5890677"><ele>26.333333333333332</ele><time>2026-04-26T09:01:36.335Z</time></trkpt><trkpt lat="42.2051472" lon="14.5892818"><ele>26.0</ele><time>2026-04-26T09:01:37.335Z</time></trkpt><trkpt lat="42.2051051" lon="14.5894932"><ele>25.666666666666664</ele><time>2026-04-26T09:01:38.335Z</time></trkpt><trkpt lat="42.2050589" lon="14.5897098"><ele>25.333333333333336</ele><time>2026-04-26T09:01:39.334Z</time></trkpt><trkpt lat="42.2050181" lon="14.5899385"><ele>25.0</ele><time>2026-04-26T09:01:40.335Z</time></trkpt><trkpt lat="42.2049774" lon="14.5901814"><ele>24.333333333333336</ele><time>2026-04-26T09:01:41.335Z</time></trkpt><trkpt lat="42.2049314" lon="14.5904292"><ele>23.666666666666668</ele><time>2026-04-26T09:01:42.335Z</time></trkpt><trkpt lat="42.2048818" lon="14.5906816"><ele>23.0</ele><time>2026-04-26T09:01:43.335Z</time></trkpt><trkpt lat="42.204836" lon="14.5909356"><ele>20.333333333333336</ele><time>2026-04-26T09:01:44.334Z</time></trkpt><trkpt lat="42.2047859" lon="14.5911837"><ele>17.666666666666668</ele><time>2026-04-26T09:01:45.335Z</time></trkpt><trkpt lat="42.2047449" lon="14.5914299"><ele>15.0</ele><time>2026-04-26T09:01:46.334Z</time></trkpt><trkpt lat="42.2047024" lon="14.5916774"><ele>15.0</ele><time>2026-04-26T09:01:47.334Z</time></trkpt><trkpt lat="42.2046564" lon="14.5919184"><ele>15.0</ele><time>2026-04-26T09:01:48.335Z</time></trkpt><trkpt lat="42.2046077" lon="14.5921585"><ele>15.0</ele><time>2026-04-26T09:01:49.335Z</time></trkpt><trkpt lat="42.2045623" lon="14.5923968"><ele>14.0</ele><time>2026-04-26T09:01:50.334Z</time></trkpt><trkpt lat="42.2045131" lon="14.592631"><ele>13.0</ele><time>2026-04-26T09:01:51.335Z</time></trkpt><trkpt lat="42.2044699" lon="14.592866"><ele>12.0</ele><time>2026-04-26T09:01:52.335Z</time></trkpt><trkpt lat="42.2044306" lon="14.5930911"><ele>11.666666666666666</ele><time>2026-04-26T09:01:53.335Z</time></trkpt><trkpt lat="42.2043946" lon="14.5933108"><ele>11.333333333333332</ele><time>2026-04-26T09:01:54.335Z</time></trkpt><trkpt lat="42.2043708" lon="14.5935325"><ele>11.0</ele><time>2026-04-26T09:01:55.335Z</time></trkpt><trkpt lat="42.2043518" lon="14.5937563"><ele>11.0</ele><time>2026-04-26T09:01:56.334Z</time></trkpt><trkpt lat="42.2043462" lon="14.5939856"><ele>11.0</ele><time>2026-04-26T09:01:57.335Z</time></trkpt><trkpt lat="42.2043505" lon="14.594216"><ele>11.0</ele><time>2026-04-26T09:01:58.334Z</time></trkpt><trkpt lat="42.2043525" lon="14.5944384"><ele>10.333333333333332</ele><time>2026-04-26T09:01:59.335Z</time></trkpt><trkpt lat="42.2043519" lon="14.5946574"><ele>9.666666666666666</ele><time>2026-04-26T09:02:00.335Z</time></trkpt><trkpt lat="42.2043544" lon="14.5948619"><ele>9.0</ele><time>2026-04-26T09:02:01.335Z</time></trkpt><trkpt lat="42.2043561" lon="14.5950544"><ele>9.0</ele><time>2026-04-26T09:02:02.336Z</time></trkpt><trkpt lat="42.2043609" lon="14.5952324"><ele>9.0</ele><time>2026-04-26T09:02:03.334Z</time></trkpt><trkpt lat="42.2043583" lon="14.5953999"><ele>9.0</ele><time>2026-04-26T09:02:04.335Z</time></trkpt><trkpt lat="42.2043587" lon="14.595564"><ele>9.0</ele><time>2026-04-26T09:02:05.335Z</time></trkpt><trkpt lat="42.2043588" lon="14.5957207"><ele>8.8</ele><time>2026-04-26T09:02:06.335Z</time></trkpt><trkpt lat="42.2043588" lon="14.5958711"><ele>8.600000000000001</ele><time>2026-04-26T09:02:07.335Z</time></trkpt><trkpt lat="42.2043593" lon="14.5960108"><ele>8.4</ele><time>2026-04-26T09:02:08.336Z</time></trkpt><trkpt lat="42.2043563" lon="14.59613"><ele>8.200000000000001</ele><time>2026-04-26T09:02:09.335Z</time></trkpt><trkpt lat="42.2043529" lon="14.5962342"><ele>8.0</ele><time>2026-04-26T09:02:10.335Z</time></trkpt><trkpt lat="42.2043471" lon="14.5963348"><ele>7.833333333333333</ele><time>2026-04-26T09:02:11.335Z</time></trkpt><trkpt lat="42.2043211" lon="14.5964245"><ele>7.666666666666666</ele><time>2026-04-26T09:02:12.335Z</time></trkpt><trkpt lat="42.2042925" lon="14.5965232"><ele>7.5</ele><time>2026-04-26T09:02:13.336Z</time></trkpt><trkpt lat="42.2042407" lon="14.5966137"><ele>7.333333333333334</ele><time>2026-04-26T09:02:14.336Z</time></trkpt><trkpt lat="42.204169" lon="14.5966859"><ele>7.166666666666667</ele><time>2026-04-26T09:02:15.334Z</time></trkpt><trkpt lat="42.2040785" lon="14.5967472"><ele>7.0</ele><time>2026-04-26T09:02:16.334Z</time></trkpt><trkpt lat="42.2039796" lon="14.5968133"><ele>6.75</ele><time>2026-04-26T09:02:17.335Z</time></trkpt><trkpt lat="42.2038723" lon="14.5968836"><ele>6.5</ele><time>2026-04-26T09:02:18.335Z</time></trkpt><trkpt lat="42.2037594" lon="14.5969593"><ele>6.25</ele><time>2026-04-26T09:02:19.335Z</time></trkpt><trkpt lat="42.203637" lon="14.5970419"><ele>6.0</ele><time>2026-04-26T09:02:20.335Z</time></trkpt><trkpt lat="42.2035094" lon="14.5971304"><ele>6.0</ele><time>2026-04-26T09:02:21.335Z</time></trkpt><trkpt lat="42.2033749" lon="14.597221"><ele>6.0</ele><time>2026-04-26T09:02:22.335Z</time></trkpt><trkpt lat="42.2032306" lon="14.5973176"><ele>6.0</ele><time>2026-04-26T09:02:23.335Z</time></trkpt><trkpt lat="42.2030799" lon="14.5974173"><ele>5.333333333333333</ele><time>2026-04-26T09:02:24.335Z</time></trkpt><trkpt lat="42.2029253" lon="14.5975205"><ele>4.666666666666666</ele><time>2026-04-26T09:02:25.335Z</time></trkpt><trkpt lat="42.2027637" lon="14.5976242"><ele>4.0</ele><time>2026-04-26T09:02:26.335Z</time></trkpt><trkpt lat="42.202597" lon="14.5977332"><ele>4.666666666666666</ele><time>2026-04-26T09:02:27.335Z</time></trkpt><trkpt lat="42.2024299" lon="14.5978445"><ele>5.333333333333333</ele><time>2026-04-26T09:02:28.336Z</time></trkpt><trkpt lat="42.2022633" lon="14.5979573"><ele>6.0</ele><time>2026-04-26T09:02:29.336Z</time></trkpt><trkpt lat="42.2021015" lon="14.5980618"><ele>6.0</ele><time>2026-04-26T09:02:30.335Z</time></trkpt><trkpt lat="42.2019484" lon="14.5981659"><ele>6.0</ele><time>2026-04-26T09:02:31.335Z</time></trkpt><trkpt lat="42.201803" lon="14.5982716"><ele>6.0</ele><time>2026-04-26T09:02:32.334Z</time></trkpt><trkpt lat="42.2016657" lon="14.5983776"><ele>6.0</ele><time>2026-04-26T09:02:33.335Z</time></trkpt><trkpt lat="42.2015362" lon="14.5984796"><ele>6.0</ele><time>2026-04-26T09:02:34.334Z</time></trkpt><trkpt lat="42.2014148" lon="14.5985837"><ele>6.0</ele><time>2026-04-26T09:02:35.335Z</time></trkpt><trkpt lat="42.2012877" lon="14.5986857"><ele>6.0</ele><time>2026-04-26T09:02:36.335Z</time></trkpt><trkpt lat="42.201164" lon="14.5987919"><ele>5.75</ele><time>2026-04-26T09:02:37.335Z</time></trkpt><trkpt lat="42.2010367" lon="14.598894"><ele>5.5</ele><time>2026-04-26T09:02:38.336Z</time></trkpt><trkpt lat="42.2009171" lon="14.5989987"><ele>5.25</ele><time>2026-04-26T09:02:39.336Z</time></trkpt><trkpt lat="42.2008031" lon="14.5991029"><ele>5.0</ele><time>2026-04-26T09:02:40.334Z</time></trkpt><trkpt lat="42.2006936" lon="14.5992038"><ele>5.5</ele><time>2026-04-26T09:02:41.335Z</time></trkpt><trkpt lat="42.2005766" lon="14.599307"><ele>6.0</ele><time>2026-04-26T09:02:42.334Z</time></trkpt><trkpt lat="42.2004542" lon="14.5994091"><ele>6.5</ele><time>2026-04-26T09:02:43.335Z</time></trkpt><trkpt lat="42.2003296" lon="14.5995174"><ele>7.0</ele><time>2026-04-26T09:02:44.334Z</time></trkpt><trkpt lat="42.2002114" lon="14.5996283"><ele>7.25</ele><time>2026-04-26T09:02:45.335Z</time></trkpt><trkpt lat="42.2001021" lon="14.5997271"><ele>7.5</ele><time>2026-04-26T09:02:46.335Z</time></trkpt><trkpt lat="42.1999983" lon="14.5998207"><ele>7.75</ele><time>2026-04-26T09:02:47.334Z</time></trkpt><trkpt lat="42.1999006" lon="14.5999106"><ele>8.0</ele><time>2026-04-26T09:02:48.335Z</time></trkpt><trkpt lat="42.199804" lon="14.6000052"><ele>8.75</ele><time>2026-04-26T09:02:49.334Z</time></trkpt><trkpt lat="42.1997097" lon="14.6001018"><ele>9.5</ele><time>2026-04-26T09:02:50.336Z</time></trkpt><trkpt lat="42.1996144" lon="14.6002041"><ele>10.25</ele><time>2026-04-26T09:02:51.335Z</time></trkpt><trkpt lat="42.1995274" lon="14.6003145"><ele>11.0</ele><time>2026-04-26T09:02:52.334Z</time></trkpt><trkpt lat="42.1994415" lon="14.6004345"><ele>11.0</ele><time>2026-04-26T09:02:53.336Z</time></trkpt><trkpt lat="42.1993543" lon="14.6005659"><ele>11.0</ele><time>2026-04-26T09:02:54.334Z</time></trkpt><trkpt lat="42.1992734" lon="14.6007109"><ele>11.0</ele><time>2026-04-26T09:02:55.335Z</time></trkpt><trkpt lat="42.1991949" lon="14.6008732"><ele>11.0</ele><time>2026-04-26T09:02:56.335Z</time></trkpt><trkpt lat="42.1991252" lon="14.6010458"><ele>10.333333333333332</ele><time>2026-04-26T09:02:57.335Z</time></trkpt><trkpt lat="42.1990604" lon="14.6012271"><ele>9.666666666666666</ele><time>2026-04-26T09:02:58.335Z</time></trkpt><trkpt lat="42.1990091" lon="14.6014245"><ele>9.0</ele><time>2026-04-26T09:02:59.336Z</time></trkpt><trkpt lat="42.1989662" lon="14.6016382"><ele>11.0</ele><time>2026-04-26T09:03:00.335Z</time></trkpt><trkpt lat="42.1989281" lon="14.601859"><ele>13.0</ele><time>2026-04-26T09:03:01.336Z</time></trkpt><trkpt lat="42.198893" lon="14.6020841"><ele>15.0</ele><time>2026-04-26T09:03:02.335Z</time></trkpt><trkpt lat="42.1988607" lon="14.6023076"><ele>15.0</ele><time>2026-04-26T09:03:03.334Z</time></trkpt><trkpt lat="42.1988319" lon="14.6025137"><ele>15.0</ele><time>2026-04-26T09:03:04.335Z</time></trkpt><trkpt lat="42.1988013" lon="14.602717"><ele>15.0</ele><time>2026-04-26T09:03:05.334Z</time></trkpt><trkpt lat="42.1987723" lon="14.6029222"><ele>15.666666666666668</ele><time>2026-04-26T09:03:06.335Z</time></trkpt><trkpt lat="42.198745" lon="14.6031266"><ele>16.333333333333336</ele><time>2026-04-26T09:03:07.334Z</time></trkpt><trkpt lat="42.1987085" lon="14.6033335"><ele>17.0</ele><time>2026-04-26T09:03:08.335Z</time></trkpt><trkpt lat="42.1986776" lon="14.6035478"><ele>17.0</ele><time>2026-04-26T09:03:09.334Z</time></trkpt><trkpt lat="42.1986467" lon="14.6037664"><ele>17.0</ele><time>2026-04-26T09:03:10.334Z</time></trkpt><trkpt lat="42.1986156" lon="14.60399"><ele>17.0</ele><time>2026-04-26T09:03:11.335Z</time></trkpt><trkpt lat="42.1985887" lon="14.6042171"><ele>17.0</ele><time>2026-04-26T09:03:12.335Z</time></trkpt><trkpt lat="42.1985731" lon="14.6044497"><ele>17.0</ele><time>2026-04-26T09:03:13.335Z</time></trkpt><trkpt lat="42.198566" lon="14.6046801"><ele>17.0</ele><time>2026-04-26T09:03:14.336Z</time></trkpt><trkpt lat="42.1985696" lon="14.6049148"><ele>17.666666666666668</ele><time>2026-04-26T09:03:15.336Z</time></trkpt><trkpt lat="42.198585" lon="14.6051549"><ele>18.333333333333332</ele><time>2026-04-26T09:03:16.335Z</time></trkpt><trkpt lat="42.1986099" lon="14.6053992"><ele>19.0</ele><time>2026-04-26T09:03:17.335Z</time></trkpt><trkpt lat="42.19865" lon="14.6056481"><ele>19.0</ele><time>2026-04-26T09:03:18.335Z</time></trkpt><trkpt lat="42.1987037" lon="14.6058989"><ele>19.0</ele><time>2026-04-26T09:03:19.335Z</time></trkpt><trkpt lat="42.1987569" lon="14.6061554"><ele>19.0</ele><time>2026-04-26T09:03:20.334Z</time></trkpt><trkpt lat="42.1988259" lon="14.6064253"><ele>19.0</ele><time>2026-04-26T09:03:21.334Z</time></trkpt><trkpt lat="42.198899" lon="14.6067056"><ele>19.0</ele><time>2026-04-26T09:03:22.335Z</time></trkpt><trkpt lat="42.1989675" lon="14.6070029"><ele>16.0</ele><time>2026-04-26T09:03:23.334Z</time></trkpt><trkpt lat="42.1990391" lon="14.6073092"><ele>13.0</ele><time>2026-04-26T09:03:24.335Z</time></trkpt><trkpt lat="42.1991099" lon="14.6076041"><ele>13.5</ele><time>2026-04-26T09:03:25.335Z</time></trkpt><trkpt lat="42.1991755" lon="14.6079041"><ele>14.0</ele><time>2026-04-26T09:03:26.335Z</time></trkpt><trkpt lat="42.1992428" lon="14.6082124"><ele>14.0</ele><time>2026-04-26T09:03:27.335Z</time></trkpt><trkpt lat="42.1993129" lon="14.6085154"><ele>14.0</ele><time>2026-04-26T09:03:28.335Z</time></trkpt><trkpt lat="42.1993821" lon="14.6088033"><ele>15.666666666666668</ele><time>2026-04-26T09:03:29.335Z</time></trkpt><trkpt lat="42.1994448" lon="14.6090831"><ele>17.333333333333332</ele><time>2026-04-26T09:03:30.335Z</time></trkpt><trkpt lat="42.1995008" lon="14.6093553"><ele>19.0</ele><time>2026-04-26T09:03:31.335Z</time></trkpt><trkpt lat="42.1995567" lon="14.6096228"><ele>19.666666666666664</ele><time>2026-04-26T09:03:32.335Z</time></trkpt><trkpt lat="42.1996212" lon="14.6098867"><ele>20.333333333333332</ele><time>2026-04-26T09:03:33.334Z</time></trkpt><trkpt lat="42.1996798" lon="14.6101406"><ele>21.0</ele><time>2026-04-26T09:03:34.335Z</time></trkpt><trkpt lat="42.1997367" lon="14.6103821"><ele>21.666666666666668</ele><time>2026-04-26T09:03:35.335Z</time></trkpt><trkpt lat="42.1997867" lon="14.6106137"><ele>22.333333333333336</ele><time>2026-04-26T09:03:36.334Z</time></trkpt><trkpt lat="42.1998359" lon="14.6108383"><ele>23.0</ele><time>2026-04-26T09:03:37.335Z</time></trkpt><trkpt lat="42.1998874" lon="14.6110642"><ele>19.333333333333336</ele><time>2026-04-26T09:03:38.334Z</time></trkpt><trkpt lat="42.1999314" lon="14.6112988"><ele>15.666666666666668</ele><time>2026-04-26T09:03:39.335Z</time></trkpt><trkpt lat="42.1999716" lon="14.6115384"><ele>12.0</ele><time>2026-04-26T09:03:40.335Z</time></trkpt><trkpt lat="42.2000034" lon="14.6117916"><ele>12.333333333333332</ele><time>2026-04-26T09:03:41.334Z</time></trkpt><trkpt lat="42.2000237" lon="14.6120578"><ele>12.666666666666666</ele><time>2026-04-26T09:03:42.335Z</time></trkpt><trkpt lat="42.2000282" lon="14.6123229"><ele>13.0</ele><time>2026-04-26T09:03:43.334Z</time></trkpt><trkpt lat="42.2000129" lon="14.612588"><ele>13.333333333333332</ele><time>2026-04-26T09:03:44.335Z</time></trkpt><trkpt lat="42.1999907" lon="14.6128482"><ele>13.666666666666668</ele><time>2026-04-26T09:03:45.336Z</time></trkpt><trkpt lat="42.1999577" lon="14.6131004"><ele>14.0</ele><time>2026-04-26T09:03:46.334Z</time></trkpt><trkpt lat="42.1999083" lon="14.6133287"><ele>14.0</ele><time>2026-04-26T09:03:47.334Z</time></trkpt><trkpt lat="42.1998538" lon="14.6135422"><ele>14.0</ele><time>2026-04-26T09:03:48.335Z</time></trkpt><trkpt lat="42.1997904" lon="14.6137546"><ele>14.0</ele><time>2026-04-26T09:03:49.336Z</time></trkpt><trkpt lat="42.1997134" lon="14.6139654"><ele>16.333333333333336</ele><time>2026-04-26T09:03:50.335Z</time></trkpt><trkpt lat="42.1996194" lon="14.6141785"><ele>18.666666666666668</ele><time>2026-04-26T09:03:51.336Z</time></trkpt><trkpt lat="42.1995169" lon="14.6143928"><ele>21.0</ele><time>2026-04-26T09:03:52.335Z</time></trkpt><trkpt lat="42.1994054" lon="14.6146133"><ele>21.0</ele><time>2026-04-26T09:03:53.336Z</time></trkpt><trkpt lat="42.199289" lon="14.6148365"><ele>21.0</ele><time>2026-04-26T09:03:54.334Z</time></trkpt><trkpt lat="42.1991725" lon="14.6150631"><ele>21.0</ele><time>2026-04-26T09:03:55.334Z</time></trkpt><trkpt lat="42.1990469" lon="14.6152908"><ele>24.0</ele><time>2026-04-26T09:03:56.334Z</time></trkpt><trkpt lat="42.1989224" lon="14.615522"><ele>27.0</ele><time>2026-04-26T09:03:57.336Z</time></trkpt><trkpt lat="42.198795" lon="14.6157544"><ele>30.0</ele><time>2026-04-26T09:03:58.335Z</time></trkpt><trkpt lat="42.1986673" lon="14.6159879"><ele>26.333333333333332</ele><time>2026-04-26T09:03:59.335Z</time></trkpt><trkpt lat="42.1985408" lon="14.6162254"><ele>22.666666666666664</ele><time>2026-04-26T09:04:00.334Z</time></trkpt><trkpt lat="42.1984127" lon="14.6164573"><ele>19.0</ele><time>2026-04-26T09:04:01.335Z</time></trkpt><trkpt lat="42.1982896" lon="14.6166817"><ele>19.0</ele><time>2026-04-26T09:04:02.335Z</time></trkpt><trkpt lat="42.1981717" lon="14.6168932"><ele>19.0</ele><time>2026-04-26T09:04:03.336Z</time></trkpt><trkpt lat="42.1980583" lon="14.6171017"><ele>19.0</ele><time>2026-04-26T09:04:04.334Z</time></trkpt><trkpt lat="42.1979484" lon="14.6173064"><ele>21.0</ele><time>2026-04-26T09:04:05.335Z</time></trkpt><trkpt lat="42.1978527" lon="14.6175253"><ele>23.0</ele><time>2026-04-26T09:04:06.336Z</time></trkpt><trkpt lat="42.1977707" lon="14.6177593"><ele>25.0</ele><time>2026-04-26T09:04:07.336Z</time></trkpt><trkpt lat="42.197698" lon="14.617997"><ele>25.0</ele><time>2026-04-26T09:04:08.335Z</time></trkpt><trkpt lat="42.1976341" lon="14.6182425"><ele>25.0</ele><time>2026-04-26T09:04:09.335Z</time></trkpt><trkpt lat="42.1975804" lon="14.6185066"><ele>25.0</ele><time>2026-04-26T09:04:10.335Z</time></trkpt><trkpt lat="42.197528" lon="14.6187829"><ele>23.666666666666668</ele><time>2026-04-26T09:04:11.335Z</time></trkpt><trkpt lat="42.1974798" lon="14.6190661"><ele>22.333333333333336</ele><time>2026-04-26T09:04:12.334Z</time></trkpt><trkpt lat="42.1974327" lon="14.6193551"><ele>21.0</ele><time>2026-04-26T09:04:13.335Z</time></trkpt><trkpt lat="42.1973859" lon="14.6196474"><ele>20.666666666666668</ele><time>2026-04-26T09:04:14.335Z</time></trkpt><trkpt lat="42.1973361" lon="14.6199409"><ele>20.333333333333336</ele><time>2026-04-26T09:04:15.335Z</time></trkpt><trkpt lat="42.1972909" lon="14.6202354"><ele>20.0</ele><time>2026-04-26T09:04:16.335Z</time></trkpt><trkpt lat="42.1972427" lon="14.6205348"><ele>22.0</ele><time>2026-04-26T09:04:17.334Z</time></trkpt><trkpt lat="42.1971948" lon="14.6208398"><ele>24.0</ele><time>2026-04-26T09:04:18.334Z</time></trkpt><trkpt lat="42.197147" lon="14.6211394"><ele>22.666666666666668</ele><time>2026-04-26T09:04:19.335Z</time></trkpt><trkpt lat="42.1971027" lon="14.6214213"><ele>21.333333333333336</ele><time>2026-04-26T09:04:20.334Z</time></trkpt><trkpt lat="42.1970598" lon="14.621684"><ele>20.0</ele><time>2026-04-26T09:04:21.334Z</time></trkpt><trkpt lat="42.1970187" lon="14.6219391"><ele>19.333333333333336</ele><time>2026-04-26T09:04:22.334Z</time></trkpt><trkpt lat="42.1969781" lon="14.6221814"><ele>18.666666666666668</ele><time>2026-04-26T09:04:23.335Z</time></trkpt><trkpt lat="42.196925" lon="14.6224171"><ele>18.0</ele><time>2026-04-26T09:04:24.334Z</time></trkpt><trkpt lat="42.1968596" lon="14.622647"><ele>17.0</ele><time>2026-04-26T09:04:25.335Z</time></trkpt><trkpt lat="42.1967793" lon="14.6228647"><ele>16.0</ele><time>2026-04-26T09:04:26.334Z</time></trkpt><trkpt lat="42.19668" lon="14.6230719"><ele>15.0</ele><time>2026-04-26T09:04:27.335Z</time></trkpt><trkpt lat="42.1965595" lon="14.6232689"><ele>14.333333333333332</ele><time>2026-04-26T09:04:28.334Z</time></trkpt><trkpt lat="42.1964279" lon="14.6234452"><ele>13.666666666666666</ele><time>2026-04-26T09:04:29.335Z</time></trkpt><trkpt lat="42.196283" lon="14.6236019"><ele>13.0</ele><time>2026-04-26T09:04:30.334Z</time></trkpt><trkpt lat="42.1961319" lon="14.6237437"><ele>12.666666666666666</ele><time>2026-04-26T09:04:31.335Z</time></trkpt><trkpt lat="42.1959704" lon="14.6238721"><ele>12.333333333333332</ele><time>2026-04-26T09:04:32.334Z</time></trkpt><trkpt lat="42.1957989" lon="14.6239851"><ele>12.0</ele><time>2026-04-26T09:04:33.335Z</time></trkpt><trkpt lat="42.1956361" lon="14.6240938"><ele>12.0</ele><time>2026-04-26T09:04:34.335Z</time></trkpt><trkpt lat="42.1954861" lon="14.6242012"><ele>12.0</ele><time>2026-04-26T09:04:35.335Z</time></trkpt><trkpt lat="42.195353" lon="14.624304"><ele>12.0</ele><time>2026-04-26T09:04:36.336Z</time></trkpt><trkpt lat="42.1952391" lon="14.624418"><ele>11.5</ele><time>2026-04-26T09:04:37.335Z</time></trkpt><trkpt lat="42.1951384" lon="14.6245515"><ele>11.0</ele><time>2026-04-26T09:04:38.335Z</time></trkpt><trkpt lat="42.195049" lon="14.6247109"><ele>10.5</ele><time>2026-04-26T09:04:39.335Z</time></trkpt><trkpt lat="42.1949705" lon="14.6248939"><ele>10.0</ele><time>2026-04-26T09:04:40.335Z</time></trkpt><trkpt lat="42.1949134" lon="14.6250937"><ele>10.0</ele><time>2026-04-26T09:04:41.335Z</time></trkpt><trkpt lat="42.1948653" lon="14.6253047"><ele>10.0</ele><time>2026-04-26T09:04:42.335Z</time></trkpt><trkpt lat="42.1948224" lon="14.6255145"><ele>10.0</ele><time>2026-04-26T09:04:43.335Z</time></trkpt><trkpt lat="42.1947812" lon="14.6257115"><ele>10.25</ele><time>2026-04-26T09:04:44.336Z</time></trkpt><trkpt lat="42.1947407" lon="14.6258906"><ele>10.5</ele><time>2026-04-26T09:04:45.335Z</time></trkpt><trkpt lat="42.1946992" lon="14.6260603"><ele>10.75</ele><time>2026-04-26T09:04:46.335Z</time></trkpt><trkpt lat="42.1946629" lon="14.6262238"><ele>11.0</ele><time>2026-04-26T09:04:47.335Z</time></trkpt><trkpt lat="42.1946253" lon="14.6263771"><ele>11.200000000000001</ele><time>2026-04-26T09:04:48.336Z</time></trkpt><trkpt lat="42.1945904" lon="14.6265232"><ele>11.4</ele><time>2026-04-26T09:04:49.335Z</time></trkpt><trkpt lat="42.1945634" lon="14.6266585"><ele>11.6</ele><time>2026-04-26T09:04:50.335Z</time></trkpt><trkpt lat="42.194532" lon="14.6267722"><ele>11.8</ele><time>2026-04-26T09:04:51.335Z</time></trkpt><trkpt lat="42.1944994" lon="14.6268638"><ele>12.0</ele><time>2026-04-26T09:04:52.334Z</time></trkpt><trkpt lat="42.1944526" lon="14.6269323"><ele>11.714285714285714</ele><time>2026-04-26T09:04:53.334Z</time></trkpt><trkpt lat="42.1943861" lon="14.6269785"><ele>11.428571428571429</ele><time>2026-04-26T09:04:54.335Z</time></trkpt><trkpt lat="42.1943111" lon="14.6270164"><ele>11.142857142857142</ele><time>2026-04-26T09:04:55.335Z</time></trkpt><trkpt lat="42.1942488" lon="14.627073"><ele>10.857142857142858</ele><time>2026-04-26T09:04:56.334Z</time></trkpt><trkpt lat="42.1942021" lon="14.6271398"><ele>10.571428571428571</ele><time>2026-04-26T09:04:57.335Z</time></trkpt><trkpt lat="42.1941685" lon="14.6272155"><ele>10.285714285714285</ele><time>2026-04-26T09:04:58.335Z</time></trkpt><trkpt lat="42.1941511" lon="14.6273086"><ele>10.0</ele><time>2026-04-26T09:04:59.334Z</time></trkpt><trkpt lat="42.1941569" lon="14.6274103"><ele>10.0</ele><time>2026-04-26T09:05:00.335Z</time></trkpt><trkpt lat="42.194184" lon="14.6275145"><ele>10.0</ele><time>2026-04-26T09:05:01.335Z</time></trkpt><trkpt lat="42.1942172" lon="14.6276174"><ele>10.0</ele><time>2026-04-26T09:05:02.335Z</time></trkpt><trkpt lat="42.1942461" lon="14.6277215"><ele>10.0</ele><time>2026-04-26T09:05:03.335Z</time></trkpt><trkpt lat="42.1942573" lon="14.6278399"><ele>10.0</ele><time>2026-04-26T09:05:04.335Z</time></trkpt><trkpt lat="42.1942469" lon="14.6279733"><ele>10.0</ele><time>2026-04-26T09:05:05.336Z</time></trkpt><trkpt lat="42.1942249" lon="14.6281268"><ele>10.333333333333334</ele><time>2026-04-26T09:05:06.334Z</time></trkpt><trkpt lat="42.1941873" lon="14.6283117"><ele>10.666666666666666</ele><time>2026-04-26T09:05:07.334Z</time></trkpt><trkpt lat="42.1941352" lon="14.6285093"><ele>11.0</ele><time>2026-04-26T09:05:08.335Z</time></trkpt><trkpt lat="42.1940788" lon="14.6287283"><ele>10.0</ele><time>2026-04-26T09:05:09.335Z</time></trkpt><trkpt lat="42.1940258" lon="14.6289453"><ele>9.0</ele><time>2026-04-26T09:05:10.335Z</time></trkpt><trkpt lat="42.1939736" lon="14.629168"><ele>8.0</ele><time>2026-04-26T09:05:11.335Z</time></trkpt><trkpt lat="42.1939206" lon="14.6293978"><ele>13.666666666666668</ele><time>2026-04-26T09:05:12.336Z</time></trkpt><trkpt lat="42.1938667" lon="14.6296352"><ele>19.333333333333336</ele><time>2026-04-26T09:05:13.336Z</time></trkpt><trkpt lat="42.1938122" lon="14.6298764"><ele>25.0</ele><time>2026-04-26T09:05:14.335Z</time></trkpt><trkpt lat="42.1937575" lon="14.6301275"><ele>21.333333333333336</ele><time>2026-04-26T09:05:15.335Z</time></trkpt><trkpt lat="42.193704" lon="14.6303809"><ele>17.666666666666668</ele><time>2026-04-26T09:05:16.335Z</time></trkpt><trkpt lat="42.1936493" lon="14.6306377"><ele>14.0</ele><time>2026-04-26T09:05:17.334Z</time></trkpt><trkpt lat="42.193592" lon="14.6308923"><ele>14.0</ele><time>2026-04-26T09:05:18.335Z</time></trkpt><trkpt lat="42.1935343" lon="14.631139"><ele>14.0</ele><time>2026-04-26T09:05:19.335Z</time></trkpt><trkpt lat="42.1934801" lon="14.631381"><ele>14.0</ele><time>2026-04-26T09:05:20.334Z</time></trkpt><trkpt lat="42.1934268" lon="14.6316118"><ele>13.0</ele><time>2026-04-26T09:05:21.335Z</time></trkpt><trkpt lat="42.1933811" lon="14.6318248"><ele>12.0</ele><time>2026-04-26T09:05:22.335Z</time></trkpt><trkpt lat="42.1933363" lon="14.6320254"><ele>11.0</ele><time>2026-04-26T09:05:23.334Z</time></trkpt><trkpt lat="42.1932823" lon="14.6322054"><ele>10.75</ele><time>2026-04-26T09:05:24.335Z</time></trkpt><trkpt lat="42.193213" lon="14.6323734"><ele>10.5</ele><time>2026-04-26T09:05:25.335Z</time></trkpt><trkpt lat="42.1931202" lon="14.6325266"><ele>10.25</ele><time>2026-04-26T09:05:26.335Z</time></trkpt><trkpt lat="42.1930089" lon="14.6326596"><ele>10.0</ele><time>2026-04-26T09:05:27.335Z</time></trkpt><trkpt lat="42.1928864" lon="14.632772"><ele>11.0</ele><time>2026-04-26T09:05:28.334Z</time></trkpt><trkpt lat="42.1927643" lon="14.6328512"><ele>12.0</ele><time>2026-04-26T09:05:29.335Z</time></trkpt><trkpt lat="42.1926429" lon="14.6329033"><ele>13.0</ele><time>2026-04-26T09:05:30.335Z</time></trkpt><trkpt lat="42.1925262" lon="14.6329277"><ele>14.0</ele><time>2026-04-26T09:05:31.335Z</time></trkpt><trkpt lat="42.1924205" lon="14.6329396"><ele>13.500000000000002</ele><time>2026-04-26T09:05:32.335Z</time></trkpt><trkpt lat="42.1923318" lon="14.6329465"><ele>13.0</ele><time>2026-04-26T09:05:33.334Z</time></trkpt><trkpt lat="42.1922553" lon="14.6329471"><ele>12.5</ele><time>2026-04-26T09:05:34.335Z</time></trkpt><trkpt lat="42.1921787" lon="14.6329361"><ele>12.0</ele><time>2026-04-26T09:05:35.335Z</time></trkpt><trkpt lat="42.1920973" lon="14.6329118"><ele>11.5</ele><time>2026-04-26T09:05:36.335Z</time></trkpt><trkpt lat="42.1920204" lon="14.6328927"><ele>11.0</ele><time>2026-04-26T09:05:37.334Z</time></trkpt><trkpt lat="42.1919364" lon="14.6328807"><ele>11.0</ele><time>2026-04-26T09:05:38.335Z</time></trkpt><trkpt lat="42.1918472" lon="14.6328896"><ele>11.0</ele><time>2026-04-26T09:05:39.335Z</time></trkpt><trkpt lat="42.1917521" lon="14.6329307"><ele>11.0</ele><time>2026-04-26T09:05:40.335Z</time></trkpt><trkpt lat="42.191649" lon="14.6329795"><ele>11.0</ele><time>2026-04-26T09:05:41.335Z</time></trkpt><trkpt lat="42.1915323" lon="14.6330144"><ele>11.0</ele><time>2026-04-26T09:05:42.335Z</time></trkpt><trkpt lat="42.191405" lon="14.6330379"><ele>11.75</ele><time>2026-04-26T09:05:43.335Z</time></trkpt><trkpt lat="42.1912688" lon="14.6330541"><ele>12.5</ele><time>2026-04-26T09:05:44.335Z</time></trkpt><trkpt lat="42.1911244" lon="14.633068"><ele>13.25</ele><time>2026-04-26T09:05:45.335Z</time></trkpt><trkpt lat="42.1909774" lon="14.6330805"><ele>14.0</ele><time>2026-04-26T09:05:46.335Z</time></trkpt><trkpt lat="42.1908305" lon="14.6330933"><ele>14.0</ele><time>2026-04-26T09:05:47.335Z</time></trkpt><trkpt lat="42.1906979" lon="14.6331072"><ele>14.0</ele><time>2026-04-26T09:05:48.334Z</time></trkpt><trkpt lat="42.1905789" lon="14.633119"><ele>14.0</ele><time>2026-04-26T09:05:49.335Z</time></trkpt><trkpt lat="42.1904671" lon="14.6331296"><ele>14.0</ele><time>2026-04-26T09:05:50.335Z</time></trkpt><trkpt lat="42.1903649" lon="14.633138"><ele>14.833333333333334</ele><time>2026-04-26T09:05:51.335Z</time></trkpt><trkpt lat="42.1902708" lon="14.6331397"><ele>15.666666666666668</ele><time>2026-04-26T09:05:52.334Z</time></trkpt><trkpt lat="42.1901814" lon="14.6331186"><ele>16.5</ele><time>2026-04-26T09:05:53.335Z</time></trkpt><trkpt lat="42.1901013" lon="14.6330707"><ele>17.333333333333332</ele><time>2026-04-26T09:05:54.335Z</time></trkpt><trkpt lat="42.1900383" lon="14.632992"><ele>18.166666666666664</ele><time>2026-04-26T09:05:55.335Z</time></trkpt><trkpt lat="42.1899952" lon="14.6328925"><ele>19.0</ele><time>2026-04-26T09:05:56.335Z</time></trkpt><trkpt lat="42.189981" lon="14.6327839"><ele>19.6</ele><time>2026-04-26T09:05:57.335Z</time></trkpt><trkpt lat="42.1899989" lon="14.6326763"><ele>20.2</ele><time>2026-04-26T09:05:58.334Z</time></trkpt><trkpt lat="42.1900443" lon="14.6325672"><ele>20.8</ele><time>2026-04-26T09:05:59.335Z</time></trkpt><trkpt lat="42.1901131" lon="14.6324603"><ele>21.400000000000002</ele><time>2026-04-26T09:06:00.335Z</time></trkpt><trkpt lat="42.1902065" lon="14.6323504"><ele>22.0</ele><time>2026-04-26T09:06:01.335Z</time></trkpt><trkpt lat="42.1903068" lon="14.6322297"><ele>22.0</ele><time>2026-04-26T09:06:02.334Z</time></trkpt><trkpt lat="42.190415" lon="14.6320972"><ele>22.0</ele><time>2026-04-26T09:06:03.335Z</time></trkpt><trkpt lat="42.1905294" lon="14.6319666"><ele>22.0</ele><time>2026-04-26T09:06:04.335Z</time></trkpt><trkpt lat="42.1906416" lon="14.6318404"><ele>22.0</ele><time>2026-04-26T09:06:05.336Z</time></trkpt><trkpt lat="42.190747" lon="14.631722"><ele>22.5</ele><time>2026-04-26T09:06:06.335Z</time></trkpt><trkpt lat="42.1908472" lon="14.6316033"><ele>23.0</ele><time>2026-04-26T09:06:07.334Z</time></trkpt><trkpt lat="42.1909396" lon="14.6314966"><ele>23.5</ele><time>2026-04-26T09:06:08.335Z</time></trkpt><trkpt lat="42.1910237" lon="14.6313944"><ele>24.0</ele><time>2026-04-26T09:06:09.335Z</time></trkpt><trkpt lat="42.1910953" lon="14.6312864"><ele>24.0</ele><time>2026-04-26T09:06:10.335Z</time></trkpt><trkpt lat="42.1911387" lon="14.631161"><ele>24.0</ele><time>2026-04-26T09:06:11.335Z</time></trkpt><trkpt lat="42.1911671" lon="14.6310347"><ele>24.0</ele><time>2026-04-26T09:06:12.335Z</time></trkpt><trkpt lat="42.191139" lon="14.6309103"><ele>24.0</ele><time>2026-04-26T09:06:13.334Z</time></trkpt><trkpt lat="42.1910851" lon="14.6307813"><ele>24.0</ele><time>2026-04-26T09:06:14.334Z</time></trkpt><trkpt lat="42.1910079" lon="14.630645"><ele>26.666666666666664</ele><time>2026-04-26T09:06:15.335Z</time></trkpt><trkpt lat="42.1909221" lon="14.6304967"><ele>29.333333333333332</ele><time>2026-04-26T09:06:16.335Z</time></trkpt><trkpt lat="42.1908229" lon="14.6303433"><ele>32.0</ele><time>2026-04-26T09:06:17.335Z</time></trkpt><trkpt lat="42.1907215" lon="14.6301762"><ele>34.75</ele><time>2026-04-26T09:06:18.334Z</time></trkpt><trkpt lat="42.1906229" lon="14.630013"><ele>37.5</ele><time>2026-04-26T09:06:19.336Z</time></trkpt><trkpt lat="42.1905322" lon="14.629863"><ele>40.25</ele><time>2026-04-26T09:06:20.334Z</time></trkpt><trkpt lat="42.1904501" lon="14.6297257"><ele>43.0</ele><time>2026-04-26T09:06:21.335Z</time></trkpt><trkpt lat="42.1903595" lon="14.6296025"><ele>43.0</ele><time>2026-04-26T09:06:22.335Z</time></trkpt><trkpt lat="42.1902558" lon="14.6294988"><ele>43.0</ele><time>2026-04-26T09:06:23.335Z</time></trkpt><trkpt lat="42.1901439" lon="14.6294245"><ele>43.0</ele><time>2026-04-26T09:06:24.334Z</time></trkpt><trkpt lat="42.1900272" lon="14.6293765"><ele>43.0</ele><time>2026-04-26T09:06:25.335Z</time></trkpt><trkpt lat="42.1899026" lon="14.6293445"><ele>43.75</ele><time>2026-04-26T09:06:26.335Z</time></trkpt><trkpt lat="42.1897864" lon="14.6293154"><ele>44.5</ele><time>2026-04-26T09:06:27.334Z</time></trkpt><trkpt lat="42.1896732" lon="14.6292777"><ele>45.25</ele><time>2026-04-26T09:06:28.334Z</time></trkpt><trkpt lat="42.1895605" lon="14.6292133"><ele>46.0</ele><time>2026-04-26T09:06:29.335Z</time></trkpt><trkpt lat="42.189449" lon="14.6291251"><ele>46.0</ele><time>2026-04-26T09:06:30.336Z</time></trkpt><trkpt lat="42.1893308" lon="14.6290258"><ele>46.0</ele><time>2026-04-26T09:06:31.336Z</time></trkpt><trkpt lat="42.1892128" lon="14.6289157"><ele>46.0</ele><time>2026-04-26T09:06:32.335Z</time></trkpt><trkpt lat="42.1891163" lon="14.6287729"><ele>46.0</ele><time>2026-04-26T09:06:33.335Z</time></trkpt><trkpt lat="42.1890231" lon="14.6286094"><ele>48.0</ele><time>2026-04-26T09:06:34.335Z</time></trkpt><trkpt lat="42.1889387" lon="14.628437"><ele>50.0</ele><time>2026-04-26T09:06:35.335Z</time></trkpt><trkpt lat="42.1888618" lon="14.6282489"><ele>52.0</ele><time>2026-04-26T09:06:36.336Z</time></trkpt><trkpt lat="42.1887841" lon="14.6280532"><ele>52.0</ele><time>2026-04-26T09:06:37.336Z</time></trkpt><trkpt lat="42.1887099" lon="14.6278647"><ele>52.0</ele><time>2026-04-26T09:06:38.335Z</time></trkpt><trkpt lat="42.1886317" lon="14.6276853"><ele>52.0</ele><time>2026-04-26T09:06:39.335Z</time></trkpt><trkpt lat="42.1885519" lon="14.6274936"><ele>52.25</ele><time>2026-04-26T09:06:40.335Z</time></trkpt><trkpt lat="42.1884868" lon="14.6273102"><ele>52.5</ele><time>2026-04-26T09:06:41.334Z</time></trkpt><trkpt lat="42.1884771" lon="14.6271362"><ele>52.75</ele><time>2026-04-26T09:06:42.335Z</time></trkpt><trkpt lat="42.1884692" lon="14.6269392"><ele>53.0</ele><time>2026-04-26T09:06:43.336Z</time></trkpt><trkpt lat="42.1884656" lon="14.6267531"><ele>53.25</ele><time>2026-04-26T09:06:44.335Z</time></trkpt><trkpt lat="42.188464" lon="14.6265666"><ele>53.5</ele><time>2026-04-26T09:06:45.335Z</time></trkpt><trkpt lat="42.1884476" lon="14.6263742"><ele>53.75</ele><time>2026-04-26T09:06:46.334Z</time></trkpt><trkpt lat="42.1884188" lon="14.6261708"><ele>54.0</ele><time>2026-04-26T09:06:47.336Z</time></trkpt><trkpt lat="42.1883846" lon="14.6259592"><ele>55.0</ele><time>2026-04-26T09:06:48.335Z</time></trkpt><trkpt lat="42.1883407" lon="14.6257432"><ele>56.0</ele><time>2026-04-26T09:06:49.335Z</time></trkpt><trkpt lat="42.1882993" lon="14.6255292"><ele>57.0</ele><time>2026-04-26T09:06:50.335Z</time></trkpt><trkpt lat="42.1882637" lon="14.6253377"><ele>58.0</ele><time>2026-04-26T09:06:51.335Z</time></trkpt><trkpt lat="42.1882133" lon="14.6251661"><ele>59.0</ele><time>2026-04-26T09:06:52.335Z</time></trkpt><trkpt lat="42.1881577" lon="14.624997"><ele>60.0</ele><time>2026-04-26T09:06:53.335Z</time></trkpt><trkpt lat="42.1880618" lon="14.624847"><ele>61.0</ele><time>2026-04-26T09:06:54.334Z</time></trkpt><trkpt lat="42.1879532" lon="14.6246982"><ele>61.33333333333333</ele><time>2026-04-26T09:06:55.334Z</time></trkpt><trkpt lat="42.1878291" lon="14.6245422"><ele>61.66666666666667</ele><time>2026-04-26T09:06:56.335Z</time></trkpt><trkpt lat="42.1877025" lon="14.6243777"><ele>62.0</ele><time>2026-04-26T09:06:57.335Z</time></trkpt><trkpt lat="42.1875637" lon="14.6241989"><ele>62.333333333333336</ele><time>2026-04-26T09:06:58.336Z</time></trkpt><trkpt lat="42.1874215" lon="14.6240229"><ele>62.66666666666667</ele><time>2026-04-26T09:06:59.334Z</time></trkpt><trkpt lat="42.1872846" lon="14.6238479"><ele>63.0</ele><time>2026-04-26T09:07:00.336Z</time></trkpt><trkpt lat="42.187149" lon="14.6236746"><ele>64.33333333333333</ele><time>2026-04-26T09:07:01.335Z</time></trkpt><trkpt lat="42.1870129" lon="14.6235019"><ele>65.66666666666666</ele><time>2026-04-26T09:07:02.335Z</time></trkpt><trkpt lat="42.186883" lon="14.6233374"><ele>67.0</ele><time>2026-04-26T09:07:03.335Z</time></trkpt><trkpt lat="42.1867564" lon="14.6231801"><ele>67.0</ele><time>2026-04-26T09:07:04.335Z</time></trkpt><trkpt lat="42.1866244" lon="14.6230291"><ele>67.0</ele><time>2026-04-26T09:07:05.334Z</time></trkpt><trkpt lat="42.1864723" lon="14.6228951"><ele>67.0</ele><time>2026-04-26T09:07:06.335Z</time></trkpt><trkpt lat="42.1863064" lon="14.6227738"><ele>68.33333333333333</ele><time>2026-04-26T09:07:07.334Z</time></trkpt><trkpt lat="42.1861337" lon="14.6226488"><ele>69.66666666666667</ele><time>2026-04-26T09:07:08.335Z</time></trkpt><trkpt lat="42.185961" lon="14.622518"><ele>71.0</ele><time>2026-04-26T09:07:09.336Z</time></trkpt><trkpt lat="42.1857857" lon="14.6223865"><ele>71.66666666666667</ele><time>2026-04-26T09:07:10.335Z</time></trkpt><trkpt lat="42.1856092" lon="14.6222596"><ele>72.33333333333333</ele><time>2026-04-26T09:07:11.336Z</time></trkpt><trkpt lat="42.1854332" lon="14.6221297"><ele>73.0</ele><time>2026-04-26T09:07:12.335Z</time></trkpt><trkpt lat="42.1852588" lon="14.621999"><ele>73.33333333333333</ele><time>2026-04-26T09:07:13.335Z</time></trkpt><trkpt lat="42.1850835" lon="14.6218688"><ele>73.66666666666667</ele><time>2026-04-26T09:07:14.335Z</time></trkpt><trkpt lat="42.1849113" lon="14.6217384"><ele>74.0</ele><time>2026-04-26T09:07:15.334Z</time></trkpt><trkpt lat="42.184738" lon="14.6216084"><ele>75.0</ele><time>2026-04-26T09:07:16.335Z</time></trkpt><trkpt lat="42.1845627" lon="14.6214815"><ele>76.0</ele><time>2026-04-26T09:07:17.335Z</time></trkpt><trkpt lat="42.1843925" lon="14.6213534"><ele>77.0</ele><time>2026-04-26T09:07:18.335Z</time></trkpt><trkpt lat="42.1842218" lon="14.6212257"><ele>77.33333333333334</ele><time>2026-04-26T09:07:19.336Z</time></trkpt><trkpt lat="42.1840542" lon="14.6210952"><ele>77.66666666666667</ele><time>2026-04-26T09:07:20.335Z</time></trkpt><trkpt lat="42.1838813" lon="14.6209692"><ele>78.0</ele><time>2026-04-26T09:07:21.334Z</time></trkpt><trkpt lat="42.1837042" lon="14.6208401"><ele>78.66666666666667</ele><time>2026-04-26T09:07:22.335Z</time></trkpt><trkpt lat="42.1835321" lon="14.620711"><ele>79.33333333333334</ele><time>2026-04-26T09:07:23.334Z</time></trkpt><trkpt lat="42.1833581" lon="14.6205829"><ele>80.0</ele><time>2026-04-26T09:07:24.335Z</time></trkpt><trkpt lat="42.1831876" lon="14.6204563"><ele>81.0</ele><time>2026-04-26T09:07:25.336Z</time></trkpt><trkpt lat="42.1830187" lon="14.6203286"><ele>82.0</ele><time>2026-04-26T09:07:26.334Z</time></trkpt><trkpt lat="42.1828481" lon="14.6202007"><ele>83.0</ele><time>2026-04-26T09:07:27.335Z</time></trkpt><trkpt lat="42.1826774" lon="14.620073"><ele>83.66666666666667</ele><time>2026-04-26T09:07:28.335Z</time></trkpt><trkpt lat="42.182501" lon="14.6199429"><ele>84.33333333333333</ele><time>2026-04-26T09:07:29.335Z</time></trkpt><trkpt lat="42.1823275" lon="14.6198113"><ele>85.0</ele><time>2026-04-26T09:07:30.335Z</time></trkpt><trkpt lat="42.1821533" lon="14.6196849"><ele>85.0</ele><time>2026-04-26T09:07:31.336Z</time></trkpt><trkpt lat="42.181983" lon="14.6195632"><ele>85.0</ele><time>2026-04-26T09:07:32.335Z</time></trkpt><trkpt lat="42.1818171" lon="14.6194403"><ele>85.0</ele><time>2026-04-26T09:07:33.335Z</time></trkpt><trkpt lat="42.1816521" lon="14.6193214"><ele>85.66666666666666</ele><time>2026-04-26T09:07:34.335Z</time></trkpt><trkpt lat="42.1814921" lon="14.6192028"><ele>86.33333333333333</ele><time>2026-04-26T09:07:35.335Z</time></trkpt><trkpt lat="42.1813323" lon="14.6190806"><ele>87.0</ele><time>2026-04-26T09:07:36.334Z</time></trkpt><trkpt lat="42.1811685" lon="14.6189573"><ele>87.0</ele><time>2026-04-26T09:07:37.336Z</time></trkpt><trkpt lat="42.181001" lon="14.6188393"><ele>87.0</ele><time>2026-04-26T09:07:38.334Z</time></trkpt><trkpt lat="42.1808389" lon="14.6187172"><ele>87.0</ele><time>2026-04-26T09:07:39.335Z</time></trkpt><trkpt lat="42.1806734" lon="14.6185884"><ele>88.33333333333333</ele><time>2026-04-26T09:07:40.335Z</time></trkpt><trkpt lat="42.1805049" lon="14.6184657"><ele>89.66666666666666</ele><time>2026-04-26T09:07:41.335Z</time></trkpt><trkpt lat="42.1803341" lon="14.6183401"><ele>91.0</ele><time>2026-04-26T09:07:42.336Z</time></trkpt><trkpt lat="42.1801646" lon="14.6182149"><ele>91.0</ele><time>2026-04-26T09:07:43.335Z</time></trkpt><trkpt lat="42.1800001" lon="14.6180892"><ele>91.0</ele><time>2026-04-26T09:07:44.335Z</time></trkpt><trkpt lat="42.1798358" lon="14.6179644"><ele>91.0</ele><time>2026-04-26T09:07:45.335Z</time></trkpt><trkpt lat="42.1796736" lon="14.6178436"><ele>92.0</ele><time>2026-04-26T09:07:46.336Z</time></trkpt><trkpt lat="42.1795107" lon="14.6177151"><ele>93.0</ele><time>2026-04-26T09:07:47.334Z</time></trkpt><trkpt lat="42.1793451" lon="14.6175858"><ele>94.0</ele><time>2026-04-26T09:07:48.335Z</time></trkpt><trkpt lat="42.1791703" lon="14.6174604"><ele>94.66666666666666</ele><time>2026-04-26T09:07:49.334Z</time></trkpt><trkpt lat="42.1789871" lon="14.6173336"><ele>95.33333333333333</ele><time>2026-04-26T09:07:50.335Z</time></trkpt><trkpt lat="42.1788052" lon="14.6171994"><ele>96.0</ele><time>2026-04-26T09:07:51.334Z</time></trkpt><trkpt lat="42.1786248" lon="14.6170628"><ele>95.66666666666667</ele><time>2026-04-26T09:07:52.335Z</time></trkpt><trkpt lat="42.178441" lon="14.6169275"><ele>95.33333333333334</ele><time>2026-04-26T09:07:53.334Z</time></trkpt><trkpt lat="42.1782592" lon="14.6167908"><ele>95.0</ele><time>2026-04-26T09:07:54.335Z</time></trkpt><trkpt lat="42.1780792" lon="14.6166504"><ele>96.0</ele><time>2026-04-26T09:07:55.335Z</time></trkpt><trkpt lat="42.1778965" lon="14.6165146"><ele>97.0</ele><time>2026-04-26T09:07:56.335Z</time></trkpt><trkpt lat="42.1777119" lon="14.6163802"><ele>98.0</ele><time>2026-04-26T09:07:57.336Z</time></trkpt><trkpt lat="42.177536" lon="14.6162426"><ele>98.33333333333333</ele><time>2026-04-26T09:07:58.335Z</time></trkpt><trkpt lat="42.1773653" lon="14.6161142"><ele>98.66666666666666</ele><time>2026-04-26T09:07:59.335Z</time></trkpt><trkpt lat="42.1772029" lon="14.6159946"><ele>99.0</ele><time>2026-04-26T09:08:00.335Z</time></trkpt><trkpt lat="42.1770402" lon="14.6158883"><ele>99.33333333333334</ele><time>2026-04-26T09:08:01.336Z</time></trkpt><trkpt lat="42.1768655" lon="14.6158018"><ele>99.66666666666667</ele><time>2026-04-26T09:08:02.335Z</time></trkpt><trkpt lat="42.1766804" lon="14.6157392"><ele>100.0</ele><time>2026-04-26T09:08:03.335Z</time></trkpt><trkpt lat="42.1764814" lon="14.6156937"><ele>100.66666666666667</ele><time>2026-04-26T09:08:04.335Z</time></trkpt><trkpt lat="42.1762756" lon="14.6156509"><ele>101.33333333333334</ele><time>2026-04-26T09:08:05.335Z</time></trkpt><trkpt lat="42.176062" lon="14.6156077"><ele>102.0</ele><time>2026-04-26T09:08:06.335Z</time></trkpt><trkpt lat="42.1758399" lon="14.615556"><ele>102.33333333333334</ele><time>2026-04-26T09:08:07.334Z</time></trkpt><trkpt lat="42.1756287" lon="14.6155038"><ele>102.66666666666667</ele><time>2026-04-26T09:08:08.335Z</time></trkpt><trkpt lat="42.1754158" lon="14.6154515"><ele>103.0</ele><time>2026-04-26T09:08:09.336Z</time></trkpt><trkpt lat="42.1752046" lon="14.6154009"><ele>103.0</ele><time>2026-04-26T09:08:10.334Z</time></trkpt><trkpt lat="42.1749922" lon="14.6153484"><ele>103.0</ele><time>2026-04-26T09:08:11.335Z</time></trkpt><trkpt lat="42.1747804" lon="14.6152988"><ele>103.0</ele><time>2026-04-26T09:08:12.335Z</time></trkpt><trkpt lat="42.1745743" lon="14.6152534"><ele>103.0</ele><time>2026-04-26T09:08:13.335Z</time></trkpt><trkpt lat="42.174371" lon="14.6152049"><ele>103.0</ele><time>2026-04-26T09:08:14.336Z</time></trkpt><trkpt lat="42.1741707" lon="14.6151537"><ele>103.0</ele><time>2026-04-26T09:08:15.335Z</time></trkpt><trkpt lat="42.1739761" lon="14.6151074"><ele>103.0</ele><time>2026-04-26T09:08:16.335Z</time></trkpt><trkpt lat="42.1737836" lon="14.6150629"><ele>103.0</ele><time>2026-04-26T09:08:17.335Z</time></trkpt><trkpt lat="42.1735935" lon="14.6150104"><ele>103.0</ele><time>2026-04-26T09:08:18.335Z</time></trkpt><trkpt lat="42.1734057" lon="14.6149642"><ele>103.0</ele><time>2026-04-26T09:08:19.335Z</time></trkpt><trkpt lat="42.1732208" lon="14.6149211"><ele>103.0</ele><time>2026-04-26T09:08:20.335Z</time></trkpt><trkpt lat="42.1730379" lon="14.6148703"><ele>103.0</ele><time>2026-04-26T09:08:21.336Z</time></trkpt><trkpt lat="42.1728513" lon="14.6148259"><ele>104.0</ele><time>2026-04-26T09:08:22.335Z</time></trkpt><trkpt lat="42.1726664" lon="14.614783"><ele>105.0</ele><time>2026-04-26T09:08:23.335Z</time></trkpt><trkpt lat="42.1724958" lon="14.6147481"><ele>106.0</ele><time>2026-04-26T09:08:24.336Z</time></trkpt><trkpt lat="42.1723321" lon="14.6147137"><ele>106.0</ele><time>2026-04-26T09:08:25.335Z</time></trkpt><trkpt lat="42.1721733" lon="14.6146728"><ele>106.0</ele><time>2026-04-26T09:08:26.334Z</time></trkpt><trkpt lat="42.1720151" lon="14.6146313"><ele>106.0</ele><time>2026-04-26T09:08:27.335Z</time></trkpt><trkpt lat="42.1718573" lon="14.6145932"><ele>106.0</ele><time>2026-04-26T09:08:28.335Z</time></trkpt><trkpt lat="42.1716956" lon="14.6145587"><ele>106.0</ele><time>2026-04-26T09:08:29.335Z</time></trkpt><trkpt lat="42.17153" lon="14.6145179"><ele>106.0</ele><time>2026-04-26T09:08:30.336Z</time></trkpt><trkpt lat="42.1713581" lon="14.6144759"><ele>105.66666666666667</ele><time>2026-04-26T09:08:31.335Z</time></trkpt><trkpt lat="42.171182" lon="14.6144375"><ele>105.33333333333334</ele><time>2026-04-26T09:08:32.334Z</time></trkpt><trkpt lat="42.1710061" lon="14.6143971"><ele>105.0</ele><time>2026-04-26T09:08:33.335Z</time></trkpt><trkpt lat="42.1708392" lon="14.6143571"><ele>106.5</ele><time>2026-04-26T09:08:34.335Z</time></trkpt><trkpt lat="42.1706848" lon="14.6143214"><ele>108.0</ele><time>2026-04-26T09:08:35.336Z</time></trkpt><trkpt lat="42.1705428" lon="14.6142865"><ele>109.5</ele><time>2026-04-26T09:08:36.335Z</time></trkpt><trkpt lat="42.1704084" lon="14.6142545"><ele>111.0</ele><time>2026-04-26T09:08:37.334Z</time></trkpt><trkpt lat="42.170286" lon="14.6142247"><ele>111.0</ele><time>2026-04-26T09:08:38.335Z</time></trkpt><trkpt lat="42.1701668" lon="14.6141956"><ele>111.0</ele><time>2026-04-26T09:08:39.335Z</time></trkpt><trkpt lat="42.1700374" lon="14.6141616"><ele>111.0</ele><time>2026-04-26T09:08:40.335Z</time></trkpt><trkpt lat="42.1698984" lon="14.6141282"><ele>111.0</ele><time>2026-04-26T09:08:41.335Z</time></trkpt><trkpt lat="42.1697506" lon="14.6140944"><ele>111.66666666666666</ele><time>2026-04-26T09:08:42.335Z</time></trkpt><trkpt lat="42.1695942" lon="14.6140562"><ele>112.33333333333333</ele><time>2026-04-26T09:08:43.335Z</time></trkpt><trkpt lat="42.1694374" lon="14.6140202"><ele>113.0</ele><time>2026-04-26T09:08:44.336Z</time></trkpt><trkpt lat="42.1692735" lon="14.6139959"><ele>113.0</ele><time>2026-04-26T09:08:45.335Z</time></trkpt><trkpt lat="42.1691064" lon="14.6139863"><ele>113.0</ele><time>2026-04-26T09:08:46.335Z</time></trkpt><trkpt lat="42.1689373" lon="14.6139897"><ele>113.0</ele><time>2026-04-26T09:08:47.335Z</time></trkpt><trkpt lat="42.1687577" lon="14.6140021"><ele>113.33333333333333</ele><time>2026-04-26T09:08:48.335Z</time></trkpt><trkpt lat="42.168573" lon="14.6140264"><ele>113.66666666666666</ele><time>2026-04-26T09:08:49.335Z</time></trkpt><trkpt lat="42.1683845" lon="14.6140496"><ele>114.0</ele><time>2026-04-26T09:08:50.334Z</time></trkpt><trkpt lat="42.1681985" lon="14.61408"><ele>114.66666666666666</ele><time>2026-04-26T09:08:51.335Z</time></trkpt><trkpt lat="42.1680102" lon="14.6141058"><ele>115.33333333333333</ele><time>2026-04-26T09:08:52.335Z</time></trkpt><trkpt lat="42.1678359" lon="14.6141209"><ele>116.0</ele><time>2026-04-26T09:08:53.335Z</time></trkpt><trkpt lat="42.1676795" lon="14.6141327"><ele>116.0</ele><time>2026-04-26T09:08:54.335Z</time></trkpt><trkpt lat="42.1675406" lon="14.6141573"><ele>116.0</ele><time>2026-04-26T09:08:55.335Z</time></trkpt><trkpt lat="42.1673911" lon="14.6141796"><ele>116.0</ele><time>2026-04-26T09:08:56.334Z</time></trkpt><trkpt lat="42.1672363" lon="14.6142097"><ele>116.0</ele><time>2026-04-26T09:08:57.335Z</time></trkpt><trkpt lat="42.1670743" lon="14.6142339"><ele>116.66666666666666</ele><time>2026-04-26T09:08:58.335Z</time></trkpt><trkpt lat="42.1669087" lon="14.614259"><ele>117.33333333333334</ele><time>2026-04-26T09:08:59.335Z</time></trkpt><trkpt lat="42.166742" lon="14.6142824"><ele>118.0</ele><time>2026-04-26T09:09:00.335Z</time></trkpt><trkpt lat="42.1665675" lon="14.6143009"><ele>118.0</ele><time>2026-04-26T09:09:01.335Z</time></trkpt><trkpt lat="42.1663998" lon="14.6143264"><ele>118.0</ele><time>2026-04-26T09:09:02.334Z</time></trkpt><trkpt lat="42.1662436" lon="14.6143479"><ele>118.0</ele><time>2026-04-26T09:09:03.335Z</time></trkpt><trkpt lat="42.1660934" lon="14.6143661"><ele>118.0</ele><time>2026-04-26T09:09:04.334Z</time></trkpt><trkpt lat="42.1659546" lon="14.6143824"><ele>118.0</ele><time>2026-04-26T09:09:05.335Z</time></trkpt><trkpt lat="42.1658235" lon="14.6144017"><ele>118.0</ele><time>2026-04-26T09:09:06.334Z</time></trkpt><trkpt lat="42.1656989" lon="14.6144234"><ele>118.0</ele><time>2026-04-26T09:09:07.335Z</time></trkpt><trkpt lat="42.1655775" lon="14.6144405"><ele>118.0</ele><time>2026-04-26T09:09:08.335Z</time></trkpt><trkpt lat="42.1654623" lon="14.6144519"><ele>118.00000000000001</ele><time>2026-04-26T09:09:09.335Z</time></trkpt><trkpt lat="42.1653578" lon="14.6144609"><ele>118.00000000000001</ele><time>2026-04-26T09:09:10.334Z</time></trkpt><trkpt lat="42.1652567" lon="14.6144767"><ele>118.0</ele><time>2026-04-26T09:09:11.335Z</time></trkpt><trkpt lat="42.165158" lon="14.6144941"><ele>118.0</ele><time>2026-04-26T09:09:12.335Z</time></trkpt><trkpt lat="42.1650594" lon="14.6145074"><ele>118.0</ele><time>2026-04-26T09:09:13.335Z</time></trkpt><trkpt lat="42.1649663" lon="14.6145217"><ele>118.00000000000001</ele><time>2026-04-26T09:09:14.335Z</time></trkpt><trkpt lat="42.1648714" lon="14.6145332"><ele>118.00000000000001</ele><time>2026-04-26T09:09:15.335Z</time></trkpt><trkpt lat="42.1647784" lon="14.6145448"><ele>118.0</ele><time>2026-04-26T09:09:16.334Z</time></trkpt><trkpt lat="42.1646829" lon="14.6145611"><ele>118.0</ele><time>2026-04-26T09:09:17.335Z</time></trkpt><trkpt lat="42.1645853" lon="14.6145804"><ele>118.4</ele><time>2026-04-26T09:09:18.334Z</time></trkpt><trkpt lat="42.164487" lon="14.6145968"><ele>118.80000000000001</ele><time>2026-04-26T09:09:19.334Z</time></trkpt><trkpt lat="42.164381" lon="14.6146058"><ele>119.2</ele><time>2026-04-26T09:09:20.335Z</time></trkpt><trkpt lat="42.1642669" lon="14.6146194"><ele>119.6</ele><time>2026-04-26T09:09:21.335Z</time></trkpt><trkpt lat="42.1641553" lon="14.6146381"><ele>120.0</ele><time>2026-04-26T09:09:22.335Z</time></trkpt><trkpt lat="42.1640448" lon="14.6146547"><ele>120.75</ele><time>2026-04-26T09:09:23.335Z</time></trkpt><trkpt lat="42.16393" lon="14.6146741"><ele>121.5</ele><time>2026-04-26T09:09:24.336Z</time></trkpt><trkpt lat="42.1638165" lon="14.614691"><ele>122.25</ele><time>2026-04-26T09:09:25.335Z</time></trkpt><trkpt lat="42.1637023" lon="14.6147074"><ele>123.0</ele><time>2026-04-26T09:09:26.334Z</time></trkpt><trkpt lat="42.1635843" lon="14.6147236"><ele>123.0</ele><time>2026-04-26T09:09:27.335Z</time></trkpt><trkpt lat="42.163474" lon="14.6147394"><ele>123.00000000000001</ele><time>2026-04-26T09:09:28.335Z</time></trkpt><trkpt lat="42.1633688" lon="14.6147557"><ele>123.00000000000001</ele><time>2026-04-26T09:09:29.335Z</time></trkpt><trkpt lat="42.1632645" lon="14.6147743"><ele>123.0</ele><time>2026-04-26T09:09:30.336Z</time></trkpt><trkpt lat="42.1631588" lon="14.6147782"><ele>123.0</ele><time>2026-04-26T09:09:31.335Z</time></trkpt><trkpt lat="42.1630608" lon="14.6147829"><ele>123.5</ele><time>2026-04-26T09:09:32.335Z</time></trkpt><trkpt lat="42.1629552" lon="14.6147953"><ele>124.0</ele><time>2026-04-26T09:09:33.335Z</time></trkpt><trkpt lat="42.1628436" lon="14.6148177"><ele>124.5</ele><time>2026-04-26T09:09:34.335Z</time></trkpt><trkpt lat="42.1627175" lon="14.6148385"><ele>125.0</ele><time>2026-04-26T09:09:35.335Z</time></trkpt><trkpt lat="42.1625769" lon="14.614851"><ele>125.0</ele><time>2026-04-26T09:09:36.335Z</time></trkpt><trkpt lat="42.1624336" lon="14.6148765"><ele>125.0</ele><time>2026-04-26T09:09:37.335Z</time></trkpt><trkpt lat="42.1622941" lon="14.6148986"><ele>125.0</ele><time>2026-04-26T09:09:38.335Z</time></trkpt><trkpt lat="42.1621555" lon="14.6149216"><ele>125.0</ele><time>2026-04-26T09:09:39.334Z</time></trkpt><trkpt lat="42.1620215" lon="14.6149358"><ele>125.25</ele><time>2026-04-26T09:09:40.335Z</time></trkpt><trkpt lat="42.1618919" lon="14.614957"><ele>125.5</ele><time>2026-04-26T09:09:41.334Z</time></trkpt><trkpt lat="42.1617704" lon="14.6149739"><ele>125.75</ele><time>2026-04-26T09:09:42.335Z</time></trkpt><trkpt lat="42.1616584" lon="14.6149893"><ele>126.0</ele><time>2026-04-26T09:09:43.335Z</time></trkpt><trkpt lat="42.1615585" lon="14.6150032"><ele>126.19999999999999</ele><time>2026-04-26T09:09:44.335Z</time></trkpt><trkpt lat="42.1614634" lon="14.6150166"><ele>126.39999999999999</ele><time>2026-04-26T09:09:45.334Z</time></trkpt><trkpt lat="42.1613669" lon="14.6150364"><ele>126.6</ele><time>2026-04-26T09:09:46.335Z</time></trkpt><trkpt lat="42.1612574" lon="14.6150538"><ele>126.8</ele><time>2026-04-26T09:09:47.335Z</time></trkpt><trkpt lat="42.1611343" lon="14.615069"><ele>127.0</ele><time>2026-04-26T09:09:48.335Z</time></trkpt><trkpt lat="42.1610114" lon="14.6150828"><ele>127.0</ele><time>2026-04-26T09:09:49.335Z</time></trkpt><trkpt lat="42.1608918" lon="14.6150946"><ele>126.99999999999999</ele><time>2026-04-26T09:09:50.335Z</time></trkpt><trkpt lat="42.1607815" lon="14.6151115"><ele>126.99999999999999</ele><time>2026-04-26T09:09:51.335Z</time></trkpt><trkpt lat="42.1606763" lon="14.6151307"><ele>127.0</ele><time>2026-04-26T09:09:52.335Z</time></trkpt><trkpt lat="42.1605789" lon="14.6151435"><ele>127.0</ele><time>2026-04-26T09:09:53.334Z</time></trkpt><trkpt lat="42.1604887" lon="14.6151517"><ele>127.50000000000001</ele><time>2026-04-26T09:09:54.334Z</time></trkpt><trkpt lat="42.1604031" lon="14.6151609"><ele>128.0</ele><time>2026-04-26T09:09:55.335Z</time></trkpt><trkpt lat="42.1603204" lon="14.6151706"><ele>128.5</ele><time>2026-04-26T09:09:56.336Z</time></trkpt><trkpt lat="42.160234" lon="14.6151836"><ele>129.0</ele><time>2026-04-26T09:09:57.335Z</time></trkpt><trkpt lat="42.1601442" lon="14.6151949"><ele>129.5</ele><time>2026-04-26T09:09:58.333Z</time></trkpt><trkpt lat="42.1600488" lon="14.6152089"><ele>130.0</ele><time>2026-04-26T09:09:59.335Z</time></trkpt><trkpt lat="42.1599522" lon="14.6152227"><ele>129.8</ele><time>2026-04-26T09:10:00.336Z</time></trkpt><trkpt lat="42.1598538" lon="14.6152345"><ele>129.6</ele><time>2026-04-26T09:10:01.335Z</time></trkpt><trkpt lat="42.1597432" lon="14.6152509"><ele>129.4</ele><time>2026-04-26T09:10:02.335Z</time></trkpt><trkpt lat="42.15963" lon="14.615268"><ele>129.2</ele><time>2026-04-26T09:10:03.335Z</time></trkpt><trkpt lat="42.159511" lon="14.6152854"><ele>129.0</ele><time>2026-04-26T09:10:04.334Z</time></trkpt><trkpt lat="42.1593945" lon="14.6152979"><ele>129.0</ele><time>2026-04-26T09:10:05.334Z</time></trkpt><trkpt lat="42.1592823" lon="14.6153094"><ele>129.0</ele><time>2026-04-26T09:10:06.334Z</time></trkpt><trkpt lat="42.1591786" lon="14.6153238"><ele>129.0</ele><time>2026-04-26T09:10:07.335Z</time></trkpt><trkpt lat="42.1590825" lon="14.6153397"><ele>129.0</ele><time>2026-04-26T09:10:08.334Z</time></trkpt><trkpt lat="42.1589856" lon="14.615358"><ele>129.0</ele><time>2026-04-26T09:10:09.335Z</time></trkpt><trkpt lat="42.1588899" lon="14.6153678"><ele>129.5</ele><time>2026-04-26T09:10:10.334Z</time></trkpt><trkpt lat="42.1587959" lon="14.6153783"><ele>130.0</ele><time>2026-04-26T09:10:11.335Z</time></trkpt><trkpt lat="42.1587072" lon="14.6153728"><ele>130.5</ele><time>2026-04-26T09:10:12.336Z</time></trkpt><trkpt lat="42.1586289" lon="14.6153584"><ele>131.0</ele><time>2026-04-26T09:10:13.334Z</time></trkpt><trkpt lat="42.1585558" lon="14.6153471"><ele>131.5</ele><time>2026-04-26T09:10:14.334Z</time></trkpt><trkpt lat="42.158489" lon="14.6153268"><ele>132.0</ele><time>2026-04-26T09:10:15.336Z</time></trkpt><trkpt lat="42.158387" lon="14.615283"><ele>132.0</ele><time>2026-04-26T09:10:17.335Z</time></trkpt><trkpt lat="42.1583024" lon="14.6152174"><ele>132.0</ele><time>2026-04-26T09:10:19.335Z</time></trkpt><trkpt lat="42.1582465" lon="14.6150948"><ele>132.0</ele><time>2026-04-26T09:10:21.335Z</time></trkpt><trkpt lat="42.1581907" lon="14.6149714"><ele>132.0</ele><time>2026-04-26T09:10:23.336Z</time></trkpt><trkpt lat="42.158093" lon="14.6149427"><ele>132.0</ele><time>2026-04-26T09:10:25.335Z</time></trkpt><trkpt lat="42.1580281" lon="14.6150262"><ele>132.0</ele><time>2026-04-26T09:10:27.334Z</time></trkpt><trkpt lat="42.1580258" lon="14.615179"><ele>132.0</ele><time>2026-04-26T09:10:29.335Z</time></trkpt><trkpt lat="42.158049" lon="14.6152671"><ele>132.0</ele><time>2026-04-26T09:10:30.334Z</time></trkpt><trkpt lat="42.158088" lon="14.6153566"><ele>132.0</ele><time>2026-04-26T09:10:31.335Z</time></trkpt><trkpt lat="42.1581335" lon="14.6154507"><ele>132.0</ele><time>2026-04-26T09:10:32.335Z</time></trkpt><trkpt lat="42.1581841" lon="14.6155533"><ele>132.0</ele><time>2026-04-26T09:10:33.335Z</time></trkpt><trkpt lat="42.1582375" lon="14.6156557"><ele>132.0</ele><time>2026-04-26T09:10:34.335Z</time></trkpt><trkpt lat="42.1582886" lon="14.6157575"><ele>132.0</ele><time>2026-04-26T09:10:35.335Z</time></trkpt><trkpt lat="42.1583379" lon="14.6158599"><ele>132.0</ele><time>2026-04-26T09:10:36.335Z</time></trkpt><trkpt lat="42.158385" lon="14.6159581"><ele>132.0</ele><time>2026-04-26T09:10:37.335Z</time></trkpt><trkpt lat="42.1584287" lon="14.6160537"><ele>132.0</ele><time>2026-04-26T09:10:38.335Z</time></trkpt><trkpt lat="42.158473" lon="14.6161412"><ele>132.0</ele><time>2026-04-26T09:10:39.335Z</time></trkpt><trkpt lat="42.1585174" lon="14.6162271"><ele>131.83333333333334</ele><time>2026-04-26T09:10:40.334Z</time></trkpt><trkpt lat="42.1585645" lon="14.6163134"><ele>131.66666666666666</ele><time>2026-04-26T09:10:41.335Z</time></trkpt><trkpt lat="42.1586152" lon="14.616398"><ele>131.5</ele><time>2026-04-26T09:10:42.335Z</time></trkpt><trkpt lat="42.1586712" lon="14.6164868"><ele>131.33333333333331</ele><time>2026-04-26T09:10:43.334Z</time></trkpt><trkpt lat="42.1587279" lon="14.6165875"><ele>131.16666666666666</ele><time>2026-04-26T09:10:44.334Z</time></trkpt><trkpt lat="42.1587888" lon="14.6166924"><ele>131.0</ele><time>2026-04-26T09:10:45.336Z</time></trkpt><trkpt lat="42.1588486" lon="14.6168092"><ele>131.0</ele><time>2026-04-26T09:10:46.335Z</time></trkpt><trkpt lat="42.1589007" lon="14.6169336"><ele>131.0</ele><time>2026-04-26T09:10:47.335Z</time></trkpt><trkpt lat="42.1589496" lon="14.6170526"><ele>131.0</ele><time>2026-04-26T09:10:48.335Z</time></trkpt><trkpt lat="42.159005" lon="14.6171691"><ele>131.0</ele><time>2026-04-26T09:10:49.336Z</time></trkpt><trkpt lat="42.1590703" lon="14.6173"><ele>131.0</ele><time>2026-04-26T09:10:50.335Z</time></trkpt><trkpt lat="42.1591478" lon="14.6174481"><ele>130.0</ele><time>2026-04-26T09:10:51.334Z</time></trkpt><trkpt lat="42.1592321" lon="14.6176128"><ele>129.0</ele><time>2026-04-26T09:10:52.335Z</time></trkpt><trkpt lat="42.1593144" lon="14.6177822"><ele>128.0</ele><time>2026-04-26T09:10:53.335Z</time></trkpt><trkpt lat="42.1593956" lon="14.6179467"><ele>127.0</ele><time>2026-04-26T09:10:54.336Z</time></trkpt><trkpt lat="42.1594802" lon="14.6181176"><ele>126.33333333333334</ele><time>2026-04-26T09:10:55.335Z</time></trkpt><trkpt lat="42.1595644" lon="14.618289"><ele>125.66666666666666</ele><time>2026-04-26T09:10:56.334Z</time></trkpt><trkpt lat="42.1596481" lon="14.6184618"><ele>125.0</ele><time>2026-04-26T09:10:57.335Z</time></trkpt><trkpt lat="42.1597333" lon="14.6186381"><ele>124.0</ele><time>2026-04-26T09:10:58.335Z</time></trkpt><trkpt lat="42.1598235" lon="14.6188114"><ele>123.0</ele><time>2026-04-26T09:10:59.335Z</time></trkpt><trkpt lat="42.1599161" lon="14.618984"><ele>122.0</ele><time>2026-04-26T09:11:00.334Z</time></trkpt><trkpt lat="42.1600051" lon="14.6191701"><ele>122.0</ele><time>2026-04-26T09:11:01.335Z</time></trkpt><trkpt lat="42.1600983" lon="14.6193508"><ele>122.0</ele><time>2026-04-26T09:11:02.335Z</time></trkpt><trkpt lat="42.1601907" lon="14.6195378"><ele>122.0</ele><time>2026-04-26T09:11:03.335Z</time></trkpt><trkpt lat="42.160282" lon="14.6197256"><ele>121.33333333333333</ele><time>2026-04-26T09:11:04.335Z</time></trkpt><trkpt lat="42.1603738" lon="14.61991"><ele>120.66666666666666</ele><time>2026-04-26T09:11:05.334Z</time></trkpt><trkpt lat="42.160467" lon="14.6200937"><ele>120.0</ele><time>2026-04-26T09:11:06.334Z</time></trkpt><trkpt lat="42.160561" lon="14.6202849"><ele>119.33333333333334</ele><time>2026-04-26T09:11:07.335Z</time></trkpt><trkpt lat="42.160661" lon="14.6204867"><ele>118.66666666666667</ele><time>2026-04-26T09:11:08.335Z</time></trkpt><trkpt lat="42.1607566" lon="14.6206838"><ele>118.0</ele><time>2026-04-26T09:11:09.334Z</time></trkpt><trkpt lat="42.1608511" lon="14.6208744"><ele>118.0</ele><time>2026-04-26T09:11:10.335Z</time></trkpt><trkpt lat="42.1609439" lon="14.6210653"><ele>118.0</ele><time>2026-04-26T09:11:11.335Z</time></trkpt><trkpt lat="42.161035" lon="14.621253"><ele>118.0</ele><time>2026-04-26T09:11:12.335Z</time></trkpt><trkpt lat="42.1611225" lon="14.6214317"><ele>117.0</ele><time>2026-04-26T09:11:13.335Z</time></trkpt><trkpt lat="42.1612048" lon="14.6216019"><ele>116.0</ele><time>2026-04-26T09:11:14.335Z</time></trkpt><trkpt lat="42.1612807" lon="14.621765"><ele>115.0</ele><time>2026-04-26T09:11:15.335Z</time></trkpt><trkpt lat="42.1613573" lon="14.6219154"><ele>114.0</ele><time>2026-04-26T09:11:16.334Z</time></trkpt><trkpt lat="42.1614304" lon="14.6220593"><ele>113.5</ele><time>2026-04-26T09:11:17.335Z</time></trkpt><trkpt lat="42.1615074" lon="14.6222171"><ele>113.0</ele><time>2026-04-26T09:11:18.336Z</time></trkpt><trkpt lat="42.1615919" lon="14.6223866"><ele>112.5</ele><time>2026-04-26T09:11:19.334Z</time></trkpt><trkpt lat="42.1616782" lon="14.6225615"><ele>112.0</ele><time>2026-04-26T09:11:20.335Z</time></trkpt><trkpt lat="42.1617564" lon="14.6227266"><ele>111.5</ele><time>2026-04-26T09:11:21.334Z</time></trkpt><trkpt lat="42.1618316" lon="14.6228805"><ele>111.0</ele><time>2026-04-26T09:11:22.335Z</time></trkpt><trkpt lat="42.1618998" lon="14.6230204"><ele>110.5</ele><time>2026-04-26T09:11:23.335Z</time></trkpt><trkpt lat="42.1619617" lon="14.6231482"><ele>110.0</ele><time>2026-04-26T09:11:24.335Z</time></trkpt><trkpt lat="42.1620202" lon="14.6232807"><ele>110.0</ele><time>2026-04-26T09:11:25.335Z</time></trkpt><trkpt lat="42.1620709" lon="14.6234079"><ele>110.0</ele><time>2026-04-26T09:11:26.335Z</time></trkpt><trkpt lat="42.1621044" lon="14.6235435"><ele>110.0</ele><time>2026-04-26T09:11:27.334Z</time></trkpt><trkpt lat="42.1621141" lon="14.6236917"><ele>110.0</ele><time>2026-04-26T09:11:28.335Z</time></trkpt><trkpt lat="42.1620942" lon="14.6238518"><ele>110.0</ele><time>2026-04-26T09:11:29.335Z</time></trkpt><trkpt lat="42.1620563" lon="14.6240275"><ele>109.0</ele><time>2026-04-26T09:11:30.334Z</time></trkpt><trkpt lat="42.162009" lon="14.6242207"><ele>108.0</ele><time>2026-04-26T09:11:31.335Z</time></trkpt><trkpt lat="42.1619675" lon="14.624406"><ele>107.0</ele><time>2026-04-26T09:11:32.335Z</time></trkpt><trkpt lat="42.161925" lon="14.6245826"><ele>106.0</ele><time>2026-04-26T09:11:33.336Z</time></trkpt><trkpt lat="42.1618811" lon="14.6247541"><ele>104.75</ele><time>2026-04-26T09:11:34.335Z</time></trkpt><trkpt lat="42.1618188" lon="14.6249194"><ele>103.5</ele><time>2026-04-26T09:11:35.335Z</time></trkpt><trkpt lat="42.1617385" lon="14.6250751"><ele>102.25</ele><time>2026-04-26T09:11:36.336Z</time></trkpt><trkpt lat="42.1616451" lon="14.6252252"><ele>101.0</ele><time>2026-04-26T09:11:37.335Z</time></trkpt><trkpt lat="42.1615291" lon="14.6253576"><ele>99.0</ele><time>2026-04-26T09:11:38.335Z</time></trkpt><trkpt lat="42.1614007" lon="14.6254772"><ele>97.0</ele><time>2026-04-26T09:11:39.335Z</time></trkpt><trkpt lat="42.16127" lon="14.6256008"><ele>95.0</ele><time>2026-04-26T09:11:40.335Z</time></trkpt><trkpt lat="42.1611487" lon="14.6257222"><ele>95.0</ele><time>2026-04-26T09:11:41.335Z</time></trkpt><trkpt lat="42.1610356" lon="14.6258361"><ele>95.0</ele><time>2026-04-26T09:11:42.335Z</time></trkpt><trkpt lat="42.1609364" lon="14.6259404"><ele>95.0</ele><time>2026-04-26T09:11:43.335Z</time></trkpt><trkpt lat="42.1608413" lon="14.6260515"><ele>95.0</ele><time>2026-04-26T09:11:44.335Z</time></trkpt><trkpt lat="42.1607656" lon="14.6261839"><ele>93.66666666666667</ele><time>2026-04-26T09:11:45.335Z</time></trkpt><trkpt lat="42.1606995" lon="14.6263505"><ele>92.33333333333333</ele><time>2026-04-26T09:11:46.335Z</time></trkpt><trkpt lat="42.1606523" lon="14.6265361"><ele>91.0</ele><time>2026-04-26T09:11:47.336Z</time></trkpt><trkpt lat="42.1606127" lon="14.6267524"><ele>89.66666666666666</ele><time>2026-04-26T09:11:48.335Z</time></trkpt><trkpt lat="42.1605795" lon="14.6269878"><ele>88.33333333333333</ele><time>2026-04-26T09:11:49.335Z</time></trkpt><trkpt lat="42.1605465" lon="14.6272343"><ele>87.0</ele><time>2026-04-26T09:11:50.335Z</time></trkpt><trkpt lat="42.1605142" lon="14.6274703"><ele>87.0</ele><time>2026-04-26T09:11:51.334Z</time></trkpt><trkpt lat="42.1604817" lon="14.6276974"><ele>87.0</ele><time>2026-04-26T09:11:52.336Z</time></trkpt><trkpt lat="42.1604511" lon="14.6279277"><ele>87.0</ele><time>2026-04-26T09:11:53.335Z</time></trkpt><trkpt lat="42.1604172" lon="14.6281584"><ele>86.0</ele><time>2026-04-26T09:11:54.334Z</time></trkpt><trkpt lat="42.1603882" lon="14.628388"><ele>85.0</ele><time>2026-04-26T09:11:55.335Z</time></trkpt><trkpt lat="42.1603552" lon="14.6286188"><ele>84.0</ele><time>2026-04-26T09:11:56.334Z</time></trkpt><trkpt lat="42.1603223" lon="14.62885"><ele>83.66666666666667</ele><time>2026-04-26T09:11:57.336Z</time></trkpt><trkpt lat="42.1602928" lon="14.6290725"><ele>83.33333333333334</ele><time>2026-04-26T09:11:58.336Z</time></trkpt><trkpt lat="42.1602625" lon="14.6292921"><ele>83.0</ele><time>2026-04-26T09:11:59.335Z</time></trkpt><trkpt lat="42.1602334" lon="14.6295094"><ele>82.33333333333334</ele><time>2026-04-26T09:12:00.335Z</time></trkpt><trkpt lat="42.1602099" lon="14.6297291"><ele>81.66666666666667</ele><time>2026-04-26T09:12:01.335Z</time></trkpt><trkpt lat="42.1601893" lon="14.6299498"><ele>81.0</ele><time>2026-04-26T09:12:02.336Z</time></trkpt><trkpt lat="42.1601744" lon="14.6301655"><ele>79.75</ele><time>2026-04-26T09:12:03.335Z</time></trkpt><trkpt lat="42.160162" lon="14.6303784"><ele>78.5</ele><time>2026-04-26T09:12:04.335Z</time></trkpt><trkpt lat="42.1601536" lon="14.6305771"><ele>77.25</ele><time>2026-04-26T09:12:05.335Z</time></trkpt><trkpt lat="42.1601493" lon="14.6307694"><ele>76.0</ele><time>2026-04-26T09:12:06.336Z</time></trkpt><trkpt lat="42.1601541" lon="14.6309574"><ele>76.0</ele><time>2026-04-26T09:12:07.336Z</time></trkpt><trkpt lat="42.1601757" lon="14.6311341"><ele>76.0</ele><time>2026-04-26T09:12:08.335Z</time></trkpt><trkpt lat="42.1602223" lon="14.6313118"><ele>76.0</ele><time>2026-04-26T09:12:09.335Z</time></trkpt><trkpt lat="42.1602791" lon="14.6314834"><ele>76.0</ele><time>2026-04-26T09:12:10.335Z</time></trkpt><trkpt lat="42.1603301" lon="14.6316598"><ele>74.5</ele><time>2026-04-26T09:12:11.335Z</time></trkpt><trkpt lat="42.1603671" lon="14.6318409"><ele>73.0</ele><time>2026-04-26T09:12:12.336Z</time></trkpt><trkpt lat="42.1603891" lon="14.6320199"><ele>71.5</ele><time>2026-04-26T09:12:13.335Z</time></trkpt><trkpt lat="42.1604044" lon="14.6321944"><ele>70.0</ele><time>2026-04-26T09:12:14.335Z</time></trkpt><trkpt lat="42.1604203" lon="14.6323631"><ele>68.4</ele><time>2026-04-26T09:12:15.335Z</time></trkpt><trkpt lat="42.1604469" lon="14.6325204"><ele>66.8</ele><time>2026-04-26T09:12:16.336Z</time></trkpt><trkpt lat="42.1604827" lon="14.6326604"><ele>65.2</ele><time>2026-04-26T09:12:17.335Z</time></trkpt><trkpt lat="42.1605229" lon="14.6327793"><ele>63.6</ele><time>2026-04-26T09:12:18.335Z</time></trkpt><trkpt lat="42.1605709" lon="14.6328772"><ele>62.0</ele><time>2026-04-26T09:12:19.335Z</time></trkpt><trkpt lat="42.1606255" lon="14.632949"><ele>62.0</ele><time>2026-04-26T09:12:20.334Z</time></trkpt><trkpt lat="42.1606832" lon="14.6329942"><ele>62.00000000000001</ele><time>2026-04-26T09:12:21.335Z</time></trkpt><trkpt lat="42.1607458" lon="14.6330133"><ele>62.0</ele><time>2026-04-26T09:12:22.335Z</time></trkpt><trkpt lat="42.160817" lon="14.6330111"><ele>62.0</ele><time>2026-04-26T09:12:23.335Z</time></trkpt><trkpt lat="42.1608878" lon="14.6329865"><ele>62.00000000000001</ele><time>2026-04-26T09:12:24.335Z</time></trkpt><trkpt lat="42.1609643" lon="14.6329427"><ele>62.0</ele><time>2026-04-26T09:12:25.335Z</time></trkpt><trkpt lat="42.161043" lon="14.6328855"><ele>62.0</ele><time>2026-04-26T09:12:26.335Z</time></trkpt><trkpt lat="42.1611197" lon="14.63283"><ele>62.66666666666667</ele><time>2026-04-26T09:12:27.335Z</time></trkpt><trkpt lat="42.1612005" lon="14.6327832"><ele>63.333333333333336</ele><time>2026-04-26T09:12:28.335Z</time></trkpt><trkpt lat="42.1612774" lon="14.6327317"><ele>64.0</ele><time>2026-04-26T09:12:29.334Z</time></trkpt><trkpt lat="42.1613588" lon="14.6326793"><ele>64.66666666666667</ele><time>2026-04-26T09:12:30.335Z</time></trkpt><trkpt lat="42.1614388" lon="14.6326242"><ele>65.33333333333333</ele><time>2026-04-26T09:12:31.336Z</time></trkpt><trkpt lat="42.1615244" lon="14.6325677"><ele>66.0</ele><time>2026-04-26T09:12:32.335Z</time></trkpt><trkpt lat="42.1616025" lon="14.6325037"><ele>66.0</ele><time>2026-04-26T09:12:33.336Z</time></trkpt><trkpt lat="42.161685" lon="14.6324443"><ele>66.0</ele><time>2026-04-26T09:12:34.335Z</time></trkpt><trkpt lat="42.161775" lon="14.6323869"><ele>66.0</ele><time>2026-04-26T09:12:35.335Z</time></trkpt><trkpt lat="42.1618615" lon="14.6323259"><ele>66.0</ele><time>2026-04-26T09:12:36.336Z</time></trkpt><trkpt lat="42.1619424" lon="14.6322627"><ele>66.0</ele><time>2026-04-26T09:12:37.336Z</time></trkpt><trkpt lat="42.1620206" lon="14.6321983"><ele>66.0</ele><time>2026-04-26T09:12:38.336Z</time></trkpt><trkpt lat="42.1620951" lon="14.632133"><ele>66.0</ele><time>2026-04-26T09:12:39.335Z</time></trkpt><trkpt lat="42.1621699" lon="14.6320724"><ele>66.0</ele><time>2026-04-26T09:12:40.336Z</time></trkpt><trkpt lat="42.162242" lon="14.6320135"><ele>66.0</ele><time>2026-04-26T09:12:41.335Z</time></trkpt><trkpt lat="42.1623162" lon="14.6319574"><ele>66.0</ele><time>2026-04-26T09:12:42.335Z</time></trkpt><trkpt lat="42.162387" lon="14.6319027"><ele>66.0</ele><time>2026-04-26T09:12:43.335Z</time></trkpt><trkpt lat="42.1624518" lon="14.6318479"><ele>65.71428571428571</ele><time>2026-04-26T09:12:44.335Z</time></trkpt><trkpt lat="42.1625183" lon="14.6317995"><ele>65.42857142857143</ele><time>2026-04-26T09:12:45.335Z</time></trkpt><trkpt lat="42.1625868" lon="14.631761"><ele>65.14285714285714</ele><time>2026-04-26T09:12:46.335Z</time></trkpt><trkpt lat="42.1626502" lon="14.631734"><ele>64.85714285714286</ele><time>2026-04-26T09:12:47.336Z</time></trkpt><trkpt lat="42.1627175" lon="14.6317249"><ele>64.57142857142857</ele><time>2026-04-26T09:12:48.336Z</time></trkpt><trkpt lat="42.1627796" lon="14.6317469"><ele>64.28571428571428</ele><time>2026-04-26T09:12:49.335Z</time></trkpt><trkpt lat="42.1628333" lon="14.6317917"><ele>64.0</ele><time>2026-04-26T09:12:50.335Z</time></trkpt><trkpt lat="42.1628776" lon="14.6318586"><ele>62.666666666666664</ele><time>2026-04-26T09:12:51.334Z</time></trkpt><trkpt lat="42.162906" lon="14.6320164"><ele>61.33333333333333</ele><time>2026-04-26T09:12:53.334Z</time></trkpt><trkpt lat="42.1628818" lon="14.6320979"><ele>60.0</ele><time>2026-04-26T09:12:54.335Z</time></trkpt><trkpt lat="42.1628374" lon="14.6321704"><ele>58.66666666666667</ele><time>2026-04-26T09:12:55.336Z</time></trkpt><trkpt lat="42.1627805" lon="14.632241"><ele>57.333333333333336</ele><time>2026-04-26T09:12:56.335Z</time></trkpt><trkpt lat="42.1627172" lon="14.6323108"><ele>56.0</ele><time>2026-04-26T09:12:57.335Z</time></trkpt><trkpt lat="42.1626528" lon="14.6323863"><ele>56.0</ele><time>2026-04-26T09:12:58.335Z</time></trkpt><trkpt lat="42.1625828" lon="14.6324719"><ele>55.99999999999999</ele><time>2026-04-26T09:12:59.335Z</time></trkpt><trkpt lat="42.1625102" lon="14.632574"><ele>55.99999999999999</ele><time>2026-04-26T09:13:00.335Z</time></trkpt><trkpt lat="42.1624381" lon="14.6326809"><ele>56.0</ele><time>2026-04-26T09:13:01.336Z</time></trkpt><trkpt lat="42.1623626" lon="14.632785"><ele>56.0</ele><time>2026-04-26T09:13:02.335Z</time></trkpt><trkpt lat="42.1622873" lon="14.6328924"><ele>56.199999999999996</ele><time>2026-04-26T09:13:03.335Z</time></trkpt><trkpt lat="42.1622179" lon="14.6329952"><ele>56.39999999999999</ele><time>2026-04-26T09:13:04.334Z</time></trkpt><trkpt lat="42.1621534" lon="14.6330937"><ele>56.6</ele><time>2026-04-26T09:13:05.335Z</time></trkpt><trkpt lat="42.1620878" lon="14.6331935"><ele>56.8</ele><time>2026-04-26T09:13:06.335Z</time></trkpt><trkpt lat="42.1620212" lon="14.6332957"><ele>57.0</ele><time>2026-04-26T09:13:07.336Z</time></trkpt><trkpt lat="42.1619546" lon="14.6333935"><ele>57.0</ele><time>2026-04-26T09:13:08.335Z</time></trkpt><trkpt lat="42.1618901" lon="14.6334912"><ele>57.0</ele><time>2026-04-26T09:13:09.335Z</time></trkpt><trkpt lat="42.161824" lon="14.6335861"><ele>57.0</ele><time>2026-04-26T09:13:10.335Z</time></trkpt><trkpt lat="42.1617595" lon="14.6336816"><ele>57.0</ele><time>2026-04-26T09:13:11.335Z</time></trkpt><trkpt lat="42.1616985" lon="14.6337757"><ele>57.0</ele><time>2026-04-26T09:13:12.335Z</time></trkpt><trkpt lat="42.1616441" lon="14.633867"><ele>56.166666666666664</ele><time>2026-04-26T09:13:13.334Z</time></trkpt><trkpt lat="42.1615964" lon="14.6339603"><ele>55.33333333333333</ele><time>2026-04-26T09:13:14.335Z</time></trkpt><trkpt lat="42.1615598" lon="14.6340544"><ele>54.5</ele><time>2026-04-26T09:13:15.334Z</time></trkpt><trkpt lat="42.1615383" lon="14.6341599"><ele>53.666666666666664</ele><time>2026-04-26T09:13:16.335Z</time></trkpt><trkpt lat="42.1615317" lon="14.6342718"><ele>52.83333333333333</ele><time>2026-04-26T09:13:17.335Z</time></trkpt><trkpt lat="42.1615436" lon="14.6343788"><ele>52.0</ele><time>2026-04-26T09:13:18.336Z</time></trkpt><trkpt lat="42.161564" lon="14.6344834"><ele>51.166666666666664</ele><time>2026-04-26T09:13:19.334Z</time></trkpt><trkpt lat="42.161604" lon="14.6345826"><ele>50.33333333333333</ele><time>2026-04-26T09:13:20.334Z</time></trkpt><trkpt lat="42.1616601" lon="14.6346675"><ele>49.5</ele><time>2026-04-26T09:13:21.335Z</time></trkpt><trkpt lat="42.1617316" lon="14.6347427"><ele>48.666666666666664</ele><time>2026-04-26T09:13:22.335Z</time></trkpt><trkpt lat="42.1617982" lon="14.6348262"><ele>47.83333333333333</ele><time>2026-04-26T09:13:23.334Z</time></trkpt><trkpt lat="42.1618646" lon="14.6349153"><ele>47.0</ele><time>2026-04-26T09:13:24.335Z</time></trkpt><trkpt lat="42.1619597" lon="14.6349904"><ele>47.0</ele><time>2026-04-26T09:13:25.335Z</time></trkpt><trkpt lat="42.162037" lon="14.6350517"><ele>47.0</ele><time>2026-04-26T09:13:26.335Z</time></trkpt><trkpt lat="42.1621236" lon="14.6351262"><ele>47.0</ele><time>2026-04-26T09:13:27.335Z</time></trkpt><trkpt lat="42.1622231" lon="14.6351881"><ele>47.0</ele><time>2026-04-26T09:13:28.335Z</time></trkpt><trkpt lat="42.162326" lon="14.6352387"><ele>47.0</ele><time>2026-04-26T09:13:29.336Z</time></trkpt><trkpt lat="42.1624234" lon="14.6352803"><ele>45.0</ele><time>2026-04-26T09:13:30.335Z</time></trkpt><trkpt lat="42.1625174" lon="14.635319"><ele>43.0</ele><time>2026-04-26T09:13:31.335Z</time></trkpt><trkpt lat="42.1626092" lon="14.6353643"><ele>41.0</ele><time>2026-04-26T09:13:32.335Z</time></trkpt><trkpt lat="42.1627066" lon="14.6354145"><ele>39.0</ele><time>2026-04-26T09:13:33.334Z</time></trkpt><trkpt lat="42.1627997" lon="14.6354795"><ele>37.0</ele><time>2026-04-26T09:13:34.334Z</time></trkpt><trkpt lat="42.1628908" lon="14.6355577"><ele>37.0</ele><time>2026-04-26T09:13:35.334Z</time></trkpt><trkpt lat="42.1629797" lon="14.6356538"><ele>37.0</ele><time>2026-04-26T09:13:36.335Z</time></trkpt><trkpt lat="42.1630616" lon="14.6357754"><ele>37.0</ele><time>2026-04-26T09:13:37.336Z</time></trkpt><trkpt lat="42.1631384" lon="14.6359098"><ele>37.0</ele><time>2026-04-26T09:13:38.335Z</time></trkpt><trkpt lat="42.1632108" lon="14.6360401"><ele>36.4</ele><time>2026-04-26T09:13:39.335Z</time></trkpt><trkpt lat="42.1632802" lon="14.6361704"><ele>35.800000000000004</ele><time>2026-04-26T09:13:40.335Z</time></trkpt><trkpt lat="42.1633448" lon="14.6362977"><ele>35.2</ele><time>2026-04-26T09:13:41.335Z</time></trkpt><trkpt lat="42.1634019" lon="14.6364137"><ele>34.6</ele><time>2026-04-26T09:13:42.334Z</time></trkpt><trkpt lat="42.1634562" lon="14.6365144"><ele>34.0</ele><time>2026-04-26T09:13:43.335Z</time></trkpt><trkpt lat="42.1635035" lon="14.636601"><ele>33.99999999999999</ele><time>2026-04-26T09:13:44.335Z</time></trkpt><trkpt lat="42.1635453" lon="14.636685"><ele>34.0</ele><time>2026-04-26T09:13:45.336Z</time></trkpt><trkpt lat="42.1635877" lon="14.6367662"><ele>34.0</ele><time>2026-04-26T09:13:46.335Z</time></trkpt><trkpt lat="42.1636254" lon="14.6368407"><ele>34.0</ele><time>2026-04-26T09:13:47.335Z</time></trkpt><trkpt lat="42.163653" lon="14.6369233"><ele>34.0</ele><time>2026-04-26T09:13:48.334Z</time></trkpt><trkpt lat="42.1636656" lon="14.6370152"><ele>33.99999999999999</ele><time>2026-04-26T09:13:49.336Z</time></trkpt><trkpt lat="42.1636605" lon="14.6371119"><ele>34.0</ele><time>2026-04-26T09:13:50.335Z</time></trkpt><trkpt lat="42.1636376" lon="14.6372089"><ele>33.16666666666667</ele><time>2026-04-26T09:13:51.335Z</time></trkpt><trkpt lat="42.1636069" lon="14.6373043"><ele>32.333333333333336</ele><time>2026-04-26T09:13:52.335Z</time></trkpt><trkpt lat="42.1635611" lon="14.6373932"><ele>31.5</ele><time>2026-04-26T09:13:53.335Z</time></trkpt><trkpt lat="42.1635138" lon="14.6374881"><ele>30.666666666666664</ele><time>2026-04-26T09:13:54.335Z</time></trkpt><trkpt lat="42.1634583" lon="14.6375893"><ele>29.833333333333332</ele><time>2026-04-26T09:13:55.334Z</time></trkpt><trkpt lat="42.1634012" lon="14.6376868"><ele>29.0</ele><time>2026-04-26T09:13:56.334Z</time></trkpt><trkpt lat="42.1633322" lon="14.6377775"><ele>28.4</ele><time>2026-04-26T09:13:57.336Z</time></trkpt><trkpt lat="42.1632511" lon="14.6378549"><ele>27.799999999999997</ele><time>2026-04-26T09:13:58.334Z</time></trkpt><trkpt lat="42.1631539" lon="14.6379241"><ele>27.200000000000003</ele><time>2026-04-26T09:13:59.334Z</time></trkpt><trkpt lat="42.1630563" lon="14.6379884"><ele>26.6</ele><time>2026-04-26T09:14:00.335Z</time></trkpt><trkpt lat="42.1629637" lon="14.6380489"><ele>26.0</ele><time>2026-04-26T09:14:01.336Z</time></trkpt><trkpt lat="42.1628742" lon="14.6381055"><ele>25.999999999999996</ele><time>2026-04-26T09:14:02.335Z</time></trkpt><trkpt lat="42.1627918" lon="14.6381568"><ele>26.0</ele><time>2026-04-26T09:14:03.336Z</time></trkpt><trkpt lat="42.1627103" lon="14.6382227"><ele>26.0</ele><time>2026-04-26T09:14:04.334Z</time></trkpt><trkpt lat="42.162636" lon="14.6382889"><ele>26.0</ele><time>2026-04-26T09:14:05.335Z</time></trkpt><trkpt lat="42.1625691" lon="14.6383603"><ele>25.999999999999996</ele><time>2026-04-26T09:14:06.335Z</time></trkpt><trkpt lat="42.1625072" lon="14.6384415"><ele>26.0</ele><time>2026-04-26T09:14:07.336Z</time></trkpt><trkpt lat="42.1624505" lon="14.6385273"><ele>25.999999999999996</ele><time>2026-04-26T09:14:08.335Z</time></trkpt><trkpt lat="42.1624037" lon="14.6386178"><ele>26.0</ele><time>2026-04-26T09:14:09.334Z</time></trkpt><trkpt lat="42.1623819" lon="14.6387161"><ele>26.0</ele><time>2026-04-26T09:14:10.335Z</time></trkpt><trkpt lat="42.1623818" lon="14.6388179"><ele>26.0</ele><time>2026-04-26T09:14:11.335Z</time></trkpt><trkpt lat="42.1623947" lon="14.6389213"><ele>25.999999999999996</ele><time>2026-04-26T09:14:12.335Z</time></trkpt><trkpt lat="42.162426" lon="14.639022"><ele>26.0</ele><time>2026-04-26T09:14:13.336Z</time></trkpt><trkpt lat="42.1624678" lon="14.6391144"><ele>25.333333333333332</ele><time>2026-04-26T09:14:14.335Z</time></trkpt><trkpt lat="42.1625172" lon="14.6392101"><ele>24.666666666666664</ele><time>2026-04-26T09:14:15.335Z</time></trkpt><trkpt lat="42.1625675" lon="14.6392919"><ele>24.0</ele><time>2026-04-26T09:14:16.335Z</time></trkpt><trkpt lat="42.1626182" lon="14.6393667"><ele>23.333333333333332</ele><time>2026-04-26T09:14:17.335Z</time></trkpt><trkpt lat="42.1626754" lon="14.6394352"><ele>22.666666666666664</ele><time>2026-04-26T09:14:18.335Z</time></trkpt><trkpt lat="42.1627408" lon="14.6394889"><ele>22.0</ele><time>2026-04-26T09:14:19.335Z</time></trkpt><trkpt lat="42.1628111" lon="14.6395258"><ele>21.833333333333332</ele><time>2026-04-26T09:14:20.336Z</time></trkpt><trkpt lat="42.1628876" lon="14.6395535"><ele>21.666666666666664</ele><time>2026-04-26T09:14:21.336Z</time></trkpt><trkpt lat="42.1629681" lon="14.6395748"><ele>21.5</ele><time>2026-04-26T09:14:22.335Z</time></trkpt><trkpt lat="42.1630436" lon="14.6396047"><ele>21.333333333333332</ele><time>2026-04-26T09:14:23.335Z</time></trkpt><trkpt lat="42.1631058" lon="14.6396522"><ele>21.166666666666668</ele><time>2026-04-26T09:14:24.335Z</time></trkpt><trkpt lat="42.1631881" lon="14.6397503"><ele>21.0</ele><time>2026-04-26T09:14:26.335Z</time></trkpt><trkpt lat="42.1632329" lon="14.6398509"><ele>20.8</ele><time>2026-04-26T09:14:28.335Z</time></trkpt><trkpt lat="42.1632591" lon="14.6399491"><ele>20.6</ele><time>2026-04-26T09:14:30.334Z</time></trkpt><trkpt lat="42.1632728" lon="14.6400553"><ele>20.4</ele><time>2026-04-26T09:14:32.336Z</time></trkpt><trkpt lat="42.1632609" lon="14.6401713"><ele>20.2</ele><time>2026-04-26T09:14:34.335Z</time></trkpt><trkpt lat="42.1632369" lon="14.6403186"><ele>20.0</ele><time>2026-04-26T09:14:36.334Z</time></trkpt><trkpt lat="42.1632643" lon="14.6404728"><ele>19.714285714285715</ele><time>2026-04-26T09:14:38.335Z</time></trkpt><trkpt lat="42.1633051" lon="14.6405442"><ele>19.42857142857143</ele><time>2026-04-26T09:14:39.336Z</time></trkpt><trkpt lat="42.1633627" lon="14.6405901"><ele>19.142857142857146</ele><time>2026-04-26T09:14:40.335Z</time></trkpt><trkpt lat="42.1634314" lon="14.6406085"><ele>18.857142857142858</ele><time>2026-04-26T09:14:41.335Z</time></trkpt><trkpt lat="42.1635005" lon="14.6406051"><ele>18.571428571428573</ele><time>2026-04-26T09:14:42.335Z</time></trkpt><trkpt lat="42.1635705" lon="14.6405979"><ele>18.28571428571429</ele><time>2026-04-26T09:14:43.335Z</time></trkpt><trkpt lat="42.1636407" lon="14.6406102"><ele>18.0</ele><time>2026-04-26T09:14:44.335Z</time></trkpt><trkpt lat="42.1637011" lon="14.6406498"><ele>18.0</ele><time>2026-04-26T09:14:45.336Z</time></trkpt><trkpt lat="42.163788" lon="14.6407711"><ele>18.0</ele><time>2026-04-26T09:14:47.335Z</time></trkpt><trkpt lat="42.1638123" lon="14.6408606"><ele>18.0</ele><time>2026-04-26T09:14:48.335Z</time></trkpt><trkpt lat="42.1638375" lon="14.6409587"><ele>18.0</ele><time>2026-04-26T09:14:49.335Z</time></trkpt><trkpt lat="42.1638724" lon="14.6410572"><ele>18.0</ele><time>2026-04-26T09:14:50.334Z</time></trkpt><trkpt lat="42.163911" lon="14.6411623"><ele>18.0</ele><time>2026-04-26T09:14:51.335Z</time></trkpt><trkpt lat="42.1639352" lon="14.6412788"><ele>18.2</ele><time>2026-04-26T09:14:52.335Z</time></trkpt><trkpt lat="42.1639371" lon="14.641415"><ele>18.4</ele><time>2026-04-26T09:14:53.335Z</time></trkpt><trkpt lat="42.163921" lon="14.6415578"><ele>18.599999999999998</ele><time>2026-04-26T09:14:54.336Z</time></trkpt><trkpt lat="42.1639022" lon="14.6416933"><ele>18.8</ele><time>2026-04-26T09:14:55.334Z</time></trkpt><trkpt lat="42.1638904" lon="14.6418359"><ele>19.0</ele><time>2026-04-26T09:14:56.335Z</time></trkpt><trkpt lat="42.1638854" lon="14.6419863"><ele>19.25</ele><time>2026-04-26T09:14:57.335Z</time></trkpt><trkpt lat="42.163887" lon="14.6421479"><ele>19.5</ele><time>2026-04-26T09:14:58.335Z</time></trkpt><trkpt lat="42.1638891" lon="14.6423183"><ele>19.75</ele><time>2026-04-26T09:14:59.335Z</time></trkpt><trkpt lat="42.1638886" lon="14.6424968"><ele>20.0</ele><time>2026-04-26T09:15:00.334Z</time></trkpt><trkpt lat="42.1638934" lon="14.6426747"><ele>20.0</ele><time>2026-04-26T09:15:01.335Z</time></trkpt><trkpt lat="42.1638989" lon="14.6428575"><ele>20.0</ele><time>2026-04-26T09:15:02.334Z</time></trkpt><trkpt lat="42.1639069" lon="14.643041"><ele>20.0</ele><time>2026-04-26T09:15:03.335Z</time></trkpt><trkpt lat="42.1639132" lon="14.6432281"><ele>20.0</ele><time>2026-04-26T09:15:04.335Z</time></trkpt><trkpt lat="42.1639225" lon="14.6434189"><ele>20.0</ele><time>2026-04-26T09:15:05.335Z</time></trkpt><trkpt lat="42.1639276" lon="14.6436105"><ele>20.0</ele><time>2026-04-26T09:15:06.336Z</time></trkpt><trkpt lat="42.1639344" lon="14.6437959"><ele>20.0</ele><time>2026-04-26T09:15:07.335Z</time></trkpt><trkpt lat="42.1639399" lon="14.6439773"><ele>20.0</ele><time>2026-04-26T09:15:08.335Z</time></trkpt><trkpt lat="42.1639475" lon="14.6441596"><ele>19.25</ele><time>2026-04-26T09:15:09.334Z</time></trkpt><trkpt lat="42.1639563" lon="14.6443399"><ele>18.5</ele><time>2026-04-26T09:15:10.335Z</time></trkpt><trkpt lat="42.1639635" lon="14.6445186"><ele>17.75</ele><time>2026-04-26T09:15:11.334Z</time></trkpt><trkpt lat="42.1639656" lon="14.6446975"><ele>17.0</ele><time>2026-04-26T09:15:12.335Z</time></trkpt><trkpt lat="42.1639693" lon="14.644879"><ele>17.0</ele><time>2026-04-26T09:15:13.335Z</time></trkpt><trkpt lat="42.1639731" lon="14.645064"><ele>17.0</ele><time>2026-04-26T09:15:14.335Z</time></trkpt><trkpt lat="42.1639772" lon="14.6452497"><ele>17.0</ele><time>2026-04-26T09:15:15.334Z</time></trkpt><trkpt lat="42.1639828" lon="14.6454379"><ele>17.0</ele><time>2026-04-26T09:15:16.335Z</time></trkpt><trkpt lat="42.1639856" lon="14.6456237"><ele>17.25</ele><time>2026-04-26T09:15:17.335Z</time></trkpt><trkpt lat="42.1639846" lon="14.6458158"><ele>17.5</ele><time>2026-04-26T09:15:18.335Z</time></trkpt><trkpt lat="42.1639822" lon="14.646013"><ele>17.75</ele><time>2026-04-26T09:15:19.335Z</time></trkpt><trkpt lat="42.1639814" lon="14.6462168"><ele>18.0</ele><time>2026-04-26T09:15:20.335Z</time></trkpt><trkpt lat="42.1639771" lon="14.646426"><ele>18.666666666666668</ele><time>2026-04-26T09:15:21.335Z</time></trkpt><trkpt lat="42.1639686" lon="14.6466364"><ele>19.333333333333336</ele><time>2026-04-26T09:15:22.335Z</time></trkpt><trkpt lat="42.1639536" lon="14.6468487"><ele>20.0</ele><time>2026-04-26T09:15:23.335Z</time></trkpt><trkpt lat="42.1639366" lon="14.6470715"><ele>20.0</ele><time>2026-04-26T09:15:24.335Z</time></trkpt><trkpt lat="42.1639096" lon="14.6472962"><ele>20.0</ele><time>2026-04-26T09:15:25.334Z</time></trkpt><trkpt lat="42.1638849" lon="14.6475327"><ele>20.0</ele><time>2026-04-26T09:15:26.334Z</time></trkpt><trkpt lat="42.163862" lon="14.6477745"><ele>20.666666666666668</ele><time>2026-04-26T09:15:27.334Z</time></trkpt><trkpt lat="42.1638379" lon="14.6480195"><ele>21.333333333333332</ele><time>2026-04-26T09:15:28.334Z</time></trkpt><trkpt lat="42.1638127" lon="14.6482764"><ele>22.0</ele><time>2026-04-26T09:15:29.334Z</time></trkpt><trkpt lat="42.1637866" lon="14.6485427"><ele>22.0</ele><time>2026-04-26T09:15:30.335Z</time></trkpt><trkpt lat="42.1637602" lon="14.6488125"><ele>22.0</ele><time>2026-04-26T09:15:31.335Z</time></trkpt><trkpt lat="42.1637418" lon="14.6490895"><ele>22.0</ele><time>2026-04-26T09:15:32.336Z</time></trkpt><trkpt lat="42.1637252" lon="14.6493759"><ele>21.666666666666664</ele><time>2026-04-26T09:15:33.335Z</time></trkpt><trkpt lat="42.1637218" lon="14.6496562"><ele>21.333333333333332</ele><time>2026-04-26T09:15:34.335Z</time></trkpt><trkpt lat="42.1637298" lon="14.6499196"><ele>21.0</ele><time>2026-04-26T09:15:35.335Z</time></trkpt><trkpt lat="42.1637488" lon="14.6501781"><ele>21.333333333333332</ele><time>2026-04-26T09:15:36.335Z</time></trkpt><trkpt lat="42.1637821" lon="14.650433"><ele>21.666666666666664</ele><time>2026-04-26T09:15:37.334Z</time></trkpt><trkpt lat="42.1638272" lon="14.6506817"><ele>22.0</ele><time>2026-04-26T09:15:38.335Z</time></trkpt><trkpt lat="42.1638813" lon="14.6509241"><ele>24.0</ele><time>2026-04-26T09:15:39.335Z</time></trkpt><trkpt lat="42.1639476" lon="14.6511561"><ele>26.0</ele><time>2026-04-26T09:15:40.335Z</time></trkpt><trkpt lat="42.1640247" lon="14.6513848"><ele>28.0</ele><time>2026-04-26T09:15:41.335Z</time></trkpt><trkpt lat="42.1641103" lon="14.6516051"><ele>28.666666666666668</ele><time>2026-04-26T09:15:42.335Z</time></trkpt><trkpt lat="42.1642037" lon="14.6518221"><ele>29.333333333333336</ele><time>2026-04-26T09:15:43.335Z</time></trkpt><trkpt lat="42.1643056" lon="14.6520318"><ele>30.0</ele><time>2026-04-26T09:15:44.334Z</time></trkpt><trkpt lat="42.1644218" lon="14.6522387"><ele>34.333333333333336</ele><time>2026-04-26T09:15:45.335Z</time></trkpt><trkpt lat="42.1645484" lon="14.652438"><ele>38.66666666666667</ele><time>2026-04-26T09:15:46.336Z</time></trkpt><trkpt lat="42.1646878" lon="14.6526282"><ele>43.0</ele><time>2026-04-26T09:15:47.335Z</time></trkpt><trkpt lat="42.1648392" lon="14.6528123"><ele>48.333333333333336</ele><time>2026-04-26T09:15:48.336Z</time></trkpt><trkpt lat="42.1650002" lon="14.6529875"><ele>53.66666666666667</ele><time>2026-04-26T09:15:49.334Z</time></trkpt><trkpt lat="42.1651698" lon="14.6531503"><ele>59.0</ele><time>2026-04-26T09:15:50.335Z</time></trkpt><trkpt lat="42.165346" lon="14.6533028"><ele>59.0</ele><time>2026-04-26T09:15:51.335Z</time></trkpt><trkpt lat="42.1655259" lon="14.6534525"><ele>59.0</ele><time>2026-04-26T09:15:52.334Z</time></trkpt><trkpt lat="42.1657102" lon="14.6536081"><ele>59.0</ele><time>2026-04-26T09:15:53.335Z</time></trkpt><trkpt lat="42.1658922" lon="14.6537685"><ele>62.0</ele><time>2026-04-26T09:15:54.335Z</time></trkpt><trkpt lat="42.1660756" lon="14.6539281"><ele>65.0</ele><time>2026-04-26T09:15:55.335Z</time></trkpt><trkpt lat="42.1662534" lon="14.6540843"><ele>68.0</ele><time>2026-04-26T09:15:56.335Z</time></trkpt><trkpt lat="42.1664205" lon="14.654234"><ele>65.33333333333334</ele><time>2026-04-26T09:15:57.335Z</time></trkpt><trkpt lat="42.166586" lon="14.6543794"><ele>62.66666666666667</ele><time>2026-04-26T09:15:58.335Z</time></trkpt><trkpt lat="42.1667363" lon="14.6545351"><ele>60.0</ele><time>2026-04-26T09:15:59.334Z</time></trkpt><trkpt lat="42.1668788" lon="14.6547075"><ele>60.0</ele><time>2026-04-26T09:16:00.335Z</time></trkpt><trkpt lat="42.1670128" lon="14.6548918"><ele>60.0</ele><time>2026-04-26T09:16:01.335Z</time></trkpt><trkpt lat="42.1671361" lon="14.6550857"><ele>60.0</ele><time>2026-04-26T09:16:02.335Z</time></trkpt><trkpt lat="42.1672473" lon="14.6552873"><ele>64.0</ele><time>2026-04-26T09:16:03.335Z</time></trkpt><trkpt lat="42.1673392" lon="14.6554926"><ele>68.0</ele><time>2026-04-26T09:16:04.335Z</time></trkpt><trkpt lat="42.167419" lon="14.6557049"><ele>72.0</ele><time>2026-04-26T09:16:05.335Z</time></trkpt><trkpt lat="42.1674911" lon="14.6559236"><ele>74.66666666666667</ele><time>2026-04-26T09:16:06.335Z</time></trkpt><trkpt lat="42.1675529" lon="14.6561451"><ele>77.33333333333334</ele><time>2026-04-26T09:16:07.334Z</time></trkpt><trkpt lat="42.1676049" lon="14.6563688"><ele>80.0</ele><time>2026-04-26T09:16:08.334Z</time></trkpt><trkpt lat="42.1676439" lon="14.6565959"><ele>80.0</ele><time>2026-04-26T09:16:09.335Z</time></trkpt><trkpt lat="42.167673" lon="14.6568341"><ele>80.0</ele><time>2026-04-26T09:16:10.335Z</time></trkpt><trkpt lat="42.1676911" lon="14.6570761"><ele>80.0</ele><time>2026-04-26T09:16:11.335Z</time></trkpt><trkpt lat="42.1676986" lon="14.6573209"><ele>80.0</ele><time>2026-04-26T09:16:12.335Z</time></trkpt><trkpt lat="42.1676908" lon="14.6575669"><ele>80.0</ele><time>2026-04-26T09:16:13.336Z</time></trkpt><trkpt lat="42.1676718" lon="14.6578087"><ele>80.0</ele><time>2026-04-26T09:16:14.335Z</time></trkpt><trkpt lat="42.1676397" lon="14.6580465"><ele>79.0</ele><time>2026-04-26T09:16:15.335Z</time></trkpt><trkpt lat="42.1675927" lon="14.6582862"><ele>78.0</ele><time>2026-04-26T09:16:16.335Z</time></trkpt><trkpt lat="42.1675336" lon="14.6585305"><ele>77.0</ele><time>2026-04-26T09:16:17.334Z</time></trkpt><trkpt lat="42.167464" lon="14.6587801"><ele>76.66666666666667</ele><time>2026-04-26T09:16:18.334Z</time></trkpt><trkpt lat="42.1673904" lon="14.6590323"><ele>76.33333333333333</ele><time>2026-04-26T09:16:19.335Z</time></trkpt><trkpt lat="42.1673152" lon="14.6592911"><ele>76.0</ele><time>2026-04-26T09:16:20.336Z</time></trkpt><trkpt lat="42.1672382" lon="14.6595446"><ele>77.0</ele><time>2026-04-26T09:16:21.335Z</time></trkpt><trkpt lat="42.1671644" lon="14.6597862"><ele>78.0</ele><time>2026-04-26T09:16:22.335Z</time></trkpt><trkpt lat="42.167095" lon="14.6600142"><ele>79.0</ele><time>2026-04-26T09:16:23.334Z</time></trkpt><trkpt lat="42.1670325" lon="14.6602373"><ele>78.33333333333333</ele><time>2026-04-26T09:16:24.334Z</time></trkpt><trkpt lat="42.1669737" lon="14.6604482"><ele>77.66666666666667</ele><time>2026-04-26T09:16:25.335Z</time></trkpt><trkpt lat="42.1669188" lon="14.6606501"><ele>77.0</ele><time>2026-04-26T09:16:26.336Z</time></trkpt><trkpt lat="42.1668665" lon="14.6608446"><ele>77.0</ele><time>2026-04-26T09:16:27.334Z</time></trkpt><trkpt lat="42.1668095" lon="14.6610345"><ele>77.0</ele><time>2026-04-26T09:16:28.336Z</time></trkpt><trkpt lat="42.1667573" lon="14.6612122"><ele>77.0</ele><time>2026-04-26T09:16:29.335Z</time></trkpt><trkpt lat="42.1667089" lon="14.6613778"><ele>77.0</ele><time>2026-04-26T09:16:30.335Z</time></trkpt><trkpt lat="42.1666581" lon="14.6615348"><ele>76.8</ele><time>2026-04-26T09:16:31.335Z</time></trkpt><trkpt lat="42.1666162" lon="14.6616701"><ele>76.6</ele><time>2026-04-26T09:16:32.334Z</time></trkpt><trkpt lat="42.1665764" lon="14.6617837"><ele>76.39999999999999</ele><time>2026-04-26T09:16:33.335Z</time></trkpt><trkpt lat="42.1665382" lon="14.6618843"><ele>76.2</ele><time>2026-04-26T09:16:34.336Z</time></trkpt><trkpt lat="42.1664934" lon="14.6619781"><ele>76.0</ele><time>2026-04-26T09:16:35.334Z</time></trkpt><trkpt lat="42.1664324" lon="14.6620602"><ele>76.0</ele><time>2026-04-26T09:16:36.334Z</time></trkpt><trkpt lat="42.1663644" lon="14.6621272"><ele>76.0</ele><time>2026-04-26T09:16:37.334Z</time></trkpt><trkpt lat="42.166312" lon="14.6622087"><ele>76.0</ele><time>2026-04-26T09:16:38.335Z</time></trkpt><trkpt lat="42.1662816" lon="14.6623101"><ele>76.0</ele><time>2026-04-26T09:16:39.335Z</time></trkpt><trkpt lat="42.1662752" lon="14.6624174"><ele>76.0</ele><time>2026-04-26T09:16:40.335Z</time></trkpt><trkpt lat="42.1662867" lon="14.6625356"><ele>76.0</ele><time>2026-04-26T09:16:41.334Z</time></trkpt><trkpt lat="42.1662863" lon="14.662666"><ele>75.75</ele><time>2026-04-26T09:16:42.335Z</time></trkpt><trkpt lat="42.1662632" lon="14.6628143"><ele>75.5</ele><time>2026-04-26T09:16:43.334Z</time></trkpt><trkpt lat="42.1662242" lon="14.6629846"><ele>75.25</ele><time>2026-04-26T09:16:44.335Z</time></trkpt><trkpt lat="42.1661778" lon="14.6631713"><ele>75.0</ele><time>2026-04-26T09:16:45.335Z</time></trkpt><trkpt lat="42.1661188" lon="14.6633779"><ele>75.0</ele><time>2026-04-26T09:16:46.335Z</time></trkpt><trkpt lat="42.1660501" lon="14.6635993"><ele>75.0</ele><time>2026-04-26T09:16:47.335Z</time></trkpt><trkpt lat="42.1659788" lon="14.6638382"><ele>75.0</ele><time>2026-04-26T09:16:48.335Z</time></trkpt><trkpt lat="42.1659104" lon="14.6640742"><ele>75.33333333333333</ele><time>2026-04-26T09:16:49.335Z</time></trkpt><trkpt lat="42.1658436" lon="14.6643106"><ele>75.66666666666666</ele><time>2026-04-26T09:16:50.336Z</time></trkpt><trkpt lat="42.1657752" lon="14.6645526"><ele>76.0</ele><time>2026-04-26T09:16:51.335Z</time></trkpt><trkpt lat="42.1657033" lon="14.6647968"><ele>76.0</ele><time>2026-04-26T09:16:52.335Z</time></trkpt><trkpt lat="42.1656314" lon="14.6650441"><ele>76.0</ele><time>2026-04-26T09:16:53.336Z</time></trkpt><trkpt lat="42.1655578" lon="14.6652918"><ele>76.0</ele><time>2026-04-26T09:16:54.336Z</time></trkpt><trkpt lat="42.1654827" lon="14.665541"><ele>75.33333333333333</ele><time>2026-04-26T09:16:55.336Z</time></trkpt><trkpt lat="42.1654095" lon="14.6657927"><ele>74.66666666666667</ele><time>2026-04-26T09:16:56.335Z</time></trkpt><trkpt lat="42.165341" lon="14.6660569"><ele>74.0</ele><time>2026-04-26T09:16:57.335Z</time></trkpt><trkpt lat="42.1652817" lon="14.6663411"><ele>74.0</ele><time>2026-04-26T09:16:58.335Z</time></trkpt><trkpt lat="42.1652323" lon="14.6666418"><ele>74.0</ele><time>2026-04-26T09:16:59.335Z</time></trkpt><trkpt lat="42.1651812" lon="14.6669517"><ele>73.5</ele><time>2026-04-26T09:17:00.335Z</time></trkpt><trkpt lat="42.1651275" lon="14.6672701"><ele>73.0</ele><time>2026-04-26T09:17:01.334Z</time></trkpt><trkpt lat="42.1650755" lon="14.6675736"><ele>72.66666666666666</ele><time>2026-04-26T09:17:02.335Z</time></trkpt><trkpt lat="42.1650244" lon="14.6678693"><ele>72.33333333333333</ele><time>2026-04-26T09:17:03.335Z</time></trkpt><trkpt lat="42.1649762" lon="14.6681517"><ele>72.0</ele><time>2026-04-26T09:17:04.335Z</time></trkpt><trkpt lat="42.1649347" lon="14.6684177"><ele>72.33333333333333</ele><time>2026-04-26T09:17:05.335Z</time></trkpt><trkpt lat="42.1648972" lon="14.6686593"><ele>72.66666666666666</ele><time>2026-04-26T09:17:06.335Z</time></trkpt><trkpt lat="42.1648667" lon="14.6688926"><ele>73.0</ele><time>2026-04-26T09:17:07.336Z</time></trkpt><trkpt lat="42.1648474" lon="14.6691222"><ele>73.0</ele><time>2026-04-26T09:17:08.335Z</time></trkpt><trkpt lat="42.164843" lon="14.6693576"><ele>73.0</ele><time>2026-04-26T09:17:09.334Z</time></trkpt><trkpt lat="42.1648474" lon="14.6696075"><ele>73.0</ele><time>2026-04-26T09:17:10.334Z</time></trkpt><trkpt lat="42.1648549" lon="14.6698679"><ele>71.66666666666666</ele><time>2026-04-26T09:17:11.335Z</time></trkpt><trkpt lat="42.1648627" lon="14.6701355"><ele>70.33333333333333</ele><time>2026-04-26T09:17:12.334Z</time></trkpt><trkpt lat="42.1648683" lon="14.6704063"><ele>69.0</ele><time>2026-04-26T09:17:13.334Z</time></trkpt><trkpt lat="42.1648716" lon="14.6706758"><ele>69.0</ele><time>2026-04-26T09:17:14.335Z</time></trkpt><trkpt lat="42.1648759" lon="14.6709417"><ele>69.0</ele><time>2026-04-26T09:17:15.335Z</time></trkpt><trkpt lat="42.1648825" lon="14.6712091"><ele>69.0</ele><time>2026-04-26T09:17:16.335Z</time></trkpt><trkpt lat="42.1648947" lon="14.6714756"><ele>69.0</ele><time>2026-04-26T09:17:17.336Z</time></trkpt><trkpt lat="42.1649077" lon="14.6717422"><ele>69.0</ele><time>2026-04-26T09:17:18.334Z</time></trkpt><trkpt lat="42.1649202" lon="14.6720168"><ele>69.0</ele><time>2026-04-26T09:17:19.336Z</time></trkpt><trkpt lat="42.1649335" lon="14.6722932"><ele>68.0</ele><time>2026-04-26T09:17:20.334Z</time></trkpt><trkpt lat="42.1649419" lon="14.672576"><ele>67.0</ele><time>2026-04-26T09:17:21.335Z</time></trkpt><trkpt lat="42.1649539" lon="14.672859"><ele>66.0</ele><time>2026-04-26T09:17:22.335Z</time></trkpt><trkpt lat="42.1649636" lon="14.6731324"><ele>65.66666666666667</ele><time>2026-04-26T09:17:23.335Z</time></trkpt><trkpt lat="42.1649745" lon="14.6734018"><ele>65.33333333333334</ele><time>2026-04-26T09:17:24.335Z</time></trkpt><trkpt lat="42.1649877" lon="14.6736672"><ele>65.0</ele><time>2026-04-26T09:17:25.334Z</time></trkpt><trkpt lat="42.1649986" lon="14.6739323"><ele>64.33333333333334</ele><time>2026-04-26T09:17:26.336Z</time></trkpt><trkpt lat="42.1650112" lon="14.674197"><ele>63.66666666666667</ele><time>2026-04-26T09:17:27.334Z</time></trkpt><trkpt lat="42.165023" lon="14.6744588"><ele>63.0</ele><time>2026-04-26T09:17:28.336Z</time></trkpt><trkpt lat="42.1650341" lon="14.6747212"><ele>62.0</ele><time>2026-04-26T09:17:29.335Z</time></trkpt><trkpt lat="42.1650438" lon="14.6749833"><ele>61.0</ele><time>2026-04-26T09:17:30.334Z</time></trkpt><trkpt lat="42.1650526" lon="14.6752392"><ele>60.0</ele><time>2026-04-26T09:17:31.335Z</time></trkpt><trkpt lat="42.1650636" lon="14.6754918"><ele>60.0</ele><time>2026-04-26T09:17:32.335Z</time></trkpt><trkpt lat="42.1650728" lon="14.6757468"><ele>60.0</ele><time>2026-04-26T09:17:33.335Z</time></trkpt><trkpt lat="42.1650843" lon="14.676"><ele>60.0</ele><time>2026-04-26T09:17:34.335Z</time></trkpt><trkpt lat="42.1650946" lon="14.6762562"><ele>59.0</ele><time>2026-04-26T09:17:35.334Z</time></trkpt><trkpt lat="42.165107" lon="14.6765114"><ele>58.0</ele><time>2026-04-26T09:17:36.334Z</time></trkpt><trkpt lat="42.1651215" lon="14.6767682"><ele>57.0</ele><time>2026-04-26T09:17:37.335Z</time></trkpt><trkpt lat="42.1651403" lon="14.6770262"><ele>55.66666666666667</ele><time>2026-04-26T09:17:38.335Z</time></trkpt><trkpt lat="42.1651668" lon="14.6772845"><ele>54.333333333333336</ele><time>2026-04-26T09:17:39.334Z</time></trkpt><trkpt lat="42.1652035" lon="14.6775522"><ele>53.0</ele><time>2026-04-26T09:17:40.335Z</time></trkpt><trkpt lat="42.1652469" lon="14.6778347"><ele>53.0</ele><time>2026-04-26T09:17:41.335Z</time></trkpt><trkpt lat="42.1652929" lon="14.6781206"><ele>53.0</ele><time>2026-04-26T09:17:42.335Z</time></trkpt><trkpt lat="42.1653372" lon="14.678396"><ele>53.0</ele><time>2026-04-26T09:17:43.335Z</time></trkpt><trkpt lat="42.1653805" lon="14.6786566"><ele>54.333333333333336</ele><time>2026-04-26T09:17:44.335Z</time></trkpt><trkpt lat="42.165422" lon="14.6789092"><ele>55.66666666666667</ele><time>2026-04-26T09:17:45.335Z</time></trkpt><trkpt lat="42.1654604" lon="14.6791471"><ele>57.0</ele><time>2026-04-26T09:17:46.335Z</time></trkpt><trkpt lat="42.1654946" lon="14.6793742"><ele>56.66666666666667</ele><time>2026-04-26T09:17:47.334Z</time></trkpt><trkpt lat="42.1655244" lon="14.6796077"><ele>56.333333333333336</ele><time>2026-04-26T09:17:48.335Z</time></trkpt><trkpt lat="42.1655461" lon="14.6798532"><ele>56.0</ele><time>2026-04-26T09:17:49.336Z</time></trkpt><trkpt lat="42.1655638" lon="14.6801041"><ele>55.66666666666667</ele><time>2026-04-26T09:17:50.335Z</time></trkpt><trkpt lat="42.1655848" lon="14.6803532"><ele>55.33333333333333</ele><time>2026-04-26T09:17:51.334Z</time></trkpt><trkpt lat="42.1655993" lon="14.6805918"><ele>55.0</ele><time>2026-04-26T09:17:52.336Z</time></trkpt><trkpt lat="42.1656143" lon="14.6808228"><ele>55.0</ele><time>2026-04-26T09:17:53.336Z</time></trkpt><trkpt lat="42.1656294" lon="14.6810375"><ele>55.0</ele><time>2026-04-26T09:17:54.335Z</time></trkpt><trkpt lat="42.1656469" lon="14.6812385"><ele>55.0</ele><time>2026-04-26T09:17:55.334Z</time></trkpt><trkpt lat="42.1656606" lon="14.681419"><ele>55.0</ele><time>2026-04-26T09:17:56.335Z</time></trkpt><trkpt lat="42.165678" lon="14.681569"><ele>54.666666666666664</ele><time>2026-04-26T09:17:57.335Z</time></trkpt><trkpt lat="42.1656926" lon="14.6816926"><ele>54.33333333333333</ele><time>2026-04-26T09:17:58.335Z</time></trkpt><trkpt lat="42.1656997" lon="14.6817998"><ele>54.0</ele><time>2026-04-26T09:17:59.335Z</time></trkpt><trkpt lat="42.1656952" lon="14.6818975"><ele>53.66666666666667</ele><time>2026-04-26T09:18:00.336Z</time></trkpt><trkpt lat="42.1656757" lon="14.6819979"><ele>53.333333333333336</ele><time>2026-04-26T09:18:01.334Z</time></trkpt><trkpt lat="42.1656448" lon="14.6820925"><ele>53.0</ele><time>2026-04-26T09:18:02.335Z</time></trkpt><trkpt lat="42.1656186" lon="14.6821755"><ele>52.714285714285715</ele><time>2026-04-26T09:18:03.334Z</time></trkpt><trkpt lat="42.1655917" lon="14.6822623"><ele>52.42857142857142</ele><time>2026-04-26T09:18:04.336Z</time></trkpt><trkpt lat="42.1655733" lon="14.6823553"><ele>52.14285714285714</ele><time>2026-04-26T09:18:05.335Z</time></trkpt><trkpt lat="42.1655665" lon="14.6824554"><ele>51.85714285714286</ele><time>2026-04-26T09:18:06.335Z</time></trkpt><trkpt lat="42.1655779" lon="14.6825574"><ele>51.57142857142857</ele><time>2026-04-26T09:18:07.336Z</time></trkpt><trkpt lat="42.165607" lon="14.6826523"><ele>51.285714285714285</ele><time>2026-04-26T09:18:08.336Z</time></trkpt><trkpt lat="42.1656552" lon="14.6827391"><ele>51.0</ele><time>2026-04-26T09:18:09.335Z</time></trkpt><trkpt lat="42.1657224" lon="14.6828097"><ele>50.666666666666664</ele><time>2026-04-26T09:18:10.335Z</time></trkpt><trkpt lat="42.1657966" lon="14.6828633"><ele>50.33333333333333</ele><time>2026-04-26T09:18:11.335Z</time></trkpt><trkpt lat="42.1658745" lon="14.6829156"><ele>50.0</ele><time>2026-04-26T09:18:12.335Z</time></trkpt><trkpt lat="42.16595" lon="14.6829858"><ele>49.666666666666664</ele><time>2026-04-26T09:18:13.335Z</time></trkpt><trkpt lat="42.1660136" lon="14.6830724"><ele>49.33333333333333</ele><time>2026-04-26T09:18:14.336Z</time></trkpt><trkpt lat="42.1660665" lon="14.6831783"><ele>49.0</ele><time>2026-04-26T09:18:15.335Z</time></trkpt><trkpt lat="42.166105" lon="14.683302"><ele>49.0</ele><time>2026-04-26T09:18:16.335Z</time></trkpt><trkpt lat="42.1661443" lon="14.6834374"><ele>49.0</ele><time>2026-04-26T09:18:17.335Z</time></trkpt><trkpt lat="42.1661849" lon="14.6835817"><ele>49.0</ele><time>2026-04-26T09:18:18.335Z</time></trkpt><trkpt lat="42.1662284" lon="14.6837418"><ele>49.0</ele><time>2026-04-26T09:18:19.335Z</time></trkpt><trkpt lat="42.1662771" lon="14.6839245"><ele>49.33333333333333</ele><time>2026-04-26T09:18:20.335Z</time></trkpt><trkpt lat="42.166334" lon="14.684121"><ele>49.66666666666667</ele><time>2026-04-26T09:18:21.335Z</time></trkpt><trkpt lat="42.1663948" lon="14.6843289"><ele>50.0</ele><time>2026-04-26T09:18:22.336Z</time></trkpt><trkpt lat="42.1664517" lon="14.6845317"><ele>50.333333333333336</ele><time>2026-04-26T09:18:23.335Z</time></trkpt><trkpt lat="42.1665078" lon="14.6847359"><ele>50.66666666666667</ele><time>2026-04-26T09:18:24.335Z</time></trkpt><trkpt lat="42.1665508" lon="14.6849616"><ele>51.0</ele><time>2026-04-26T09:18:25.334Z</time></trkpt><trkpt lat="42.1665751" lon="14.6852032"><ele>50.0</ele><time>2026-04-26T09:18:26.335Z</time></trkpt><trkpt lat="42.166584" lon="14.6854686"><ele>49.0</ele><time>2026-04-26T09:18:27.335Z</time></trkpt><trkpt lat="42.1665813" lon="14.6857507"><ele>48.0</ele><time>2026-04-26T09:18:28.335Z</time></trkpt><trkpt lat="42.1665806" lon="14.6860432"><ele>47.666666666666664</ele><time>2026-04-26T09:18:29.335Z</time></trkpt><trkpt lat="42.1665803" lon="14.6863294"><ele>47.33333333333333</ele><time>2026-04-26T09:18:30.335Z</time></trkpt><trkpt lat="42.1665813" lon="14.6866111"><ele>47.0</ele><time>2026-04-26T09:18:31.334Z</time></trkpt><trkpt lat="42.1665833" lon="14.6868912"><ele>46.666666666666664</ele><time>2026-04-26T09:18:32.336Z</time></trkpt><trkpt lat="42.1665859" lon="14.687168"><ele>46.333333333333336</ele><time>2026-04-26T09:18:33.335Z</time></trkpt><trkpt lat="42.1665959" lon="14.68744"><ele>46.0</ele><time>2026-04-26T09:18:34.334Z</time></trkpt><trkpt lat="42.166602" lon="14.6877091"><ele>46.0</ele><time>2026-04-26T09:18:35.335Z</time></trkpt><trkpt lat="42.1666145" lon="14.6879774"><ele>46.0</ele><time>2026-04-26T09:18:36.335Z</time></trkpt><trkpt lat="42.166635" lon="14.6882519"><ele>46.0</ele><time>2026-04-26T09:18:37.335Z</time></trkpt><trkpt lat="42.166654" lon="14.6885369"><ele>45.66666666666667</ele><time>2026-04-26T09:18:38.335Z</time></trkpt><trkpt lat="42.1666784" lon="14.6888296"><ele>45.333333333333336</ele><time>2026-04-26T09:18:39.335Z</time></trkpt><trkpt lat="42.1667036" lon="14.689131"><ele>45.0</ele><time>2026-04-26T09:18:40.335Z</time></trkpt><trkpt lat="42.1667292" lon="14.6894308"><ele>45.0</ele><time>2026-04-26T09:18:41.334Z</time></trkpt><trkpt lat="42.1667574" lon="14.6897323"><ele>45.0</ele><time>2026-04-26T09:18:42.335Z</time></trkpt><trkpt lat="42.1667843" lon="14.6900357"><ele>44.5</ele><time>2026-04-26T09:18:43.334Z</time></trkpt><trkpt lat="42.1668107" lon="14.6903454"><ele>44.0</ele><time>2026-04-26T09:18:44.335Z</time></trkpt><trkpt lat="42.1668336" lon="14.6906477"><ele>44.0</ele><time>2026-04-26T09:18:45.335Z</time></trkpt><trkpt lat="42.1668583" lon="14.6909341"><ele>44.0</ele><time>2026-04-26T09:18:46.335Z</time></trkpt><trkpt lat="42.1668892" lon="14.6912162"><ele>44.0</ele><time>2026-04-26T09:18:47.334Z</time></trkpt><trkpt lat="42.1669277" lon="14.6914864"><ele>43.33333333333333</ele><time>2026-04-26T09:18:48.335Z</time></trkpt><trkpt lat="42.1669707" lon="14.6917487"><ele>42.666666666666664</ele><time>2026-04-26T09:18:49.334Z</time></trkpt><trkpt lat="42.1670223" lon="14.6920179"><ele>42.0</ele><time>2026-04-26T09:18:50.335Z</time></trkpt><trkpt lat="42.1670867" lon="14.6923"><ele>42.0</ele><time>2026-04-26T09:18:51.334Z</time></trkpt><trkpt lat="42.1671559" lon="14.6925796"><ele>42.0</ele><time>2026-04-26T09:18:52.335Z</time></trkpt><trkpt lat="42.1672222" lon="14.6928422"><ele>42.0</ele><time>2026-04-26T09:18:53.335Z</time></trkpt><trkpt lat="42.1672861" lon="14.6930898"><ele>42.0</ele><time>2026-04-26T09:18:54.335Z</time></trkpt><trkpt lat="42.1673453" lon="14.6933164"><ele>42.0</ele><time>2026-04-26T09:18:55.335Z</time></trkpt><trkpt lat="42.1673996" lon="14.6935261"><ele>42.0</ele><time>2026-04-26T09:18:56.334Z</time></trkpt><trkpt lat="42.1674518" lon="14.6937209"><ele>41.75</ele><time>2026-04-26T09:18:57.335Z</time></trkpt><trkpt lat="42.1674994" lon="14.6939019"><ele>41.5</ele><time>2026-04-26T09:18:58.335Z</time></trkpt><trkpt lat="42.1675472" lon="14.6940659"><ele>41.25</ele><time>2026-04-26T09:18:59.336Z</time></trkpt><trkpt lat="42.1676006" lon="14.6942199"><ele>41.0</ele><time>2026-04-26T09:19:00.334Z</time></trkpt><trkpt lat="42.16766" lon="14.6943575"><ele>40.666666666666664</ele><time>2026-04-26T09:19:01.334Z</time></trkpt><trkpt lat="42.1677171" lon="14.6944802"><ele>40.33333333333333</ele><time>2026-04-26T09:19:02.335Z</time></trkpt><trkpt lat="42.1677635" lon="14.6945821"><ele>40.0</ele><time>2026-04-26T09:19:03.334Z</time></trkpt><trkpt lat="42.1677934" lon="14.6946802"><ele>39.666666666666664</ele><time>2026-04-26T09:19:04.335Z</time></trkpt><trkpt lat="42.167807" lon="14.6947803"><ele>39.333333333333336</ele><time>2026-04-26T09:19:05.335Z</time></trkpt><trkpt lat="42.1678083" lon="14.6948836"><ele>39.0</ele><time>2026-04-26T09:19:06.336Z</time></trkpt><trkpt lat="42.1678149" lon="14.6949853"><ele>39.0</ele><time>2026-04-26T09:19:07.335Z</time></trkpt><trkpt lat="42.1678479" lon="14.6950749"><ele>39.0</ele><time>2026-04-26T09:19:08.335Z</time></trkpt><trkpt lat="42.1678952" lon="14.6951421"><ele>39.0</ele><time>2026-04-26T09:19:09.335Z</time></trkpt><trkpt lat="42.1680102" lon="14.6951805"><ele>39.0</ele><time>2026-04-26T09:19:11.335Z</time></trkpt><trkpt lat="42.1680678" lon="14.6951449"><ele>39.0</ele><time>2026-04-26T09:19:12.334Z</time></trkpt><trkpt lat="42.1681156" lon="14.6950753"><ele>39.0</ele><time>2026-04-26T09:19:13.335Z</time></trkpt><trkpt lat="42.1681516" lon="14.6949838"><ele>39.0</ele><time>2026-04-26T09:19:14.335Z</time></trkpt><trkpt lat="42.1681858" lon="14.6949065"><ele>39.0</ele><time>2026-04-26T09:19:15.336Z</time></trkpt><trkpt lat="42.1682378" lon="14.694849"><ele>39.0</ele><time>2026-04-26T09:19:16.335Z</time></trkpt><trkpt lat="42.1683089" lon="14.6948196"><ele>39.0</ele><time>2026-04-26T09:19:17.334Z</time></trkpt><trkpt lat="42.1683939" lon="14.694812"><ele>39.0</ele><time>2026-04-26T09:19:18.335Z</time></trkpt><trkpt lat="42.1684882" lon="14.6948298"><ele>39.0</ele><time>2026-04-26T09:19:19.335Z</time></trkpt><trkpt lat="42.1685938" lon="14.6948785"><ele>38.75</ele><time>2026-04-26T09:19:20.335Z</time></trkpt><trkpt lat="42.1686994" lon="14.6949462"><ele>38.5</ele><time>2026-04-26T09:19:21.335Z</time></trkpt><trkpt lat="42.1688122" lon="14.6950132"><ele>38.25</ele><time>2026-04-26T09:19:22.335Z</time></trkpt><trkpt lat="42.1689198" lon="14.695078"><ele>38.0</ele><time>2026-04-26T09:19:23.334Z</time></trkpt><trkpt lat="42.1690216" lon="14.6951366"><ele>37.6</ele><time>2026-04-26T09:19:24.335Z</time></trkpt><trkpt lat="42.1691189" lon="14.6951978"><ele>37.199999999999996</ele><time>2026-04-26T09:19:25.335Z</time></trkpt><trkpt lat="42.1692092" lon="14.6952638"><ele>36.8</ele><time>2026-04-26T09:19:26.336Z</time></trkpt><trkpt lat="42.1692839" lon="14.6953416"><ele>36.4</ele><time>2026-04-26T09:19:27.335Z</time></trkpt><trkpt lat="42.1693516" lon="14.6954245"><ele>36.0</ele><time>2026-04-26T09:19:28.335Z</time></trkpt><trkpt lat="42.1694064" lon="14.6955235"><ele>36.0</ele><time>2026-04-26T09:19:29.336Z</time></trkpt><trkpt lat="42.1694477" lon="14.6956444"><ele>36.0</ele><time>2026-04-26T09:19:30.334Z</time></trkpt><trkpt lat="42.1694684" lon="14.6957843"><ele>36.0</ele><time>2026-04-26T09:19:31.335Z</time></trkpt><trkpt lat="42.1694663" lon="14.6959414"><ele>36.0</ele><time>2026-04-26T09:19:32.335Z</time></trkpt><trkpt lat="42.1694362" lon="14.6961213"><ele>36.333333333333336</ele><time>2026-04-26T09:19:33.335Z</time></trkpt><trkpt lat="42.1693884" lon="14.6963328"><ele>36.66666666666667</ele><time>2026-04-26T09:19:34.334Z</time></trkpt><trkpt lat="42.169334" lon="14.6965686"><ele>37.0</ele><time>2026-04-26T09:19:35.335Z</time></trkpt><trkpt lat="42.1692811" lon="14.6967972"><ele>37.0</ele><time>2026-04-26T09:19:36.336Z</time></trkpt><trkpt lat="42.1692296" lon="14.6970379"><ele>37.0</ele><time>2026-04-26T09:19:37.334Z</time></trkpt><trkpt lat="42.169177" lon="14.6972825"><ele>37.0</ele><time>2026-04-26T09:19:38.334Z</time></trkpt><trkpt lat="42.1691193" lon="14.6975353"><ele>36.66666666666667</ele><time>2026-04-26T09:19:39.334Z</time></trkpt><trkpt lat="42.1690605" lon="14.6977885"><ele>36.333333333333336</ele><time>2026-04-26T09:19:40.334Z</time></trkpt><trkpt lat="42.1690057" lon="14.6980275"><ele>36.0</ele><time>2026-04-26T09:19:41.335Z</time></trkpt><trkpt lat="42.1689547" lon="14.6982519"><ele>35.666666666666664</ele><time>2026-04-26T09:19:42.335Z</time></trkpt><trkpt lat="42.1689071" lon="14.6984604"><ele>35.33333333333333</ele><time>2026-04-26T09:19:43.335Z</time></trkpt><trkpt lat="42.1688642" lon="14.6986601"><ele>35.0</ele><time>2026-04-26T09:19:44.335Z</time></trkpt><trkpt lat="42.1688366" lon="14.6988619"><ele>35.0</ele><time>2026-04-26T09:19:45.334Z</time></trkpt><trkpt lat="42.1688227" lon="14.6990597"><ele>35.0</ele><time>2026-04-26T09:19:46.335Z</time></trkpt><trkpt lat="42.1688335" lon="14.6992679"><ele>35.0</ele><time>2026-04-26T09:19:47.335Z</time></trkpt><trkpt lat="42.1688605" lon="14.6994733"><ele>35.0</ele><time>2026-04-26T09:19:48.335Z</time></trkpt><trkpt lat="42.1688982" lon="14.6996916"><ele>35.0</ele><time>2026-04-26T09:19:49.335Z</time></trkpt><trkpt lat="42.1689362" lon="14.6999398"><ele>35.0</ele><time>2026-04-26T09:19:50.334Z</time></trkpt><trkpt lat="42.1689775" lon="14.700203"><ele>34.33333333333333</ele><time>2026-04-26T09:19:51.336Z</time></trkpt><trkpt lat="42.1690193" lon="14.7004837"><ele>33.666666666666664</ele><time>2026-04-26T09:19:52.335Z</time></trkpt><trkpt lat="42.1690577" lon="14.7007568"><ele>33.0</ele><time>2026-04-26T09:19:53.335Z</time></trkpt><trkpt lat="42.1690979" lon="14.7010152"><ele>31.666666666666664</ele><time>2026-04-26T09:19:54.335Z</time></trkpt><trkpt lat="42.1691369" lon="14.7012656"><ele>30.333333333333332</ele><time>2026-04-26T09:19:55.336Z</time></trkpt><trkpt lat="42.1691755" lon="14.701507"><ele>29.0</ele><time>2026-04-26T09:19:56.334Z</time></trkpt><trkpt lat="42.1692187" lon="14.7017406"><ele>28.333333333333332</ele><time>2026-04-26T09:19:57.336Z</time></trkpt><trkpt lat="42.1692681" lon="14.7019702"><ele>27.666666666666664</ele><time>2026-04-26T09:19:58.335Z</time></trkpt><trkpt lat="42.169332" lon="14.7021952"><ele>27.0</ele><time>2026-04-26T09:19:59.335Z</time></trkpt><trkpt lat="42.1694007" lon="14.7024131"><ele>27.0</ele><time>2026-04-26T09:20:00.336Z</time></trkpt><trkpt lat="42.169485" lon="14.7026339"><ele>27.0</ele><time>2026-04-26T09:20:01.335Z</time></trkpt><trkpt lat="42.1695856" lon="14.7028646"><ele>27.0</ele><time>2026-04-26T09:20:02.335Z</time></trkpt><trkpt lat="42.1697102" lon="14.703099"><ele>25.666666666666668</ele><time>2026-04-26T09:20:03.335Z</time></trkpt><trkpt lat="42.1698439" lon="14.7033353"><ele>24.333333333333336</ele><time>2026-04-26T09:20:04.334Z</time></trkpt><trkpt lat="42.1699775" lon="14.7035665"><ele>23.0</ele><time>2026-04-26T09:20:05.336Z</time></trkpt><trkpt lat="42.1701036" lon="14.7038026"><ele>21.5</ele><time>2026-04-26T09:20:06.335Z</time></trkpt><trkpt lat="42.1702237" lon="14.704058"><ele>20.0</ele><time>2026-04-26T09:20:07.335Z</time></trkpt><trkpt lat="42.1703324" lon="14.7043438"><ele>18.5</ele><time>2026-04-26T09:20:08.334Z</time></trkpt><trkpt lat="42.1704254" lon="14.7046492"><ele>17.0</ele><time>2026-04-26T09:20:09.335Z</time></trkpt><trkpt lat="42.1704893" lon="14.7049711"><ele>18.5</ele><time>2026-04-26T09:20:10.335Z</time></trkpt><trkpt lat="42.1705365" lon="14.705317"><ele>20.0</ele><time>2026-04-26T09:20:11.336Z</time></trkpt><trkpt lat="42.1705792" lon="14.7056734"><ele>20.0</ele><time>2026-04-26T09:20:12.335Z</time></trkpt><trkpt lat="42.1706207" lon="14.7060417"><ele>20.0</ele><time>2026-04-26T09:20:13.335Z</time></trkpt><trkpt lat="42.1706578" lon="14.7063837"><ele>19.5</ele><time>2026-04-26T09:20:14.334Z</time></trkpt><trkpt lat="42.1706892" lon="14.7067071"><ele>19.0</ele><time>2026-04-26T09:20:15.334Z</time></trkpt><trkpt lat="42.1707206" lon="14.7070152"><ele>19.0</ele><time>2026-04-26T09:20:16.335Z</time></trkpt><trkpt lat="42.170752" lon="14.7073053"><ele>19.0</ele><time>2026-04-26T09:20:17.335Z</time></trkpt><trkpt lat="42.1707829" lon="14.7075761"><ele>19.0</ele><time>2026-04-26T09:20:18.336Z</time></trkpt><trkpt lat="42.17081" lon="14.707832"><ele>18.666666666666664</ele><time>2026-04-26T09:20:19.334Z</time></trkpt><trkpt lat="42.1708276" lon="14.7080748"><ele>18.333333333333332</ele><time>2026-04-26T09:20:20.335Z</time></trkpt><trkpt lat="42.1708391" lon="14.7083006"><ele>18.0</ele><time>2026-04-26T09:20:21.335Z</time></trkpt><trkpt lat="42.1708444" lon="14.7085099"><ele>17.5</ele><time>2026-04-26T09:20:22.334Z</time></trkpt><trkpt lat="42.1708416" lon="14.7087122"><ele>17.0</ele><time>2026-04-26T09:20:23.335Z</time></trkpt><trkpt lat="42.1708405" lon="14.7089175"><ele>16.5</ele><time>2026-04-26T09:20:24.335Z</time></trkpt><trkpt lat="42.1708433" lon="14.709115"><ele>16.0</ele><time>2026-04-26T09:20:25.334Z</time></trkpt><trkpt lat="42.1708421" lon="14.7092962"><ele>15.5</ele><time>2026-04-26T09:20:26.335Z</time></trkpt><trkpt lat="42.1708326" lon="14.7094676"><ele>15.0</ele><time>2026-04-26T09:20:27.335Z</time></trkpt><trkpt lat="42.1708278" lon="14.7096309"><ele>14.5</ele><time>2026-04-26T09:20:28.335Z</time></trkpt><trkpt lat="42.1708241" lon="14.7097845"><ele>14.0</ele><time>2026-04-26T09:20:29.335Z</time></trkpt><trkpt lat="42.1708186" lon="14.7099344"><ele>14.0</ele><time>2026-04-26T09:20:30.335Z</time></trkpt><trkpt lat="42.1708149" lon="14.7100721"><ele>13.999999999999998</ele><time>2026-04-26T09:20:31.335Z</time></trkpt><trkpt lat="42.1708102" lon="14.710184"><ele>13.999999999999998</ele><time>2026-04-26T09:20:32.335Z</time></trkpt><trkpt lat="42.1708044" lon="14.7102725"><ele>14.0</ele><time>2026-04-26T09:20:33.335Z</time></trkpt><trkpt lat="42.1707985" lon="14.7104259"><ele>14.0</ele><time>2026-04-26T09:20:35.334Z</time></trkpt><trkpt lat="42.1707899" lon="14.7105732"><ele>14.000000000000002</ele><time>2026-04-26T09:20:37.334Z</time></trkpt><trkpt lat="42.1707562" lon="14.710693"><ele>14.0</ele><time>2026-04-26T09:20:39.335Z</time></trkpt><trkpt lat="42.170686" lon="14.7107709"><ele>14.0</ele><time>2026-04-26T09:20:41.335Z</time></trkpt><trkpt lat="42.1706285" lon="14.7108071"><ele>14.0</ele><time>2026-04-26T09:20:42.335Z</time></trkpt><trkpt lat="42.170575" lon="14.7108582"><ele>14.000000000000002</ele><time>2026-04-26T09:20:43.335Z</time></trkpt><trkpt lat="42.1705344" lon="14.7110041"><ele>14.0</ele><time>2026-04-26T09:20:45.335Z</time></trkpt><trkpt lat="42.1705953" lon="14.7111277"><ele>14.000000000000002</ele><time>2026-04-26T09:20:47.336Z</time></trkpt><trkpt lat="42.1706989" lon="14.7111403"><ele>14.0</ele><time>2026-04-26T09:20:49.336Z</time></trkpt><trkpt lat="42.1707727" lon="14.7110813"><ele>14.0</ele><time>2026-04-26T09:20:51.336Z</time></trkpt><trkpt lat="42.1708074" lon="14.710989"><ele>14.0</ele><time>2026-04-26T09:20:54.335Z</time></trkpt><trkpt lat="42.1707979" lon="14.7108664"><ele>14.000000000000002</ele><time>2026-04-26T09:20:57.334Z</time></trkpt><trkpt lat="42.1708145" lon="14.7107608"><ele>14.0</ele><time>2026-04-26T09:21:00.335Z</time></trkpt><trkpt lat="42.1708244" lon="14.7106581"><ele>14.0</ele><time>2026-04-26T09:21:03.334Z</time></trkpt><trkpt lat="42.1708384" lon="14.7105485"><ele>14.0</ele><time>2026-04-26T09:21:05.335Z</time></trkpt><trkpt lat="42.1708466" lon="14.7106328"><ele>14.0</ele><time>2026-04-26T09:22:54.335Z</time></trkpt><trkpt lat="42.1708037" lon="14.7107028"><ele>14.0</ele><time>2026-04-26T09:23:02.335Z</time></trkpt><trkpt lat="42.1708406" lon="14.7107792"><ele>14.0</ele><time>2026-04-26T09:31:46.333Z</time></trkpt><trkpt lat="42.1709053" lon="14.7108144"><ele>14.0</ele><time>2026-04-26T09:32:03.333Z</time></trkpt><trkpt lat="42.1708456" lon="14.7107675"><ele>14.0</ele><time>2026-04-26T09:32:47.365Z</time></trkpt><trkpt lat="42.1708975" lon="14.7108241"><ele>14.0</ele><time>2026-04-26T09:50:29.331Z</time></trkpt><trkpt lat="42.1708594" lon="14.7107544"><ele>14.0</ele><time>2026-04-26T09:50:54.331Z</time></trkpt><trkpt lat="42.1707986" lon="14.7107823"><ele>14.0</ele><time>2026-04-26T09:51:24.33Z</time></trkpt><trkpt lat="42.1708464" lon="14.7107176"><ele>14.0</ele><time>2026-04-26T09:58:15.401Z</time></trkpt><trkpt lat="42.1708591" lon="14.7108092"><ele>14.0</ele><time>2026-04-26T10:00:24.33Z</time></trkpt><trkpt lat="42.1708435" lon="14.7107242"><ele>14.0</ele><time>2026-04-26T10:09:55.328Z</time></trkpt><trkpt lat="42.1708773" lon="14.7108138"><ele>14.0</ele><time>2026-04-26T10:15:34.23Z</time></trkpt><trkpt lat="42.1709065" lon="14.710724"><ele>14.0</ele><time>2026-04-26T10:15:46.328Z</time></trkpt><trkpt lat="42.1708458" lon="14.71075"><ele>14.0</ele><time>2026-04-26T10:17:07.329Z</time></trkpt><trkpt lat="42.1708595" lon="14.7108334"><ele>14.0</ele><time>2026-04-26T10:19:45.406Z</time></trkpt></trkseg><trkseg><trkpt lat="42.1708276" lon="14.7103731"><ele>14.0</ele><time>2026-04-26T10:37:02.325Z</time></trkpt><trkpt lat="42.1708214" lon="14.7102634"><ele>13.999999999999998</ele><time>2026-04-26T10:37:04.324Z</time></trkpt><trkpt lat="42.1708294" lon="14.7101619"><ele>13.999999999999998</ele><time>2026-04-26T10:37:06.325Z</time></trkpt><trkpt lat="42.1708435" lon="14.7100162"><ele>14.0</ele><time>2026-04-26T10:37:08.325Z</time></trkpt><trkpt lat="42.1708449" lon="14.7098943"><ele>14.0</ele><time>2026-04-26T10:37:09.325Z</time></trkpt><trkpt lat="42.1708454" lon="14.7097567"><ele>14.0</ele><time>2026-04-26T10:37:10.325Z</time></trkpt><trkpt lat="42.1708477" lon="14.7096179"><ele>13.999999999999998</ele><time>2026-04-26T10:37:11.325Z</time></trkpt><trkpt lat="42.1708498" lon="14.7094778"><ele>13.999999999999998</ele><time>2026-04-26T10:37:12.324Z</time></trkpt><trkpt lat="42.170851" lon="14.7093377"><ele>14.0</ele><time>2026-04-26T10:37:13.325Z</time></trkpt><trkpt lat="42.170857" lon="14.7091821"><ele>14.0</ele><time>2026-04-26T10:37:14.325Z</time></trkpt><trkpt lat="42.1708615" lon="14.7089882"><ele>14.666666666666668</ele><time>2026-04-26T10:37:15.325Z</time></trkpt><trkpt lat="42.1708617" lon="14.7087542"><ele>15.333333333333332</ele><time>2026-04-26T10:37:16.325Z</time></trkpt><trkpt lat="42.1708602" lon="14.7085146"><ele>16.0</ele><time>2026-04-26T10:37:17.325Z</time></trkpt><trkpt lat="42.1708517" lon="14.708275"><ele>16.666666666666664</ele><time>2026-04-26T10:37:18.326Z</time></trkpt><trkpt lat="42.1708373" lon="14.7080476"><ele>17.333333333333332</ele><time>2026-04-26T10:37:19.324Z</time></trkpt><trkpt lat="42.1708204" lon="14.7078262"><ele>18.0</ele><time>2026-04-26T10:37:20.325Z</time></trkpt><trkpt lat="42.1708007" lon="14.7075985"><ele>18.333333333333332</ele><time>2026-04-26T10:37:21.325Z</time></trkpt><trkpt lat="42.1707816" lon="14.7073655"><ele>18.666666666666664</ele><time>2026-04-26T10:37:22.324Z</time></trkpt><trkpt lat="42.1707578" lon="14.7071158"><ele>19.0</ele><time>2026-04-26T10:37:23.325Z</time></trkpt><trkpt lat="42.1707309" lon="14.7068585"><ele>19.0</ele><time>2026-04-26T10:37:24.325Z</time></trkpt><trkpt lat="42.1707019" lon="14.7065935"><ele>19.0</ele><time>2026-04-26T10:37:25.324Z</time></trkpt><trkpt lat="42.1706718" lon="14.7063108"><ele>19.0</ele><time>2026-04-26T10:37:26.325Z</time></trkpt><trkpt lat="42.1706428" lon="14.7060429"><ele>19.333333333333332</ele><time>2026-04-26T10:37:27.325Z</time></trkpt><trkpt lat="42.170613" lon="14.7057924"><ele>19.666666666666668</ele><time>2026-04-26T10:37:28.324Z</time></trkpt><trkpt lat="42.1705866" lon="14.7055585"><ele>20.0</ele><time>2026-04-26T10:37:29.325Z</time></trkpt><trkpt lat="42.1705611" lon="14.7053337"><ele>19.0</ele><time>2026-04-26T10:37:30.325Z</time></trkpt><trkpt lat="42.1705352" lon="14.7051082"><ele>18.0</ele><time>2026-04-26T10:37:31.325Z</time></trkpt><trkpt lat="42.1705012" lon="14.704873"><ele>17.0</ele><time>2026-04-26T10:37:32.325Z</time></trkpt><trkpt lat="42.1704485" lon="14.7046337"><ele>18.0</ele><time>2026-04-26T10:37:33.324Z</time></trkpt><trkpt lat="42.1703761" lon="14.7043967"><ele>19.0</ele><time>2026-04-26T10:37:34.325Z</time></trkpt><trkpt lat="42.1702858" lon="14.704158"><ele>20.0</ele><time>2026-04-26T10:37:35.325Z</time></trkpt><trkpt lat="42.1701834" lon="14.7039252"><ele>20.0</ele><time>2026-04-26T10:37:36.325Z</time></trkpt><trkpt lat="42.1700667" lon="14.7036898"><ele>20.0</ele><time>2026-04-26T10:37:37.325Z</time></trkpt><trkpt lat="42.1699436" lon="14.7034608"><ele>20.0</ele><time>2026-04-26T10:37:38.325Z</time></trkpt><trkpt lat="42.1698171" lon="14.7032342"><ele>21.0</ele><time>2026-04-26T10:37:39.325Z</time></trkpt><trkpt lat="42.1697037" lon="14.703018"><ele>22.0</ele><time>2026-04-26T10:37:40.325Z</time></trkpt><trkpt lat="42.1695983" lon="14.7028011"><ele>23.0</ele><time>2026-04-26T10:37:41.326Z</time></trkpt><trkpt lat="42.1695044" lon="14.7025797"><ele>24.333333333333336</ele><time>2026-04-26T10:37:42.325Z</time></trkpt><trkpt lat="42.1694234" lon="14.7023501"><ele>25.666666666666668</ele><time>2026-04-26T10:37:43.324Z</time></trkpt><trkpt lat="42.1693507" lon="14.7021056"><ele>27.0</ele><time>2026-04-26T10:37:44.325Z</time></trkpt><trkpt lat="42.1692873" lon="14.7018596"><ele>27.666666666666664</ele><time>2026-04-26T10:37:45.325Z</time></trkpt><trkpt lat="42.169231" lon="14.7016064"><ele>28.333333333333332</ele><time>2026-04-26T10:37:46.324Z</time></trkpt><trkpt lat="42.1691856" lon="14.7013641"><ele>29.0</ele><time>2026-04-26T10:37:47.325Z</time></trkpt><trkpt lat="42.1691446" lon="14.7011151"><ele>30.333333333333332</ele><time>2026-04-26T10:37:48.325Z</time></trkpt><trkpt lat="42.1691085" lon="14.700861"><ele>31.666666666666664</ele><time>2026-04-26T10:37:49.326Z</time></trkpt><trkpt lat="42.169071" lon="14.7006024"><ele>33.0</ele><time>2026-04-26T10:37:50.326Z</time></trkpt><trkpt lat="42.1690301" lon="14.7003485"><ele>33.666666666666664</ele><time>2026-04-26T10:37:51.324Z</time></trkpt><trkpt lat="42.1689899" lon="14.7001001"><ele>34.33333333333333</ele><time>2026-04-26T10:37:52.325Z</time></trkpt><trkpt lat="42.1689573" lon="14.6998721"><ele>35.0</ele><time>2026-04-26T10:37:53.325Z</time></trkpt><trkpt lat="42.1689278" lon="14.6996598"><ele>35.0</ele><time>2026-04-26T10:37:54.325Z</time></trkpt><trkpt lat="42.168901" lon="14.699468"><ele>35.0</ele><time>2026-04-26T10:37:55.325Z</time></trkpt><trkpt lat="42.1688744" lon="14.6992911"><ele>35.0</ele><time>2026-04-26T10:37:56.325Z</time></trkpt><trkpt lat="42.1688577" lon="14.6991191"><ele>35.0</ele><time>2026-04-26T10:37:57.325Z</time></trkpt><trkpt lat="42.1688566" lon="14.6989464"><ele>35.0</ele><time>2026-04-26T10:37:58.324Z</time></trkpt><trkpt lat="42.1688722" lon="14.6987625"><ele>35.0</ele><time>2026-04-26T10:37:59.325Z</time></trkpt><trkpt lat="42.168904" lon="14.698558"><ele>35.0</ele><time>2026-04-26T10:38:00.325Z</time></trkpt><trkpt lat="42.1689494" lon="14.6983369"><ele>35.33333333333333</ele><time>2026-04-26T10:38:01.324Z</time></trkpt><trkpt lat="42.1690028" lon="14.6981127"><ele>35.666666666666664</ele><time>2026-04-26T10:38:02.325Z</time></trkpt><trkpt lat="42.1690514" lon="14.6979002"><ele>36.0</ele><time>2026-04-26T10:38:03.325Z</time></trkpt><trkpt lat="42.1690954" lon="14.6976957"><ele>36.333333333333336</ele><time>2026-04-26T10:38:04.325Z</time></trkpt><trkpt lat="42.1691405" lon="14.6974931"><ele>36.66666666666667</ele><time>2026-04-26T10:38:05.325Z</time></trkpt><trkpt lat="42.1691909" lon="14.6972762"><ele>37.0</ele><time>2026-04-26T10:38:06.326Z</time></trkpt><trkpt lat="42.1692425" lon="14.6970442"><ele>37.0</ele><time>2026-04-26T10:38:07.325Z</time></trkpt><trkpt lat="42.1692995" lon="14.6968054"><ele>37.0</ele><time>2026-04-26T10:38:08.325Z</time></trkpt><trkpt lat="42.1693465" lon="14.6965862"><ele>37.0</ele><time>2026-04-26T10:38:09.325Z</time></trkpt><trkpt lat="42.1693919" lon="14.6963837"><ele>37.0</ele><time>2026-04-26T10:38:10.325Z</time></trkpt><trkpt lat="42.1694302" lon="14.6962009"><ele>37.0</ele><time>2026-04-26T10:38:11.325Z</time></trkpt><trkpt lat="42.169467" lon="14.6960467"><ele>37.0</ele><time>2026-04-26T10:38:12.325Z</time></trkpt><trkpt lat="42.1695052" lon="14.6959193"><ele>37.0</ele><time>2026-04-26T10:38:13.325Z</time></trkpt><trkpt lat="42.1695515" lon="14.6958115"><ele>36.833333333333336</ele><time>2026-04-26T10:38:14.324Z</time></trkpt><trkpt lat="42.1696045" lon="14.6957179"><ele>36.66666666666667</ele><time>2026-04-26T10:38:15.323Z</time></trkpt><trkpt lat="42.1696516" lon="14.6956204"><ele>36.5</ele><time>2026-04-26T10:38:16.323Z</time></trkpt><trkpt lat="42.1696788" lon="14.6955264"><ele>36.333333333333336</ele><time>2026-04-26T10:38:17.323Z</time></trkpt><trkpt lat="42.1696779" lon="14.695438"><ele>36.166666666666664</ele><time>2026-04-26T10:38:18.324Z</time></trkpt><trkpt lat="42.1695984" lon="14.6953124"><ele>36.0</ele><time>2026-04-26T10:38:20.324Z</time></trkpt><trkpt lat="42.1695312" lon="14.6952853"><ele>36.0</ele><time>2026-04-26T10:38:21.324Z</time></trkpt><trkpt lat="42.1694506" lon="14.6952753"><ele>36.0</ele><time>2026-04-26T10:38:22.324Z</time></trkpt><trkpt lat="42.1693603" lon="14.6952653"><ele>36.0</ele><time>2026-04-26T10:38:23.324Z</time></trkpt><trkpt lat="42.1692579" lon="14.6952329"><ele>36.0</ele><time>2026-04-26T10:38:24.324Z</time></trkpt><trkpt lat="42.1691454" lon="14.6951804"><ele>36.0</ele><time>2026-04-26T10:38:25.324Z</time></trkpt><trkpt lat="42.1690367" lon="14.6951236"><ele>36.4</ele><time>2026-04-26T10:38:26.324Z</time></trkpt><trkpt lat="42.1689346" lon="14.6950599"><ele>36.8</ele><time>2026-04-26T10:38:27.324Z</time></trkpt><trkpt lat="42.1688352" lon="14.6949975"><ele>37.199999999999996</ele><time>2026-04-26T10:38:28.324Z</time></trkpt><trkpt lat="42.168736" lon="14.694935"><ele>37.6</ele><time>2026-04-26T10:38:29.324Z</time></trkpt><trkpt lat="42.1686383" lon="14.694873"><ele>38.0</ele><time>2026-04-26T10:38:30.324Z</time></trkpt><trkpt lat="42.1685435" lon="14.6948211"><ele>38.0</ele><time>2026-04-26T10:38:31.325Z</time></trkpt><trkpt lat="42.1684544" lon="14.6947829"><ele>38.0</ele><time>2026-04-26T10:38:32.323Z</time></trkpt><trkpt lat="42.1683692" lon="14.6947707"><ele>38.0</ele><time>2026-04-26T10:38:33.324Z</time></trkpt><trkpt lat="42.1683041" lon="14.6947721"><ele>38.0</ele><time>2026-04-26T10:38:34.324Z</time></trkpt><trkpt lat="42.1682392" lon="14.6947877"><ele>38.0</ele><time>2026-04-26T10:38:36.324Z</time></trkpt><trkpt lat="42.1681539" lon="14.6948044"><ele>38.0</ele><time>2026-04-26T10:38:39.324Z</time></trkpt><trkpt lat="42.1680533" lon="14.6947737"><ele>38.199999999999996</ele><time>2026-04-26T10:38:41.324Z</time></trkpt><trkpt lat="42.1679362" lon="14.6947609"><ele>38.4</ele><time>2026-04-26T10:38:43.324Z</time></trkpt><trkpt lat="42.1678367" lon="14.6948585"><ele>38.599999999999994</ele><time>2026-04-26T10:38:45.324Z</time></trkpt><trkpt lat="42.1678105" lon="14.6949419"><ele>38.8</ele><time>2026-04-26T10:38:46.324Z</time></trkpt><trkpt lat="42.1678149" lon="14.6950334"><ele>39.0</ele><time>2026-04-26T10:38:47.324Z</time></trkpt><trkpt lat="42.1678456" lon="14.6951291"><ele>39.0</ele><time>2026-04-26T10:38:48.324Z</time></trkpt><trkpt lat="42.1678936" lon="14.6952254"><ele>39.0</ele><time>2026-04-26T10:38:49.324Z</time></trkpt><trkpt lat="42.1679359" lon="14.6953373"><ele>39.0</ele><time>2026-04-26T10:38:50.324Z</time></trkpt><trkpt lat="42.1679645" lon="14.6954747"><ele>39.0</ele><time>2026-04-26T10:38:51.323Z</time></trkpt><trkpt lat="42.1679832" lon="14.6956466"><ele>39.0</ele><time>2026-04-26T10:38:52.324Z</time></trkpt><trkpt lat="42.1679947" lon="14.6958166"><ele>38.666666666666664</ele><time>2026-04-26T10:38:53.324Z</time></trkpt><trkpt lat="42.1680066" lon="14.6960026"><ele>38.33333333333333</ele><time>2026-04-26T10:38:54.323Z</time></trkpt><trkpt lat="42.1680122" lon="14.6962033"><ele>38.0</ele><time>2026-04-26T10:38:55.324Z</time></trkpt><trkpt lat="42.1679956" lon="14.6964221"><ele>37.666666666666664</ele><time>2026-04-26T10:38:56.324Z</time></trkpt><trkpt lat="42.167958" lon="14.6966476"><ele>37.333333333333336</ele><time>2026-04-26T10:38:57.324Z</time></trkpt><trkpt lat="42.1679018" lon="14.6968821"><ele>37.0</ele><time>2026-04-26T10:38:58.324Z</time></trkpt><trkpt lat="42.1678277" lon="14.6971248"><ele>36.333333333333336</ele><time>2026-04-26T10:38:59.324Z</time></trkpt><trkpt lat="42.1677432" lon="14.6973923"><ele>35.666666666666664</ele><time>2026-04-26T10:39:00.323Z</time></trkpt><trkpt lat="42.167661" lon="14.6976605"><ele>35.0</ele><time>2026-04-26T10:39:01.323Z</time></trkpt><trkpt lat="42.167582" lon="14.697923"><ele>34.0</ele><time>2026-04-26T10:39:02.325Z</time></trkpt><trkpt lat="42.1675001" lon="14.6981945"><ele>33.0</ele><time>2026-04-26T10:39:03.323Z</time></trkpt><trkpt lat="42.1674151" lon="14.6984657"><ele>32.0</ele><time>2026-04-26T10:39:04.324Z</time></trkpt><trkpt lat="42.1673271" lon="14.6987345"><ele>28.666666666666664</ele><time>2026-04-26T10:39:05.324Z</time></trkpt><trkpt lat="42.1672335" lon="14.6990003"><ele>25.333333333333332</ele><time>2026-04-26T10:39:06.323Z</time></trkpt><trkpt lat="42.1671331" lon="14.6992711"><ele>22.0</ele><time>2026-04-26T10:39:07.324Z</time></trkpt><trkpt lat="42.167014" lon="14.6995573"><ele>22.0</ele><time>2026-04-26T10:39:08.324Z</time></trkpt><trkpt lat="42.1668824" lon="14.6998468"><ele>22.0</ele><time>2026-04-26T10:39:09.324Z</time></trkpt><trkpt lat="42.1667339" lon="14.7001435"><ele>22.0</ele><time>2026-04-26T10:39:10.324Z</time></trkpt><trkpt lat="42.1665768" lon="14.7004369"><ele>22.0</ele><time>2026-04-26T10:39:11.324Z</time></trkpt><trkpt lat="42.1664265" lon="14.7007189"><ele>21.5</ele><time>2026-04-26T10:39:12.325Z</time></trkpt><trkpt lat="42.1662729" lon="14.7009947"><ele>21.0</ele><time>2026-04-26T10:39:13.324Z</time></trkpt><trkpt lat="42.1661209" lon="14.7012714"><ele>24.0</ele><time>2026-04-26T10:39:14.323Z</time></trkpt><trkpt lat="42.165967" lon="14.7015413"><ele>27.0</ele><time>2026-04-26T10:39:15.324Z</time></trkpt><trkpt lat="42.165816" lon="14.701808"><ele>31.0</ele><time>2026-04-26T10:39:16.324Z</time></trkpt><trkpt lat="42.1656693" lon="14.7020673"><ele>35.0</ele><time>2026-04-26T10:39:17.323Z</time></trkpt><trkpt lat="42.1655243" lon="14.7023249"><ele>35.0</ele><time>2026-04-26T10:39:18.324Z</time></trkpt><trkpt lat="42.1653775" lon="14.7025768"><ele>35.0</ele><time>2026-04-26T10:39:19.324Z</time></trkpt><trkpt lat="42.1652268" lon="14.7028234"><ele>33.5</ele><time>2026-04-26T10:39:20.325Z</time></trkpt><trkpt lat="42.1650715" lon="14.7030644"><ele>32.0</ele><time>2026-04-26T10:39:21.324Z</time></trkpt><trkpt lat="42.1649053" lon="14.7033055"><ele>32.5</ele><time>2026-04-26T10:39:22.323Z</time></trkpt><trkpt lat="42.164729" lon="14.7035408"><ele>33.0</ele><time>2026-04-26T10:39:23.324Z</time></trkpt><trkpt lat="42.1645521" lon="14.7037721"><ele>33.0</ele><time>2026-04-26T10:39:24.324Z</time></trkpt><trkpt lat="42.1642037" lon="14.7042268"><ele>33.0</ele><time>2026-04-26T10:39:26.324Z</time></trkpt><trkpt lat="42.1640351" lon="14.7044461"><ele>33.0</ele><time>2026-04-26T10:39:27.323Z</time></trkpt><trkpt lat="42.1638771" lon="14.7046482"><ele>33.0</ele><time>2026-04-26T10:39:28.323Z</time></trkpt><trkpt lat="42.163732" lon="14.7048349"><ele>33.0</ele><time>2026-04-26T10:39:29.325Z</time></trkpt><trkpt lat="42.1635996" lon="14.7050001"><ele>33.0</ele><time>2026-04-26T10:39:30.324Z</time></trkpt><trkpt lat="42.1634846" lon="14.7051461"><ele>32.75</ele><time>2026-04-26T10:39:31.323Z</time></trkpt><trkpt lat="42.1633811" lon="14.7052718"><ele>32.5</ele><time>2026-04-26T10:39:32.324Z</time></trkpt><trkpt lat="42.1632847" lon="14.7053814"><ele>32.25</ele><time>2026-04-26T10:39:33.324Z</time></trkpt><trkpt lat="42.1631947" lon="14.7054752"><ele>32.0</ele><time>2026-04-26T10:39:34.324Z</time></trkpt><trkpt lat="42.1631116" lon="14.7055526"><ele>32.0</ele><time>2026-04-26T10:39:35.325Z</time></trkpt><trkpt lat="42.163034" lon="14.7056069"><ele>32.0</ele><time>2026-04-26T10:39:36.324Z</time></trkpt><trkpt lat="42.1629599" lon="14.7056392"><ele>32.0</ele><time>2026-04-26T10:39:37.324Z</time></trkpt><trkpt lat="42.1628951" lon="14.7056722"><ele>32.0</ele><time>2026-04-26T10:39:38.323Z</time></trkpt><trkpt lat="42.1628168" lon="14.7058165"><ele>32.0</ele><time>2026-04-26T10:39:40.324Z</time></trkpt><trkpt lat="42.1627812" lon="14.7059363"><ele>32.0</ele><time>2026-04-26T10:39:41.324Z</time></trkpt><trkpt lat="42.1627242" lon="14.7060673"><ele>32.0</ele><time>2026-04-26T10:39:42.323Z</time></trkpt><trkpt lat="42.1626404" lon="14.7062142"><ele>32.0</ele><time>2026-04-26T10:39:43.323Z</time></trkpt><trkpt lat="42.162532" lon="14.7063769"><ele>32.0</ele><time>2026-04-26T10:39:44.324Z</time></trkpt><trkpt lat="42.162404" lon="14.706551"><ele>32.0</ele><time>2026-04-26T10:39:45.324Z</time></trkpt><trkpt lat="42.1622653" lon="14.7067242"><ele>32.0</ele><time>2026-04-26T10:39:46.324Z</time></trkpt><trkpt lat="42.1621338" lon="14.7068855"><ele>32.0</ele><time>2026-04-26T10:39:47.323Z</time></trkpt><trkpt lat="42.1620112" lon="14.7070413"><ele>31.0</ele><time>2026-04-26T10:39:48.324Z</time></trkpt><trkpt lat="42.1618956" lon="14.707192"><ele>30.0</ele><time>2026-04-26T10:39:49.324Z</time></trkpt><trkpt lat="42.1617833" lon="14.7073394"><ele>29.0</ele><time>2026-04-26T10:39:50.323Z</time></trkpt><trkpt lat="42.1616693" lon="14.7074882"><ele>29.0</ele><time>2026-04-26T10:39:51.323Z</time></trkpt><trkpt lat="42.1615547" lon="14.7076338"><ele>29.0</ele><time>2026-04-26T10:39:52.323Z</time></trkpt><trkpt lat="42.1614406" lon="14.707778"><ele>29.0</ele><time>2026-04-26T10:39:53.324Z</time></trkpt><trkpt lat="42.1613189" lon="14.707923"><ele>30.0</ele><time>2026-04-26T10:39:54.324Z</time></trkpt><trkpt lat="42.1611774" lon="14.7080792"><ele>31.0</ele><time>2026-04-26T10:39:55.324Z</time></trkpt><trkpt lat="42.1610139" lon="14.7082426"><ele>32.0</ele><time>2026-04-26T10:39:56.324Z</time></trkpt><trkpt lat="42.160834" lon="14.7084096"><ele>32.0</ele><time>2026-04-26T10:39:57.324Z</time></trkpt><trkpt lat="42.1606428" lon="14.7085743"><ele>32.0</ele><time>2026-04-26T10:39:58.324Z</time></trkpt><trkpt lat="42.1604456" lon="14.7087442"><ele>32.0</ele><time>2026-04-26T10:39:59.323Z</time></trkpt><trkpt lat="42.160261" lon="14.7089145"><ele>32.0</ele><time>2026-04-26T10:40:00.324Z</time></trkpt><trkpt lat="42.1600727" lon="14.709086"><ele>32.0</ele><time>2026-04-26T10:40:01.324Z</time></trkpt><trkpt lat="42.1598826" lon="14.7092626"><ele>32.0</ele><time>2026-04-26T10:40:02.324Z</time></trkpt><trkpt lat="42.1596918" lon="14.7094375"><ele>32.0</ele><time>2026-04-26T10:40:03.324Z</time></trkpt><trkpt lat="42.159506" lon="14.7096115"><ele>32.0</ele><time>2026-04-26T10:40:04.323Z</time></trkpt><trkpt lat="42.1593198" lon="14.7097823"><ele>32.0</ele><time>2026-04-26T10:40:05.325Z</time></trkpt><trkpt lat="42.1591375" lon="14.7099483"><ele>32.0</ele><time>2026-04-26T10:40:06.324Z</time></trkpt><trkpt lat="42.1589558" lon="14.7101162"><ele>32.0</ele><time>2026-04-26T10:40:07.324Z</time></trkpt><trkpt lat="42.1587729" lon="14.7102857"><ele>32.0</ele><time>2026-04-26T10:40:08.324Z</time></trkpt><trkpt lat="42.1585901" lon="14.7104585"><ele>32.0</ele><time>2026-04-26T10:40:09.324Z</time></trkpt><trkpt lat="42.1584086" lon="14.7106274"><ele>32.0</ele><time>2026-04-26T10:40:10.324Z</time></trkpt><trkpt lat="42.1582288" lon="14.7108022"><ele>32.5</ele><time>2026-04-26T10:40:11.323Z</time></trkpt><trkpt lat="42.1580381" lon="14.7109815"><ele>33.0</ele><time>2026-04-26T10:40:12.324Z</time></trkpt><trkpt lat="42.1578459" lon="14.7111623"><ele>33.0</ele><time>2026-04-26T10:40:13.323Z</time></trkpt><trkpt lat="42.1576534" lon="14.7113438"><ele>33.0</ele><time>2026-04-26T10:40:14.324Z</time></trkpt><trkpt lat="42.1574611" lon="14.71152"><ele>33.5</ele><time>2026-04-26T10:40:15.325Z</time></trkpt><trkpt lat="42.1572619" lon="14.7116922"><ele>34.0</ele><time>2026-04-26T10:40:16.324Z</time></trkpt><trkpt lat="42.1570602" lon="14.711855"><ele>33.333333333333336</ele><time>2026-04-26T10:40:17.323Z</time></trkpt><trkpt lat="42.1568676" lon="14.7119983"><ele>32.666666666666664</ele><time>2026-04-26T10:40:18.324Z</time></trkpt><trkpt lat="42.15668" lon="14.7121207"><ele>32.0</ele><time>2026-04-26T10:40:19.324Z</time></trkpt><trkpt lat="42.1565015" lon="14.7122198"><ele>32.0</ele><time>2026-04-26T10:40:20.325Z</time></trkpt><trkpt lat="42.1563276" lon="14.7123034"><ele>32.0</ele><time>2026-04-26T10:40:21.325Z</time></trkpt><trkpt lat="42.1561592" lon="14.7123777"><ele>32.0</ele><time>2026-04-26T10:40:22.325Z</time></trkpt><trkpt lat="42.1559959" lon="14.7124532"><ele>32.0</ele><time>2026-04-26T10:40:23.323Z</time></trkpt><trkpt lat="42.1558351" lon="14.7125279"><ele>32.0</ele><time>2026-04-26T10:40:24.324Z</time></trkpt><trkpt lat="42.1556757" lon="14.7125964"><ele>32.0</ele><time>2026-04-26T10:40:25.323Z</time></trkpt><trkpt lat="42.1555222" lon="14.7126633"><ele>31.666666666666664</ele><time>2026-04-26T10:40:26.324Z</time></trkpt><trkpt lat="42.1553684" lon="14.7127309"><ele>31.333333333333336</ele><time>2026-04-26T10:40:27.324Z</time></trkpt><trkpt lat="42.1552164" lon="14.7127966"><ele>31.0</ele><time>2026-04-26T10:40:28.324Z</time></trkpt><trkpt lat="42.1550647" lon="14.7128603"><ele>31.0</ele><time>2026-04-26T10:40:29.325Z</time></trkpt><trkpt lat="42.1549128" lon="14.7129214"><ele>31.0</ele><time>2026-04-26T10:40:30.324Z</time></trkpt><trkpt lat="42.1547543" lon="14.7129856"><ele>31.0</ele><time>2026-04-26T10:40:31.323Z</time></trkpt><trkpt lat="42.1545912" lon="14.7130554"><ele>31.0</ele><time>2026-04-26T10:40:32.324Z</time></trkpt><trkpt lat="42.1544113" lon="14.7131306"><ele>31.0</ele><time>2026-04-26T10:40:33.324Z</time></trkpt><trkpt lat="42.1542142" lon="14.7131974"><ele>31.0</ele><time>2026-04-26T10:40:34.324Z</time></trkpt><trkpt lat="42.1540036" lon="14.7132427"><ele>31.5</ele><time>2026-04-26T10:40:35.323Z</time></trkpt><trkpt lat="42.1537811" lon="14.7132734"><ele>32.0</ele><time>2026-04-26T10:40:36.323Z</time></trkpt><trkpt lat="42.1535498" lon="14.7133014"><ele>32.0</ele><time>2026-04-26T10:40:37.324Z</time></trkpt><trkpt lat="42.153318" lon="14.7133297"><ele>32.0</ele><time>2026-04-26T10:40:38.324Z</time></trkpt><trkpt lat="42.153087" lon="14.713353"><ele>33.33333333333333</ele><time>2026-04-26T10:40:39.324Z</time></trkpt><trkpt lat="42.1528681" lon="14.7133787"><ele>34.666666666666664</ele><time>2026-04-26T10:40:40.324Z</time></trkpt><trkpt lat="42.1526503" lon="14.7134026"><ele>36.0</ele><time>2026-04-26T10:40:41.324Z</time></trkpt><trkpt lat="42.1524342" lon="14.7134313"><ele>37.0</ele><time>2026-04-26T10:40:42.324Z</time></trkpt><trkpt lat="42.1522231" lon="14.7134553"><ele>38.0</ele><time>2026-04-26T10:40:43.324Z</time></trkpt><trkpt lat="42.1520257" lon="14.713478"><ele>39.0</ele><time>2026-04-26T10:40:44.324Z</time></trkpt><trkpt lat="42.1518284" lon="14.7135013"><ele>39.0</ele><time>2026-04-26T10:40:45.323Z</time></trkpt><trkpt lat="42.1516312" lon="14.7135248"><ele>39.0</ele><time>2026-04-26T10:40:46.323Z</time></trkpt><trkpt lat="42.1514306" lon="14.7135486"><ele>39.0</ele><time>2026-04-26T10:40:47.325Z</time></trkpt><trkpt lat="42.1512305" lon="14.7135744"><ele>38.0</ele><time>2026-04-26T10:40:48.324Z</time></trkpt><trkpt lat="42.1510257" lon="14.7135995"><ele>37.0</ele><time>2026-04-26T10:40:49.323Z</time></trkpt><trkpt lat="42.1508135" lon="14.7136228"><ele>36.0</ele><time>2026-04-26T10:40:50.323Z</time></trkpt><trkpt lat="42.1506104" lon="14.7136487"><ele>36.0</ele><time>2026-04-26T10:40:51.325Z</time></trkpt><trkpt lat="42.1504158" lon="14.7136717"><ele>36.0</ele><time>2026-04-26T10:40:52.324Z</time></trkpt><trkpt lat="42.15023" lon="14.7136948"><ele>36.0</ele><time>2026-04-26T10:40:53.323Z</time></trkpt><trkpt lat="42.1500475" lon="14.7137148"><ele>37.333333333333336</ele><time>2026-04-26T10:40:54.323Z</time></trkpt><trkpt lat="42.1498749" lon="14.7137349"><ele>38.66666666666667</ele><time>2026-04-26T10:40:55.324Z</time></trkpt><trkpt lat="42.1497089" lon="14.7137569"><ele>40.0</ele><time>2026-04-26T10:40:56.324Z</time></trkpt><trkpt lat="42.1495594" lon="14.7137787"><ele>40.0</ele><time>2026-04-26T10:40:57.325Z</time></trkpt><trkpt lat="42.1494173" lon="14.7137902"><ele>40.0</ele><time>2026-04-26T10:40:58.323Z</time></trkpt><trkpt lat="42.1492788" lon="14.7138035"><ele>40.0</ele><time>2026-04-26T10:40:59.324Z</time></trkpt><trkpt lat="42.1491469" lon="14.7138183"><ele>40.0</ele><time>2026-04-26T10:41:00.323Z</time></trkpt><trkpt lat="42.1490165" lon="14.7138343"><ele>40.25</ele><time>2026-04-26T10:41:01.324Z</time></trkpt><trkpt lat="42.148891" lon="14.7138306"><ele>40.5</ele><time>2026-04-26T10:41:02.324Z</time></trkpt><trkpt lat="42.1487669" lon="14.7138033"><ele>40.75</ele><time>2026-04-26T10:41:03.324Z</time></trkpt><trkpt lat="42.1486405" lon="14.713756"><ele>41.0</ele><time>2026-04-26T10:41:04.324Z</time></trkpt><trkpt lat="42.1485099" lon="14.7136962"><ele>41.0</ele><time>2026-04-26T10:41:05.323Z</time></trkpt><trkpt lat="42.1483754" lon="14.7136257"><ele>41.0</ele><time>2026-04-26T10:41:06.324Z</time></trkpt><trkpt lat="42.1482324" lon="14.7135517"><ele>41.0</ele><time>2026-04-26T10:41:07.324Z</time></trkpt><trkpt lat="42.1480883" lon="14.7134732"><ele>43.0</ele><time>2026-04-26T10:41:08.324Z</time></trkpt><trkpt lat="42.1479365" lon="14.7133988"><ele>45.0</ele><time>2026-04-26T10:41:09.323Z</time></trkpt><trkpt lat="42.1477815" lon="14.7133291"><ele>47.0</ele><time>2026-04-26T10:41:10.324Z</time></trkpt><trkpt lat="42.1476269" lon="14.7132566"><ele>47.0</ele><time>2026-04-26T10:41:11.325Z</time></trkpt><trkpt lat="42.1474669" lon="14.7131776"><ele>47.0</ele><time>2026-04-26T10:41:12.324Z</time></trkpt><trkpt lat="42.1473077" lon="14.7131002"><ele>47.0</ele><time>2026-04-26T10:41:13.324Z</time></trkpt><trkpt lat="42.1471436" lon="14.7130218"><ele>47.666666666666664</ele><time>2026-04-26T10:41:14.324Z</time></trkpt><trkpt lat="42.1469774" lon="14.7129445"><ele>48.33333333333333</ele><time>2026-04-26T10:41:15.324Z</time></trkpt><trkpt lat="42.1467984" lon="14.7128678"><ele>49.0</ele><time>2026-04-26T10:41:16.323Z</time></trkpt><trkpt lat="42.1466107" lon="14.7127909"><ele>50.666666666666664</ele><time>2026-04-26T10:41:17.324Z</time></trkpt><trkpt lat="42.1464208" lon="14.7127005"><ele>52.33333333333333</ele><time>2026-04-26T10:41:18.324Z</time></trkpt><trkpt lat="42.1462293" lon="14.7126098"><ele>54.0</ele><time>2026-04-26T10:41:19.324Z</time></trkpt><trkpt lat="42.14604" lon="14.7125193"><ele>54.0</ele><time>2026-04-26T10:41:20.324Z</time></trkpt><trkpt lat="42.1458516" lon="14.7124311"><ele>54.0</ele><time>2026-04-26T10:41:21.323Z</time></trkpt><trkpt lat="42.1456639" lon="14.7123427"><ele>54.0</ele><time>2026-04-26T10:41:22.323Z</time></trkpt><trkpt lat="42.1454781" lon="14.7122569"><ele>54.0</ele><time>2026-04-26T10:41:23.324Z</time></trkpt><trkpt lat="42.1452935" lon="14.7121707"><ele>54.0</ele><time>2026-04-26T10:41:24.324Z</time></trkpt><trkpt lat="42.1451086" lon="14.7120819"><ele>54.0</ele><time>2026-04-26T10:41:25.324Z</time></trkpt><trkpt lat="42.144926" lon="14.7119924"><ele>55.33333333333333</ele><time>2026-04-26T10:41:26.324Z</time></trkpt><trkpt lat="42.1447366" lon="14.7119059"><ele>56.666666666666664</ele><time>2026-04-26T10:41:27.323Z</time></trkpt><trkpt lat="42.1445401" lon="14.7118182"><ele>58.0</ele><time>2026-04-26T10:41:28.324Z</time></trkpt><trkpt lat="42.1443422" lon="14.711731"><ele>58.0</ele><time>2026-04-26T10:41:29.324Z</time></trkpt><trkpt lat="42.1441462" lon="14.7116386"><ele>58.0</ele><time>2026-04-26T10:41:30.324Z</time></trkpt><trkpt lat="42.143956" lon="14.7115481"><ele>58.0</ele><time>2026-04-26T10:41:31.323Z</time></trkpt><trkpt lat="42.1437659" lon="14.7114597"><ele>58.666666666666664</ele><time>2026-04-26T10:41:32.325Z</time></trkpt><trkpt lat="42.1435792" lon="14.7113703"><ele>59.33333333333333</ele><time>2026-04-26T10:41:33.324Z</time></trkpt><trkpt lat="42.1433939" lon="14.7112821"><ele>60.0</ele><time>2026-04-26T10:41:34.324Z</time></trkpt><trkpt lat="42.1432055" lon="14.7111976"><ele>60.66666666666667</ele><time>2026-04-26T10:41:35.324Z</time></trkpt><trkpt lat="42.1430237" lon="14.7111146"><ele>61.333333333333336</ele><time>2026-04-26T10:41:36.324Z</time></trkpt><trkpt lat="42.1428414" lon="14.7110428"><ele>62.0</ele><time>2026-04-26T10:41:37.323Z</time></trkpt><trkpt lat="42.1426641" lon="14.7109883"><ele>62.66666666666667</ele><time>2026-04-26T10:41:38.324Z</time></trkpt><trkpt lat="42.1424829" lon="14.7109475"><ele>63.33333333333333</ele><time>2026-04-26T10:41:39.324Z</time></trkpt><trkpt lat="42.1423032" lon="14.7109193"><ele>64.0</ele><time>2026-04-26T10:41:40.324Z</time></trkpt><trkpt lat="42.1421222" lon="14.7109055"><ele>65.0</ele><time>2026-04-26T10:41:41.324Z</time></trkpt><trkpt lat="42.1419431" lon="14.7109076"><ele>66.0</ele><time>2026-04-26T10:41:42.325Z</time></trkpt><trkpt lat="42.1417635" lon="14.7109175"><ele>67.0</ele><time>2026-04-26T10:41:43.324Z</time></trkpt><trkpt lat="42.1415848" lon="14.7109246"><ele>67.66666666666666</ele><time>2026-04-26T10:41:44.323Z</time></trkpt><trkpt lat="42.1414073" lon="14.7109263"><ele>68.33333333333333</ele><time>2026-04-26T10:41:45.325Z</time></trkpt><trkpt lat="42.1412274" lon="14.7109261"><ele>69.0</ele><time>2026-04-26T10:41:46.324Z</time></trkpt><trkpt lat="42.1410499" lon="14.7109304"><ele>69.0</ele><time>2026-04-26T10:41:47.324Z</time></trkpt><trkpt lat="42.1408696" lon="14.7109323"><ele>69.0</ele><time>2026-04-26T10:41:48.323Z</time></trkpt><trkpt lat="42.1406876" lon="14.7109344"><ele>69.0</ele><time>2026-04-26T10:41:49.323Z</time></trkpt><trkpt lat="42.1405051" lon="14.7109354"><ele>69.66666666666667</ele><time>2026-04-26T10:41:50.323Z</time></trkpt><trkpt lat="42.1403226" lon="14.7109457"><ele>70.33333333333334</ele><time>2026-04-26T10:41:51.324Z</time></trkpt><trkpt lat="42.1401394" lon="14.7109528"><ele>71.0</ele><time>2026-04-26T10:41:52.324Z</time></trkpt><trkpt lat="42.1399551" lon="14.7109605"><ele>72.33333333333334</ele><time>2026-04-26T10:41:53.324Z</time></trkpt><trkpt lat="42.1397723" lon="14.7109678"><ele>73.66666666666667</ele><time>2026-04-26T10:41:54.325Z</time></trkpt><trkpt lat="42.1395936" lon="14.7109703"><ele>75.0</ele><time>2026-04-26T10:41:55.324Z</time></trkpt><trkpt lat="42.1394208" lon="14.7109701"><ele>75.0</ele><time>2026-04-26T10:41:56.325Z</time></trkpt><trkpt lat="42.1392475" lon="14.7109701"><ele>75.0</ele><time>2026-04-26T10:41:57.323Z</time></trkpt><trkpt lat="42.1390763" lon="14.7109642"><ele>75.0</ele><time>2026-04-26T10:41:58.324Z</time></trkpt><trkpt lat="42.1389076" lon="14.7109657"><ele>76.0</ele><time>2026-04-26T10:41:59.324Z</time></trkpt><trkpt lat="42.1387409" lon="14.7109705"><ele>77.0</ele><time>2026-04-26T10:42:00.323Z</time></trkpt><trkpt lat="42.1385732" lon="14.7109758"><ele>78.0</ele><time>2026-04-26T10:42:01.324Z</time></trkpt><trkpt lat="42.1384055" lon="14.7109807"><ele>78.0</ele><time>2026-04-26T10:42:02.324Z</time></trkpt><trkpt lat="42.13824" lon="14.7109838"><ele>78.0</ele><time>2026-04-26T10:42:03.323Z</time></trkpt><trkpt lat="42.1380726" lon="14.7109886"><ele>78.0</ele><time>2026-04-26T10:42:04.324Z</time></trkpt><trkpt lat="42.1379038" lon="14.7109917"><ele>78.66666666666667</ele><time>2026-04-26T10:42:05.324Z</time></trkpt><trkpt lat="42.13774" lon="14.7109946"><ele>79.33333333333334</ele><time>2026-04-26T10:42:06.324Z</time></trkpt><trkpt lat="42.1375748" lon="14.7110004"><ele>80.0</ele><time>2026-04-26T10:42:07.323Z</time></trkpt><trkpt lat="42.1374106" lon="14.7109999"><ele>80.66666666666667</ele><time>2026-04-26T10:42:08.323Z</time></trkpt><trkpt lat="42.1372452" lon="14.7110033"><ele>81.33333333333333</ele><time>2026-04-26T10:42:09.325Z</time></trkpt><trkpt lat="42.1370788" lon="14.7110136"><ele>82.0</ele><time>2026-04-26T10:42:10.323Z</time></trkpt><trkpt lat="42.1369076" lon="14.7110176"><ele>82.0</ele><time>2026-04-26T10:42:11.324Z</time></trkpt><trkpt lat="42.1367317" lon="14.7110183"><ele>82.0</ele><time>2026-04-26T10:42:12.324Z</time></trkpt><trkpt lat="42.1365558" lon="14.7110159"><ele>82.0</ele><time>2026-04-26T10:42:13.324Z</time></trkpt><trkpt lat="42.1363827" lon="14.7110152"><ele>82.75</ele><time>2026-04-26T10:42:14.324Z</time></trkpt><trkpt lat="42.1362219" lon="14.7110169"><ele>83.5</ele><time>2026-04-26T10:42:15.324Z</time></trkpt><trkpt lat="42.1360765" lon="14.7110179"><ele>84.25</ele><time>2026-04-26T10:42:16.324Z</time></trkpt><trkpt lat="42.1359393" lon="14.7110169"><ele>85.0</ele><time>2026-04-26T10:42:17.324Z</time></trkpt><trkpt lat="42.1358096" lon="14.7110158"><ele>85.4</ele><time>2026-04-26T10:42:18.323Z</time></trkpt><trkpt lat="42.1356933" lon="14.7110186"><ele>85.8</ele><time>2026-04-26T10:42:19.324Z</time></trkpt><trkpt lat="42.1355884" lon="14.7110197"><ele>86.19999999999999</ele><time>2026-04-26T10:42:20.324Z</time></trkpt><trkpt lat="42.1354907" lon="14.7110186"><ele>86.6</ele><time>2026-04-26T10:42:21.323Z</time></trkpt><trkpt lat="42.1353963" lon="14.7110158"><ele>87.0</ele><time>2026-04-26T10:42:22.323Z</time></trkpt><trkpt lat="42.1353036" lon="14.7110147"><ele>87.0</ele><time>2026-04-26T10:42:23.324Z</time></trkpt><trkpt lat="42.1352146" lon="14.711015"><ele>87.0</ele><time>2026-04-26T10:42:24.324Z</time></trkpt><trkpt lat="42.1351245" lon="14.7110104"><ele>87.0</ele><time>2026-04-26T10:42:25.324Z</time></trkpt><trkpt lat="42.1350333" lon="14.7110099"><ele>87.0</ele><time>2026-04-26T10:42:26.324Z</time></trkpt><trkpt lat="42.1349424" lon="14.7110067"><ele>87.0</ele><time>2026-04-26T10:42:27.323Z</time></trkpt><trkpt lat="42.1348498" lon="14.7110092"><ele>87.6</ele><time>2026-04-26T10:42:28.323Z</time></trkpt><trkpt lat="42.1347494" lon="14.7110128"><ele>88.19999999999999</ele><time>2026-04-26T10:42:29.324Z</time></trkpt><trkpt lat="42.1346494" lon="14.7110147"><ele>88.8</ele><time>2026-04-26T10:42:30.324Z</time></trkpt><trkpt lat="42.1345446" lon="14.7110159"><ele>89.4</ele><time>2026-04-26T10:42:31.324Z</time></trkpt><trkpt lat="42.1344427" lon="14.7110167"><ele>90.0</ele><time>2026-04-26T10:42:32.324Z</time></trkpt><trkpt lat="42.1343432" lon="14.7110117"><ele>90.0</ele><time>2026-04-26T10:42:33.324Z</time></trkpt><trkpt lat="42.1342473" lon="14.7110096"><ele>90.0</ele><time>2026-04-26T10:42:34.324Z</time></trkpt><trkpt lat="42.1341538" lon="14.7110107"><ele>90.0</ele><time>2026-04-26T10:42:35.323Z</time></trkpt><trkpt lat="42.1340605" lon="14.7110119"><ele>90.0</ele><time>2026-04-26T10:42:36.323Z</time></trkpt><trkpt lat="42.1339634" lon="14.7110127"><ele>90.0</ele><time>2026-04-26T10:42:37.323Z</time></trkpt><trkpt lat="42.133866" lon="14.7110114"><ele>90.16666666666667</ele><time>2026-04-26T10:42:38.324Z</time></trkpt><trkpt lat="42.1337705" lon="14.7110092"><ele>90.33333333333333</ele><time>2026-04-26T10:42:39.324Z</time></trkpt><trkpt lat="42.133676" lon="14.711006"><ele>90.5</ele><time>2026-04-26T10:42:40.324Z</time></trkpt><trkpt lat="42.1335908" lon="14.7110027"><ele>90.66666666666666</ele><time>2026-04-26T10:42:41.324Z</time></trkpt><trkpt lat="42.1335112" lon="14.7110076"><ele>90.83333333333333</ele><time>2026-04-26T10:42:42.324Z</time></trkpt><trkpt lat="42.133429" lon="14.711006"><ele>91.0</ele><time>2026-04-26T10:42:43.323Z</time></trkpt><trkpt lat="42.1333448" lon="14.7110074"><ele>91.0</ele><time>2026-04-26T10:42:44.324Z</time></trkpt><trkpt lat="42.1332579" lon="14.7110066"><ele>91.0</ele><time>2026-04-26T10:42:45.324Z</time></trkpt><trkpt lat="42.1331696" lon="14.7110041"><ele>91.0</ele><time>2026-04-26T10:42:46.324Z</time></trkpt><trkpt lat="42.1330772" lon="14.7110048"><ele>91.0</ele><time>2026-04-26T10:42:47.324Z</time></trkpt><trkpt lat="42.1329842" lon="14.7110056"><ele>91.0</ele><time>2026-04-26T10:42:48.324Z</time></trkpt><trkpt lat="42.1328906" lon="14.7110017"><ele>91.6</ele><time>2026-04-26T10:42:49.323Z</time></trkpt><trkpt lat="42.1327985" lon="14.7109973"><ele>92.19999999999999</ele><time>2026-04-26T10:42:50.324Z</time></trkpt><trkpt lat="42.1327036" lon="14.7109973"><ele>92.80000000000001</ele><time>2026-04-26T10:42:51.323Z</time></trkpt><trkpt lat="42.1326028" lon="14.7109974"><ele>93.4</ele><time>2026-04-26T10:42:52.324Z</time></trkpt><trkpt lat="42.1325019" lon="14.7109966"><ele>94.0</ele><time>2026-04-26T10:42:53.324Z</time></trkpt><trkpt lat="42.132402" lon="14.7109962"><ele>94.80000000000001</ele><time>2026-04-26T10:42:54.325Z</time></trkpt><trkpt lat="42.1323035" lon="14.7109977"><ele>95.60000000000001</ele><time>2026-04-26T10:42:55.324Z</time></trkpt><trkpt lat="42.1322078" lon="14.7110004"><ele>96.4</ele><time>2026-04-26T10:42:56.325Z</time></trkpt><trkpt lat="42.1321141" lon="14.7110002"><ele>97.2</ele><time>2026-04-26T10:42:57.324Z</time></trkpt><trkpt lat="42.1320168" lon="14.7109991"><ele>98.0</ele><time>2026-04-26T10:42:58.324Z</time></trkpt><trkpt lat="42.1319198" lon="14.7109998"><ele>98.0</ele><time>2026-04-26T10:42:59.325Z</time></trkpt><trkpt lat="42.1318259" lon="14.711001"><ele>98.0</ele><time>2026-04-26T10:43:00.325Z</time></trkpt><trkpt lat="42.1317348" lon="14.7109944"><ele>98.0</ele><time>2026-04-26T10:43:01.326Z</time></trkpt><trkpt lat="42.1316455" lon="14.7109909"><ele>98.0</ele><time>2026-04-26T10:43:02.325Z</time></trkpt><trkpt lat="42.1315556" lon="14.7109897"><ele>98.0</ele><time>2026-04-26T10:43:03.325Z</time></trkpt><trkpt lat="42.1314688" lon="14.7109902"><ele>98.66666666666666</ele><time>2026-04-26T10:43:04.325Z</time></trkpt><trkpt lat="42.131383" lon="14.7109911"><ele>99.33333333333333</ele><time>2026-04-26T10:43:05.325Z</time></trkpt><trkpt lat="42.1312933" lon="14.7109924"><ele>100.0</ele><time>2026-04-26T10:43:06.325Z</time></trkpt><trkpt lat="42.1312011" lon="14.7109922"><ele>100.66666666666666</ele><time>2026-04-26T10:43:07.325Z</time></trkpt><trkpt lat="42.1311142" lon="14.7109952"><ele>101.33333333333333</ele><time>2026-04-26T10:43:08.325Z</time></trkpt><trkpt lat="42.1310315" lon="14.7109949"><ele>102.0</ele><time>2026-04-26T10:43:09.325Z</time></trkpt><trkpt lat="42.1309522" lon="14.7109908"><ele>102.0</ele><time>2026-04-26T10:43:10.325Z</time></trkpt><trkpt lat="42.1308801" lon="14.7109879"><ele>102.0</ele><time>2026-04-26T10:43:11.324Z</time></trkpt><trkpt lat="42.1308111" lon="14.7109886"><ele>102.0</ele><time>2026-04-26T10:43:12.326Z</time></trkpt><trkpt lat="42.1307412" lon="14.7109881"><ele>102.0</ele><time>2026-04-26T10:43:13.325Z</time></trkpt><trkpt lat="42.1306678" lon="14.7109905"><ele>102.0</ele><time>2026-04-26T10:43:14.325Z</time></trkpt><trkpt lat="42.1305887" lon="14.7109925"><ele>102.0</ele><time>2026-04-26T10:43:15.326Z</time></trkpt><trkpt lat="42.1305063" lon="14.7109923"><ele>102.0</ele><time>2026-04-26T10:43:16.325Z</time></trkpt><trkpt lat="42.1304211" lon="14.7109982"><ele>102.0</ele><time>2026-04-26T10:43:17.325Z</time></trkpt><trkpt lat="42.1303424" lon="14.7109927"><ele>102.0</ele><time>2026-04-26T10:43:18.325Z</time></trkpt><trkpt lat="42.1302628" lon="14.7109836"><ele>102.0</ele><time>2026-04-26T10:43:19.326Z</time></trkpt><trkpt lat="42.13018" lon="14.7109789"><ele>102.0</ele><time>2026-04-26T10:43:20.325Z</time></trkpt><trkpt lat="42.1300893" lon="14.7109762"><ele>102.0</ele><time>2026-04-26T10:43:21.325Z</time></trkpt><trkpt lat="42.129994" lon="14.7109745"><ele>102.0</ele><time>2026-04-26T10:43:22.325Z</time></trkpt><trkpt lat="42.1298971" lon="14.7109745"><ele>102.0</ele><time>2026-04-26T10:43:23.325Z</time></trkpt><trkpt lat="42.1298036" lon="14.7109703"><ele>102.0</ele><time>2026-04-26T10:43:24.325Z</time></trkpt><trkpt lat="42.1297167" lon="14.7109697"><ele>102.0</ele><time>2026-04-26T10:43:25.325Z</time></trkpt><trkpt lat="42.1296374" lon="14.7109714"><ele>102.0</ele><time>2026-04-26T10:43:26.325Z</time></trkpt><trkpt lat="42.1295659" lon="14.7109694"><ele>102.0</ele><time>2026-04-26T10:43:27.325Z</time></trkpt><trkpt lat="42.1294974" lon="14.710972"><ele>102.0</ele><time>2026-04-26T10:43:28.326Z</time></trkpt><trkpt lat="42.1294235" lon="14.7109663"><ele>102.0</ele><time>2026-04-26T10:43:29.325Z</time></trkpt><trkpt lat="42.1293429" lon="14.7109662"><ele>102.0</ele><time>2026-04-26T10:43:30.324Z</time></trkpt><trkpt lat="42.1292574" lon="14.7109689"><ele>102.0</ele><time>2026-04-26T10:43:31.325Z</time></trkpt><trkpt lat="42.1291648" lon="14.7109733"><ele>102.0</ele><time>2026-04-26T10:43:32.325Z</time></trkpt><trkpt lat="42.1290669" lon="14.7109788"><ele>102.0</ele><time>2026-04-26T10:43:33.325Z</time></trkpt><trkpt lat="42.1289698" lon="14.7109844"><ele>102.16666666666667</ele><time>2026-04-26T10:43:34.325Z</time></trkpt><trkpt lat="42.1288789" lon="14.7109862"><ele>102.33333333333334</ele><time>2026-04-26T10:43:35.326Z</time></trkpt><trkpt lat="42.1287925" lon="14.7109867"><ele>102.5</ele><time>2026-04-26T10:43:36.326Z</time></trkpt><trkpt lat="42.1287164" lon="14.7109873"><ele>102.66666666666667</ele><time>2026-04-26T10:43:37.325Z</time></trkpt><trkpt lat="42.1286367" lon="14.7109907"><ele>102.83333333333334</ele><time>2026-04-26T10:43:38.325Z</time></trkpt><trkpt lat="42.1285585" lon="14.7109927"><ele>103.0</ele><time>2026-04-26T10:43:39.324Z</time></trkpt><trkpt lat="42.1284834" lon="14.7109942"><ele>103.00000000000001</ele><time>2026-04-26T10:43:40.325Z</time></trkpt><trkpt lat="42.1284082" lon="14.7109924"><ele>103.0</ele><time>2026-04-26T10:43:41.324Z</time></trkpt><trkpt lat="42.1283353" lon="14.7109871"><ele>103.0</ele><time>2026-04-26T10:43:42.325Z</time></trkpt><trkpt lat="42.1282643" lon="14.710992"><ele>103.0</ele><time>2026-04-26T10:43:43.325Z</time></trkpt><trkpt lat="42.1282013" lon="14.7109931"><ele>103.00000000000001</ele><time>2026-04-26T10:43:44.325Z</time></trkpt><trkpt lat="42.1280697" lon="14.7109902"><ele>103.0</ele><time>2026-04-26T10:43:46.325Z</time></trkpt><trkpt lat="42.1279934" lon="14.7109875"><ele>103.42857142857142</ele><time>2026-04-26T10:43:47.326Z</time></trkpt><trkpt lat="42.1279191" lon="14.7109886"><ele>103.85714285714286</ele><time>2026-04-26T10:43:48.325Z</time></trkpt><trkpt lat="42.1278444" lon="14.7109886"><ele>104.28571428571428</ele><time>2026-04-26T10:43:49.324Z</time></trkpt><trkpt lat="42.1277685" lon="14.7109881"><ele>104.71428571428571</ele><time>2026-04-26T10:43:50.326Z</time></trkpt><trkpt lat="42.1276957" lon="14.7109869"><ele>105.14285714285714</ele><time>2026-04-26T10:43:51.325Z</time></trkpt><trkpt lat="42.1276284" lon="14.7109869"><ele>105.57142857142857</ele><time>2026-04-26T10:43:52.326Z</time></trkpt><trkpt lat="42.1275642" lon="14.7109863"><ele>106.0</ele><time>2026-04-26T10:43:53.325Z</time></trkpt><trkpt lat="42.1274984" lon="14.7109845"><ele>106.00000000000001</ele><time>2026-04-26T10:43:54.324Z</time></trkpt><trkpt lat="42.1274262" lon="14.7109861"><ele>106.0</ele><time>2026-04-26T10:43:55.325Z</time></trkpt><trkpt lat="42.1273374" lon="14.7109877"><ele>106.0</ele><time>2026-04-26T10:43:56.325Z</time></trkpt><trkpt lat="42.1272466" lon="14.710991"><ele>106.0</ele><time>2026-04-26T10:43:57.325Z</time></trkpt><trkpt lat="42.1271625" lon="14.7109906"><ele>106.00000000000001</ele><time>2026-04-26T10:43:58.325Z</time></trkpt><trkpt lat="42.1270873" lon="14.7109848"><ele>106.0</ele><time>2026-04-26T10:43:59.324Z</time></trkpt><trkpt lat="42.1270192" lon="14.7109795"><ele>105.8</ele><time>2026-04-26T10:44:00.326Z</time></trkpt><trkpt lat="42.1268957" lon="14.7109773"><ele>105.6</ele><time>2026-04-26T10:44:02.325Z</time></trkpt><trkpt lat="42.1268257" lon="14.7109749"><ele>105.4</ele><time>2026-04-26T10:44:03.325Z</time></trkpt><trkpt lat="42.1267427" lon="14.7109739"><ele>105.2</ele><time>2026-04-26T10:44:04.325Z</time></trkpt><trkpt lat="42.1266562" lon="14.7109709"><ele>105.0</ele><time>2026-04-26T10:44:05.325Z</time></trkpt><trkpt lat="42.1265639" lon="14.7109701"><ele>104.66666666666667</ele><time>2026-04-26T10:44:06.324Z</time></trkpt><trkpt lat="42.1264767" lon="14.7109692"><ele>104.33333333333334</ele><time>2026-04-26T10:44:07.325Z</time></trkpt><trkpt lat="42.1263961" lon="14.7109543"><ele>104.0</ele><time>2026-04-26T10:44:08.325Z</time></trkpt><trkpt lat="42.1263151" lon="14.7109418"><ele>103.66666666666667</ele><time>2026-04-26T10:44:09.325Z</time></trkpt><trkpt lat="42.126238" lon="14.7109415"><ele>103.33333333333334</ele><time>2026-04-26T10:44:10.325Z</time></trkpt><trkpt lat="42.1261671" lon="14.7109384"><ele>103.0</ele><time>2026-04-26T10:44:11.325Z</time></trkpt><trkpt lat="42.1260999" lon="14.7109362"><ele>103.0</ele><time>2026-04-26T10:44:12.324Z</time></trkpt><trkpt lat="42.1259806" lon="14.7109268"><ele>103.0</ele><time>2026-04-26T10:44:14.326Z</time></trkpt><trkpt lat="42.125878" lon="14.7109056"><ele>103.0</ele><time>2026-04-26T10:44:16.324Z</time></trkpt><trkpt lat="42.1257801" lon="14.7108602"><ele>103.0</ele><time>2026-04-26T10:44:18.324Z</time></trkpt><trkpt lat="42.1256897" lon="14.7108154"><ele>103.0</ele><time>2026-04-26T10:44:20.325Z</time></trkpt><trkpt lat="42.1255845" lon="14.710822"><ele>103.66666666666667</ele><time>2026-04-26T10:44:22.324Z</time></trkpt><trkpt lat="42.1255248" lon="14.7108515"><ele>104.33333333333334</ele><time>2026-04-26T10:44:23.324Z</time></trkpt><trkpt lat="42.1254576" lon="14.7108741"><ele>105.0</ele><time>2026-04-26T10:44:24.325Z</time></trkpt><trkpt lat="42.1253815" lon="14.710885"><ele>105.66666666666666</ele><time>2026-04-26T10:44:25.325Z</time></trkpt><trkpt lat="42.1252983" lon="14.7108893"><ele>106.33333333333333</ele><time>2026-04-26T10:44:26.325Z</time></trkpt><trkpt lat="42.1251963" lon="14.7108875"><ele>107.0</ele><time>2026-04-26T10:44:27.325Z</time></trkpt><trkpt lat="42.1250785" lon="14.7108813"><ele>107.0</ele><time>2026-04-26T10:44:28.324Z</time></trkpt><trkpt lat="42.1249648" lon="14.7108736"><ele>107.0</ele><time>2026-04-26T10:44:29.325Z</time></trkpt><trkpt lat="42.124847" lon="14.7108681"><ele>107.0</ele><time>2026-04-26T10:44:30.324Z</time></trkpt><trkpt lat="42.1247253" lon="14.7108626"><ele>107.0</ele><time>2026-04-26T10:44:31.326Z</time></trkpt><trkpt lat="42.1246136" lon="14.7108567"><ele>107.8</ele><time>2026-04-26T10:44:32.325Z</time></trkpt><trkpt lat="42.1245142" lon="14.7108522"><ele>108.6</ele><time>2026-04-26T10:44:33.326Z</time></trkpt><trkpt lat="42.1244163" lon="14.7108503"><ele>109.39999999999999</ele><time>2026-04-26T10:44:34.325Z</time></trkpt><trkpt lat="42.1243146" lon="14.7108446"><ele>110.19999999999999</ele><time>2026-04-26T10:44:35.325Z</time></trkpt><trkpt lat="42.1242128" lon="14.7108332"><ele>111.0</ele><time>2026-04-26T10:44:36.325Z</time></trkpt><trkpt lat="42.1241071" lon="14.7108279"><ele>111.25</ele><time>2026-04-26T10:44:37.325Z</time></trkpt><trkpt lat="42.1239959" lon="14.7108268"><ele>111.5</ele><time>2026-04-26T10:44:38.324Z</time></trkpt><trkpt lat="42.1238785" lon="14.7108294"><ele>111.75</ele><time>2026-04-26T10:44:39.325Z</time></trkpt><trkpt lat="42.1237534" lon="14.710835"><ele>112.0</ele><time>2026-04-26T10:44:40.325Z</time></trkpt><trkpt lat="42.1236248" lon="14.7108333"><ele>112.0</ele><time>2026-04-26T10:44:41.326Z</time></trkpt><trkpt lat="42.1234931" lon="14.7108256"><ele>112.0</ele><time>2026-04-26T10:44:42.326Z</time></trkpt><trkpt lat="42.1233688" lon="14.7108193"><ele>112.0</ele><time>2026-04-26T10:44:43.325Z</time></trkpt><trkpt lat="42.1232537" lon="14.7108141"><ele>112.0</ele><time>2026-04-26T10:44:44.325Z</time></trkpt><trkpt lat="42.123144" lon="14.7108093"><ele>112.50000000000001</ele><time>2026-04-26T10:44:45.325Z</time></trkpt><trkpt lat="42.1230438" lon="14.7108011"><ele>113.0</ele><time>2026-04-26T10:44:46.324Z</time></trkpt><trkpt lat="42.1229527" lon="14.710795"><ele>113.5</ele><time>2026-04-26T10:44:47.325Z</time></trkpt><trkpt lat="42.1228721" lon="14.7107903"><ele>114.0</ele><time>2026-04-26T10:44:48.325Z</time></trkpt><trkpt lat="42.1227895" lon="14.7107822"><ele>114.50000000000001</ele><time>2026-04-26T10:44:49.325Z</time></trkpt><trkpt lat="42.1227083" lon="14.7107734"><ele>115.0</ele><time>2026-04-26T10:44:50.325Z</time></trkpt><trkpt lat="42.1226308" lon="14.7107703"><ele>114.99999999999999</ele><time>2026-04-26T10:44:51.325Z</time></trkpt><trkpt lat="42.1225542" lon="14.7107625"><ele>115.0</ele><time>2026-04-26T10:44:52.325Z</time></trkpt><trkpt lat="42.1224806" lon="14.7107543"><ele>114.99999999999999</ele><time>2026-04-26T10:44:53.325Z</time></trkpt><trkpt lat="42.1224102" lon="14.7107475"><ele>114.99999999999999</ele><time>2026-04-26T10:44:54.325Z</time></trkpt><trkpt lat="42.1223371" lon="14.7107427"><ele>115.0</ele><time>2026-04-26T10:44:55.324Z</time></trkpt><trkpt lat="42.1222699" lon="14.7107387"><ele>114.99999999999999</ele><time>2026-04-26T10:44:56.325Z</time></trkpt><trkpt lat="42.1222067" lon="14.7107339"><ele>114.99999999999999</ele><time>2026-04-26T10:44:57.324Z</time></trkpt><trkpt lat="42.122109" lon="14.7107208"><ele>115.8</ele><time>2026-04-26T10:44:59.325Z</time></trkpt><trkpt lat="42.1219901" lon="14.7107114"><ele>116.6</ele><time>2026-04-26T10:45:01.324Z</time></trkpt><trkpt lat="42.1219083" lon="14.7107034"><ele>117.4</ele><time>2026-04-26T10:45:02.324Z</time></trkpt><trkpt lat="42.121816" lon="14.7106931"><ele>118.2</ele><time>2026-04-26T10:45:03.326Z</time></trkpt><trkpt lat="42.1217033" lon="14.7106895"><ele>119.0</ele><time>2026-04-26T10:45:04.326Z</time></trkpt><trkpt lat="42.1215934" lon="14.7106821"><ele>118.75</ele><time>2026-04-26T10:45:05.325Z</time></trkpt><trkpt lat="42.1214838" lon="14.7106792"><ele>118.5</ele><time>2026-04-26T10:45:06.325Z</time></trkpt><trkpt lat="42.1213634" lon="14.7106704"><ele>118.25</ele><time>2026-04-26T10:45:07.325Z</time></trkpt><trkpt lat="42.121239" lon="14.710664"><ele>118.0</ele><time>2026-04-26T10:45:08.325Z</time></trkpt><trkpt lat="42.1211162" lon="14.7106594"><ele>118.0</ele><time>2026-04-26T10:45:09.325Z</time></trkpt><trkpt lat="42.1209961" lon="14.7106543"><ele>118.00000000000001</ele><time>2026-04-26T10:45:10.324Z</time></trkpt><trkpt lat="42.120887" lon="14.7106528"><ele>118.00000000000001</ele><time>2026-04-26T10:45:11.325Z</time></trkpt><trkpt lat="42.1207918" lon="14.7106482"><ele>118.0</ele><time>2026-04-26T10:45:12.325Z</time></trkpt><trkpt lat="42.1207003" lon="14.7106406"><ele>118.0</ele><time>2026-04-26T10:45:13.325Z</time></trkpt><trkpt lat="42.1205969" lon="14.7106337"><ele>118.5</ele><time>2026-04-26T10:45:14.325Z</time></trkpt><trkpt lat="42.1204747" lon="14.7106157"><ele>119.0</ele><time>2026-04-26T10:45:15.324Z</time></trkpt><trkpt lat="42.120351" lon="14.7106054"><ele>119.5</ele><time>2026-04-26T10:45:16.325Z</time></trkpt><trkpt lat="42.1202316" lon="14.7105964"><ele>120.0</ele><time>2026-04-26T10:45:17.325Z</time></trkpt><trkpt lat="42.1201114" lon="14.7105875"><ele>120.0</ele><time>2026-04-26T10:45:18.325Z</time></trkpt><trkpt lat="42.1199859" lon="14.7105661"><ele>120.0</ele><time>2026-04-26T10:45:19.325Z</time></trkpt><trkpt lat="42.119858" lon="14.710526"><ele>120.0</ele><time>2026-04-26T10:45:20.326Z</time></trkpt><trkpt lat="42.1197304" lon="14.7104754"><ele>120.0</ele><time>2026-04-26T10:45:21.325Z</time></trkpt><trkpt lat="42.1196081" lon="14.7104279"><ele>120.75</ele><time>2026-04-26T10:45:22.324Z</time></trkpt><trkpt lat="42.1194874" lon="14.7103731"><ele>121.5</ele><time>2026-04-26T10:45:23.325Z</time></trkpt><trkpt lat="42.1193737" lon="14.7103143"><ele>122.25</ele><time>2026-04-26T10:45:24.324Z</time></trkpt><trkpt lat="42.1192673" lon="14.7102479"><ele>123.0</ele><time>2026-04-26T10:45:25.326Z</time></trkpt><trkpt lat="42.1191693" lon="14.7101774"><ele>123.16666666666667</ele><time>2026-04-26T10:45:26.324Z</time></trkpt><trkpt lat="42.119078" lon="14.7101058"><ele>123.33333333333334</ele><time>2026-04-26T10:45:27.325Z</time></trkpt><trkpt lat="42.1189919" lon="14.7100379"><ele>123.5</ele><time>2026-04-26T10:45:28.325Z</time></trkpt><trkpt lat="42.1189129" lon="14.7099811"><ele>123.66666666666667</ele><time>2026-04-26T10:45:29.325Z</time></trkpt><trkpt lat="42.1188437" lon="14.7099212"><ele>123.83333333333334</ele><time>2026-04-26T10:45:30.325Z</time></trkpt><trkpt lat="42.1187889" lon="14.709874"><ele>124.0</ele><time>2026-04-26T10:45:31.326Z</time></trkpt><trkpt lat="42.118712" lon="14.7098517"><ele>124.00000000000001</ele><time>2026-04-26T10:45:33.325Z</time></trkpt><trkpt lat="42.1186449" lon="14.7098821"><ele>124.0</ele><time>2026-04-26T10:45:36.326Z</time></trkpt><trkpt lat="42.1185847" lon="14.7099575"><ele>124.0</ele><time>2026-04-26T10:45:39.324Z</time></trkpt><trkpt lat="42.1185247" lon="14.7100402"><ele>124.0</ele><time>2026-04-26T10:45:41.326Z</time></trkpt><trkpt lat="42.1184733" lon="14.7101079"><ele>124.00000000000001</ele><time>2026-04-26T10:45:43.325Z</time></trkpt><trkpt lat="42.1184238" lon="14.7101713"><ele>124.0</ele><time>2026-04-26T10:45:45.324Z</time></trkpt><trkpt lat="42.1183603" lon="14.7102341"><ele>124.00000000000001</ele><time>2026-04-26T10:45:48.326Z</time></trkpt><trkpt lat="42.1182748" lon="14.7102346"><ele>124.0</ele><time>2026-04-26T10:45:52.325Z</time></trkpt><trkpt lat="42.1182429" lon="14.7103123"><ele>124.0</ele><time>2026-04-26T10:47:15.3Z</time></trkpt><trkpt lat="42.1182583" lon="14.710418"><ele>124.0</ele><time>2026-04-26T10:47:44.323Z</time></trkpt><trkpt lat="42.1181566" lon="14.7103235"><ele>124.00000000000001</ele><time>2026-04-26T10:47:52.324Z</time></trkpt><trkpt lat="42.1180899" lon="14.7102556"><ele>124.0</ele><time>2026-04-26T10:47:53.323Z</time></trkpt><trkpt lat="42.1180335" lon="14.7102073"><ele>124.28571428571429</ele><time>2026-04-26T10:47:56.324Z</time></trkpt><trkpt lat="42.1179752" lon="14.7101646"><ele>124.57142857142858</ele><time>2026-04-26T10:48:18.324Z</time></trkpt><trkpt lat="42.1179229" lon="14.7101127"><ele>124.85714285714286</ele><time>2026-04-26T10:48:30.325Z</time></trkpt><trkpt lat="42.1178731" lon="14.7100562"><ele>125.14285714285714</ele><time>2026-04-26T10:48:40.212Z</time></trkpt><trkpt lat="42.1178378" lon="14.709978"><ele>125.42857142857143</ele><time>2026-04-26T10:48:50.425Z</time></trkpt><trkpt lat="42.1177588" lon="14.7100026"><ele>125.71428571428572</ele><time>2026-04-26T10:49:05.377Z</time></trkpt><trkpt lat="42.1176883" lon="14.7099837"><ele>126.0</ele><time>2026-04-26T10:49:16.324Z</time></trkpt><trkpt lat="42.1176352" lon="14.7100326"><ele>126.0</ele><time>2026-04-26T10:49:26.324Z</time></trkpt><trkpt lat="42.1175785" lon="14.7100847"><ele>126.0</ele><time>2026-04-26T10:49:36.08Z</time></trkpt><trkpt lat="42.1175381" lon="14.7101648"><ele>126.0</ele><time>2026-04-26T10:49:44.307Z</time></trkpt><trkpt lat="42.1174997" lon="14.7102389"><ele>126.0</ele><time>2026-04-26T10:49:52.791Z</time></trkpt><trkpt lat="42.1175" lon="14.7103447"><ele>126.0</ele><time>2026-04-26T10:49:58.775Z</time></trkpt><trkpt lat="42.1176525" lon="14.7105373"><ele>122.0</ele><time>2026-04-26T10:50:14.818Z</time></trkpt><trkpt lat="42.1177157" lon="14.7105673"><ele>122.0</ele><time>2026-04-26T10:50:20.832Z</time></trkpt><trkpt lat="42.1177806" lon="14.7104587"><ele>122.0</ele><time>2026-04-26T10:50:31.037Z</time></trkpt><trkpt lat="42.1177836" lon="14.7103674"><ele>122.0</ele><time>2026-04-26T10:52:20.743Z</time></trkpt></trkseg><trkseg><trkpt lat="42.1192663" lon="14.7111689"><ele>121.4</ele><time>2026-04-26T11:43:08.321Z</time></trkpt><trkpt lat="42.1193054" lon="14.7110644"><ele>121.8</ele><time>2026-04-26T11:43:10.32Z</time></trkpt><trkpt lat="42.1193529" lon="14.7109544"><ele>122.20000000000002</ele><time>2026-04-26T11:43:12.321Z</time></trkpt><trkpt lat="42.1194141" lon="14.7108321"><ele>122.60000000000001</ele><time>2026-04-26T11:43:14.321Z</time></trkpt><trkpt lat="42.1194642" lon="14.7107238"><ele>123.0</ele><time>2026-04-26T11:43:16.322Z</time></trkpt><trkpt lat="42.1195028" lon="14.7106228"><ele>123.0</ele><time>2026-04-26T11:43:18.321Z</time></trkpt><trkpt lat="42.1195299" lon="14.7105315"><ele>123.0</ele><time>2026-04-26T11:43:20.321Z</time></trkpt><trkpt lat="42.119546" lon="14.7104392"><ele>123.0</ele><time>2026-04-26T11:43:23.321Z</time></trkpt><trkpt lat="42.1194957" lon="14.710351"><ele>123.0</ele><time>2026-04-26T11:43:26.32Z</time></trkpt><trkpt lat="42.1193913" lon="14.7102927"><ele>123.0</ele><time>2026-04-26T11:43:28.32Z</time></trkpt><trkpt lat="42.1192913" lon="14.7102406"><ele>123.0</ele><time>2026-04-26T11:43:30.321Z</time></trkpt><trkpt lat="42.1191902" lon="14.7101713"><ele>123.2</ele><time>2026-04-26T11:43:32.321Z</time></trkpt><trkpt lat="42.1190899" lon="14.7100943"><ele>123.4</ele><time>2026-04-26T11:43:34.321Z</time></trkpt><trkpt lat="42.1189833" lon="14.7100224"><ele>123.60000000000001</ele><time>2026-04-26T11:43:36.321Z</time></trkpt><trkpt lat="42.1188744" lon="14.7099483"><ele>123.80000000000001</ele><time>2026-04-26T11:43:38.32Z</time></trkpt><trkpt lat="42.1188118" lon="14.7099035"><ele>124.0</ele><time>2026-04-26T11:43:39.321Z</time></trkpt><trkpt lat="42.1187414" lon="14.7098434"><ele>124.0</ele><time>2026-04-26T11:43:40.321Z</time></trkpt><trkpt lat="42.1186623" lon="14.7097786"><ele>124.0</ele><time>2026-04-26T11:43:41.321Z</time></trkpt><trkpt lat="42.1185773" lon="14.7097016"><ele>124.0</ele><time>2026-04-26T11:43:42.321Z</time></trkpt><trkpt lat="42.1184827" lon="14.7096259"><ele>124.0</ele><time>2026-04-26T11:43:43.321Z</time></trkpt><trkpt lat="42.1183858" lon="14.7095487"><ele>124.0</ele><time>2026-04-26T11:43:44.321Z</time></trkpt><trkpt lat="42.1182947" lon="14.7094778"><ele>125.0</ele><time>2026-04-26T11:43:45.321Z</time></trkpt><trkpt lat="42.1181968" lon="14.7094078"><ele>126.0</ele><time>2026-04-26T11:43:46.321Z</time></trkpt><trkpt lat="42.1181013" lon="14.7093316"><ele>127.0</ele><time>2026-04-26T11:43:47.321Z</time></trkpt><trkpt lat="42.1180063" lon="14.7092541"><ele>128.0</ele><time>2026-04-26T11:43:48.32Z</time></trkpt><trkpt lat="42.1179108" lon="14.7091799"><ele>129.0</ele><time>2026-04-26T11:43:49.321Z</time></trkpt><trkpt lat="42.1178201" lon="14.7091117"><ele>129.0</ele><time>2026-04-26T11:43:50.321Z</time></trkpt><trkpt lat="42.1177407" lon="14.7090469"><ele>129.0</ele><time>2026-04-26T11:43:51.321Z</time></trkpt><trkpt lat="42.1176721" lon="14.7089941"><ele>129.0</ele><time>2026-04-26T11:43:52.32Z</time></trkpt><trkpt lat="42.1176165" lon="14.7089472"><ele>129.0</ele><time>2026-04-26T11:43:53.321Z</time></trkpt><trkpt lat="42.117538" lon="14.7088836"><ele>129.0</ele><time>2026-04-26T11:43:55.32Z</time></trkpt><trkpt lat="42.1174862" lon="14.7088292"><ele>129.0</ele><time>2026-04-26T11:44:02.321Z</time></trkpt><trkpt lat="42.1174078" lon="14.7087688"><ele>128.66666666666666</ele><time>2026-04-26T11:44:04.321Z</time></trkpt><trkpt lat="42.1172848" lon="14.7087283"><ele>128.33333333333334</ele><time>2026-04-26T11:44:06.32Z</time></trkpt><trkpt lat="42.1172172" lon="14.708724"><ele>128.0</ele><time>2026-04-26T11:44:07.32Z</time></trkpt><trkpt lat="42.1171397" lon="14.708735"><ele>127.66666666666667</ele><time>2026-04-26T11:44:08.321Z</time></trkpt><trkpt lat="42.1170545" lon="14.7087501"><ele>127.33333333333334</ele><time>2026-04-26T11:44:09.321Z</time></trkpt><trkpt lat="42.1169664" lon="14.7087713"><ele>127.0</ele><time>2026-04-26T11:44:10.321Z</time></trkpt><trkpt lat="42.1167743" lon="14.7088042"><ele>127.0</ele><time>2026-04-26T11:44:12.321Z</time></trkpt><trkpt lat="42.1166706" lon="14.7088134"><ele>127.0</ele><time>2026-04-26T11:44:13.321Z</time></trkpt><trkpt lat="42.1165577" lon="14.7088136"><ele>127.0</ele><time>2026-04-26T11:44:14.321Z</time></trkpt><trkpt lat="42.1164357" lon="14.7088069"><ele>127.0</ele><time>2026-04-26T11:44:15.321Z</time></trkpt><trkpt lat="42.1163175" lon="14.7088003"><ele>125.75</ele><time>2026-04-26T11:44:16.321Z</time></trkpt><trkpt lat="42.1162049" lon="14.7087929"><ele>124.5</ele><time>2026-04-26T11:44:17.321Z</time></trkpt><trkpt lat="42.1160941" lon="14.7087852"><ele>123.25</ele><time>2026-04-26T11:44:18.321Z</time></trkpt><trkpt lat="42.1159781" lon="14.7087768"><ele>122.0</ele><time>2026-04-26T11:44:19.321Z</time></trkpt><trkpt lat="42.1158641" lon="14.7087648"><ele>122.0</ele><time>2026-04-26T11:44:20.322Z</time></trkpt><trkpt lat="42.1157498" lon="14.7087509"><ele>122.0</ele><time>2026-04-26T11:44:21.321Z</time></trkpt><trkpt lat="42.1156333" lon="14.7087368"><ele>122.0</ele><time>2026-04-26T11:44:22.32Z</time></trkpt><trkpt lat="42.1155163" lon="14.7087206"><ele>122.0</ele><time>2026-04-26T11:44:23.32Z</time></trkpt><trkpt lat="42.1153957" lon="14.7087007"><ele>123.75</ele><time>2026-04-26T11:44:24.322Z</time></trkpt><trkpt lat="42.1152624" lon="14.7086739"><ele>125.5</ele><time>2026-04-26T11:44:25.321Z</time></trkpt><trkpt lat="42.1151224" lon="14.7086406"><ele>127.25</ele><time>2026-04-26T11:44:26.321Z</time></trkpt><trkpt lat="42.1149755" lon="14.7085977"><ele>129.0</ele><time>2026-04-26T11:44:27.321Z</time></trkpt><trkpt lat="42.1148373" lon="14.7085524"><ele>129.75</ele><time>2026-04-26T11:44:28.321Z</time></trkpt><trkpt lat="42.1147134" lon="14.708501"><ele>130.5</ele><time>2026-04-26T11:44:29.321Z</time></trkpt><trkpt lat="42.1145951" lon="14.7084505"><ele>131.25</ele><time>2026-04-26T11:44:30.32Z</time></trkpt><trkpt lat="42.1144809" lon="14.7084109"><ele>132.0</ele><time>2026-04-26T11:44:31.321Z</time></trkpt><trkpt lat="42.1143795" lon="14.7083896"><ele>132.0</ele><time>2026-04-26T11:44:32.321Z</time></trkpt><trkpt lat="42.1142869" lon="14.7083722"><ele>132.0</ele><time>2026-04-26T11:44:33.32Z</time></trkpt><trkpt lat="42.1141993" lon="14.7083565"><ele>132.0</ele><time>2026-04-26T11:44:34.322Z</time></trkpt><trkpt lat="42.1141167" lon="14.7083389"><ele>132.0</ele><time>2026-04-26T11:44:35.321Z</time></trkpt><trkpt lat="42.1140288" lon="14.7083174"><ele>132.0</ele><time>2026-04-26T11:44:36.321Z</time></trkpt><trkpt lat="42.1139269" lon="14.7082894"><ele>133.25</ele><time>2026-04-26T11:44:37.321Z</time></trkpt><trkpt lat="42.1138132" lon="14.7082577"><ele>134.5</ele><time>2026-04-26T11:44:38.322Z</time></trkpt><trkpt lat="42.1136988" lon="14.7082229"><ele>135.75</ele><time>2026-04-26T11:44:39.32Z</time></trkpt><trkpt lat="42.1135845" lon="14.7081983"><ele>137.0</ele><time>2026-04-26T11:44:40.321Z</time></trkpt><trkpt lat="42.113472" lon="14.7081735"><ele>137.0</ele><time>2026-04-26T11:44:41.321Z</time></trkpt><trkpt lat="42.1133597" lon="14.7081453"><ele>137.0</ele><time>2026-04-26T11:44:42.321Z</time></trkpt><trkpt lat="42.1132511" lon="14.7081138"><ele>137.0</ele><time>2026-04-26T11:44:43.322Z</time></trkpt><trkpt lat="42.1131486" lon="14.7080782"><ele>137.0</ele><time>2026-04-26T11:44:44.32Z</time></trkpt><trkpt lat="42.1130539" lon="14.7080494"><ele>137.0</ele><time>2026-04-26T11:44:45.32Z</time></trkpt><trkpt lat="42.1129681" lon="14.70803"><ele>138.33333333333331</ele><time>2026-04-26T11:44:46.321Z</time></trkpt><trkpt lat="42.1128865" lon="14.7080102"><ele>139.66666666666666</ele><time>2026-04-26T11:44:47.321Z</time></trkpt><trkpt lat="42.1128074" lon="14.7079933"><ele>141.0</ele><time>2026-04-26T11:44:48.321Z</time></trkpt><trkpt lat="42.1127266" lon="14.7079812"><ele>142.33333333333334</ele><time>2026-04-26T11:44:49.321Z</time></trkpt><trkpt lat="42.1126476" lon="14.7079575"><ele>143.66666666666669</ele><time>2026-04-26T11:44:50.321Z</time></trkpt><trkpt lat="42.1125713" lon="14.7079312"><ele>145.0</ele><time>2026-04-26T11:44:51.321Z</time></trkpt><trkpt lat="42.1124944" lon="14.70791"><ele>145.0</ele><time>2026-04-26T11:44:52.321Z</time></trkpt><trkpt lat="42.1124186" lon="14.7078906"><ele>145.0</ele><time>2026-04-26T11:44:53.321Z</time></trkpt><trkpt lat="42.1123435" lon="14.7078752"><ele>145.0</ele><time>2026-04-26T11:44:54.321Z</time></trkpt><trkpt lat="42.1122674" lon="14.7078661"><ele>145.0</ele><time>2026-04-26T11:44:55.321Z</time></trkpt><trkpt lat="42.1121873" lon="14.7078578"><ele>145.0</ele><time>2026-04-26T11:44:56.32Z</time></trkpt><trkpt lat="42.1121087" lon="14.7078436"><ele>145.0</ele><time>2026-04-26T11:44:57.32Z</time></trkpt><trkpt lat="42.1120302" lon="14.7078224"><ele>145.5</ele><time>2026-04-26T11:44:58.321Z</time></trkpt><trkpt lat="42.1119541" lon="14.7078026"><ele>146.0</ele><time>2026-04-26T11:44:59.321Z</time></trkpt><trkpt lat="42.1118778" lon="14.7077819"><ele>146.5</ele><time>2026-04-26T11:45:00.321Z</time></trkpt><trkpt lat="42.1118037" lon="14.7077625"><ele>147.0</ele><time>2026-04-26T11:45:01.321Z</time></trkpt><trkpt lat="42.1117314" lon="14.7077466"><ele>147.5</ele><time>2026-04-26T11:45:02.32Z</time></trkpt><trkpt lat="42.1116562" lon="14.7077382"><ele>148.0</ele><time>2026-04-26T11:45:03.321Z</time></trkpt><trkpt lat="42.1115812" lon="14.7077321"><ele>148.33333333333334</ele><time>2026-04-26T11:45:04.321Z</time></trkpt><trkpt lat="42.1115051" lon="14.7077194"><ele>148.66666666666669</ele><time>2026-04-26T11:45:05.321Z</time></trkpt><trkpt lat="42.1114306" lon="14.7076947"><ele>149.0</ele><time>2026-04-26T11:45:06.32Z</time></trkpt><trkpt lat="42.1113596" lon="14.7076648"><ele>149.33333333333334</ele><time>2026-04-26T11:45:07.321Z</time></trkpt><trkpt lat="42.11129" lon="14.7076283"><ele>149.66666666666666</ele><time>2026-04-26T11:45:08.322Z</time></trkpt><trkpt lat="42.1112216" lon="14.7075853"><ele>150.0</ele><time>2026-04-26T11:45:09.321Z</time></trkpt><trkpt lat="42.1111549" lon="14.7075306"><ele>150.0</ele><time>2026-04-26T11:45:10.32Z</time></trkpt><trkpt lat="42.1110871" lon="14.7074702"><ele>150.0</ele><time>2026-04-26T11:45:11.321Z</time></trkpt><trkpt lat="42.111017" lon="14.7074088"><ele>150.0</ele><time>2026-04-26T11:45:12.32Z</time></trkpt><trkpt lat="42.1109475" lon="14.7073464"><ele>150.0</ele><time>2026-04-26T11:45:13.321Z</time></trkpt><trkpt lat="42.1108767" lon="14.7072752"><ele>150.0</ele><time>2026-04-26T11:45:14.321Z</time></trkpt><trkpt lat="42.1108043" lon="14.707204"><ele>150.0</ele><time>2026-04-26T11:45:15.321Z</time></trkpt><trkpt lat="42.1107291" lon="14.7071325"><ele>151.8</ele><time>2026-04-26T11:45:16.32Z</time></trkpt><trkpt lat="42.110656" lon="14.7070614"><ele>153.6</ele><time>2026-04-26T11:45:17.321Z</time></trkpt><trkpt lat="42.1105813" lon="14.7069857"><ele>155.4</ele><time>2026-04-26T11:45:18.322Z</time></trkpt><trkpt lat="42.1104933" lon="14.7069053"><ele>157.2</ele><time>2026-04-26T11:45:19.321Z</time></trkpt><trkpt lat="42.110406" lon="14.7068368"><ele>159.0</ele><time>2026-04-26T11:45:20.321Z</time></trkpt><trkpt lat="42.1103254" lon="14.7067833"><ele>159.33333333333334</ele><time>2026-04-26T11:45:21.322Z</time></trkpt><trkpt lat="42.110249" lon="14.7067432"><ele>159.66666666666666</ele><time>2026-04-26T11:45:22.32Z</time></trkpt><trkpt lat="42.1101802" lon="14.7067076"><ele>160.0</ele><time>2026-04-26T11:45:23.322Z</time></trkpt><trkpt lat="42.1101144" lon="14.7066749"><ele>160.33333333333331</ele><time>2026-04-26T11:45:24.321Z</time></trkpt><trkpt lat="42.1100533" lon="14.7066438"><ele>160.66666666666666</ele><time>2026-04-26T11:45:25.32Z</time></trkpt><trkpt lat="42.109942" lon="14.7065948"><ele>161.0</ele><time>2026-04-26T11:45:27.32Z</time></trkpt><trkpt lat="42.1098353" lon="14.7065749"><ele>162.0</ele><time>2026-04-26T11:45:29.321Z</time></trkpt><trkpt lat="42.1097286" lon="14.7065808"><ele>163.0</ele><time>2026-04-26T11:45:31.321Z</time></trkpt><trkpt lat="42.1096208" lon="14.706591"><ele>164.0</ele><time>2026-04-26T11:45:33.321Z</time></trkpt><trkpt lat="42.1095133" lon="14.70659"><ele>165.0</ele><time>2026-04-26T11:45:35.32Z</time></trkpt><trkpt lat="42.1094179" lon="14.7065934"><ele>166.0</ele><time>2026-04-26T11:45:37.321Z</time></trkpt><trkpt lat="42.1093395" lon="14.7065963"><ele>166.0</ele><time>2026-04-26T11:45:39.321Z</time></trkpt><trkpt lat="42.1092746" lon="14.7066026"><ele>166.0</ele><time>2026-04-26T11:45:41.321Z</time></trkpt><trkpt lat="42.1091861" lon="14.7066011"><ele>166.0</ele><time>2026-04-26T11:45:43.321Z</time></trkpt><trkpt lat="42.1090907" lon="14.7065978"><ele>166.0</ele><time>2026-04-26T11:45:45.321Z</time></trkpt><trkpt lat="42.1089891" lon="14.7065993"><ele>166.0</ele><time>2026-04-26T11:45:47.321Z</time></trkpt><trkpt lat="42.1088927" lon="14.7065873"><ele>166.0</ele><time>2026-04-26T11:45:49.322Z</time></trkpt><trkpt lat="42.1088094" lon="14.7065097"><ele>166.8</ele><time>2026-04-26T11:45:51.321Z</time></trkpt><trkpt lat="42.108756" lon="14.7063563"><ele>167.60000000000002</ele><time>2026-04-26T11:45:53.321Z</time></trkpt><trkpt lat="42.1087359" lon="14.7062412"><ele>168.4</ele><time>2026-04-26T11:45:54.321Z</time></trkpt><trkpt lat="42.1087152" lon="14.7061155"><ele>169.2</ele><time>2026-04-26T11:45:55.322Z</time></trkpt><trkpt lat="42.1086975" lon="14.7060021"><ele>170.0</ele><time>2026-04-26T11:45:56.321Z</time></trkpt><trkpt lat="42.1086791" lon="14.7058874"><ele>170.8</ele><time>2026-04-26T11:45:57.321Z</time></trkpt><trkpt lat="42.1086546" lon="14.7057646"><ele>171.6</ele><time>2026-04-26T11:45:58.321Z</time></trkpt><trkpt lat="42.1086306" lon="14.705634"><ele>172.39999999999998</ele><time>2026-04-26T11:45:59.32Z</time></trkpt><trkpt lat="42.1086129" lon="14.7054972"><ele>173.2</ele><time>2026-04-26T11:46:00.321Z</time></trkpt><trkpt lat="42.1085913" lon="14.7053632"><ele>174.0</ele><time>2026-04-26T11:46:01.321Z</time></trkpt><trkpt lat="42.1085718" lon="14.7052315"><ele>174.0</ele><time>2026-04-26T11:46:02.32Z</time></trkpt><trkpt lat="42.1085591" lon="14.7050971"><ele>174.0</ele><time>2026-04-26T11:46:03.321Z</time></trkpt><trkpt lat="42.1085524" lon="14.7049726"><ele>174.0</ele><time>2026-04-26T11:46:04.32Z</time></trkpt><trkpt lat="42.1085478" lon="14.7048544"><ele>174.0</ele><time>2026-04-26T11:46:05.321Z</time></trkpt><trkpt lat="42.1085288" lon="14.7047452"><ele>174.0</ele><time>2026-04-26T11:46:06.321Z</time></trkpt><trkpt lat="42.108507" lon="14.7046426"><ele>174.0</ele><time>2026-04-26T11:46:07.322Z</time></trkpt><trkpt lat="42.1084891" lon="14.7045305"><ele>174.0</ele><time>2026-04-26T11:46:08.321Z</time></trkpt><trkpt lat="42.1084731" lon="14.7044136"><ele>174.0</ele><time>2026-04-26T11:46:09.32Z</time></trkpt><trkpt lat="42.1084598" lon="14.704304"><ele>174.0</ele><time>2026-04-26T11:46:10.321Z</time></trkpt><trkpt lat="42.1084481" lon="14.7042074"><ele>174.0</ele><time>2026-04-26T11:46:11.322Z</time></trkpt><trkpt lat="42.1084321" lon="14.7041163"><ele>174.0</ele><time>2026-04-26T11:46:12.32Z</time></trkpt><trkpt lat="42.1084135" lon="14.7040226"><ele>174.0</ele><time>2026-04-26T11:46:13.321Z</time></trkpt><trkpt lat="42.1083902" lon="14.7039366"><ele>174.0</ele><time>2026-04-26T11:46:14.321Z</time></trkpt><trkpt lat="42.1083565" lon="14.7038583"><ele>174.0</ele><time>2026-04-26T11:46:15.321Z</time></trkpt><trkpt lat="42.1083007" lon="14.7037903"><ele>174.0</ele><time>2026-04-26T11:46:16.321Z</time></trkpt><trkpt lat="42.1082244" lon="14.7037375"><ele>174.0</ele><time>2026-04-26T11:46:17.322Z</time></trkpt><trkpt lat="42.1081285" lon="14.7036886"><ele>174.0</ele><time>2026-04-26T11:46:18.321Z</time></trkpt><trkpt lat="42.1080221" lon="14.7036332"><ele>174.0</ele><time>2026-04-26T11:46:19.32Z</time></trkpt><trkpt lat="42.1079105" lon="14.7035851"><ele>172.0</ele><time>2026-04-26T11:46:20.321Z</time></trkpt><trkpt lat="42.1077984" lon="14.7035422"><ele>170.0</ele><time>2026-04-26T11:46:21.321Z</time></trkpt><trkpt lat="42.1076845" lon="14.7035037"><ele>168.0</ele><time>2026-04-26T11:46:22.321Z</time></trkpt><trkpt lat="42.1075781" lon="14.7034734"><ele>166.0</ele><time>2026-04-26T11:46:23.321Z</time></trkpt><trkpt lat="42.1074744" lon="14.7034475"><ele>164.0</ele><time>2026-04-26T11:46:24.322Z</time></trkpt><trkpt lat="42.1073851" lon="14.7034234"><ele>164.0</ele><time>2026-04-26T11:46:25.322Z</time></trkpt><trkpt lat="42.1073127" lon="14.7034044"><ele>164.0</ele><time>2026-04-26T11:46:26.321Z</time></trkpt><trkpt lat="42.1072215" lon="14.7033579"><ele>164.0</ele><time>2026-04-26T11:46:28.32Z</time></trkpt><trkpt lat="42.1072027" lon="14.7032731"><ele>164.0</ele><time>2026-04-26T11:46:30.321Z</time></trkpt><trkpt lat="42.1072547" lon="14.7031773"><ele>164.0</ele><time>2026-04-26T11:46:32.321Z</time></trkpt><trkpt lat="42.1073741" lon="14.7031351"><ele>164.0</ele><time>2026-04-26T11:46:34.321Z</time></trkpt><trkpt lat="42.1074502" lon="14.7031291"><ele>164.0</ele><time>2026-04-26T11:46:35.32Z</time></trkpt><trkpt lat="42.1075347" lon="14.7031188"><ele>164.0</ele><time>2026-04-26T11:46:36.32Z</time></trkpt><trkpt lat="42.1076207" lon="14.703107"><ele>164.0</ele><time>2026-04-26T11:46:37.321Z</time></trkpt><trkpt lat="42.1076981" lon="14.7030923"><ele>164.0</ele><time>2026-04-26T11:46:38.321Z</time></trkpt><trkpt lat="42.1077622" lon="14.7030692"><ele>164.0</ele><time>2026-04-26T11:46:39.321Z</time></trkpt><trkpt lat="42.1078528" lon="14.7029873"><ele>164.0</ele><time>2026-04-26T11:46:41.322Z</time></trkpt><trkpt lat="42.1078733" lon="14.7028316"><ele>162.6</ele><time>2026-04-26T11:46:43.321Z</time></trkpt><trkpt lat="42.1078146" lon="14.7026757"><ele>161.2</ele><time>2026-04-26T11:46:45.32Z</time></trkpt><trkpt lat="42.1077608" lon="14.7025905"><ele>159.79999999999998</ele><time>2026-04-26T11:46:46.32Z</time></trkpt><trkpt lat="42.1077062" lon="14.7024904"><ele>158.39999999999998</ele><time>2026-04-26T11:46:47.321Z</time></trkpt><trkpt lat="42.1076487" lon="14.7023847"><ele>157.0</ele><time>2026-04-26T11:46:48.321Z</time></trkpt><trkpt lat="42.1075836" lon="14.702279"><ele>157.0</ele><time>2026-04-26T11:46:49.322Z</time></trkpt><trkpt lat="42.1075056" lon="14.7021768"><ele>157.0</ele><time>2026-04-26T11:46:50.321Z</time></trkpt><trkpt lat="42.1074062" lon="14.70207"><ele>157.0</ele><time>2026-04-26T11:46:51.32Z</time></trkpt><trkpt lat="42.1073159" lon="14.7019653"><ele>157.0</ele><time>2026-04-26T11:46:52.321Z</time></trkpt><trkpt lat="42.1072382" lon="14.7018709"><ele>156.83333333333334</ele><time>2026-04-26T11:46:53.32Z</time></trkpt><trkpt lat="42.1071717" lon="14.7017775"><ele>156.66666666666669</ele><time>2026-04-26T11:46:54.321Z</time></trkpt><trkpt lat="42.1071188" lon="14.7016868"><ele>156.5</ele><time>2026-04-26T11:46:55.322Z</time></trkpt><trkpt lat="42.1070733" lon="14.7016056"><ele>156.33333333333334</ele><time>2026-04-26T11:46:56.322Z</time></trkpt><trkpt lat="42.1070193" lon="14.7015506"><ele>156.16666666666666</ele><time>2026-04-26T11:46:57.32Z</time></trkpt><trkpt lat="42.1069563" lon="14.7015238"><ele>156.0</ele><time>2026-04-26T11:46:58.32Z</time></trkpt><trkpt lat="42.1068847" lon="14.7015136"><ele>156.0</ele><time>2026-04-26T11:46:59.321Z</time></trkpt><trkpt lat="42.1068062" lon="14.7014933"><ele>156.0</ele><time>2026-04-26T11:47:00.321Z</time></trkpt><trkpt lat="42.1067188" lon="14.7014497"><ele>156.0</ele><time>2026-04-26T11:47:01.321Z</time></trkpt><trkpt lat="42.1066249" lon="14.7013915"><ele>156.0</ele><time>2026-04-26T11:47:02.321Z</time></trkpt><trkpt lat="42.1065236" lon="14.7013316"><ele>156.0</ele><time>2026-04-26T11:47:03.321Z</time></trkpt><trkpt lat="42.1064175" lon="14.7012717"><ele>156.25</ele><time>2026-04-26T11:47:04.322Z</time></trkpt><trkpt lat="42.1063066" lon="14.7012087"><ele>156.5</ele><time>2026-04-26T11:47:05.321Z</time></trkpt><trkpt lat="42.1061939" lon="14.7011466"><ele>156.75</ele><time>2026-04-26T11:47:06.321Z</time></trkpt><trkpt lat="42.1060802" lon="14.701084"><ele>157.0</ele><time>2026-04-26T11:47:07.32Z</time></trkpt><trkpt lat="42.1059675" lon="14.701021"><ele>157.0</ele><time>2026-04-26T11:47:08.321Z</time></trkpt><trkpt lat="42.10586" lon="14.7009591"><ele>157.0</ele><time>2026-04-26T11:47:09.322Z</time></trkpt><trkpt lat="42.1057628" lon="14.7009021"><ele>157.0</ele><time>2026-04-26T11:47:10.321Z</time></trkpt><trkpt lat="42.1056795" lon="14.7008558"><ele>157.0</ele><time>2026-04-26T11:47:11.321Z</time></trkpt><trkpt lat="42.105614" lon="14.7008157"><ele>157.0</ele><time>2026-04-26T11:47:12.321Z</time></trkpt><trkpt lat="42.1055177" lon="14.7007502"><ele>157.16666666666669</ele><time>2026-04-26T11:47:14.321Z</time></trkpt><trkpt lat="42.1054766" lon="14.7006279"><ele>157.33333333333334</ele><time>2026-04-26T11:47:16.32Z</time></trkpt><trkpt lat="42.1055" lon="14.700471"><ele>157.5</ele><time>2026-04-26T11:47:18.321Z</time></trkpt><trkpt lat="42.1055259" lon="14.7003831"><ele>157.66666666666666</ele><time>2026-04-26T11:47:19.32Z</time></trkpt><trkpt lat="42.1055576" lon="14.7002841"><ele>157.83333333333331</ele><time>2026-04-26T11:47:20.32Z</time></trkpt><trkpt lat="42.1055862" lon="14.7001845"><ele>158.0</ele><time>2026-04-26T11:47:21.321Z</time></trkpt><trkpt lat="42.1056146" lon="14.7000861"><ele>158.5</ele><time>2026-04-26T11:47:22.32Z</time></trkpt><trkpt lat="42.105645" lon="14.6999903"><ele>159.0</ele><time>2026-04-26T11:47:23.32Z</time></trkpt><trkpt lat="42.1056731" lon="14.6998954"><ele>159.5</ele><time>2026-04-26T11:47:24.321Z</time></trkpt><trkpt lat="42.1056961" lon="14.6998047"><ele>160.0</ele><time>2026-04-26T11:47:25.32Z</time></trkpt><trkpt lat="42.1057236" lon="14.6997198"><ele>160.5</ele><time>2026-04-26T11:47:26.321Z</time></trkpt><trkpt lat="42.1057689" lon="14.6995703"><ele>161.0</ele><time>2026-04-26T11:47:28.321Z</time></trkpt><trkpt lat="42.1057502" lon="14.6994379"><ele>163.0</ele><time>2026-04-26T11:47:30.321Z</time></trkpt><trkpt lat="42.1056533" lon="14.6993782"><ele>165.0</ele><time>2026-04-26T11:47:32.32Z</time></trkpt><trkpt lat="42.10559" lon="14.69935"><ele>167.0</ele><time>2026-04-26T11:47:33.321Z</time></trkpt><trkpt lat="42.105528" lon="14.6993225"><ele>169.0</ele><time>2026-04-26T11:47:34.32Z</time></trkpt><trkpt lat="42.1054428" lon="14.6993122"><ele>171.0</ele><time>2026-04-26T11:47:36.32Z</time></trkpt><trkpt lat="42.1053752" lon="14.6993719"><ele>173.0</ele><time>2026-04-26T11:47:39.32Z</time></trkpt><trkpt lat="42.1052889" lon="14.6993436"><ele>173.0</ele><time>2026-04-26T11:47:47.32Z</time></trkpt></trkseg></trk></gpx>